<?xml version="1.0" encoding="utf-8"?>
<gpx xmlns:xsi="http://www.w3.org/2001/XMLSchema-instance" xmlns:xsd="http://www.w3.org/2001/XMLSchema" version="1.1" creator="Shapelink.com" xmlns="http://www.topografix.com/GPX/1/1" xmlns:gpxtpx="http://www.garmin.com/xmlschemas/TrackPointExtension/v1">
  <metadata>
    <name>Ciclismo 21.52 km, 2019-11-15</name>
    <desc></desc>
    <author><name>Peter Littke</name></author> 
    <time>2019-11-15T15:50:32Z</time>
  </metadata>
  <trk>
    <name>Ciclismo 21.52 km, 2019-11-15</name>
    <trkseg>
      <trkpt lat="59.173424" lon="18.143302">
        <ele>0</ele>
        <time>2019-11-15T15:50:32Z</time>
      </trkpt>
      <trkpt lat="59.173441" lon="18.14334">
        <ele>66</ele>
        <time>2019-11-15T15:50:38Z</time>
      </trkpt>
      <trkpt lat="59.17346" lon="18.143351">
        <ele>66</ele>
        <time>2019-11-15T15:50:42Z</time>
      </trkpt>
      <trkpt lat="59.173479" lon="18.143356">
        <ele>66</ele>
        <time>2019-11-15T15:50:43Z</time>
      </trkpt>
      <trkpt lat="59.173505" lon="18.143363">
        <ele>66</ele>
        <time>2019-11-15T15:50:44Z</time>
      </trkpt>
      <trkpt lat="59.173536" lon="18.143376">
        <ele>65</ele>
        <time>2019-11-15T15:50:45Z</time>
      </trkpt>
      <trkpt lat="59.173567" lon="18.143389">
        <ele>65</ele>
        <time>2019-11-15T15:50:46Z</time>
      </trkpt>
      <trkpt lat="59.1736" lon="18.143401">
        <ele>65</ele>
        <time>2019-11-15T15:50:47Z</time>
      </trkpt>
      <trkpt lat="59.173634" lon="18.143411">
        <ele>66</ele>
        <time>2019-11-15T15:50:48Z</time>
      </trkpt>
      <trkpt lat="59.173666" lon="18.143425">
        <ele>66</ele>
        <time>2019-11-15T15:50:49Z</time>
      </trkpt>
      <trkpt lat="59.173698" lon="18.143441">
        <ele>66</ele>
        <time>2019-11-15T15:50:50Z</time>
      </trkpt>
      <trkpt lat="59.173725" lon="18.143455">
        <ele>65</ele>
        <time>2019-11-15T15:50:51Z</time>
      </trkpt>
      <trkpt lat="59.173743" lon="18.14346">
        <ele>65</ele>
        <time>2019-11-15T15:50:52Z</time>
      </trkpt>
      <trkpt lat="59.173772" lon="18.143422">
        <ele>64</ele>
        <time>2019-11-15T15:50:53Z</time>
      </trkpt>
      <trkpt lat="59.173804" lon="18.143345">
        <ele>63</ele>
        <time>2019-11-15T15:50:54Z</time>
      </trkpt>
      <trkpt lat="59.173837" lon="18.143261">
        <ele>63</ele>
        <time>2019-11-15T15:50:55Z</time>
      </trkpt>
      <trkpt lat="59.173858" lon="18.143183">
        <ele>63</ele>
        <time>2019-11-15T15:50:56Z</time>
      </trkpt>
      <trkpt lat="59.173874" lon="18.143102">
        <ele>63</ele>
        <time>2019-11-15T15:50:57Z</time>
      </trkpt>
      <trkpt lat="59.173902" lon="18.143023">
        <ele>62</ele>
        <time>2019-11-15T15:50:58Z</time>
      </trkpt>
      <trkpt lat="59.173925" lon="18.142954">
        <ele>62</ele>
        <time>2019-11-15T15:50:59Z</time>
      </trkpt>
      <trkpt lat="59.173949" lon="18.142904">
        <ele>62</ele>
        <time>2019-11-15T15:51:00Z</time>
      </trkpt>
      <trkpt lat="59.173976" lon="18.142877">
        <ele>62</ele>
        <time>2019-11-15T15:51:01Z</time>
      </trkpt>
      <trkpt lat="59.174012" lon="18.142847">
        <ele>62</ele>
        <time>2019-11-15T15:51:02Z</time>
      </trkpt>
      <trkpt lat="59.174052" lon="18.142812">
        <ele>62</ele>
        <time>2019-11-15T15:51:03Z</time>
      </trkpt>
      <trkpt lat="59.174088" lon="18.142785">
        <ele>63</ele>
        <time>2019-11-15T15:51:04Z</time>
      </trkpt>
      <trkpt lat="59.174129" lon="18.142785">
        <ele>63</ele>
        <time>2019-11-15T15:51:05Z</time>
      </trkpt>
      <trkpt lat="59.174175" lon="18.142802">
        <ele>62</ele>
        <time>2019-11-15T15:51:06Z</time>
      </trkpt>
      <trkpt lat="59.174228" lon="18.14282">
        <ele>62</ele>
        <time>2019-11-15T15:51:07Z</time>
      </trkpt>
      <trkpt lat="59.174283" lon="18.142841">
        <ele>62</ele>
        <time>2019-11-15T15:51:08Z</time>
      </trkpt>
      <trkpt lat="59.17434" lon="18.142866">
        <ele>61</ele>
        <time>2019-11-15T15:51:09Z</time>
      </trkpt>
      <trkpt lat="59.174395" lon="18.14289">
        <ele>60</ele>
        <time>2019-11-15T15:51:10Z</time>
      </trkpt>
      <trkpt lat="59.174447" lon="18.142919">
        <ele>59</ele>
        <time>2019-11-15T15:51:11Z</time>
      </trkpt>
      <trkpt lat="59.174497" lon="18.142945">
        <ele>58</ele>
        <time>2019-11-15T15:51:12Z</time>
      </trkpt>
      <trkpt lat="59.174544" lon="18.142958">
        <ele>57</ele>
        <time>2019-11-15T15:51:13Z</time>
      </trkpt>
      <trkpt lat="59.174588" lon="18.142959">
        <ele>57</ele>
        <time>2019-11-15T15:51:14Z</time>
      </trkpt>
      <trkpt lat="59.174636" lon="18.142938">
        <ele>56</ele>
        <time>2019-11-15T15:51:15Z</time>
      </trkpt>
      <trkpt lat="59.174675" lon="18.142885">
        <ele>0</ele>
        <time>2019-11-15T15:51:15Z</time>
      </trkpt>
      <trkpt lat="59.174705" lon="18.142814">
        <ele>55</ele>
        <time>2019-11-15T15:51:16Z</time>
      </trkpt>
      <trkpt lat="59.174741" lon="18.142753">
        <ele>53</ele>
        <time>2019-11-15T15:51:18Z</time>
      </trkpt>
      <trkpt lat="59.174782" lon="18.142714">
        <ele>52</ele>
        <time>2019-11-15T15:51:19Z</time>
      </trkpt>
      <trkpt lat="59.174824" lon="18.142692">
        <ele>52</ele>
        <time>2019-11-15T15:51:20Z</time>
      </trkpt>
      <trkpt lat="59.174868" lon="18.142674">
        <ele>51</ele>
        <time>2019-11-15T15:51:21Z</time>
      </trkpt>
      <trkpt lat="59.174912" lon="18.142656">
        <ele>51</ele>
        <time>2019-11-15T15:51:22Z</time>
      </trkpt>
      <trkpt lat="59.174957" lon="18.142635">
        <ele>50</ele>
        <time>2019-11-15T15:51:23Z</time>
      </trkpt>
      <trkpt lat="59.175003" lon="18.142614">
        <ele>50</ele>
        <time>2019-11-15T15:51:24Z</time>
      </trkpt>
      <trkpt lat="59.175046" lon="18.142587">
        <ele>50</ele>
        <time>2019-11-15T15:51:25Z</time>
      </trkpt>
      <trkpt lat="59.175086" lon="18.142557">
        <ele>50</ele>
        <time>2019-11-15T15:51:26Z</time>
      </trkpt>
      <trkpt lat="59.175122" lon="18.142526">
        <ele>50</ele>
        <time>2019-11-15T15:51:27Z</time>
      </trkpt>
      <trkpt lat="59.175144" lon="18.142502">
        <ele>49</ele>
        <time>2019-11-15T15:51:28Z</time>
      </trkpt>
      <trkpt lat="59.175166" lon="18.142472">
        <ele>49</ele>
        <time>2019-11-15T15:51:29Z</time>
      </trkpt>
      <trkpt lat="59.175191" lon="18.14244">
        <ele>49</ele>
        <time>2019-11-15T15:51:30Z</time>
      </trkpt>
      <trkpt lat="59.175214" lon="18.142405">
        <ele>48</ele>
        <time>2019-11-15T15:51:31Z</time>
      </trkpt>
      <trkpt lat="59.17524" lon="18.142345">
        <ele>48</ele>
        <time>2019-11-15T15:51:32Z</time>
      </trkpt>
      <trkpt lat="59.17526" lon="18.142285">
        <ele>47</ele>
        <time>2019-11-15T15:51:33Z</time>
      </trkpt>
      <trkpt lat="59.17528" lon="18.14221">
        <ele>46</ele>
        <time>2019-11-15T15:51:34Z</time>
      </trkpt>
      <trkpt lat="59.175303" lon="18.142115">
        <ele>46</ele>
        <time>2019-11-15T15:51:35Z</time>
      </trkpt>
      <trkpt lat="59.175321" lon="18.142026">
        <ele>46</ele>
        <time>2019-11-15T15:51:36Z</time>
      </trkpt>
      <trkpt lat="59.175334" lon="18.141961">
        <ele>45</ele>
        <time>2019-11-15T15:51:37Z</time>
      </trkpt>
      <trkpt lat="59.17535" lon="18.141906">
        <ele>45</ele>
        <time>2019-11-15T15:51:38Z</time>
      </trkpt>
      <trkpt lat="59.175368" lon="18.141852">
        <ele>45</ele>
        <time>2019-11-15T15:51:39Z</time>
      </trkpt>
      <trkpt lat="59.175385" lon="18.141804">
        <ele>45</ele>
        <time>2019-11-15T15:51:40Z</time>
      </trkpt>
      <trkpt lat="59.175397" lon="18.141764">
        <ele>45</ele>
        <time>2019-11-15T15:51:41Z</time>
      </trkpt>
      <trkpt lat="59.175409" lon="18.141731">
        <ele>45</ele>
        <time>2019-11-15T15:51:42Z</time>
      </trkpt>
      <trkpt lat="59.175421" lon="18.141701">
        <ele>45</ele>
        <time>2019-11-15T15:51:43Z</time>
      </trkpt>
      <trkpt lat="59.175432" lon="18.14167">
        <ele>44</ele>
        <time>2019-11-15T15:51:44Z</time>
      </trkpt>
      <trkpt lat="59.175439" lon="18.141636">
        <ele>44</ele>
        <time>2019-11-15T15:51:45Z</time>
      </trkpt>
      <trkpt lat="59.175452" lon="18.141596">
        <ele>44</ele>
        <time>2019-11-15T15:51:47Z</time>
      </trkpt>
      <trkpt lat="59.175449" lon="18.141601">
        <ele>0</ele>
        <time>2019-11-15T15:51:50Z</time>
      </trkpt>
      <trkpt lat="59.175507" lon="18.141501">
        <ele>44</ele>
        <time>2019-11-15T15:52:02Z</time>
      </trkpt>
      <trkpt lat="59.175532" lon="18.141444">
        <ele>44</ele>
        <time>2019-11-15T15:52:03Z</time>
      </trkpt>
      <trkpt lat="59.175559" lon="18.141382">
        <ele>43</ele>
        <time>2019-11-15T15:52:04Z</time>
      </trkpt>
      <trkpt lat="59.175593" lon="18.141325">
        <ele>43</ele>
        <time>2019-11-15T15:52:05Z</time>
      </trkpt>
      <trkpt lat="59.175634" lon="18.141281">
        <ele>43</ele>
        <time>2019-11-15T15:52:06Z</time>
      </trkpt>
      <trkpt lat="59.175683" lon="18.141247">
        <ele>43</ele>
        <time>2019-11-15T15:52:07Z</time>
      </trkpt>
      <trkpt lat="59.175731" lon="18.141231">
        <ele>43</ele>
        <time>2019-11-15T15:52:08Z</time>
      </trkpt>
      <trkpt lat="59.175779" lon="18.141233">
        <ele>42</ele>
        <time>2019-11-15T15:52:09Z</time>
      </trkpt>
      <trkpt lat="59.17583" lon="18.141247">
        <ele>42</ele>
        <time>2019-11-15T15:52:10Z</time>
      </trkpt>
      <trkpt lat="59.175878" lon="18.14126">
        <ele>42</ele>
        <time>2019-11-15T15:52:11Z</time>
      </trkpt>
      <trkpt lat="59.175925" lon="18.141276">
        <ele>42</ele>
        <time>2019-11-15T15:52:12Z</time>
      </trkpt>
      <trkpt lat="59.175965" lon="18.14131">
        <ele>42</ele>
        <time>2019-11-15T15:52:13Z</time>
      </trkpt>
      <trkpt lat="59.175993" lon="18.14137">
        <ele>42</ele>
        <time>2019-11-15T15:52:14Z</time>
      </trkpt>
      <trkpt lat="59.17601" lon="18.141445">
        <ele>42</ele>
        <time>2019-11-15T15:52:15Z</time>
      </trkpt>
      <trkpt lat="59.176026" lon="18.141519">
        <ele>42</ele>
        <time>2019-11-15T15:52:16Z</time>
      </trkpt>
      <trkpt lat="59.17604" lon="18.141581">
        <ele>42</ele>
        <time>2019-11-15T15:52:17Z</time>
      </trkpt>
      <trkpt lat="59.176055" lon="18.141643">
        <ele>42</ele>
        <time>2019-11-15T15:52:18Z</time>
      </trkpt>
      <trkpt lat="59.176069" lon="18.141715">
        <ele>42</ele>
        <time>2019-11-15T15:52:19Z</time>
      </trkpt>
      <trkpt lat="59.176083" lon="18.141796">
        <ele>42</ele>
        <time>2019-11-15T15:52:20Z</time>
      </trkpt>
      <trkpt lat="59.176093" lon="18.141882">
        <ele>42</ele>
        <time>2019-11-15T15:52:21Z</time>
      </trkpt>
      <trkpt lat="59.176103" lon="18.14197">
        <ele>42</ele>
        <time>2019-11-15T15:52:22Z</time>
      </trkpt>
      <trkpt lat="59.176114" lon="18.142059">
        <ele>42</ele>
        <time>2019-11-15T15:52:23Z</time>
      </trkpt>
      <trkpt lat="59.176129" lon="18.142147">
        <ele>41</ele>
        <time>2019-11-15T15:52:24Z</time>
      </trkpt>
      <trkpt lat="59.176152" lon="18.142232">
        <ele>41</ele>
        <time>2019-11-15T15:52:25Z</time>
      </trkpt>
      <trkpt lat="59.176181" lon="18.142313">
        <ele>41</ele>
        <time>2019-11-15T15:52:26Z</time>
      </trkpt>
      <trkpt lat="59.176222" lon="18.142386">
        <ele>41</ele>
        <time>2019-11-15T15:52:27Z</time>
      </trkpt>
      <trkpt lat="59.176271" lon="18.142445">
        <ele>41</ele>
        <time>2019-11-15T15:52:28Z</time>
      </trkpt>
      <trkpt lat="59.176325" lon="18.142493">
        <ele>41</ele>
        <time>2019-11-15T15:52:29Z</time>
      </trkpt>
      <trkpt lat="59.17638" lon="18.142532">
        <ele>40</ele>
        <time>2019-11-15T15:52:30Z</time>
      </trkpt>
      <trkpt lat="59.176437" lon="18.142568">
        <ele>40</ele>
        <time>2019-11-15T15:52:31Z</time>
      </trkpt>
      <trkpt lat="59.176494" lon="18.142602">
        <ele>40</ele>
        <time>2019-11-15T15:52:32Z</time>
      </trkpt>
      <trkpt lat="59.176553" lon="18.14263">
        <ele>40</ele>
        <time>2019-11-15T15:52:33Z</time>
      </trkpt>
      <trkpt lat="59.176612" lon="18.142658">
        <ele>40</ele>
        <time>2019-11-15T15:52:34Z</time>
      </trkpt>
      <trkpt lat="59.176671" lon="18.142684">
        <ele>40</ele>
        <time>2019-11-15T15:52:35Z</time>
      </trkpt>
      <trkpt lat="59.176731" lon="18.14271">
        <ele>39</ele>
        <time>2019-11-15T15:52:36Z</time>
      </trkpt>
      <trkpt lat="59.176787" lon="18.142729">
        <ele>39</ele>
        <time>2019-11-15T15:52:37Z</time>
      </trkpt>
      <trkpt lat="59.176846" lon="18.14275">
        <ele>39</ele>
        <time>2019-11-15T15:52:38Z</time>
      </trkpt>
      <trkpt lat="59.176904" lon="18.142763">
        <ele>39</ele>
        <time>2019-11-15T15:52:39Z</time>
      </trkpt>
      <trkpt lat="59.176962" lon="18.142779">
        <ele>38</ele>
        <time>2019-11-15T15:52:40Z</time>
      </trkpt>
      <trkpt lat="59.177028" lon="18.142793">
        <ele>38</ele>
        <time>2019-11-15T15:52:41Z</time>
      </trkpt>
      <trkpt lat="59.1771" lon="18.142804">
        <ele>37</ele>
        <time>2019-11-15T15:52:42Z</time>
      </trkpt>
      <trkpt lat="59.177171" lon="18.142801">
        <ele>37</ele>
        <time>2019-11-15T15:52:43Z</time>
      </trkpt>
      <trkpt lat="59.177243" lon="18.142798">
        <ele>37</ele>
        <time>2019-11-15T15:52:44Z</time>
      </trkpt>
      <trkpt lat="59.177316" lon="18.142788">
        <ele>36</ele>
        <time>2019-11-15T15:52:45Z</time>
      </trkpt>
      <trkpt lat="59.177391" lon="18.142779">
        <ele>36</ele>
        <time>2019-11-15T15:52:46Z</time>
      </trkpt>
      <trkpt lat="59.177469" lon="18.142777">
        <ele>36</ele>
        <time>2019-11-15T15:52:47Z</time>
      </trkpt>
      <trkpt lat="59.177547" lon="18.142771">
        <ele>35</ele>
        <time>2019-11-15T15:52:48Z</time>
      </trkpt>
      <trkpt lat="59.177625" lon="18.142758">
        <ele>35</ele>
        <time>2019-11-15T15:52:49Z</time>
      </trkpt>
      <trkpt lat="59.1777" lon="18.14274">
        <ele>35</ele>
        <time>2019-11-15T15:52:50Z</time>
      </trkpt>
      <trkpt lat="59.177775" lon="18.14272">
        <ele>35</ele>
        <time>2019-11-15T15:52:51Z</time>
      </trkpt>
      <trkpt lat="59.177846" lon="18.1427">
        <ele>35</ele>
        <time>2019-11-15T15:52:52Z</time>
      </trkpt>
      <trkpt lat="59.177913" lon="18.142683">
        <ele>35</ele>
        <time>2019-11-15T15:52:53Z</time>
      </trkpt>
      <trkpt lat="59.17798" lon="18.142676">
        <ele>34</ele>
        <time>2019-11-15T15:52:54Z</time>
      </trkpt>
      <trkpt lat="59.178044" lon="18.142685">
        <ele>34</ele>
        <time>2019-11-15T15:52:55Z</time>
      </trkpt>
      <trkpt lat="59.178111" lon="18.142712">
        <ele>34</ele>
        <time>2019-11-15T15:52:56Z</time>
      </trkpt>
      <trkpt lat="59.178181" lon="18.14275">
        <ele>34</ele>
        <time>2019-11-15T15:52:57Z</time>
      </trkpt>
      <trkpt lat="59.17825" lon="18.142792">
        <ele>33</ele>
        <time>2019-11-15T15:52:58Z</time>
      </trkpt>
      <trkpt lat="59.178318" lon="18.142838">
        <ele>33</ele>
        <time>2019-11-15T15:52:59Z</time>
      </trkpt>
      <trkpt lat="59.178384" lon="18.142885">
        <ele>33</ele>
        <time>2019-11-15T15:53:00Z</time>
      </trkpt>
      <trkpt lat="59.178449" lon="18.142932">
        <ele>32</ele>
        <time>2019-11-15T15:53:01Z</time>
      </trkpt>
      <trkpt lat="59.178513" lon="18.142976">
        <ele>32</ele>
        <time>2019-11-15T15:53:02Z</time>
      </trkpt>
      <trkpt lat="59.178577" lon="18.143021">
        <ele>32</ele>
        <time>2019-11-15T15:53:03Z</time>
      </trkpt>
      <trkpt lat="59.17864" lon="18.143068">
        <ele>32</ele>
        <time>2019-11-15T15:53:04Z</time>
      </trkpt>
      <trkpt lat="59.178701" lon="18.143109">
        <ele>32</ele>
        <time>2019-11-15T15:53:05Z</time>
      </trkpt>
      <trkpt lat="59.178759" lon="18.143144">
        <ele>32</ele>
        <time>2019-11-15T15:53:06Z</time>
      </trkpt>
      <trkpt lat="59.178808" lon="18.143175">
        <ele>31</ele>
        <time>2019-11-15T15:53:07Z</time>
      </trkpt>
      <trkpt lat="59.178853" lon="18.143205">
        <ele>31</ele>
        <time>2019-11-15T15:53:08Z</time>
      </trkpt>
      <trkpt lat="59.178897" lon="18.143233">
        <ele>31</ele>
        <time>2019-11-15T15:53:09Z</time>
      </trkpt>
      <trkpt lat="59.178939" lon="18.143256">
        <ele>31</ele>
        <time>2019-11-15T15:53:10Z</time>
      </trkpt>
      <trkpt lat="59.178973" lon="18.143279">
        <ele>31</ele>
        <time>2019-11-15T15:53:11Z</time>
      </trkpt>
      <trkpt lat="59.179002" lon="18.143303">
        <ele>31</ele>
        <time>2019-11-15T15:53:12Z</time>
      </trkpt>
      <trkpt lat="59.179034" lon="18.143336">
        <ele>31</ele>
        <time>2019-11-15T15:53:13Z</time>
      </trkpt>
      <trkpt lat="59.179068" lon="18.14338">
        <ele>31</ele>
        <time>2019-11-15T15:53:14Z</time>
      </trkpt>
      <trkpt lat="59.179104" lon="18.143434">
        <ele>31</ele>
        <time>2019-11-15T15:53:15Z</time>
      </trkpt>
      <trkpt lat="59.179141" lon="18.143497">
        <ele>31</ele>
        <time>2019-11-15T15:53:16Z</time>
      </trkpt>
      <trkpt lat="59.179177" lon="18.143567">
        <ele>31</ele>
        <time>2019-11-15T15:53:17Z</time>
      </trkpt>
      <trkpt lat="59.179217" lon="18.143636">
        <ele>31</ele>
        <time>2019-11-15T15:53:18Z</time>
      </trkpt>
      <trkpt lat="59.179261" lon="18.143683">
        <ele>31</ele>
        <time>2019-11-15T15:53:19Z</time>
      </trkpt>
      <trkpt lat="59.17931" lon="18.143701">
        <ele>31</ele>
        <time>2019-11-15T15:53:20Z</time>
      </trkpt>
      <trkpt lat="59.179368" lon="18.143698">
        <ele>31</ele>
        <time>2019-11-15T15:53:21Z</time>
      </trkpt>
      <trkpt lat="59.179428" lon="18.143683">
        <ele>31</ele>
        <time>2019-11-15T15:53:22Z</time>
      </trkpt>
      <trkpt lat="59.179488" lon="18.143669">
        <ele>31</ele>
        <time>2019-11-15T15:53:23Z</time>
      </trkpt>
      <trkpt lat="59.179549" lon="18.143656">
        <ele>31</ele>
        <time>2019-11-15T15:53:24Z</time>
      </trkpt>
      <trkpt lat="59.179609" lon="18.143652">
        <ele>31</ele>
        <time>2019-11-15T15:53:25Z</time>
      </trkpt>
      <trkpt lat="59.179669" lon="18.143668">
        <ele>31</ele>
        <time>2019-11-15T15:53:26Z</time>
      </trkpt>
      <trkpt lat="59.179727" lon="18.143706">
        <ele>31</ele>
        <time>2019-11-15T15:53:27Z</time>
      </trkpt>
      <trkpt lat="59.179785" lon="18.143751">
        <ele>31</ele>
        <time>2019-11-15T15:53:28Z</time>
      </trkpt>
      <trkpt lat="59.179843" lon="18.143794">
        <ele>31</ele>
        <time>2019-11-15T15:53:29Z</time>
      </trkpt>
      <trkpt lat="59.179902" lon="18.143839">
        <ele>31</ele>
        <time>2019-11-15T15:53:30Z</time>
      </trkpt>
      <trkpt lat="59.179961" lon="18.143891">
        <ele>32</ele>
        <time>2019-11-15T15:53:31Z</time>
      </trkpt>
      <trkpt lat="59.180019" lon="18.143949">
        <ele>32</ele>
        <time>2019-11-15T15:53:32Z</time>
      </trkpt>
      <trkpt lat="59.180074" lon="18.14401">
        <ele>32</ele>
        <time>2019-11-15T15:53:33Z</time>
      </trkpt>
      <trkpt lat="59.180129" lon="18.144071">
        <ele>32</ele>
        <time>2019-11-15T15:53:34Z</time>
      </trkpt>
      <trkpt lat="59.180183" lon="18.144136">
        <ele>32</ele>
        <time>2019-11-15T15:53:35Z</time>
      </trkpt>
      <trkpt lat="59.180237" lon="18.144198">
        <ele>0</ele>
        <time>2019-11-15T15:53:35Z</time>
      </trkpt>
      <trkpt lat="59.18029" lon="18.144259">
        <ele>32</ele>
        <time>2019-11-15T15:53:36Z</time>
      </trkpt>
      <trkpt lat="59.180343" lon="18.144321">
        <ele>33</ele>
        <time>2019-11-15T15:53:38Z</time>
      </trkpt>
      <trkpt lat="59.180398" lon="18.144385">
        <ele>33</ele>
        <time>2019-11-15T15:53:39Z</time>
      </trkpt>
      <trkpt lat="59.180448" lon="18.144447">
        <ele>33</ele>
        <time>2019-11-15T15:53:40Z</time>
      </trkpt>
      <trkpt lat="59.180503" lon="18.144517">
        <ele>33</ele>
        <time>2019-11-15T15:53:41Z</time>
      </trkpt>
      <trkpt lat="59.180555" lon="18.144589">
        <ele>33</ele>
        <time>2019-11-15T15:53:42Z</time>
      </trkpt>
      <trkpt lat="59.180599" lon="18.144666">
        <ele>33</ele>
        <time>2019-11-15T15:53:43Z</time>
      </trkpt>
      <trkpt lat="59.180644" lon="18.144739">
        <ele>33</ele>
        <time>2019-11-15T15:53:44Z</time>
      </trkpt>
      <trkpt lat="59.180693" lon="18.144803">
        <ele>33</ele>
        <time>2019-11-15T15:53:45Z</time>
      </trkpt>
      <trkpt lat="59.180745" lon="18.14486">
        <ele>33</ele>
        <time>2019-11-15T15:53:46Z</time>
      </trkpt>
      <trkpt lat="59.180796" lon="18.144914">
        <ele>33</ele>
        <time>2019-11-15T15:53:47Z</time>
      </trkpt>
      <trkpt lat="59.180847" lon="18.14497">
        <ele>33</ele>
        <time>2019-11-15T15:53:48Z</time>
      </trkpt>
      <trkpt lat="59.180896" lon="18.145031">
        <ele>33</ele>
        <time>2019-11-15T15:53:49Z</time>
      </trkpt>
      <trkpt lat="59.180947" lon="18.14509">
        <ele>33</ele>
        <time>2019-11-15T15:53:50Z</time>
      </trkpt>
      <trkpt lat="59.180998" lon="18.145144">
        <ele>33</ele>
        <time>2019-11-15T15:53:51Z</time>
      </trkpt>
      <trkpt lat="59.181048" lon="18.145197">
        <ele>33</ele>
        <time>2019-11-15T15:53:52Z</time>
      </trkpt>
      <trkpt lat="59.181098" lon="18.145251">
        <ele>33</ele>
        <time>2019-11-15T15:53:53Z</time>
      </trkpt>
      <trkpt lat="59.181148" lon="18.145304">
        <ele>33</ele>
        <time>2019-11-15T15:53:54Z</time>
      </trkpt>
      <trkpt lat="59.181198" lon="18.145355">
        <ele>33</ele>
        <time>2019-11-15T15:53:55Z</time>
      </trkpt>
      <trkpt lat="59.181248" lon="18.145407">
        <ele>34</ele>
        <time>2019-11-15T15:53:56Z</time>
      </trkpt>
      <trkpt lat="59.181299" lon="18.145461">
        <ele>34</ele>
        <time>2019-11-15T15:53:57Z</time>
      </trkpt>
      <trkpt lat="59.18135" lon="18.145515">
        <ele>34</ele>
        <time>2019-11-15T15:53:58Z</time>
      </trkpt>
      <trkpt lat="59.181403" lon="18.145569">
        <ele>34</ele>
        <time>2019-11-15T15:53:59Z</time>
      </trkpt>
      <trkpt lat="59.181453" lon="18.145622">
        <ele>34</ele>
        <time>2019-11-15T15:54:00Z</time>
      </trkpt>
      <trkpt lat="59.181507" lon="18.145678">
        <ele>34</ele>
        <time>2019-11-15T15:54:01Z</time>
      </trkpt>
      <trkpt lat="59.181564" lon="18.145737">
        <ele>35</ele>
        <time>2019-11-15T15:54:02Z</time>
      </trkpt>
      <trkpt lat="59.181622" lon="18.1458">
        <ele>35</ele>
        <time>2019-11-15T15:54:03Z</time>
      </trkpt>
      <trkpt lat="59.181681" lon="18.145866">
        <ele>35</ele>
        <time>2019-11-15T15:54:04Z</time>
      </trkpt>
      <trkpt lat="59.181739" lon="18.145937">
        <ele>35</ele>
        <time>2019-11-15T15:54:05Z</time>
      </trkpt>
      <trkpt lat="59.181796" lon="18.146007">
        <ele>35</ele>
        <time>2019-11-15T15:54:06Z</time>
      </trkpt>
      <trkpt lat="59.181854" lon="18.146071">
        <ele>35</ele>
        <time>2019-11-15T15:54:07Z</time>
      </trkpt>
      <trkpt lat="59.181912" lon="18.146132">
        <ele>35</ele>
        <time>2019-11-15T15:54:08Z</time>
      </trkpt>
      <trkpt lat="59.181973" lon="18.146198">
        <ele>35</ele>
        <time>2019-11-15T15:54:09Z</time>
      </trkpt>
      <trkpt lat="59.182034" lon="18.146264">
        <ele>36</ele>
        <time>2019-11-15T15:54:10Z</time>
      </trkpt>
      <trkpt lat="59.182095" lon="18.146331">
        <ele>36</ele>
        <time>2019-11-15T15:54:11Z</time>
      </trkpt>
      <trkpt lat="59.182154" lon="18.146396">
        <ele>36</ele>
        <time>2019-11-15T15:54:12Z</time>
      </trkpt>
      <trkpt lat="59.182212" lon="18.146458">
        <ele>37</ele>
        <time>2019-11-15T15:54:13Z</time>
      </trkpt>
      <trkpt lat="59.182266" lon="18.146516">
        <ele>37</ele>
        <time>2019-11-15T15:54:14Z</time>
      </trkpt>
      <trkpt lat="59.182321" lon="18.146572">
        <ele>37</ele>
        <time>2019-11-15T15:54:15Z</time>
      </trkpt>
      <trkpt lat="59.182374" lon="18.14663">
        <ele>37</ele>
        <time>2019-11-15T15:54:16Z</time>
      </trkpt>
      <trkpt lat="59.182424" lon="18.146685">
        <ele>37</ele>
        <time>2019-11-15T15:54:17Z</time>
      </trkpt>
      <trkpt lat="59.182468" lon="18.146731">
        <ele>38</ele>
        <time>2019-11-15T15:54:18Z</time>
      </trkpt>
      <trkpt lat="59.182514" lon="18.146773">
        <ele>38</ele>
        <time>2019-11-15T15:54:19Z</time>
      </trkpt>
      <trkpt lat="59.18256" lon="18.146811">
        <ele>38</ele>
        <time>2019-11-15T15:54:20Z</time>
      </trkpt>
      <trkpt lat="59.182607" lon="18.146849">
        <ele>38</ele>
        <time>2019-11-15T15:54:21Z</time>
      </trkpt>
      <trkpt lat="59.182652" lon="18.146885">
        <ele>38</ele>
        <time>2019-11-15T15:54:22Z</time>
      </trkpt>
      <trkpt lat="59.182693" lon="18.14692">
        <ele>39</ele>
        <time>2019-11-15T15:54:23Z</time>
      </trkpt>
      <trkpt lat="59.182737" lon="18.146951">
        <ele>39</ele>
        <time>2019-11-15T15:54:24Z</time>
      </trkpt>
      <trkpt lat="59.182784" lon="18.146979">
        <ele>39</ele>
        <time>2019-11-15T15:54:25Z</time>
      </trkpt>
      <trkpt lat="59.182826" lon="18.147004">
        <ele>39</ele>
        <time>2019-11-15T15:54:26Z</time>
      </trkpt>
      <trkpt lat="59.182869" lon="18.147031">
        <ele>39</ele>
        <time>2019-11-15T15:54:27Z</time>
      </trkpt>
      <trkpt lat="59.18291" lon="18.147055">
        <ele>39</ele>
        <time>2019-11-15T15:54:28Z</time>
      </trkpt>
      <trkpt lat="59.182951" lon="18.147076">
        <ele>39</ele>
        <time>2019-11-15T15:54:29Z</time>
      </trkpt>
      <trkpt lat="59.182992" lon="18.147094">
        <ele>39</ele>
        <time>2019-11-15T15:54:30Z</time>
      </trkpt>
      <trkpt lat="59.183032" lon="18.147109">
        <ele>39</ele>
        <time>2019-11-15T15:54:31Z</time>
      </trkpt>
      <trkpt lat="59.183071" lon="18.147124">
        <ele>39</ele>
        <time>2019-11-15T15:54:32Z</time>
      </trkpt>
      <trkpt lat="59.183108" lon="18.147139">
        <ele>40</ele>
        <time>2019-11-15T15:54:33Z</time>
      </trkpt>
      <trkpt lat="59.183139" lon="18.147151">
        <ele>40</ele>
        <time>2019-11-15T15:54:34Z</time>
      </trkpt>
      <trkpt lat="59.183166" lon="18.147166">
        <ele>40</ele>
        <time>2019-11-15T15:54:35Z</time>
      </trkpt>
      <trkpt lat="59.18319" lon="18.147176">
        <ele>40</ele>
        <time>2019-11-15T15:54:36Z</time>
      </trkpt>
      <trkpt lat="59.183211" lon="18.147174">
        <ele>40</ele>
        <time>2019-11-15T15:54:40Z</time>
      </trkpt>
      <trkpt lat="59.183217" lon="18.147175">
        <ele>0</ele>
        <time>2019-11-15T15:54:47Z</time>
      </trkpt>
      <trkpt lat="59.183273" lon="18.147167">
        <ele>40</ele>
        <time>2019-11-15T15:55:17Z</time>
      </trkpt>
      <trkpt lat="59.183302" lon="18.147178">
        <ele>40</ele>
        <time>2019-11-15T15:55:18Z</time>
      </trkpt>
      <trkpt lat="59.183333" lon="18.147196">
        <ele>40</ele>
        <time>2019-11-15T15:55:19Z</time>
      </trkpt>
      <trkpt lat="59.183362" lon="18.14722">
        <ele>40</ele>
        <time>2019-11-15T15:55:20Z</time>
      </trkpt>
      <trkpt lat="59.183392" lon="18.147244">
        <ele>40</ele>
        <time>2019-11-15T15:55:21Z</time>
      </trkpt>
      <trkpt lat="59.183418" lon="18.147266">
        <ele>40</ele>
        <time>2019-11-15T15:55:22Z</time>
      </trkpt>
      <trkpt lat="59.183439" lon="18.147282">
        <ele>40</ele>
        <time>2019-11-15T15:55:23Z</time>
      </trkpt>
      <trkpt lat="59.183459" lon="18.147298">
        <ele>39</ele>
        <time>2019-11-15T15:55:24Z</time>
      </trkpt>
      <trkpt lat="59.183482" lon="18.14731">
        <ele>39</ele>
        <time>2019-11-15T15:55:25Z</time>
      </trkpt>
      <trkpt lat="59.183508" lon="18.147312">
        <ele>38</ele>
        <time>2019-11-15T15:55:26Z</time>
      </trkpt>
      <trkpt lat="59.183535" lon="18.14731">
        <ele>38</ele>
        <time>2019-11-15T15:55:27Z</time>
      </trkpt>
      <trkpt lat="59.183565" lon="18.147302">
        <ele>38</ele>
        <time>2019-11-15T15:55:28Z</time>
      </trkpt>
      <trkpt lat="59.183602" lon="18.147286">
        <ele>38</ele>
        <time>2019-11-15T15:55:29Z</time>
      </trkpt>
      <trkpt lat="59.183645" lon="18.147266">
        <ele>37</ele>
        <time>2019-11-15T15:55:30Z</time>
      </trkpt>
      <trkpt lat="59.183694" lon="18.147248">
        <ele>37</ele>
        <time>2019-11-15T15:55:31Z</time>
      </trkpt>
      <trkpt lat="59.183746" lon="18.147236">
        <ele>37</ele>
        <time>2019-11-15T15:55:32Z</time>
      </trkpt>
      <trkpt lat="59.183801" lon="18.147228">
        <ele>37</ele>
        <time>2019-11-15T15:55:33Z</time>
      </trkpt>
      <trkpt lat="59.183856" lon="18.147224">
        <ele>36</ele>
        <time>2019-11-15T15:55:34Z</time>
      </trkpt>
      <trkpt lat="59.183911" lon="18.147218">
        <ele>36</ele>
        <time>2019-11-15T15:55:35Z</time>
      </trkpt>
      <trkpt lat="59.183969" lon="18.14721">
        <ele>35</ele>
        <time>2019-11-15T15:55:36Z</time>
      </trkpt>
      <trkpt lat="59.184029" lon="18.1472">
        <ele>35</ele>
        <time>2019-11-15T15:55:37Z</time>
      </trkpt>
      <trkpt lat="59.184094" lon="18.147188">
        <ele>35</ele>
        <time>2019-11-15T15:55:38Z</time>
      </trkpt>
      <trkpt lat="59.184161" lon="18.147174">
        <ele>34</ele>
        <time>2019-11-15T15:55:39Z</time>
      </trkpt>
      <trkpt lat="59.18423" lon="18.14716">
        <ele>34</ele>
        <time>2019-11-15T15:55:40Z</time>
      </trkpt>
      <trkpt lat="59.184305" lon="18.147148">
        <ele>33</ele>
        <time>2019-11-15T15:55:41Z</time>
      </trkpt>
      <trkpt lat="59.184378" lon="18.147134">
        <ele>33</ele>
        <time>2019-11-15T15:55:42Z</time>
      </trkpt>
      <trkpt lat="59.184453" lon="18.147118">
        <ele>33</ele>
        <time>2019-11-15T15:55:43Z</time>
      </trkpt>
      <trkpt lat="59.184527" lon="18.1471">
        <ele>32</ele>
        <time>2019-11-15T15:55:44Z</time>
      </trkpt>
      <trkpt lat="59.184599" lon="18.14708">
        <ele>32</ele>
        <time>2019-11-15T15:55:45Z</time>
      </trkpt>
      <trkpt lat="59.184671" lon="18.147062">
        <ele>31</ele>
        <time>2019-11-15T15:55:46Z</time>
      </trkpt>
      <trkpt lat="59.184742" lon="18.147044">
        <ele>31</ele>
        <time>2019-11-15T15:55:47Z</time>
      </trkpt>
      <trkpt lat="59.184812" lon="18.147025">
        <ele>30</ele>
        <time>2019-11-15T15:55:48Z</time>
      </trkpt>
      <trkpt lat="59.18488" lon="18.146996">
        <ele>30</ele>
        <time>2019-11-15T15:55:49Z</time>
      </trkpt>
      <trkpt lat="59.184944" lon="18.146962">
        <ele>30</ele>
        <time>2019-11-15T15:55:50Z</time>
      </trkpt>
      <trkpt lat="59.185004" lon="18.14692">
        <ele>29</ele>
        <time>2019-11-15T15:55:51Z</time>
      </trkpt>
      <trkpt lat="59.185061" lon="18.146872">
        <ele>29</ele>
        <time>2019-11-15T15:55:52Z</time>
      </trkpt>
      <trkpt lat="59.185116" lon="18.146824">
        <ele>28</ele>
        <time>2019-11-15T15:55:53Z</time>
      </trkpt>
      <trkpt lat="59.185169" lon="18.146782">
        <ele>28</ele>
        <time>2019-11-15T15:55:54Z</time>
      </trkpt>
      <trkpt lat="59.185219" lon="18.146752">
        <ele>27</ele>
        <time>2019-11-15T15:55:55Z</time>
      </trkpt>
      <trkpt lat="59.185265" lon="18.146735">
        <ele>27</ele>
        <time>2019-11-15T15:55:56Z</time>
      </trkpt>
      <trkpt lat="59.185311" lon="18.14674">
        <ele>26</ele>
        <time>2019-11-15T15:55:57Z</time>
      </trkpt>
      <trkpt lat="59.185352" lon="18.146774">
        <ele>26</ele>
        <time>2019-11-15T15:55:58Z</time>
      </trkpt>
      <trkpt lat="59.185385" lon="18.146836">
        <ele>25</ele>
        <time>2019-11-15T15:55:59Z</time>
      </trkpt>
      <trkpt lat="59.185416" lon="18.146901">
        <ele>25</ele>
        <time>2019-11-15T15:56:00Z</time>
      </trkpt>
      <trkpt lat="59.185458" lon="18.146938">
        <ele>25</ele>
        <time>2019-11-15T15:56:01Z</time>
      </trkpt>
      <trkpt lat="59.185507" lon="18.146946">
        <ele>25</ele>
        <time>2019-11-15T15:56:02Z</time>
      </trkpt>
      <trkpt lat="59.185557" lon="18.14694">
        <ele>24</ele>
        <time>2019-11-15T15:56:03Z</time>
      </trkpt>
      <trkpt lat="59.185613" lon="18.146934">
        <ele>24</ele>
        <time>2019-11-15T15:56:04Z</time>
      </trkpt>
      <trkpt lat="59.185671" lon="18.146929">
        <ele>24</ele>
        <time>2019-11-15T15:56:05Z</time>
      </trkpt>
      <trkpt lat="59.18573" lon="18.146917">
        <ele>24</ele>
        <time>2019-11-15T15:56:06Z</time>
      </trkpt>
      <trkpt lat="59.185792" lon="18.1469">
        <ele>24</ele>
        <time>2019-11-15T15:56:07Z</time>
      </trkpt>
      <trkpt lat="59.185855" lon="18.146883">
        <ele>24</ele>
        <time>2019-11-15T15:56:08Z</time>
      </trkpt>
      <trkpt lat="59.185918" lon="18.146864">
        <ele>24</ele>
        <time>2019-11-15T15:56:09Z</time>
      </trkpt>
      <trkpt lat="59.185982" lon="18.146852">
        <ele>24</ele>
        <time>2019-11-15T15:56:10Z</time>
      </trkpt>
      <trkpt lat="59.186047" lon="18.146846">
        <ele>23</ele>
        <time>2019-11-15T15:56:11Z</time>
      </trkpt>
      <trkpt lat="59.186113" lon="18.146842">
        <ele>23</ele>
        <time>2019-11-15T15:56:12Z</time>
      </trkpt>
      <trkpt lat="59.186181" lon="18.146832">
        <ele>23</ele>
        <time>2019-11-15T15:56:13Z</time>
      </trkpt>
      <trkpt lat="59.186249" lon="18.14682">
        <ele>23</ele>
        <time>2019-11-15T15:56:14Z</time>
      </trkpt>
      <trkpt lat="59.186315" lon="18.146805">
        <ele>23</ele>
        <time>2019-11-15T15:56:15Z</time>
      </trkpt>
      <trkpt lat="59.186382" lon="18.14679">
        <ele>23</ele>
        <time>2019-11-15T15:56:16Z</time>
      </trkpt>
      <trkpt lat="59.18645" lon="18.146775">
        <ele>23</ele>
        <time>2019-11-15T15:56:17Z</time>
      </trkpt>
      <trkpt lat="59.186518" lon="18.146758">
        <ele>23</ele>
        <time>2019-11-15T15:56:18Z</time>
      </trkpt>
      <trkpt lat="59.186586" lon="18.146742">
        <ele>23</ele>
        <time>2019-11-15T15:56:19Z</time>
      </trkpt>
      <trkpt lat="59.186655" lon="18.146729">
        <ele>22</ele>
        <time>2019-11-15T15:56:20Z</time>
      </trkpt>
      <trkpt lat="59.186723" lon="18.146712">
        <ele>22</ele>
        <time>2019-11-15T15:56:21Z</time>
      </trkpt>
      <trkpt lat="59.18679" lon="18.146691">
        <ele>22</ele>
        <time>2019-11-15T15:56:22Z</time>
      </trkpt>
      <trkpt lat="59.186858" lon="18.146671">
        <ele>22</ele>
        <time>2019-11-15T15:56:23Z</time>
      </trkpt>
      <trkpt lat="59.186928" lon="18.146651">
        <ele>22</ele>
        <time>2019-11-15T15:56:24Z</time>
      </trkpt>
      <trkpt lat="59.186998" lon="18.14663">
        <ele>22</ele>
        <time>2019-11-15T15:56:25Z</time>
      </trkpt>
      <trkpt lat="59.187067" lon="18.146609">
        <ele>22</ele>
        <time>2019-11-15T15:56:26Z</time>
      </trkpt>
      <trkpt lat="59.187137" lon="18.146589">
        <ele>22</ele>
        <time>2019-11-15T15:56:27Z</time>
      </trkpt>
      <trkpt lat="59.187206" lon="18.146573">
        <ele>22</ele>
        <time>2019-11-15T15:56:28Z</time>
      </trkpt>
      <trkpt lat="59.187276" lon="18.14656">
        <ele>22</ele>
        <time>2019-11-15T15:56:29Z</time>
      </trkpt>
      <trkpt lat="59.187347" lon="18.146543">
        <ele>22</ele>
        <time>2019-11-15T15:56:30Z</time>
      </trkpt>
      <trkpt lat="59.187417" lon="18.146524">
        <ele>22</ele>
        <time>2019-11-15T15:56:31Z</time>
      </trkpt>
      <trkpt lat="59.187487" lon="18.146502">
        <ele>22</ele>
        <time>2019-11-15T15:56:32Z</time>
      </trkpt>
      <trkpt lat="59.187554" lon="18.146473">
        <ele>22</ele>
        <time>2019-11-15T15:56:33Z</time>
      </trkpt>
      <trkpt lat="59.18762" lon="18.146442">
        <ele>22</ele>
        <time>2019-11-15T15:56:34Z</time>
      </trkpt>
      <trkpt lat="59.187684" lon="18.146406">
        <ele>22</ele>
        <time>2019-11-15T15:56:35Z</time>
      </trkpt>
      <trkpt lat="59.187745" lon="18.146365">
        <ele>22</ele>
        <time>2019-11-15T15:56:36Z</time>
      </trkpt>
      <trkpt lat="59.187804" lon="18.146323">
        <ele>22</ele>
        <time>2019-11-15T15:56:37Z</time>
      </trkpt>
      <trkpt lat="59.187864" lon="18.146278">
        <ele>22</ele>
        <time>2019-11-15T15:56:38Z</time>
      </trkpt>
      <trkpt lat="59.187922" lon="18.14623">
        <ele>22</ele>
        <time>2019-11-15T15:56:39Z</time>
      </trkpt>
      <trkpt lat="59.187982" lon="18.146185">
        <ele>23</ele>
        <time>2019-11-15T15:56:40Z</time>
      </trkpt>
      <trkpt lat="59.188042" lon="18.146144">
        <ele>23</ele>
        <time>2019-11-15T15:56:41Z</time>
      </trkpt>
      <trkpt lat="59.1881" lon="18.146102">
        <ele>23</ele>
        <time>2019-11-15T15:56:42Z</time>
      </trkpt>
      <trkpt lat="59.188155" lon="18.146057">
        <ele>23</ele>
        <time>2019-11-15T15:56:43Z</time>
      </trkpt>
      <trkpt lat="59.188211" lon="18.146014">
        <ele>23</ele>
        <time>2019-11-15T15:56:44Z</time>
      </trkpt>
      <trkpt lat="59.188265" lon="18.145966">
        <ele>23</ele>
        <time>2019-11-15T15:56:45Z</time>
      </trkpt>
      <trkpt lat="59.188316" lon="18.145921">
        <ele>23</ele>
        <time>2019-11-15T15:56:46Z</time>
      </trkpt>
      <trkpt lat="59.188367" lon="18.145881">
        <ele>23</ele>
        <time>2019-11-15T15:56:47Z</time>
      </trkpt>
      <trkpt lat="59.188418" lon="18.14584">
        <ele>23</ele>
        <time>2019-11-15T15:56:48Z</time>
      </trkpt>
      <trkpt lat="59.18847" lon="18.145797">
        <ele>24</ele>
        <time>2019-11-15T15:56:49Z</time>
      </trkpt>
      <trkpt lat="59.188524" lon="18.145752">
        <ele>24</ele>
        <time>2019-11-15T15:56:50Z</time>
      </trkpt>
      <trkpt lat="59.188578" lon="18.145703">
        <ele>24</ele>
        <time>2019-11-15T15:56:51Z</time>
      </trkpt>
      <trkpt lat="59.18863" lon="18.14565">
        <ele>25</ele>
        <time>2019-11-15T15:56:52Z</time>
      </trkpt>
      <trkpt lat="59.188682" lon="18.145594">
        <ele>25</ele>
        <time>2019-11-15T15:56:53Z</time>
      </trkpt>
      <trkpt lat="59.188729" lon="18.145533">
        <ele>25</ele>
        <time>2019-11-15T15:56:54Z</time>
      </trkpt>
      <trkpt lat="59.188773" lon="18.145467">
        <ele>25</ele>
        <time>2019-11-15T15:56:55Z</time>
      </trkpt>
      <trkpt lat="59.188822" lon="18.145403">
        <ele>25</ele>
        <time>2019-11-15T15:56:56Z</time>
      </trkpt>
      <trkpt lat="59.188868" lon="18.14534">
        <ele>25</ele>
        <time>2019-11-15T15:56:57Z</time>
      </trkpt>
      <trkpt lat="59.188916" lon="18.145281">
        <ele>25</ele>
        <time>2019-11-15T15:56:58Z</time>
      </trkpt>
      <trkpt lat="59.188964" lon="18.145223">
        <ele>25</ele>
        <time>2019-11-15T15:56:59Z</time>
      </trkpt>
      <trkpt lat="59.189014" lon="18.145157">
        <ele>25</ele>
        <time>2019-11-15T15:57:00Z</time>
      </trkpt>
      <trkpt lat="59.189066" lon="18.145085">
        <ele>25</ele>
        <time>2019-11-15T15:57:01Z</time>
      </trkpt>
      <trkpt lat="59.189114" lon="18.145011">
        <ele>26</ele>
        <time>2019-11-15T15:57:02Z</time>
      </trkpt>
      <trkpt lat="59.189164" lon="18.144938">
        <ele>25</ele>
        <time>2019-11-15T15:57:03Z</time>
      </trkpt>
      <trkpt lat="59.189217" lon="18.144871">
        <ele>26</ele>
        <time>2019-11-15T15:57:04Z</time>
      </trkpt>
      <trkpt lat="59.189273" lon="18.144809">
        <ele>26</ele>
        <time>2019-11-15T15:57:05Z</time>
      </trkpt>
      <trkpt lat="59.189328" lon="18.144751">
        <ele>26</ele>
        <time>2019-11-15T15:57:06Z</time>
      </trkpt>
      <trkpt lat="59.189388" lon="18.144693">
        <ele>26</ele>
        <time>2019-11-15T15:57:07Z</time>
      </trkpt>
      <trkpt lat="59.189448" lon="18.144639">
        <ele>26</ele>
        <time>2019-11-15T15:57:08Z</time>
      </trkpt>
      <trkpt lat="59.189514" lon="18.144591">
        <ele>26</ele>
        <time>2019-11-15T15:57:09Z</time>
      </trkpt>
      <trkpt lat="59.189582" lon="18.144547">
        <ele>0</ele>
        <time>2019-11-15T15:57:09Z</time>
      </trkpt>
      <trkpt lat="59.189649" lon="18.144502">
        <ele>26</ele>
        <time>2019-11-15T15:57:10Z</time>
      </trkpt>
      <trkpt lat="59.189716" lon="18.144455">
        <ele>26</ele>
        <time>2019-11-15T15:57:12Z</time>
      </trkpt>
      <trkpt lat="59.18978" lon="18.144408">
        <ele>26</ele>
        <time>2019-11-15T15:57:13Z</time>
      </trkpt>
      <trkpt lat="59.189839" lon="18.144363">
        <ele>26</ele>
        <time>2019-11-15T15:57:14Z</time>
      </trkpt>
      <trkpt lat="59.189951" lon="18.144268">
        <ele>26</ele>
        <time>2019-11-15T15:57:16Z</time>
      </trkpt>
      <trkpt lat="59.190068" lon="18.144182">
        <ele>25</ele>
        <time>2019-11-15T15:57:18Z</time>
      </trkpt>
      <trkpt lat="59.190225" lon="18.144231">
        <ele>26</ele>
        <time>2019-11-15T15:57:20Z</time>
      </trkpt>
      <trkpt lat="59.190324" lon="18.144291">
        <ele>27</ele>
        <time>2019-11-15T15:57:21Z</time>
      </trkpt>
      <trkpt lat="59.190416" lon="18.144335">
        <ele>27</ele>
        <time>2019-11-15T15:57:22Z</time>
      </trkpt>
      <trkpt lat="59.190569" lon="18.14431">
        <ele>27</ele>
        <time>2019-11-15T15:57:24Z</time>
      </trkpt>
      <trkpt lat="59.190703" lon="18.144265">
        <ele>26</ele>
        <time>2019-11-15T15:57:26Z</time>
      </trkpt>
      <trkpt lat="59.190771" lon="18.144251">
        <ele>26</ele>
        <time>2019-11-15T15:57:27Z</time>
      </trkpt>
      <trkpt lat="59.190828" lon="18.144241">
        <ele>26</ele>
        <time>2019-11-15T15:57:28Z</time>
      </trkpt>
      <trkpt lat="59.190878" lon="18.144232">
        <ele>27</ele>
        <time>2019-11-15T15:57:29Z</time>
      </trkpt>
      <trkpt lat="59.190921" lon="18.144223">
        <ele>27</ele>
        <time>2019-11-15T15:57:30Z</time>
      </trkpt>
      <trkpt lat="59.190966" lon="18.144211">
        <ele>27</ele>
        <time>2019-11-15T15:57:31Z</time>
      </trkpt>
      <trkpt lat="59.19101" lon="18.144199">
        <ele>27</ele>
        <time>2019-11-15T15:57:32Z</time>
      </trkpt>
      <trkpt lat="59.191053" lon="18.144189">
        <ele>28</ele>
        <time>2019-11-15T15:57:33Z</time>
      </trkpt>
      <trkpt lat="59.191088" lon="18.144179">
        <ele>28</ele>
        <time>2019-11-15T15:57:34Z</time>
      </trkpt>
      <trkpt lat="59.191123" lon="18.144168">
        <ele>28</ele>
        <time>2019-11-15T15:57:35Z</time>
      </trkpt>
      <trkpt lat="59.191156" lon="18.144157">
        <ele>28</ele>
        <time>2019-11-15T15:57:36Z</time>
      </trkpt>
      <trkpt lat="59.191188" lon="18.144146">
        <ele>28</ele>
        <time>2019-11-15T15:57:37Z</time>
      </trkpt>
      <trkpt lat="59.191219" lon="18.144136">
        <ele>28</ele>
        <time>2019-11-15T15:57:38Z</time>
      </trkpt>
      <trkpt lat="59.19125" lon="18.144123">
        <ele>28</ele>
        <time>2019-11-15T15:57:39Z</time>
      </trkpt>
      <trkpt lat="59.191282" lon="18.144106">
        <ele>28</ele>
        <time>2019-11-15T15:57:40Z</time>
      </trkpt>
      <trkpt lat="59.191314" lon="18.144094">
        <ele>28</ele>
        <time>2019-11-15T15:57:41Z</time>
      </trkpt>
      <trkpt lat="59.191343" lon="18.144084">
        <ele>28</ele>
        <time>2019-11-15T15:57:42Z</time>
      </trkpt>
      <trkpt lat="59.191372" lon="18.144071">
        <ele>28</ele>
        <time>2019-11-15T15:57:43Z</time>
      </trkpt>
      <trkpt lat="59.191399" lon="18.144056">
        <ele>29</ele>
        <time>2019-11-15T15:57:44Z</time>
      </trkpt>
      <trkpt lat="59.191426" lon="18.144039">
        <ele>29</ele>
        <time>2019-11-15T15:57:45Z</time>
      </trkpt>
      <trkpt lat="59.191453" lon="18.144025">
        <ele>29</ele>
        <time>2019-11-15T15:57:46Z</time>
      </trkpt>
      <trkpt lat="59.191479" lon="18.144011">
        <ele>29</ele>
        <time>2019-11-15T15:57:47Z</time>
      </trkpt>
      <trkpt lat="59.191505" lon="18.143995">
        <ele>29</ele>
        <time>2019-11-15T15:57:48Z</time>
      </trkpt>
      <trkpt lat="59.191531" lon="18.143979">
        <ele>30</ele>
        <time>2019-11-15T15:57:49Z</time>
      </trkpt>
      <trkpt lat="59.191557" lon="18.143961">
        <ele>30</ele>
        <time>2019-11-15T15:57:50Z</time>
      </trkpt>
      <trkpt lat="59.191584" lon="18.143942">
        <ele>30</ele>
        <time>2019-11-15T15:57:51Z</time>
      </trkpt>
      <trkpt lat="59.191611" lon="18.143925">
        <ele>30</ele>
        <time>2019-11-15T15:57:52Z</time>
      </trkpt>
      <trkpt lat="59.191641" lon="18.143908">
        <ele>31</ele>
        <time>2019-11-15T15:57:53Z</time>
      </trkpt>
      <trkpt lat="59.191671" lon="18.143889">
        <ele>31</ele>
        <time>2019-11-15T15:57:54Z</time>
      </trkpt>
      <trkpt lat="59.191701" lon="18.143868">
        <ele>31</ele>
        <time>2019-11-15T15:57:55Z</time>
      </trkpt>
      <trkpt lat="59.191728" lon="18.143844">
        <ele>31</ele>
        <time>2019-11-15T15:57:56Z</time>
      </trkpt>
      <trkpt lat="59.191755" lon="18.143824">
        <ele>31</ele>
        <time>2019-11-15T15:57:57Z</time>
      </trkpt>
      <trkpt lat="59.19178" lon="18.143803">
        <ele>31</ele>
        <time>2019-11-15T15:57:58Z</time>
      </trkpt>
      <trkpt lat="59.191806" lon="18.143782">
        <ele>31</ele>
        <time>2019-11-15T15:57:59Z</time>
      </trkpt>
      <trkpt lat="59.191829" lon="18.143761">
        <ele>31</ele>
        <time>2019-11-15T15:58:00Z</time>
      </trkpt>
      <trkpt lat="59.191854" lon="18.143736">
        <ele>32</ele>
        <time>2019-11-15T15:58:01Z</time>
      </trkpt>
      <trkpt lat="59.19188" lon="18.143712">
        <ele>32</ele>
        <time>2019-11-15T15:58:02Z</time>
      </trkpt>
      <trkpt lat="59.19191" lon="18.14369">
        <ele>32</ele>
        <time>2019-11-15T15:58:03Z</time>
      </trkpt>
      <trkpt lat="59.19194" lon="18.143667">
        <ele>33</ele>
        <time>2019-11-15T15:58:04Z</time>
      </trkpt>
      <trkpt lat="59.191971" lon="18.143643">
        <ele>33</ele>
        <time>2019-11-15T15:58:05Z</time>
      </trkpt>
      <trkpt lat="59.191998" lon="18.143617">
        <ele>33</ele>
        <time>2019-11-15T15:58:06Z</time>
      </trkpt>
      <trkpt lat="59.19202" lon="18.143588">
        <ele>34</ele>
        <time>2019-11-15T15:58:07Z</time>
      </trkpt>
      <trkpt lat="59.192042" lon="18.143558">
        <ele>34</ele>
        <time>2019-11-15T15:58:08Z</time>
      </trkpt>
      <trkpt lat="59.192064" lon="18.143533">
        <ele>34</ele>
        <time>2019-11-15T15:58:09Z</time>
      </trkpt>
      <trkpt lat="59.192089" lon="18.143506">
        <ele>34</ele>
        <time>2019-11-15T15:58:10Z</time>
      </trkpt>
      <trkpt lat="59.192113" lon="18.143478">
        <ele>34</ele>
        <time>2019-11-15T15:58:11Z</time>
      </trkpt>
      <trkpt lat="59.192136" lon="18.143451">
        <ele>35</ele>
        <time>2019-11-15T15:58:12Z</time>
      </trkpt>
      <trkpt lat="59.192159" lon="18.143422">
        <ele>35</ele>
        <time>2019-11-15T15:58:13Z</time>
      </trkpt>
      <trkpt lat="59.192179" lon="18.143394">
        <ele>35</ele>
        <time>2019-11-15T15:58:14Z</time>
      </trkpt>
      <trkpt lat="59.192203" lon="18.143366">
        <ele>36</ele>
        <time>2019-11-15T15:58:15Z</time>
      </trkpt>
      <trkpt lat="59.192225" lon="18.143338">
        <ele>36</ele>
        <time>2019-11-15T15:58:16Z</time>
      </trkpt>
      <trkpt lat="59.19225" lon="18.143311">
        <ele>37</ele>
        <time>2019-11-15T15:58:17Z</time>
      </trkpt>
      <trkpt lat="59.192275" lon="18.143283">
        <ele>37</ele>
        <time>2019-11-15T15:58:18Z</time>
      </trkpt>
      <trkpt lat="59.192298" lon="18.143253">
        <ele>38</ele>
        <time>2019-11-15T15:58:19Z</time>
      </trkpt>
      <trkpt lat="59.192319" lon="18.143225">
        <ele>38</ele>
        <time>2019-11-15T15:58:20Z</time>
      </trkpt>
      <trkpt lat="59.192339" lon="18.143197">
        <ele>38</ele>
        <time>2019-11-15T15:58:21Z</time>
      </trkpt>
      <trkpt lat="59.192361" lon="18.143174">
        <ele>38</ele>
        <time>2019-11-15T15:58:22Z</time>
      </trkpt>
      <trkpt lat="59.192384" lon="18.143151">
        <ele>39</ele>
        <time>2019-11-15T15:58:23Z</time>
      </trkpt>
      <trkpt lat="59.192409" lon="18.143128">
        <ele>39</ele>
        <time>2019-11-15T15:58:24Z</time>
      </trkpt>
      <trkpt lat="59.192434" lon="18.143102">
        <ele>39</ele>
        <time>2019-11-15T15:58:25Z</time>
      </trkpt>
      <trkpt lat="59.192457" lon="18.143078">
        <ele>39</ele>
        <time>2019-11-15T15:58:26Z</time>
      </trkpt>
      <trkpt lat="59.192481" lon="18.143055">
        <ele>39</ele>
        <time>2019-11-15T15:58:27Z</time>
      </trkpt>
      <trkpt lat="59.192503" lon="18.14303">
        <ele>39</ele>
        <time>2019-11-15T15:58:28Z</time>
      </trkpt>
      <trkpt lat="59.192527" lon="18.143006">
        <ele>39</ele>
        <time>2019-11-15T15:58:29Z</time>
      </trkpt>
      <trkpt lat="59.192552" lon="18.142982">
        <ele>39</ele>
        <time>2019-11-15T15:58:30Z</time>
      </trkpt>
      <trkpt lat="59.192579" lon="18.142958">
        <ele>39</ele>
        <time>2019-11-15T15:58:31Z</time>
      </trkpt>
      <trkpt lat="59.192603" lon="18.142932">
        <ele>39</ele>
        <time>2019-11-15T15:58:32Z</time>
      </trkpt>
      <trkpt lat="59.192628" lon="18.142902">
        <ele>40</ele>
        <time>2019-11-15T15:58:33Z</time>
      </trkpt>
      <trkpt lat="59.192653" lon="18.142871">
        <ele>40</ele>
        <time>2019-11-15T15:58:34Z</time>
      </trkpt>
      <trkpt lat="59.192682" lon="18.142844">
        <ele>40</ele>
        <time>2019-11-15T15:58:35Z</time>
      </trkpt>
      <trkpt lat="59.192712" lon="18.142815">
        <ele>40</ele>
        <time>2019-11-15T15:58:36Z</time>
      </trkpt>
      <trkpt lat="59.192745" lon="18.142788">
        <ele>40</ele>
        <time>2019-11-15T15:58:37Z</time>
      </trkpt>
      <trkpt lat="59.192775" lon="18.142758">
        <ele>40</ele>
        <time>2019-11-15T15:58:38Z</time>
      </trkpt>
      <trkpt lat="59.192808" lon="18.142728">
        <ele>40</ele>
        <time>2019-11-15T15:58:39Z</time>
      </trkpt>
      <trkpt lat="59.192841" lon="18.1427">
        <ele>40</ele>
        <time>2019-11-15T15:58:40Z</time>
      </trkpt>
      <trkpt lat="59.19287" lon="18.142672">
        <ele>40</ele>
        <time>2019-11-15T15:58:41Z</time>
      </trkpt>
      <trkpt lat="59.192898" lon="18.142643">
        <ele>40</ele>
        <time>2019-11-15T15:58:42Z</time>
      </trkpt>
      <trkpt lat="59.192926" lon="18.142613">
        <ele>41</ele>
        <time>2019-11-15T15:58:43Z</time>
      </trkpt>
      <trkpt lat="59.192955" lon="18.142586">
        <ele>41</ele>
        <time>2019-11-15T15:58:44Z</time>
      </trkpt>
      <trkpt lat="59.192982" lon="18.142556">
        <ele>41</ele>
        <time>2019-11-15T15:58:45Z</time>
      </trkpt>
      <trkpt lat="59.193011" lon="18.142527">
        <ele>41</ele>
        <time>2019-11-15T15:58:46Z</time>
      </trkpt>
      <trkpt lat="59.193037" lon="18.142498">
        <ele>42</ele>
        <time>2019-11-15T15:58:47Z</time>
      </trkpt>
      <trkpt lat="59.193063" lon="18.142468">
        <ele>42</ele>
        <time>2019-11-15T15:58:48Z</time>
      </trkpt>
      <trkpt lat="59.193089" lon="18.142436">
        <ele>43</ele>
        <time>2019-11-15T15:58:49Z</time>
      </trkpt>
      <trkpt lat="59.193113" lon="18.142406">
        <ele>43</ele>
        <time>2019-11-15T15:58:50Z</time>
      </trkpt>
      <trkpt lat="59.19314" lon="18.142377">
        <ele>43</ele>
        <time>2019-11-15T15:58:51Z</time>
      </trkpt>
      <trkpt lat="59.193168" lon="18.142355">
        <ele>43</ele>
        <time>2019-11-15T15:58:52Z</time>
      </trkpt>
      <trkpt lat="59.193197" lon="18.142334">
        <ele>43</ele>
        <time>2019-11-15T15:58:53Z</time>
      </trkpt>
      <trkpt lat="59.193227" lon="18.142313">
        <ele>43</ele>
        <time>2019-11-15T15:58:54Z</time>
      </trkpt>
      <trkpt lat="59.193258" lon="18.142289">
        <ele>43</ele>
        <time>2019-11-15T15:58:55Z</time>
      </trkpt>
      <trkpt lat="59.193289" lon="18.142263">
        <ele>44</ele>
        <time>2019-11-15T15:58:56Z</time>
      </trkpt>
      <trkpt lat="59.193318" lon="18.142233">
        <ele>44</ele>
        <time>2019-11-15T15:58:57Z</time>
      </trkpt>
      <trkpt lat="59.193344" lon="18.142203">
        <ele>44</ele>
        <time>2019-11-15T15:58:58Z</time>
      </trkpt>
      <trkpt lat="59.193369" lon="18.142176">
        <ele>44</ele>
        <time>2019-11-15T15:58:59Z</time>
      </trkpt>
      <trkpt lat="59.193394" lon="18.142152">
        <ele>44</ele>
        <time>2019-11-15T15:59:00Z</time>
      </trkpt>
      <trkpt lat="59.193419" lon="18.142129">
        <ele>44</ele>
        <time>2019-11-15T15:59:01Z</time>
      </trkpt>
      <trkpt lat="59.193441" lon="18.142117">
        <ele>44</ele>
        <time>2019-11-15T15:59:02Z</time>
      </trkpt>
      <trkpt lat="59.193463" lon="18.142121">
        <ele>44</ele>
        <time>2019-11-15T15:59:03Z</time>
      </trkpt>
      <trkpt lat="59.193488" lon="18.14213">
        <ele>44</ele>
        <time>2019-11-15T15:59:04Z</time>
      </trkpt>
      <trkpt lat="59.193513" lon="18.142124">
        <ele>44</ele>
        <time>2019-11-15T15:59:05Z</time>
      </trkpt>
      <trkpt lat="59.193538" lon="18.142099">
        <ele>43</ele>
        <time>2019-11-15T15:59:06Z</time>
      </trkpt>
      <trkpt lat="59.193561" lon="18.142067">
        <ele>43</ele>
        <time>2019-11-15T15:59:07Z</time>
      </trkpt>
      <trkpt lat="59.193588" lon="18.14204">
        <ele>43</ele>
        <time>2019-11-15T15:59:08Z</time>
      </trkpt>
      <trkpt lat="59.193618" lon="18.142013">
        <ele>43</ele>
        <time>2019-11-15T15:59:09Z</time>
      </trkpt>
      <trkpt lat="59.193648" lon="18.14198">
        <ele>43</ele>
        <time>2019-11-15T15:59:10Z</time>
      </trkpt>
      <trkpt lat="59.193682" lon="18.141943">
        <ele>43</ele>
        <time>2019-11-15T15:59:11Z</time>
      </trkpt>
      <trkpt lat="59.193717" lon="18.141907">
        <ele>43</ele>
        <time>2019-11-15T15:59:12Z</time>
      </trkpt>
      <trkpt lat="59.193753" lon="18.141871">
        <ele>43</ele>
        <time>2019-11-15T15:59:13Z</time>
      </trkpt>
      <trkpt lat="59.19379" lon="18.141836">
        <ele>43</ele>
        <time>2019-11-15T15:59:14Z</time>
      </trkpt>
      <trkpt lat="59.193832" lon="18.141801">
        <ele>43</ele>
        <time>2019-11-15T15:59:15Z</time>
      </trkpt>
      <trkpt lat="59.193876" lon="18.141765">
        <ele>43</ele>
        <time>2019-11-15T15:59:16Z</time>
      </trkpt>
      <trkpt lat="59.19392" lon="18.141728">
        <ele>43</ele>
        <time>2019-11-15T15:59:17Z</time>
      </trkpt>
      <trkpt lat="59.193968" lon="18.141689">
        <ele>43</ele>
        <time>2019-11-15T15:59:18Z</time>
      </trkpt>
      <trkpt lat="59.194019" lon="18.141649">
        <ele>43</ele>
        <time>2019-11-15T15:59:19Z</time>
      </trkpt>
      <trkpt lat="59.194071" lon="18.141609">
        <ele>43</ele>
        <time>2019-11-15T15:59:20Z</time>
      </trkpt>
      <trkpt lat="59.194129" lon="18.141568">
        <ele>43</ele>
        <time>2019-11-15T15:59:21Z</time>
      </trkpt>
      <trkpt lat="59.194185" lon="18.141524">
        <ele>43</ele>
        <time>2019-11-15T15:59:22Z</time>
      </trkpt>
      <trkpt lat="59.194239" lon="18.14148">
        <ele>0</ele>
        <time>2019-11-15T15:59:22Z</time>
      </trkpt>
      <trkpt lat="59.194292" lon="18.141436">
        <ele>42</ele>
        <time>2019-11-15T15:59:23Z</time>
      </trkpt>
      <trkpt lat="59.194342" lon="18.141388">
        <ele>42</ele>
        <time>2019-11-15T15:59:25Z</time>
      </trkpt>
      <trkpt lat="59.194392" lon="18.141338">
        <ele>42</ele>
        <time>2019-11-15T15:59:26Z</time>
      </trkpt>
      <trkpt lat="59.194442" lon="18.141288">
        <ele>42</ele>
        <time>2019-11-15T15:59:27Z</time>
      </trkpt>
      <trkpt lat="59.194495" lon="18.141236">
        <ele>42</ele>
        <time>2019-11-15T15:59:28Z</time>
      </trkpt>
      <trkpt lat="59.194551" lon="18.141182">
        <ele>42</ele>
        <time>2019-11-15T15:59:29Z</time>
      </trkpt>
      <trkpt lat="59.194608" lon="18.141127">
        <ele>42</ele>
        <time>2019-11-15T15:59:30Z</time>
      </trkpt>
      <trkpt lat="59.194665" lon="18.141073">
        <ele>42</ele>
        <time>2019-11-15T15:59:31Z</time>
      </trkpt>
      <trkpt lat="59.194727" lon="18.141015">
        <ele>42</ele>
        <time>2019-11-15T15:59:32Z</time>
      </trkpt>
      <trkpt lat="59.194794" lon="18.140955">
        <ele>42</ele>
        <time>2019-11-15T15:59:33Z</time>
      </trkpt>
      <trkpt lat="59.194865" lon="18.140897">
        <ele>41</ele>
        <time>2019-11-15T15:59:34Z</time>
      </trkpt>
      <trkpt lat="59.194937" lon="18.14084">
        <ele>41</ele>
        <time>2019-11-15T15:59:35Z</time>
      </trkpt>
      <trkpt lat="59.195012" lon="18.140786">
        <ele>41</ele>
        <time>2019-11-15T15:59:36Z</time>
      </trkpt>
      <trkpt lat="59.195089" lon="18.140741">
        <ele>40</ele>
        <time>2019-11-15T15:59:37Z</time>
      </trkpt>
      <trkpt lat="59.195171" lon="18.140711">
        <ele>40</ele>
        <time>2019-11-15T15:59:38Z</time>
      </trkpt>
      <trkpt lat="59.195259" lon="18.140696">
        <ele>39</ele>
        <time>2019-11-15T15:59:39Z</time>
      </trkpt>
      <trkpt lat="59.195351" lon="18.140694">
        <ele>39</ele>
        <time>2019-11-15T15:59:40Z</time>
      </trkpt>
      <trkpt lat="59.19544" lon="18.140699">
        <ele>38</ele>
        <time>2019-11-15T15:59:41Z</time>
      </trkpt>
      <trkpt lat="59.195531" lon="18.140706">
        <ele>38</ele>
        <time>2019-11-15T15:59:42Z</time>
      </trkpt>
      <trkpt lat="59.19562" lon="18.140718">
        <ele>38</ele>
        <time>2019-11-15T15:59:43Z</time>
      </trkpt>
      <trkpt lat="59.195708" lon="18.140731">
        <ele>38</ele>
        <time>2019-11-15T15:59:44Z</time>
      </trkpt>
      <trkpt lat="59.195797" lon="18.140744">
        <ele>38</ele>
        <time>2019-11-15T15:59:45Z</time>
      </trkpt>
      <trkpt lat="59.195885" lon="18.140755">
        <ele>37</ele>
        <time>2019-11-15T15:59:46Z</time>
      </trkpt>
      <trkpt lat="59.195971" lon="18.140769">
        <ele>37</ele>
        <time>2019-11-15T15:59:47Z</time>
      </trkpt>
      <trkpt lat="59.196056" lon="18.140785">
        <ele>37</ele>
        <time>2019-11-15T15:59:48Z</time>
      </trkpt>
      <trkpt lat="59.19614" lon="18.140803">
        <ele>37</ele>
        <time>2019-11-15T15:59:49Z</time>
      </trkpt>
      <trkpt lat="59.196222" lon="18.140822">
        <ele>37</ele>
        <time>2019-11-15T15:59:50Z</time>
      </trkpt>
      <trkpt lat="59.196301" lon="18.140851">
        <ele>36</ele>
        <time>2019-11-15T15:59:51Z</time>
      </trkpt>
      <trkpt lat="59.196379" lon="18.140889">
        <ele>36</ele>
        <time>2019-11-15T15:59:52Z</time>
      </trkpt>
      <trkpt lat="59.196455" lon="18.140933">
        <ele>35</ele>
        <time>2019-11-15T15:59:53Z</time>
      </trkpt>
      <trkpt lat="59.196532" lon="18.140978">
        <ele>36</ele>
        <time>2019-11-15T15:59:54Z</time>
      </trkpt>
      <trkpt lat="59.196609" lon="18.141032">
        <ele>35</ele>
        <time>2019-11-15T15:59:55Z</time>
      </trkpt>
      <trkpt lat="59.196688" lon="18.1411">
        <ele>35</ele>
        <time>2019-11-15T15:59:56Z</time>
      </trkpt>
      <trkpt lat="59.196763" lon="18.141186">
        <ele>34</ele>
        <time>2019-11-15T15:59:57Z</time>
      </trkpt>
      <trkpt lat="59.196835" lon="18.141283">
        <ele>34</ele>
        <time>2019-11-15T15:59:58Z</time>
      </trkpt>
      <trkpt lat="59.196909" lon="18.141383">
        <ele>33</ele>
        <time>2019-11-15T15:59:59Z</time>
      </trkpt>
      <trkpt lat="59.196981" lon="18.141491">
        <ele>32</ele>
        <time>2019-11-15T16:00:00Z</time>
      </trkpt>
      <trkpt lat="59.197053" lon="18.141607">
        <ele>32</ele>
        <time>2019-11-15T16:00:01Z</time>
      </trkpt>
      <trkpt lat="59.197126" lon="18.141722">
        <ele>31</ele>
        <time>2019-11-15T16:00:02Z</time>
      </trkpt>
      <trkpt lat="59.1972" lon="18.14183">
        <ele>30</ele>
        <time>2019-11-15T16:00:03Z</time>
      </trkpt>
      <trkpt lat="59.197274" lon="18.141934">
        <ele>29</ele>
        <time>2019-11-15T16:00:04Z</time>
      </trkpt>
      <trkpt lat="59.197349" lon="18.142035">
        <ele>29</ele>
        <time>2019-11-15T16:00:05Z</time>
      </trkpt>
      <trkpt lat="59.197421" lon="18.142126">
        <ele>29</ele>
        <time>2019-11-15T16:00:06Z</time>
      </trkpt>
      <trkpt lat="59.197496" lon="18.14221">
        <ele>28</ele>
        <time>2019-11-15T16:00:07Z</time>
      </trkpt>
      <trkpt lat="59.19757" lon="18.142287">
        <ele>28</ele>
        <time>2019-11-15T16:00:08Z</time>
      </trkpt>
      <trkpt lat="59.19765" lon="18.142352">
        <ele>28</ele>
        <time>2019-11-15T16:00:09Z</time>
      </trkpt>
      <trkpt lat="59.197728" lon="18.142413">
        <ele>28</ele>
        <time>2019-11-15T16:00:10Z</time>
      </trkpt>
      <trkpt lat="59.197806" lon="18.142472">
        <ele>27</ele>
        <time>2019-11-15T16:00:11Z</time>
      </trkpt>
      <trkpt lat="59.197885" lon="18.142531">
        <ele>27</ele>
        <time>2019-11-15T16:00:12Z</time>
      </trkpt>
      <trkpt lat="59.197962" lon="18.142591">
        <ele>27</ele>
        <time>2019-11-15T16:00:13Z</time>
      </trkpt>
      <trkpt lat="59.198037" lon="18.142648">
        <ele>27</ele>
        <time>2019-11-15T16:00:14Z</time>
      </trkpt>
      <trkpt lat="59.198111" lon="18.142701">
        <ele>27</ele>
        <time>2019-11-15T16:00:15Z</time>
      </trkpt>
      <trkpt lat="59.198181" lon="18.142754">
        <ele>27</ele>
        <time>2019-11-15T16:00:16Z</time>
      </trkpt>
      <trkpt lat="59.198252" lon="18.142807">
        <ele>27</ele>
        <time>2019-11-15T16:00:17Z</time>
      </trkpt>
      <trkpt lat="59.198319" lon="18.142854">
        <ele>27</ele>
        <time>2019-11-15T16:00:18Z</time>
      </trkpt>
      <trkpt lat="59.198387" lon="18.142896">
        <ele>27</ele>
        <time>2019-11-15T16:00:19Z</time>
      </trkpt>
      <trkpt lat="59.198452" lon="18.142937">
        <ele>26</ele>
        <time>2019-11-15T16:00:20Z</time>
      </trkpt>
      <trkpt lat="59.198515" lon="18.142972">
        <ele>26</ele>
        <time>2019-11-15T16:00:21Z</time>
      </trkpt>
      <trkpt lat="59.198579" lon="18.142999">
        <ele>26</ele>
        <time>2019-11-15T16:00:22Z</time>
      </trkpt>
      <trkpt lat="59.198642" lon="18.14302">
        <ele>26</ele>
        <time>2019-11-15T16:00:23Z</time>
      </trkpt>
      <trkpt lat="59.198706" lon="18.143031">
        <ele>25</ele>
        <time>2019-11-15T16:00:24Z</time>
      </trkpt>
      <trkpt lat="59.198768" lon="18.143039">
        <ele>25</ele>
        <time>2019-11-15T16:00:25Z</time>
      </trkpt>
      <trkpt lat="59.198829" lon="18.143045">
        <ele>25</ele>
        <time>2019-11-15T16:00:26Z</time>
      </trkpt>
      <trkpt lat="59.198889" lon="18.143049">
        <ele>25</ele>
        <time>2019-11-15T16:00:27Z</time>
      </trkpt>
      <trkpt lat="59.198952" lon="18.143049">
        <ele>25</ele>
        <time>2019-11-15T16:00:28Z</time>
      </trkpt>
      <trkpt lat="59.199014" lon="18.143051">
        <ele>24</ele>
        <time>2019-11-15T16:00:29Z</time>
      </trkpt>
      <trkpt lat="59.199076" lon="18.143056">
        <ele>24</ele>
        <time>2019-11-15T16:00:30Z</time>
      </trkpt>
      <trkpt lat="59.199139" lon="18.143059">
        <ele>24</ele>
        <time>2019-11-15T16:00:31Z</time>
      </trkpt>
      <trkpt lat="59.199199" lon="18.14306">
        <ele>24</ele>
        <time>2019-11-15T16:00:32Z</time>
      </trkpt>
      <trkpt lat="59.199261" lon="18.143063">
        <ele>24</ele>
        <time>2019-11-15T16:00:33Z</time>
      </trkpt>
      <trkpt lat="59.199322" lon="18.143065">
        <ele>24</ele>
        <time>2019-11-15T16:00:34Z</time>
      </trkpt>
      <trkpt lat="59.199382" lon="18.143056">
        <ele>23</ele>
        <time>2019-11-15T16:00:35Z</time>
      </trkpt>
      <trkpt lat="59.199442" lon="18.143029">
        <ele>23</ele>
        <time>2019-11-15T16:00:36Z</time>
      </trkpt>
      <trkpt lat="59.1995" lon="18.142985">
        <ele>23</ele>
        <time>2019-11-15T16:00:37Z</time>
      </trkpt>
      <trkpt lat="59.199556" lon="18.142927">
        <ele>23</ele>
        <time>2019-11-15T16:00:38Z</time>
      </trkpt>
      <trkpt lat="59.199607" lon="18.142852">
        <ele>23</ele>
        <time>2019-11-15T16:00:39Z</time>
      </trkpt>
      <trkpt lat="59.199652" lon="18.142766">
        <ele>23</ele>
        <time>2019-11-15T16:00:40Z</time>
      </trkpt>
      <trkpt lat="59.199689" lon="18.142673">
        <ele>23</ele>
        <time>2019-11-15T16:00:41Z</time>
      </trkpt>
      <trkpt lat="59.199724" lon="18.142573">
        <ele>23</ele>
        <time>2019-11-15T16:00:42Z</time>
      </trkpt>
      <trkpt lat="59.199758" lon="18.142471">
        <ele>23</ele>
        <time>2019-11-15T16:00:43Z</time>
      </trkpt>
      <trkpt lat="59.199796" lon="18.142376">
        <ele>23</ele>
        <time>2019-11-15T16:00:44Z</time>
      </trkpt>
      <trkpt lat="59.199837" lon="18.142293">
        <ele>23</ele>
        <time>2019-11-15T16:00:45Z</time>
      </trkpt>
      <trkpt lat="59.199879" lon="18.142221">
        <ele>23</ele>
        <time>2019-11-15T16:00:46Z</time>
      </trkpt>
      <trkpt lat="59.19992" lon="18.14216">
        <ele>23</ele>
        <time>2019-11-15T16:00:47Z</time>
      </trkpt>
      <trkpt lat="59.199963" lon="18.142105">
        <ele>23</ele>
        <time>2019-11-15T16:00:48Z</time>
      </trkpt>
      <trkpt lat="59.200009" lon="18.142053">
        <ele>23</ele>
        <time>2019-11-15T16:00:49Z</time>
      </trkpt>
      <trkpt lat="59.200053" lon="18.142002">
        <ele>23</ele>
        <time>2019-11-15T16:00:50Z</time>
      </trkpt>
      <trkpt lat="59.200095" lon="18.141954">
        <ele>23</ele>
        <time>2019-11-15T16:00:51Z</time>
      </trkpt>
      <trkpt lat="59.200136" lon="18.141906">
        <ele>23</ele>
        <time>2019-11-15T16:00:52Z</time>
      </trkpt>
      <trkpt lat="59.200176" lon="18.141861">
        <ele>23</ele>
        <time>2019-11-15T16:00:53Z</time>
      </trkpt>
      <trkpt lat="59.200213" lon="18.14182">
        <ele>24</ele>
        <time>2019-11-15T16:00:54Z</time>
      </trkpt>
      <trkpt lat="59.200251" lon="18.141778">
        <ele>24</ele>
        <time>2019-11-15T16:00:55Z</time>
      </trkpt>
      <trkpt lat="59.20029" lon="18.141739">
        <ele>24</ele>
        <time>2019-11-15T16:00:56Z</time>
      </trkpt>
      <trkpt lat="59.200328" lon="18.141702">
        <ele>24</ele>
        <time>2019-11-15T16:00:57Z</time>
      </trkpt>
      <trkpt lat="59.200364" lon="18.141663">
        <ele>24</ele>
        <time>2019-11-15T16:00:58Z</time>
      </trkpt>
      <trkpt lat="59.200399" lon="18.141625">
        <ele>25</ele>
        <time>2019-11-15T16:00:59Z</time>
      </trkpt>
      <trkpt lat="59.200434" lon="18.141589">
        <ele>25</ele>
        <time>2019-11-15T16:01:00Z</time>
      </trkpt>
      <trkpt lat="59.20047" lon="18.141552">
        <ele>25</ele>
        <time>2019-11-15T16:01:01Z</time>
      </trkpt>
      <trkpt lat="59.200502" lon="18.141514">
        <ele>25</ele>
        <time>2019-11-15T16:01:02Z</time>
      </trkpt>
      <trkpt lat="59.200533" lon="18.141475">
        <ele>26</ele>
        <time>2019-11-15T16:01:03Z</time>
      </trkpt>
      <trkpt lat="59.200564" lon="18.141434">
        <ele>26</ele>
        <time>2019-11-15T16:01:04Z</time>
      </trkpt>
      <trkpt lat="59.2006" lon="18.141395">
        <ele>26</ele>
        <time>2019-11-15T16:01:05Z</time>
      </trkpt>
      <trkpt lat="59.200635" lon="18.141367">
        <ele>26</ele>
        <time>2019-11-15T16:01:06Z</time>
      </trkpt>
      <trkpt lat="59.20067" lon="18.141349">
        <ele>27</ele>
        <time>2019-11-15T16:01:07Z</time>
      </trkpt>
      <trkpt lat="59.200705" lon="18.141341">
        <ele>27</ele>
        <time>2019-11-15T16:01:08Z</time>
      </trkpt>
      <trkpt lat="59.20074" lon="18.141343">
        <ele>27</ele>
        <time>2019-11-15T16:01:09Z</time>
      </trkpt>
      <trkpt lat="59.200771" lon="18.141352">
        <ele>27</ele>
        <time>2019-11-15T16:01:10Z</time>
      </trkpt>
      <trkpt lat="59.200802" lon="18.141364">
        <ele>27</ele>
        <time>2019-11-15T16:01:11Z</time>
      </trkpt>
      <trkpt lat="59.200828" lon="18.141376">
        <ele>27</ele>
        <time>2019-11-15T16:01:12Z</time>
      </trkpt>
      <trkpt lat="59.200852" lon="18.141391">
        <ele>27</ele>
        <time>2019-11-15T16:01:13Z</time>
      </trkpt>
      <trkpt lat="59.200872" lon="18.141409">
        <ele>27</ele>
        <time>2019-11-15T16:01:14Z</time>
      </trkpt>
      <trkpt lat="59.20089" lon="18.141427">
        <ele>27</ele>
        <time>2019-11-15T16:01:15Z</time>
      </trkpt>
      <trkpt lat="59.200911" lon="18.141448">
        <ele>27</ele>
        <time>2019-11-15T16:01:16Z</time>
      </trkpt>
      <trkpt lat="59.200936" lon="18.141471">
        <ele>27</ele>
        <time>2019-11-15T16:01:17Z</time>
      </trkpt>
      <trkpt lat="59.200966" lon="18.141498">
        <ele>28</ele>
        <time>2019-11-15T16:01:18Z</time>
      </trkpt>
      <trkpt lat="59.200995" lon="18.141525">
        <ele>28</ele>
        <time>2019-11-15T16:01:19Z</time>
      </trkpt>
      <trkpt lat="59.201026" lon="18.141552">
        <ele>28</ele>
        <time>2019-11-15T16:01:20Z</time>
      </trkpt>
      <trkpt lat="59.201063" lon="18.141587">
        <ele>28</ele>
        <time>2019-11-15T16:01:21Z</time>
      </trkpt>
      <trkpt lat="59.2011" lon="18.141621">
        <ele>28</ele>
        <time>2019-11-15T16:01:22Z</time>
      </trkpt>
      <trkpt lat="59.201143" lon="18.141658">
        <ele>29</ele>
        <time>2019-11-15T16:01:23Z</time>
      </trkpt>
      <trkpt lat="59.20118" lon="18.141692">
        <ele>29</ele>
        <time>2019-11-15T16:01:24Z</time>
      </trkpt>
      <trkpt lat="59.201217" lon="18.141726">
        <ele>29</ele>
        <time>2019-11-15T16:01:25Z</time>
      </trkpt>
      <trkpt lat="59.201253" lon="18.141759">
        <ele>29</ele>
        <time>2019-11-15T16:01:26Z</time>
      </trkpt>
      <trkpt lat="59.201291" lon="18.141788">
        <ele>29</ele>
        <time>2019-11-15T16:01:27Z</time>
      </trkpt>
      <trkpt lat="59.201328" lon="18.141813">
        <ele>29</ele>
        <time>2019-11-15T16:01:28Z</time>
      </trkpt>
      <trkpt lat="59.201369" lon="18.141832">
        <ele>29</ele>
        <time>2019-11-15T16:01:29Z</time>
      </trkpt>
      <trkpt lat="59.201413" lon="18.141849">
        <ele>30</ele>
        <time>2019-11-15T16:01:30Z</time>
      </trkpt>
      <trkpt lat="59.201459" lon="18.141861">
        <ele>29</ele>
        <time>2019-11-15T16:01:31Z</time>
      </trkpt>
      <trkpt lat="59.201508" lon="18.141874">
        <ele>30</ele>
        <time>2019-11-15T16:01:32Z</time>
      </trkpt>
      <trkpt lat="59.201556" lon="18.141896">
        <ele>30</ele>
        <time>2019-11-15T16:01:33Z</time>
      </trkpt>
      <trkpt lat="59.201608" lon="18.141919">
        <ele>30</ele>
        <time>2019-11-15T16:01:34Z</time>
      </trkpt>
      <trkpt lat="59.201659" lon="18.141943">
        <ele>30</ele>
        <time>2019-11-15T16:01:35Z</time>
      </trkpt>
      <trkpt lat="59.201707" lon="18.141967">
        <ele>31</ele>
        <time>2019-11-15T16:01:36Z</time>
      </trkpt>
      <trkpt lat="59.201756" lon="18.141992">
        <ele>31</ele>
        <time>2019-11-15T16:01:37Z</time>
      </trkpt>
      <trkpt lat="59.201806" lon="18.142017">
        <ele>31</ele>
        <time>2019-11-15T16:01:38Z</time>
      </trkpt>
      <trkpt lat="59.201856" lon="18.142044">
        <ele>32</ele>
        <time>2019-11-15T16:01:39Z</time>
      </trkpt>
      <trkpt lat="59.201913" lon="18.142073">
        <ele>32</ele>
        <time>2019-11-15T16:01:40Z</time>
      </trkpt>
      <trkpt lat="59.201964" lon="18.142103">
        <ele>32</ele>
        <time>2019-11-15T16:01:41Z</time>
      </trkpt>
      <trkpt lat="59.202015" lon="18.142132">
        <ele>32</ele>
        <time>2019-11-15T16:01:42Z</time>
      </trkpt>
      <trkpt lat="59.202065" lon="18.14216">
        <ele>32</ele>
        <time>2019-11-15T16:01:43Z</time>
      </trkpt>
      <trkpt lat="59.202114" lon="18.142186">
        <ele>32</ele>
        <time>2019-11-15T16:01:44Z</time>
      </trkpt>
      <trkpt lat="59.202164" lon="18.14221">
        <ele>32</ele>
        <time>2019-11-15T16:01:45Z</time>
      </trkpt>
      <trkpt lat="59.202214" lon="18.14223">
        <ele>33</ele>
        <time>2019-11-15T16:01:46Z</time>
      </trkpt>
      <trkpt lat="59.202261" lon="18.142247">
        <ele>33</ele>
        <time>2019-11-15T16:01:47Z</time>
      </trkpt>
      <trkpt lat="59.202311" lon="18.142259">
        <ele>33</ele>
        <time>2019-11-15T16:01:48Z</time>
      </trkpt>
      <trkpt lat="59.20236" lon="18.142265">
        <ele>33</ele>
        <time>2019-11-15T16:01:49Z</time>
      </trkpt>
      <trkpt lat="59.202409" lon="18.142265">
        <ele>34</ele>
        <time>2019-11-15T16:01:50Z</time>
      </trkpt>
      <trkpt lat="59.202458" lon="18.142257">
        <ele>34</ele>
        <time>2019-11-15T16:01:51Z</time>
      </trkpt>
      <trkpt lat="59.202505" lon="18.142244">
        <ele>34</ele>
        <time>2019-11-15T16:01:52Z</time>
      </trkpt>
      <trkpt lat="59.20255" lon="18.142233">
        <ele>34</ele>
        <time>2019-11-15T16:01:53Z</time>
      </trkpt>
      <trkpt lat="59.202592" lon="18.142225">
        <ele>34</ele>
        <time>2019-11-15T16:01:54Z</time>
      </trkpt>
      <trkpt lat="59.202629" lon="18.142217">
        <ele>34</ele>
        <time>2019-11-15T16:01:55Z</time>
      </trkpt>
      <trkpt lat="59.202669" lon="18.14221">
        <ele>34</ele>
        <time>2019-11-15T16:01:56Z</time>
      </trkpt>
      <trkpt lat="59.202709" lon="18.142201">
        <ele>34</ele>
        <time>2019-11-15T16:01:57Z</time>
      </trkpt>
      <trkpt lat="59.202752" lon="18.142193">
        <ele>35</ele>
        <time>2019-11-15T16:01:58Z</time>
      </trkpt>
      <trkpt lat="59.202795" lon="18.142193">
        <ele>35</ele>
        <time>2019-11-15T16:01:59Z</time>
      </trkpt>
      <trkpt lat="59.202839" lon="18.142199">
        <ele>35</ele>
        <time>2019-11-15T16:02:00Z</time>
      </trkpt>
      <trkpt lat="59.202882" lon="18.142209">
        <ele>35</ele>
        <time>2019-11-15T16:02:01Z</time>
      </trkpt>
      <trkpt lat="59.202926" lon="18.142221">
        <ele>35</ele>
        <time>2019-11-15T16:02:02Z</time>
      </trkpt>
      <trkpt lat="59.202971" lon="18.142232">
        <ele>34</ele>
        <time>2019-11-15T16:02:03Z</time>
      </trkpt>
      <trkpt lat="59.20302" lon="18.142243">
        <ele>34</ele>
        <time>2019-11-15T16:02:04Z</time>
      </trkpt>
      <trkpt lat="59.20307" lon="18.142257">
        <ele>34</ele>
        <time>2019-11-15T16:02:05Z</time>
      </trkpt>
      <trkpt lat="59.203119" lon="18.142273">
        <ele>34</ele>
        <time>2019-11-15T16:02:06Z</time>
      </trkpt>
      <trkpt lat="59.203168" lon="18.142282">
        <ele>34</ele>
        <time>2019-11-15T16:02:07Z</time>
      </trkpt>
      <trkpt lat="59.203218" lon="18.142289">
        <ele>34</ele>
        <time>2019-11-15T16:02:08Z</time>
      </trkpt>
      <trkpt lat="59.20327" lon="18.142295">
        <ele>34</ele>
        <time>2019-11-15T16:02:09Z</time>
      </trkpt>
      <trkpt lat="59.203322" lon="18.142299">
        <ele>34</ele>
        <time>2019-11-15T16:02:10Z</time>
      </trkpt>
      <trkpt lat="59.203375" lon="18.142302">
        <ele>34</ele>
        <time>2019-11-15T16:02:11Z</time>
      </trkpt>
      <trkpt lat="59.203427" lon="18.142305">
        <ele>34</ele>
        <time>2019-11-15T16:02:12Z</time>
      </trkpt>
      <trkpt lat="59.203479" lon="18.142307">
        <ele>34</ele>
        <time>2019-11-15T16:02:13Z</time>
      </trkpt>
      <trkpt lat="59.203532" lon="18.142306">
        <ele>35</ele>
        <time>2019-11-15T16:02:14Z</time>
      </trkpt>
      <trkpt lat="59.203584" lon="18.142299">
        <ele>35</ele>
        <time>2019-11-15T16:02:15Z</time>
      </trkpt>
      <trkpt lat="59.203638" lon="18.142288">
        <ele>35</ele>
        <time>2019-11-15T16:02:16Z</time>
      </trkpt>
      <trkpt lat="59.203694" lon="18.142274">
        <ele>35</ele>
        <time>2019-11-15T16:02:17Z</time>
      </trkpt>
      <trkpt lat="59.203752" lon="18.14226">
        <ele>35</ele>
        <time>2019-11-15T16:02:18Z</time>
      </trkpt>
      <trkpt lat="59.203811" lon="18.142243">
        <ele>35</ele>
        <time>2019-11-15T16:02:19Z</time>
      </trkpt>
      <trkpt lat="59.20387" lon="18.142225">
        <ele>35</ele>
        <time>2019-11-15T16:02:20Z</time>
      </trkpt>
      <trkpt lat="59.203931" lon="18.142207">
        <ele>35</ele>
        <time>2019-11-15T16:02:21Z</time>
      </trkpt>
      <trkpt lat="59.203987" lon="18.142189">
        <ele>35</ele>
        <time>2019-11-15T16:02:22Z</time>
      </trkpt>
      <trkpt lat="59.204044" lon="18.14217">
        <ele>35</ele>
        <time>2019-11-15T16:02:23Z</time>
      </trkpt>
      <trkpt lat="59.2041" lon="18.142152">
        <ele>35</ele>
        <time>2019-11-15T16:02:24Z</time>
      </trkpt>
      <trkpt lat="59.204155" lon="18.142131">
        <ele>35</ele>
        <time>2019-11-15T16:02:25Z</time>
      </trkpt>
      <trkpt lat="59.204208" lon="18.14211">
        <ele>35</ele>
        <time>2019-11-15T16:02:26Z</time>
      </trkpt>
      <trkpt lat="59.20426" lon="18.142092">
        <ele>35</ele>
        <time>2019-11-15T16:02:27Z</time>
      </trkpt>
      <trkpt lat="59.204311" lon="18.142071">
        <ele>35</ele>
        <time>2019-11-15T16:02:28Z</time>
      </trkpt>
      <trkpt lat="59.204361" lon="18.14205">
        <ele>35</ele>
        <time>2019-11-15T16:02:29Z</time>
      </trkpt>
      <trkpt lat="59.204409" lon="18.142028">
        <ele>35</ele>
        <time>2019-11-15T16:02:30Z</time>
      </trkpt>
      <trkpt lat="59.204456" lon="18.142005">
        <ele>35</ele>
        <time>2019-11-15T16:02:31Z</time>
      </trkpt>
      <trkpt lat="59.204499" lon="18.141983">
        <ele>35</ele>
        <time>2019-11-15T16:02:32Z</time>
      </trkpt>
      <trkpt lat="59.204542" lon="18.141962">
        <ele>35</ele>
        <time>2019-11-15T16:02:33Z</time>
      </trkpt>
      <trkpt lat="59.204585" lon="18.141941">
        <ele>35</ele>
        <time>2019-11-15T16:02:34Z</time>
      </trkpt>
      <trkpt lat="59.204628" lon="18.141918">
        <ele>35</ele>
        <time>2019-11-15T16:02:35Z</time>
      </trkpt>
      <trkpt lat="59.20467" lon="18.141895">
        <ele>35</ele>
        <time>2019-11-15T16:02:36Z</time>
      </trkpt>
      <trkpt lat="59.204711" lon="18.141871">
        <ele>35</ele>
        <time>2019-11-15T16:02:37Z</time>
      </trkpt>
      <trkpt lat="59.204749" lon="18.14185">
        <ele>36</ele>
        <time>2019-11-15T16:02:38Z</time>
      </trkpt>
      <trkpt lat="59.204788" lon="18.141829">
        <ele>36</ele>
        <time>2019-11-15T16:02:39Z</time>
      </trkpt>
      <trkpt lat="59.204826" lon="18.141804">
        <ele>36</ele>
        <time>2019-11-15T16:02:40Z</time>
      </trkpt>
      <trkpt lat="59.204864" lon="18.141776">
        <ele>36</ele>
        <time>2019-11-15T16:02:41Z</time>
      </trkpt>
      <trkpt lat="59.204906" lon="18.141749">
        <ele>36</ele>
        <time>2019-11-15T16:02:42Z</time>
      </trkpt>
      <trkpt lat="59.204946" lon="18.141727">
        <ele>37</ele>
        <time>2019-11-15T16:02:43Z</time>
      </trkpt>
      <trkpt lat="59.204986" lon="18.141703">
        <ele>37</ele>
        <time>2019-11-15T16:02:44Z</time>
      </trkpt>
      <trkpt lat="59.205025" lon="18.141674">
        <ele>37</ele>
        <time>2019-11-15T16:02:45Z</time>
      </trkpt>
      <trkpt lat="59.205064" lon="18.141645">
        <ele>37</ele>
        <time>2019-11-15T16:02:46Z</time>
      </trkpt>
      <trkpt lat="59.205102" lon="18.141618">
        <ele>37</ele>
        <time>2019-11-15T16:02:47Z</time>
      </trkpt>
      <trkpt lat="59.205139" lon="18.141588">
        <ele>36</ele>
        <time>2019-11-15T16:02:48Z</time>
      </trkpt>
      <trkpt lat="59.205176" lon="18.141559">
        <ele>37</ele>
        <time>2019-11-15T16:02:49Z</time>
      </trkpt>
      <trkpt lat="59.205212" lon="18.14153">
        <ele>37</ele>
        <time>2019-11-15T16:02:50Z</time>
      </trkpt>
      <trkpt lat="59.205248" lon="18.141499">
        <ele>37</ele>
        <time>2019-11-15T16:02:51Z</time>
      </trkpt>
      <trkpt lat="59.205279" lon="18.141467">
        <ele>37</ele>
        <time>2019-11-15T16:02:52Z</time>
      </trkpt>
      <trkpt lat="59.205311" lon="18.141437">
        <ele>37</ele>
        <time>2019-11-15T16:02:53Z</time>
      </trkpt>
      <trkpt lat="59.205343" lon="18.141412">
        <ele>37</ele>
        <time>2019-11-15T16:02:54Z</time>
      </trkpt>
      <trkpt lat="59.205381" lon="18.141384">
        <ele>37</ele>
        <time>2019-11-15T16:02:55Z</time>
      </trkpt>
      <trkpt lat="59.205419" lon="18.141356">
        <ele>38</ele>
        <time>2019-11-15T16:02:56Z</time>
      </trkpt>
      <trkpt lat="59.205458" lon="18.141326">
        <ele>38</ele>
        <time>2019-11-15T16:02:57Z</time>
      </trkpt>
      <trkpt lat="59.205498" lon="18.141292">
        <ele>38</ele>
        <time>2019-11-15T16:02:58Z</time>
      </trkpt>
      <trkpt lat="59.205541" lon="18.141256">
        <ele>38</ele>
        <time>2019-11-15T16:02:59Z</time>
      </trkpt>
      <trkpt lat="59.205586" lon="18.141221">
        <ele>38</ele>
        <time>2019-11-15T16:03:00Z</time>
      </trkpt>
      <trkpt lat="59.205629" lon="18.141185">
        <ele>38</ele>
        <time>2019-11-15T16:03:01Z</time>
      </trkpt>
      <trkpt lat="59.205672" lon="18.141147">
        <ele>38</ele>
        <time>2019-11-15T16:03:02Z</time>
      </trkpt>
      <trkpt lat="59.205715" lon="18.14111">
        <ele>39</ele>
        <time>2019-11-15T16:03:03Z</time>
      </trkpt>
      <trkpt lat="59.205759" lon="18.141074">
        <ele>39</ele>
        <time>2019-11-15T16:03:04Z</time>
      </trkpt>
      <trkpt lat="59.205803" lon="18.141037">
        <ele>39</ele>
        <time>2019-11-15T16:03:05Z</time>
      </trkpt>
      <trkpt lat="59.205847" lon="18.141002">
        <ele>39</ele>
        <time>2019-11-15T16:03:06Z</time>
      </trkpt>
      <trkpt lat="59.205892" lon="18.140967">
        <ele>39</ele>
        <time>2019-11-15T16:03:07Z</time>
      </trkpt>
      <trkpt lat="59.205936" lon="18.140937">
        <ele>39</ele>
        <time>2019-11-15T16:03:08Z</time>
      </trkpt>
      <trkpt lat="59.205979" lon="18.140914">
        <ele>39</ele>
        <time>2019-11-15T16:03:09Z</time>
      </trkpt>
      <trkpt lat="59.206018" lon="18.140897">
        <ele>39</ele>
        <time>2019-11-15T16:03:10Z</time>
      </trkpt>
      <trkpt lat="59.206052" lon="18.140884">
        <ele>39</ele>
        <time>2019-11-15T16:03:11Z</time>
      </trkpt>
      <trkpt lat="59.20608" lon="18.140876">
        <ele>39</ele>
        <time>2019-11-15T16:03:12Z</time>
      </trkpt>
      <trkpt lat="59.206106" lon="18.14087">
        <ele>39</ele>
        <time>2019-11-15T16:03:13Z</time>
      </trkpt>
      <trkpt lat="59.206131" lon="18.140858">
        <ele>39</ele>
        <time>2019-11-15T16:03:14Z</time>
      </trkpt>
      <trkpt lat="59.20616" lon="18.140841">
        <ele>39</ele>
        <time>2019-11-15T16:03:15Z</time>
      </trkpt>
      <trkpt lat="59.206192" lon="18.140818">
        <ele>39</ele>
        <time>2019-11-15T16:03:16Z</time>
      </trkpt>
      <trkpt lat="59.206221" lon="18.140782">
        <ele>39</ele>
        <time>2019-11-15T16:03:17Z</time>
      </trkpt>
      <trkpt lat="59.20624" lon="18.14073">
        <ele>40</ele>
        <time>2019-11-15T16:03:18Z</time>
      </trkpt>
      <trkpt lat="59.206254" lon="18.14067">
        <ele>39</ele>
        <time>2019-11-15T16:03:19Z</time>
      </trkpt>
      <trkpt lat="59.206266" lon="18.140606">
        <ele>39</ele>
        <time>2019-11-15T16:03:20Z</time>
      </trkpt>
      <trkpt lat="59.206283" lon="18.140544">
        <ele>40</ele>
        <time>2019-11-15T16:03:21Z</time>
      </trkpt>
      <trkpt lat="59.206308" lon="18.140493">
        <ele>40</ele>
        <time>2019-11-15T16:03:22Z</time>
      </trkpt>
      <trkpt lat="59.206338" lon="18.140452">
        <ele>40</ele>
        <time>2019-11-15T16:03:23Z</time>
      </trkpt>
      <trkpt lat="59.206371" lon="18.140421">
        <ele>40</ele>
        <time>2019-11-15T16:03:24Z</time>
      </trkpt>
      <trkpt lat="59.206407" lon="18.1404">
        <ele>40</ele>
        <time>2019-11-15T16:03:25Z</time>
      </trkpt>
      <trkpt lat="59.206444" lon="18.140384">
        <ele>40</ele>
        <time>2019-11-15T16:03:26Z</time>
      </trkpt>
      <trkpt lat="59.20648" lon="18.14037">
        <ele>40</ele>
        <time>2019-11-15T16:03:27Z</time>
      </trkpt>
      <trkpt lat="59.206518" lon="18.140359">
        <ele>40</ele>
        <time>2019-11-15T16:03:28Z</time>
      </trkpt>
      <trkpt lat="59.206556" lon="18.140351">
        <ele>40</ele>
        <time>2019-11-15T16:03:29Z</time>
      </trkpt>
      <trkpt lat="59.206593" lon="18.140347">
        <ele>41</ele>
        <time>2019-11-15T16:03:30Z</time>
      </trkpt>
      <trkpt lat="59.206627" lon="18.140352">
        <ele>41</ele>
        <time>2019-11-15T16:03:31Z</time>
      </trkpt>
      <trkpt lat="59.206664" lon="18.140356">
        <ele>41</ele>
        <time>2019-11-15T16:03:32Z</time>
      </trkpt>
      <trkpt lat="59.206701" lon="18.14036">
        <ele>41</ele>
        <time>2019-11-15T16:03:33Z</time>
      </trkpt>
      <trkpt lat="59.20674" lon="18.140363">
        <ele>41</ele>
        <time>2019-11-15T16:03:34Z</time>
      </trkpt>
      <trkpt lat="59.20678" lon="18.140367">
        <ele>41</ele>
        <time>2019-11-15T16:03:35Z</time>
      </trkpt>
      <trkpt lat="59.20682" lon="18.140375">
        <ele>41</ele>
        <time>2019-11-15T16:03:36Z</time>
      </trkpt>
      <trkpt lat="59.20686" lon="18.140384">
        <ele>41</ele>
        <time>2019-11-15T16:03:37Z</time>
      </trkpt>
      <trkpt lat="59.2069" lon="18.140394">
        <ele>41</ele>
        <time>2019-11-15T16:03:38Z</time>
      </trkpt>
      <trkpt lat="59.206944" lon="18.140405">
        <ele>41</ele>
        <time>2019-11-15T16:03:39Z</time>
      </trkpt>
      <trkpt lat="59.206984" lon="18.140415">
        <ele>41</ele>
        <time>2019-11-15T16:03:40Z</time>
      </trkpt>
      <trkpt lat="59.207022" lon="18.140427">
        <ele>42</ele>
        <time>2019-11-15T16:03:41Z</time>
      </trkpt>
      <trkpt lat="59.20706" lon="18.140438">
        <ele>42</ele>
        <time>2019-11-15T16:03:42Z</time>
      </trkpt>
      <trkpt lat="59.207092" lon="18.140446">
        <ele>42</ele>
        <time>2019-11-15T16:03:43Z</time>
      </trkpt>
      <trkpt lat="59.207127" lon="18.140455">
        <ele>42</ele>
        <time>2019-11-15T16:03:44Z</time>
      </trkpt>
      <trkpt lat="59.207159" lon="18.140459">
        <ele>43</ele>
        <time>2019-11-15T16:03:45Z</time>
      </trkpt>
      <trkpt lat="59.20719" lon="18.140469">
        <ele>43</ele>
        <time>2019-11-15T16:03:46Z</time>
      </trkpt>
      <trkpt lat="59.20722" lon="18.140485">
        <ele>43</ele>
        <time>2019-11-15T16:03:47Z</time>
      </trkpt>
      <trkpt lat="59.207255" lon="18.140503">
        <ele>44</ele>
        <time>2019-11-15T16:03:48Z</time>
      </trkpt>
      <trkpt lat="59.207291" lon="18.140527">
        <ele>0</ele>
        <time>2019-11-15T16:03:48Z</time>
      </trkpt>
      <trkpt lat="59.207328" lon="18.140554">
        <ele>44</ele>
        <time>2019-11-15T16:03:49Z</time>
      </trkpt>
      <trkpt lat="59.207365" lon="18.140581">
        <ele>44</ele>
        <time>2019-11-15T16:03:51Z</time>
      </trkpt>
      <trkpt lat="59.2074" lon="18.140603">
        <ele>45</ele>
        <time>2019-11-15T16:03:52Z</time>
      </trkpt>
      <trkpt lat="59.207434" lon="18.140622">
        <ele>45</ele>
        <time>2019-11-15T16:03:53Z</time>
      </trkpt>
      <trkpt lat="59.207467" lon="18.140646">
        <ele>45</ele>
        <time>2019-11-15T16:03:54Z</time>
      </trkpt>
      <trkpt lat="59.207508" lon="18.14068">
        <ele>45</ele>
        <time>2019-11-15T16:03:55Z</time>
      </trkpt>
      <trkpt lat="59.207551" lon="18.140718">
        <ele>46</ele>
        <time>2019-11-15T16:03:56Z</time>
      </trkpt>
      <trkpt lat="59.207594" lon="18.140755">
        <ele>46</ele>
        <time>2019-11-15T16:03:57Z</time>
      </trkpt>
      <trkpt lat="59.207633" lon="18.140788">
        <ele>46</ele>
        <time>2019-11-15T16:03:58Z</time>
      </trkpt>
      <trkpt lat="59.207667" lon="18.14082">
        <ele>46</ele>
        <time>2019-11-15T16:03:59Z</time>
      </trkpt>
      <trkpt lat="59.207697" lon="18.140853">
        <ele>47</ele>
        <time>2019-11-15T16:04:00Z</time>
      </trkpt>
      <trkpt lat="59.207733" lon="18.14089">
        <ele>47</ele>
        <time>2019-11-15T16:04:01Z</time>
      </trkpt>
      <trkpt lat="59.207777" lon="18.140934">
        <ele>47</ele>
        <time>2019-11-15T16:04:02Z</time>
      </trkpt>
      <trkpt lat="59.207815" lon="18.140973">
        <ele>47</ele>
        <time>2019-11-15T16:04:03Z</time>
      </trkpt>
      <trkpt lat="59.207853" lon="18.14102">
        <ele>47</ele>
        <time>2019-11-15T16:04:04Z</time>
      </trkpt>
      <trkpt lat="59.207891" lon="18.141066">
        <ele>47</ele>
        <time>2019-11-15T16:04:05Z</time>
      </trkpt>
      <trkpt lat="59.207925" lon="18.14111">
        <ele>47</ele>
        <time>2019-11-15T16:04:06Z</time>
      </trkpt>
      <trkpt lat="59.207958" lon="18.141153">
        <ele>48</ele>
        <time>2019-11-15T16:04:07Z</time>
      </trkpt>
      <trkpt lat="59.20799" lon="18.141198">
        <ele>48</ele>
        <time>2019-11-15T16:04:08Z</time>
      </trkpt>
      <trkpt lat="59.208025" lon="18.141236">
        <ele>48</ele>
        <time>2019-11-15T16:04:09Z</time>
      </trkpt>
      <trkpt lat="59.20807" lon="18.141281">
        <ele>48</ele>
        <time>2019-11-15T16:04:10Z</time>
      </trkpt>
      <trkpt lat="59.208101" lon="18.141326">
        <ele>48</ele>
        <time>2019-11-15T16:04:11Z</time>
      </trkpt>
      <trkpt lat="59.208133" lon="18.14137">
        <ele>48</ele>
        <time>2019-11-15T16:04:12Z</time>
      </trkpt>
      <trkpt lat="59.208167" lon="18.141418">
        <ele>48</ele>
        <time>2019-11-15T16:04:13Z</time>
      </trkpt>
      <trkpt lat="59.208199" lon="18.141466">
        <ele>48</ele>
        <time>2019-11-15T16:04:14Z</time>
      </trkpt>
      <trkpt lat="59.208231" lon="18.141509">
        <ele>48</ele>
        <time>2019-11-15T16:04:15Z</time>
      </trkpt>
      <trkpt lat="59.208262" lon="18.141551">
        <ele>49</ele>
        <time>2019-11-15T16:04:16Z</time>
      </trkpt>
      <trkpt lat="59.20829" lon="18.141594">
        <ele>49</ele>
        <time>2019-11-15T16:04:17Z</time>
      </trkpt>
      <trkpt lat="59.208318" lon="18.141636">
        <ele>49</ele>
        <time>2019-11-15T16:04:18Z</time>
      </trkpt>
      <trkpt lat="59.208342" lon="18.14168">
        <ele>49</ele>
        <time>2019-11-15T16:04:19Z</time>
      </trkpt>
      <trkpt lat="59.208368" lon="18.141724">
        <ele>49</ele>
        <time>2019-11-15T16:04:20Z</time>
      </trkpt>
      <trkpt lat="59.208393" lon="18.14177">
        <ele>49</ele>
        <time>2019-11-15T16:04:21Z</time>
      </trkpt>
      <trkpt lat="59.208418" lon="18.141815">
        <ele>49</ele>
        <time>2019-11-15T16:04:22Z</time>
      </trkpt>
      <trkpt lat="59.208441" lon="18.141864">
        <ele>49</ele>
        <time>2019-11-15T16:04:23Z</time>
      </trkpt>
      <trkpt lat="59.208464" lon="18.141912">
        <ele>49</ele>
        <time>2019-11-15T16:04:24Z</time>
      </trkpt>
      <trkpt lat="59.208486" lon="18.141964">
        <ele>49</ele>
        <time>2019-11-15T16:04:25Z</time>
      </trkpt>
      <trkpt lat="59.208511" lon="18.142012">
        <ele>49</ele>
        <time>2019-11-15T16:04:26Z</time>
      </trkpt>
      <trkpt lat="59.208536" lon="18.142062">
        <ele>0</ele>
        <time>2019-11-15T16:04:26Z</time>
      </trkpt>
      <trkpt lat="59.208559" lon="18.142112">
        <ele>50</ele>
        <time>2019-11-15T16:04:27Z</time>
      </trkpt>
      <trkpt lat="59.208581" lon="18.142162">
        <ele>50</ele>
        <time>2019-11-15T16:04:29Z</time>
      </trkpt>
      <trkpt lat="59.208603" lon="18.14221">
        <ele>50</ele>
        <time>2019-11-15T16:04:30Z</time>
      </trkpt>
      <trkpt lat="59.208626" lon="18.14226">
        <ele>50</ele>
        <time>2019-11-15T16:04:31Z</time>
      </trkpt>
      <trkpt lat="59.208648" lon="18.142312">
        <ele>51</ele>
        <time>2019-11-15T16:04:32Z</time>
      </trkpt>
      <trkpt lat="59.208673" lon="18.142362">
        <ele>51</ele>
        <time>2019-11-15T16:04:33Z</time>
      </trkpt>
      <trkpt lat="59.208698" lon="18.142416">
        <ele>51</ele>
        <time>2019-11-15T16:04:34Z</time>
      </trkpt>
      <trkpt lat="59.208721" lon="18.142473">
        <ele>51</ele>
        <time>2019-11-15T16:04:35Z</time>
      </trkpt>
      <trkpt lat="59.208745" lon="18.142532">
        <ele>52</ele>
        <time>2019-11-15T16:04:36Z</time>
      </trkpt>
      <trkpt lat="59.208769" lon="18.142592">
        <ele>52</ele>
        <time>2019-11-15T16:04:37Z</time>
      </trkpt>
      <trkpt lat="59.208797" lon="18.142654">
        <ele>52</ele>
        <time>2019-11-15T16:04:38Z</time>
      </trkpt>
      <trkpt lat="59.208823" lon="18.142718">
        <ele>52</ele>
        <time>2019-11-15T16:04:39Z</time>
      </trkpt>
      <trkpt lat="59.20885" lon="18.142784">
        <ele>52</ele>
        <time>2019-11-15T16:04:40Z</time>
      </trkpt>
      <trkpt lat="59.208877" lon="18.14285">
        <ele>52</ele>
        <time>2019-11-15T16:04:41Z</time>
      </trkpt>
      <trkpt lat="59.208907" lon="18.142918">
        <ele>52</ele>
        <time>2019-11-15T16:04:42Z</time>
      </trkpt>
      <trkpt lat="59.208937" lon="18.142986">
        <ele>52</ele>
        <time>2019-11-15T16:04:43Z</time>
      </trkpt>
      <trkpt lat="59.208965" lon="18.143056">
        <ele>52</ele>
        <time>2019-11-15T16:04:44Z</time>
      </trkpt>
      <trkpt lat="59.208992" lon="18.143124">
        <ele>53</ele>
        <time>2019-11-15T16:04:45Z</time>
      </trkpt>
      <trkpt lat="59.20902" lon="18.143194">
        <ele>0</ele>
        <time>2019-11-15T16:04:45Z</time>
      </trkpt>
      <trkpt lat="59.209052" lon="18.143262">
        <ele>53</ele>
        <time>2019-11-15T16:04:46Z</time>
      </trkpt>
      <trkpt lat="59.209084" lon="18.143336">
        <ele>53</ele>
        <time>2019-11-15T16:04:48Z</time>
      </trkpt>
      <trkpt lat="59.209122" lon="18.14341">
        <ele>52</ele>
        <time>2019-11-15T16:04:49Z</time>
      </trkpt>
      <trkpt lat="59.209153" lon="18.143486">
        <ele>52</ele>
        <time>2019-11-15T16:04:50Z</time>
      </trkpt>
      <trkpt lat="59.209184" lon="18.143566">
        <ele>52</ele>
        <time>2019-11-15T16:04:51Z</time>
      </trkpt>
      <trkpt lat="59.209219" lon="18.143647">
        <ele>52</ele>
        <time>2019-11-15T16:04:52Z</time>
      </trkpt>
      <trkpt lat="59.209253" lon="18.143728">
        <ele>52</ele>
        <time>2019-11-15T16:04:53Z</time>
      </trkpt>
      <trkpt lat="59.209288" lon="18.143806">
        <ele>52</ele>
        <time>2019-11-15T16:04:54Z</time>
      </trkpt>
      <trkpt lat="59.20932" lon="18.143886">
        <ele>52</ele>
        <time>2019-11-15T16:04:55Z</time>
      </trkpt>
      <trkpt lat="59.209352" lon="18.143966">
        <ele>52</ele>
        <time>2019-11-15T16:04:56Z</time>
      </trkpt>
      <trkpt lat="59.209383" lon="18.144046">
        <ele>52</ele>
        <time>2019-11-15T16:04:57Z</time>
      </trkpt>
      <trkpt lat="59.209413" lon="18.144126">
        <ele>52</ele>
        <time>2019-11-15T16:04:58Z</time>
      </trkpt>
      <trkpt lat="59.209444" lon="18.144208">
        <ele>52</ele>
        <time>2019-11-15T16:04:59Z</time>
      </trkpt>
      <trkpt lat="59.20947" lon="18.14429">
        <ele>52</ele>
        <time>2019-11-15T16:05:00Z</time>
      </trkpt>
      <trkpt lat="59.209491" lon="18.144378">
        <ele>52</ele>
        <time>2019-11-15T16:05:01Z</time>
      </trkpt>
      <trkpt lat="59.209508" lon="18.144466">
        <ele>52</ele>
        <time>2019-11-15T16:05:02Z</time>
      </trkpt>
      <trkpt lat="59.209516" lon="18.144553">
        <ele>52</ele>
        <time>2019-11-15T16:05:03Z</time>
      </trkpt>
      <trkpt lat="59.209519" lon="18.144635">
        <ele>52</ele>
        <time>2019-11-15T16:05:04Z</time>
      </trkpt>
      <trkpt lat="59.209531" lon="18.14471">
        <ele>51</ele>
        <time>2019-11-15T16:05:05Z</time>
      </trkpt>
      <trkpt lat="59.209554" lon="18.14478">
        <ele>51</ele>
        <time>2019-11-15T16:05:06Z</time>
      </trkpt>
      <trkpt lat="59.209585" lon="18.144847">
        <ele>51</ele>
        <time>2019-11-15T16:05:07Z</time>
      </trkpt>
      <trkpt lat="59.209624" lon="18.144901">
        <ele>51</ele>
        <time>2019-11-15T16:05:08Z</time>
      </trkpt>
      <trkpt lat="59.209665" lon="18.144938">
        <ele>51</ele>
        <time>2019-11-15T16:05:09Z</time>
      </trkpt>
      <trkpt lat="59.209706" lon="18.144975">
        <ele>51</ele>
        <time>2019-11-15T16:05:10Z</time>
      </trkpt>
      <trkpt lat="59.209746" lon="18.145022">
        <ele>51</ele>
        <time>2019-11-15T16:05:11Z</time>
      </trkpt>
      <trkpt lat="59.209786" lon="18.145073">
        <ele>51</ele>
        <time>2019-11-15T16:05:12Z</time>
      </trkpt>
      <trkpt lat="59.209824" lon="18.145133">
        <ele>51</ele>
        <time>2019-11-15T16:05:13Z</time>
      </trkpt>
      <trkpt lat="59.209861" lon="18.145203">
        <ele>51</ele>
        <time>2019-11-15T16:05:14Z</time>
      </trkpt>
      <trkpt lat="59.209896" lon="18.145278">
        <ele>51</ele>
        <time>2019-11-15T16:05:15Z</time>
      </trkpt>
      <trkpt lat="59.209925" lon="18.145356">
        <ele>51</ele>
        <time>2019-11-15T16:05:16Z</time>
      </trkpt>
      <trkpt lat="59.209952" lon="18.145435">
        <ele>51</ele>
        <time>2019-11-15T16:05:17Z</time>
      </trkpt>
      <trkpt lat="59.209977" lon="18.145515">
        <ele>51</ele>
        <time>2019-11-15T16:05:18Z</time>
      </trkpt>
      <trkpt lat="59.210003" lon="18.145596">
        <ele>51</ele>
        <time>2019-11-15T16:05:19Z</time>
      </trkpt>
      <trkpt lat="59.210035" lon="18.145675">
        <ele>51</ele>
        <time>2019-11-15T16:05:20Z</time>
      </trkpt>
      <trkpt lat="59.210071" lon="18.145749">
        <ele>51</ele>
        <time>2019-11-15T16:05:21Z</time>
      </trkpt>
      <trkpt lat="59.210114" lon="18.145819">
        <ele>51</ele>
        <time>2019-11-15T16:05:22Z</time>
      </trkpt>
      <trkpt lat="59.210159" lon="18.145877">
        <ele>50</ele>
        <time>2019-11-15T16:05:23Z</time>
      </trkpt>
      <trkpt lat="59.210209" lon="18.145923">
        <ele>50</ele>
        <time>2019-11-15T16:05:24Z</time>
      </trkpt>
      <trkpt lat="59.210263" lon="18.145968">
        <ele>50</ele>
        <time>2019-11-15T16:05:25Z</time>
      </trkpt>
      <trkpt lat="59.210323" lon="18.146023">
        <ele>50</ele>
        <time>2019-11-15T16:05:26Z</time>
      </trkpt>
      <trkpt lat="59.210386" lon="18.146084">
        <ele>50</ele>
        <time>2019-11-15T16:05:27Z</time>
      </trkpt>
      <trkpt lat="59.210451" lon="18.14615">
        <ele>50</ele>
        <time>2019-11-15T16:05:28Z</time>
      </trkpt>
      <trkpt lat="59.210517" lon="18.14622">
        <ele>49</ele>
        <time>2019-11-15T16:05:29Z</time>
      </trkpt>
      <trkpt lat="59.210581" lon="18.146292">
        <ele>50</ele>
        <time>2019-11-15T16:05:30Z</time>
      </trkpt>
      <trkpt lat="59.210644" lon="18.146366">
        <ele>50</ele>
        <time>2019-11-15T16:05:31Z</time>
      </trkpt>
      <trkpt lat="59.210712" lon="18.14644">
        <ele>50</ele>
        <time>2019-11-15T16:05:32Z</time>
      </trkpt>
      <trkpt lat="59.210785" lon="18.146511">
        <ele>49</ele>
        <time>2019-11-15T16:05:33Z</time>
      </trkpt>
      <trkpt lat="59.210861" lon="18.146581">
        <ele>49</ele>
        <time>2019-11-15T16:05:34Z</time>
      </trkpt>
      <trkpt lat="59.210935" lon="18.14665">
        <ele>49</ele>
        <time>2019-11-15T16:05:35Z</time>
      </trkpt>
      <trkpt lat="59.211015" lon="18.146717">
        <ele>49</ele>
        <time>2019-11-15T16:05:36Z</time>
      </trkpt>
      <trkpt lat="59.211092" lon="18.146782">
        <ele>49</ele>
        <time>2019-11-15T16:05:37Z</time>
      </trkpt>
      <trkpt lat="59.21117" lon="18.146843">
        <ele>49</ele>
        <time>2019-11-15T16:05:38Z</time>
      </trkpt>
      <trkpt lat="59.211251" lon="18.146898">
        <ele>49</ele>
        <time>2019-11-15T16:05:39Z</time>
      </trkpt>
      <trkpt lat="59.211332" lon="18.146944">
        <ele>48</ele>
        <time>2019-11-15T16:05:40Z</time>
      </trkpt>
      <trkpt lat="59.211414" lon="18.146987">
        <ele>48</ele>
        <time>2019-11-15T16:05:41Z</time>
      </trkpt>
      <trkpt lat="59.2115" lon="18.147028">
        <ele>48</ele>
        <time>2019-11-15T16:05:42Z</time>
      </trkpt>
      <trkpt lat="59.21158" lon="18.147064">
        <ele>48</ele>
        <time>2019-11-15T16:05:43Z</time>
      </trkpt>
      <trkpt lat="59.211658" lon="18.147094">
        <ele>48</ele>
        <time>2019-11-15T16:05:44Z</time>
      </trkpt>
      <trkpt lat="59.211738" lon="18.147115">
        <ele>47</ele>
        <time>2019-11-15T16:05:45Z</time>
      </trkpt>
      <trkpt lat="59.211832" lon="18.147132">
        <ele>47</ele>
        <time>2019-11-15T16:05:46Z</time>
      </trkpt>
      <trkpt lat="59.211933" lon="18.147147">
        <ele>47</ele>
        <time>2019-11-15T16:05:47Z</time>
      </trkpt>
      <trkpt lat="59.212047" lon="18.147159">
        <ele>46</ele>
        <time>2019-11-15T16:05:48Z</time>
      </trkpt>
      <trkpt lat="59.212153" lon="18.147169">
        <ele>46</ele>
        <time>2019-11-15T16:05:49Z</time>
      </trkpt>
      <trkpt lat="59.212253" lon="18.147178">
        <ele>45</ele>
        <time>2019-11-15T16:05:50Z</time>
      </trkpt>
      <trkpt lat="59.212352" lon="18.147179">
        <ele>43</ele>
        <time>2019-11-15T16:05:51Z</time>
      </trkpt>
      <trkpt lat="59.212451" lon="18.147176">
        <ele>42</ele>
        <time>2019-11-15T16:05:52Z</time>
      </trkpt>
      <trkpt lat="59.212545" lon="18.147169">
        <ele>41</ele>
        <time>2019-11-15T16:05:53Z</time>
      </trkpt>
      <trkpt lat="59.21264" lon="18.147157">
        <ele>40</ele>
        <time>2019-11-15T16:05:54Z</time>
      </trkpt>
      <trkpt lat="59.212737" lon="18.147138">
        <ele>39</ele>
        <time>2019-11-15T16:05:55Z</time>
      </trkpt>
      <trkpt lat="59.212832" lon="18.147116">
        <ele>39</ele>
        <time>2019-11-15T16:05:56Z</time>
      </trkpt>
      <trkpt lat="59.212927" lon="18.147088">
        <ele>38</ele>
        <time>2019-11-15T16:05:57Z</time>
      </trkpt>
      <trkpt lat="59.213021" lon="18.147057">
        <ele>37</ele>
        <time>2019-11-15T16:05:58Z</time>
      </trkpt>
      <trkpt lat="59.213114" lon="18.147019">
        <ele>37</ele>
        <time>2019-11-15T16:05:59Z</time>
      </trkpt>
      <trkpt lat="59.213207" lon="18.146974">
        <ele>36</ele>
        <time>2019-11-15T16:06:00Z</time>
      </trkpt>
      <trkpt lat="59.213299" lon="18.146923">
        <ele>36</ele>
        <time>2019-11-15T16:06:01Z</time>
      </trkpt>
      <trkpt lat="59.21339" lon="18.146864">
        <ele>35</ele>
        <time>2019-11-15T16:06:02Z</time>
      </trkpt>
      <trkpt lat="59.21348" lon="18.146798">
        <ele>35</ele>
        <time>2019-11-15T16:06:03Z</time>
      </trkpt>
      <trkpt lat="59.213568" lon="18.146729">
        <ele>35</ele>
        <time>2019-11-15T16:06:04Z</time>
      </trkpt>
      <trkpt lat="59.213654" lon="18.146656">
        <ele>35</ele>
        <time>2019-11-15T16:06:05Z</time>
      </trkpt>
      <trkpt lat="59.213739" lon="18.146578">
        <ele>34</ele>
        <time>2019-11-15T16:06:06Z</time>
      </trkpt>
      <trkpt lat="59.213821" lon="18.146495">
        <ele>34</ele>
        <time>2019-11-15T16:06:07Z</time>
      </trkpt>
      <trkpt lat="59.213901" lon="18.146409">
        <ele>34</ele>
        <time>2019-11-15T16:06:08Z</time>
      </trkpt>
      <trkpt lat="59.213976" lon="18.146316">
        <ele>34</ele>
        <time>2019-11-15T16:06:09Z</time>
      </trkpt>
      <trkpt lat="59.214051" lon="18.146222">
        <ele>33</ele>
        <time>2019-11-15T16:06:10Z</time>
      </trkpt>
      <trkpt lat="59.214126" lon="18.146128">
        <ele>33</ele>
        <time>2019-11-15T16:06:11Z</time>
      </trkpt>
      <trkpt lat="59.214201" lon="18.146035">
        <ele>33</ele>
        <time>2019-11-15T16:06:12Z</time>
      </trkpt>
      <trkpt lat="59.214275" lon="18.145944">
        <ele>33</ele>
        <time>2019-11-15T16:06:13Z</time>
      </trkpt>
      <trkpt lat="59.214353" lon="18.145857">
        <ele>33</ele>
        <time>2019-11-15T16:06:14Z</time>
      </trkpt>
      <trkpt lat="59.214427" lon="18.145768">
        <ele>32</ele>
        <time>2019-11-15T16:06:15Z</time>
      </trkpt>
      <trkpt lat="59.2145" lon="18.145677">
        <ele>33</ele>
        <time>2019-11-15T16:06:16Z</time>
      </trkpt>
      <trkpt lat="59.214574" lon="18.145588">
        <ele>33</ele>
        <time>2019-11-15T16:06:17Z</time>
      </trkpt>
      <trkpt lat="59.21465" lon="18.1455">
        <ele>32</ele>
        <time>2019-11-15T16:06:18Z</time>
      </trkpt>
      <trkpt lat="59.214723" lon="18.145412">
        <ele>32</ele>
        <time>2019-11-15T16:06:19Z</time>
      </trkpt>
      <trkpt lat="59.214793" lon="18.145326">
        <ele>32</ele>
        <time>2019-11-15T16:06:20Z</time>
      </trkpt>
      <trkpt lat="59.214863" lon="18.14524">
        <ele>32</ele>
        <time>2019-11-15T16:06:21Z</time>
      </trkpt>
      <trkpt lat="59.214933" lon="18.145156">
        <ele>32</ele>
        <time>2019-11-15T16:06:22Z</time>
      </trkpt>
      <trkpt lat="59.214999" lon="18.145073">
        <ele>32</ele>
        <time>2019-11-15T16:06:23Z</time>
      </trkpt>
      <trkpt lat="59.215067" lon="18.144991">
        <ele>32</ele>
        <time>2019-11-15T16:06:24Z</time>
      </trkpt>
      <trkpt lat="59.215134" lon="18.144909">
        <ele>32</ele>
        <time>2019-11-15T16:06:25Z</time>
      </trkpt>
      <trkpt lat="59.2152" lon="18.144825">
        <ele>31</ele>
        <time>2019-11-15T16:06:26Z</time>
      </trkpt>
      <trkpt lat="59.215267" lon="18.144742">
        <ele>31</ele>
        <time>2019-11-15T16:06:27Z</time>
      </trkpt>
      <trkpt lat="59.215334" lon="18.144662">
        <ele>31</ele>
        <time>2019-11-15T16:06:28Z</time>
      </trkpt>
      <trkpt lat="59.215399" lon="18.144584">
        <ele>30</ele>
        <time>2019-11-15T16:06:29Z</time>
      </trkpt>
      <trkpt lat="59.215466" lon="18.144504">
        <ele>30</ele>
        <time>2019-11-15T16:06:30Z</time>
      </trkpt>
      <trkpt lat="59.215532" lon="18.144421">
        <ele>30</ele>
        <time>2019-11-15T16:06:31Z</time>
      </trkpt>
      <trkpt lat="59.2156" lon="18.144342">
        <ele>30</ele>
        <time>2019-11-15T16:06:32Z</time>
      </trkpt>
      <trkpt lat="59.215671" lon="18.144266">
        <ele>29</ele>
        <time>2019-11-15T16:06:33Z</time>
      </trkpt>
      <trkpt lat="59.215739" lon="18.144191">
        <ele>29</ele>
        <time>2019-11-15T16:06:34Z</time>
      </trkpt>
      <trkpt lat="59.215803" lon="18.144115">
        <ele>28</ele>
        <time>2019-11-15T16:06:35Z</time>
      </trkpt>
      <trkpt lat="59.215868" lon="18.144038">
        <ele>28</ele>
        <time>2019-11-15T16:06:36Z</time>
      </trkpt>
      <trkpt lat="59.215928" lon="18.143961">
        <ele>28</ele>
        <time>2019-11-15T16:06:37Z</time>
      </trkpt>
      <trkpt lat="59.215993" lon="18.143882">
        <ele>28</ele>
        <time>2019-11-15T16:06:38Z</time>
      </trkpt>
      <trkpt lat="59.216057" lon="18.143807">
        <ele>27</ele>
        <time>2019-11-15T16:06:39Z</time>
      </trkpt>
      <trkpt lat="59.216122" lon="18.143735">
        <ele>27</ele>
        <time>2019-11-15T16:06:40Z</time>
      </trkpt>
      <trkpt lat="59.216185" lon="18.143662">
        <ele>27</ele>
        <time>2019-11-15T16:06:41Z</time>
      </trkpt>
      <trkpt lat="59.216247" lon="18.143589">
        <ele>26</ele>
        <time>2019-11-15T16:06:42Z</time>
      </trkpt>
      <trkpt lat="59.216308" lon="18.143515">
        <ele>26</ele>
        <time>2019-11-15T16:06:43Z</time>
      </trkpt>
      <trkpt lat="59.216369" lon="18.143442">
        <ele>26</ele>
        <time>2019-11-15T16:06:44Z</time>
      </trkpt>
      <trkpt lat="59.216432" lon="18.143371">
        <ele>26</ele>
        <time>2019-11-15T16:06:45Z</time>
      </trkpt>
      <trkpt lat="59.216492" lon="18.143301">
        <ele>26</ele>
        <time>2019-11-15T16:06:46Z</time>
      </trkpt>
      <trkpt lat="59.216552" lon="18.143234">
        <ele>26</ele>
        <time>2019-11-15T16:06:47Z</time>
      </trkpt>
      <trkpt lat="59.216611" lon="18.143167">
        <ele>26</ele>
        <time>2019-11-15T16:06:48Z</time>
      </trkpt>
      <trkpt lat="59.216668" lon="18.1431">
        <ele>26</ele>
        <time>2019-11-15T16:06:49Z</time>
      </trkpt>
      <trkpt lat="59.216724" lon="18.143034">
        <ele>25</ele>
        <time>2019-11-15T16:06:50Z</time>
      </trkpt>
      <trkpt lat="59.21678" lon="18.142971">
        <ele>25</ele>
        <time>2019-11-15T16:06:51Z</time>
      </trkpt>
      <trkpt lat="59.216836" lon="18.142912">
        <ele>25</ele>
        <time>2019-11-15T16:06:52Z</time>
      </trkpt>
      <trkpt lat="59.216891" lon="18.142853">
        <ele>25</ele>
        <time>2019-11-15T16:06:53Z</time>
      </trkpt>
      <trkpt lat="59.216945" lon="18.142793">
        <ele>25</ele>
        <time>2019-11-15T16:06:54Z</time>
      </trkpt>
      <trkpt lat="59.216997" lon="18.142733">
        <ele>25</ele>
        <time>2019-11-15T16:06:55Z</time>
      </trkpt>
      <trkpt lat="59.217047" lon="18.142674">
        <ele>25</ele>
        <time>2019-11-15T16:06:56Z</time>
      </trkpt>
      <trkpt lat="59.217097" lon="18.142616">
        <ele>25</ele>
        <time>2019-11-15T16:06:57Z</time>
      </trkpt>
      <trkpt lat="59.217148" lon="18.142557">
        <ele>25</ele>
        <time>2019-11-15T16:06:58Z</time>
      </trkpt>
      <trkpt lat="59.217198" lon="18.1425">
        <ele>25</ele>
        <time>2019-11-15T16:06:59Z</time>
      </trkpt>
      <trkpt lat="59.217248" lon="18.142441">
        <ele>24</ele>
        <time>2019-11-15T16:07:00Z</time>
      </trkpt>
      <trkpt lat="59.2173" lon="18.142383">
        <ele>24</ele>
        <time>2019-11-15T16:07:01Z</time>
      </trkpt>
      <trkpt lat="59.21735" lon="18.142322">
        <ele>24</ele>
        <time>2019-11-15T16:07:02Z</time>
      </trkpt>
      <trkpt lat="59.217403" lon="18.142262">
        <ele>24</ele>
        <time>2019-11-15T16:07:03Z</time>
      </trkpt>
      <trkpt lat="59.217455" lon="18.1422">
        <ele>24</ele>
        <time>2019-11-15T16:07:04Z</time>
      </trkpt>
      <trkpt lat="59.217508" lon="18.142139">
        <ele>24</ele>
        <time>2019-11-15T16:07:05Z</time>
      </trkpt>
      <trkpt lat="59.217558" lon="18.142079">
        <ele>24</ele>
        <time>2019-11-15T16:07:06Z</time>
      </trkpt>
      <trkpt lat="59.217612" lon="18.142024">
        <ele>24</ele>
        <time>2019-11-15T16:07:07Z</time>
      </trkpt>
      <trkpt lat="59.217665" lon="18.141968">
        <ele>24</ele>
        <time>2019-11-15T16:07:08Z</time>
      </trkpt>
      <trkpt lat="59.217716" lon="18.141915">
        <ele>24</ele>
        <time>2019-11-15T16:07:09Z</time>
      </trkpt>
      <trkpt lat="59.217766" lon="18.141862">
        <ele>24</ele>
        <time>2019-11-15T16:07:10Z</time>
      </trkpt>
      <trkpt lat="59.217816" lon="18.141807">
        <ele>24</ele>
        <time>2019-11-15T16:07:11Z</time>
      </trkpt>
      <trkpt lat="59.217863" lon="18.141752">
        <ele>24</ele>
        <time>2019-11-15T16:07:12Z</time>
      </trkpt>
      <trkpt lat="59.21791" lon="18.141696">
        <ele>24</ele>
        <time>2019-11-15T16:07:13Z</time>
      </trkpt>
      <trkpt lat="59.217956" lon="18.14164">
        <ele>23</ele>
        <time>2019-11-15T16:07:14Z</time>
      </trkpt>
      <trkpt lat="59.218002" lon="18.141588">
        <ele>23</ele>
        <time>2019-11-15T16:07:15Z</time>
      </trkpt>
      <trkpt lat="59.218051" lon="18.141538">
        <ele>23</ele>
        <time>2019-11-15T16:07:16Z</time>
      </trkpt>
      <trkpt lat="59.2181" lon="18.141492">
        <ele>23</ele>
        <time>2019-11-15T16:07:17Z</time>
      </trkpt>
      <trkpt lat="59.218146" lon="18.141466">
        <ele>0</ele>
        <time>2019-11-15T16:07:17Z</time>
      </trkpt>
      <trkpt lat="59.218188" lon="18.141466">
        <ele>23</ele>
        <time>2019-11-15T16:07:18Z</time>
      </trkpt>
      <trkpt lat="59.218225" lon="18.14149">
        <ele>22</ele>
        <time>2019-11-15T16:07:20Z</time>
      </trkpt>
      <trkpt lat="59.218264" lon="18.14153">
        <ele>22</ele>
        <time>2019-11-15T16:07:21Z</time>
      </trkpt>
      <trkpt lat="59.218294" lon="18.141578">
        <ele>22</ele>
        <time>2019-11-15T16:07:22Z</time>
      </trkpt>
      <trkpt lat="59.218322" lon="18.141617">
        <ele>22</ele>
        <time>2019-11-15T16:07:23Z</time>
      </trkpt>
      <trkpt lat="59.218349" lon="18.141628">
        <ele>22</ele>
        <time>2019-11-15T16:07:24Z</time>
      </trkpt>
      <trkpt lat="59.218374" lon="18.141617">
        <ele>22</ele>
        <time>2019-11-15T16:07:25Z</time>
      </trkpt>
      <trkpt lat="59.218398" lon="18.1416">
        <ele>22</ele>
        <time>2019-11-15T16:07:26Z</time>
      </trkpt>
      <trkpt lat="59.218428" lon="18.141584">
        <ele>22</ele>
        <time>2019-11-15T16:07:27Z</time>
      </trkpt>
      <trkpt lat="59.21847" lon="18.141568">
        <ele>22</ele>
        <time>2019-11-15T16:07:28Z</time>
      </trkpt>
      <trkpt lat="59.218512" lon="18.141557">
        <ele>22</ele>
        <time>2019-11-15T16:07:29Z</time>
      </trkpt>
      <trkpt lat="59.218554" lon="18.141544">
        <ele>22</ele>
        <time>2019-11-15T16:07:30Z</time>
      </trkpt>
      <trkpt lat="59.218592" lon="18.141504">
        <ele>22</ele>
        <time>2019-11-15T16:07:31Z</time>
      </trkpt>
      <trkpt lat="59.218614" lon="18.141429">
        <ele>22</ele>
        <time>2019-11-15T16:07:32Z</time>
      </trkpt>
      <trkpt lat="59.218624" lon="18.141336">
        <ele>22</ele>
        <time>2019-11-15T16:07:33Z</time>
      </trkpt>
      <trkpt lat="59.218632" lon="18.141234">
        <ele>22</ele>
        <time>2019-11-15T16:07:34Z</time>
      </trkpt>
      <trkpt lat="59.218644" lon="18.141132">
        <ele>22</ele>
        <time>2019-11-15T16:07:35Z</time>
      </trkpt>
      <trkpt lat="59.218658" lon="18.141027">
        <ele>22</ele>
        <time>2019-11-15T16:07:36Z</time>
      </trkpt>
      <trkpt lat="59.218678" lon="18.140925">
        <ele>22</ele>
        <time>2019-11-15T16:07:37Z</time>
      </trkpt>
      <trkpt lat="59.218706" lon="18.140834">
        <ele>22</ele>
        <time>2019-11-15T16:07:38Z</time>
      </trkpt>
      <trkpt lat="59.218742" lon="18.140752">
        <ele>21</ele>
        <time>2019-11-15T16:07:39Z</time>
      </trkpt>
      <trkpt lat="59.218786" lon="18.140678">
        <ele>21</ele>
        <time>2019-11-15T16:07:40Z</time>
      </trkpt>
      <trkpt lat="59.218836" lon="18.140614">
        <ele>21</ele>
        <time>2019-11-15T16:07:41Z</time>
      </trkpt>
      <trkpt lat="59.218886" lon="18.140554">
        <ele>21</ele>
        <time>2019-11-15T16:07:42Z</time>
      </trkpt>
      <trkpt lat="59.218938" lon="18.140494">
        <ele>21</ele>
        <time>2019-11-15T16:07:43Z</time>
      </trkpt>
      <trkpt lat="59.21899" lon="18.140434">
        <ele>21</ele>
        <time>2019-11-15T16:07:44Z</time>
      </trkpt>
      <trkpt lat="59.219043" lon="18.140372">
        <ele>21</ele>
        <time>2019-11-15T16:07:45Z</time>
      </trkpt>
      <trkpt lat="59.219095" lon="18.140313">
        <ele>21</ele>
        <time>2019-11-15T16:07:46Z</time>
      </trkpt>
      <trkpt lat="59.219145" lon="18.14025">
        <ele>21</ele>
        <time>2019-11-15T16:07:47Z</time>
      </trkpt>
      <trkpt lat="59.219198" lon="18.14019">
        <ele>22</ele>
        <time>2019-11-15T16:07:48Z</time>
      </trkpt>
      <trkpt lat="59.219249" lon="18.14013">
        <ele>22</ele>
        <time>2019-11-15T16:07:49Z</time>
      </trkpt>
      <trkpt lat="59.219302" lon="18.140068">
        <ele>22</ele>
        <time>2019-11-15T16:07:50Z</time>
      </trkpt>
      <trkpt lat="59.219354" lon="18.140006">
        <ele>22</ele>
        <time>2019-11-15T16:07:51Z</time>
      </trkpt>
      <trkpt lat="59.219404" lon="18.139943">
        <ele>22</ele>
        <time>2019-11-15T16:07:52Z</time>
      </trkpt>
      <trkpt lat="59.219454" lon="18.13988">
        <ele>22</ele>
        <time>2019-11-15T16:07:53Z</time>
      </trkpt>
      <trkpt lat="59.219504" lon="18.13982">
        <ele>22</ele>
        <time>2019-11-15T16:07:54Z</time>
      </trkpt>
      <trkpt lat="59.219554" lon="18.139764">
        <ele>22</ele>
        <time>2019-11-15T16:07:55Z</time>
      </trkpt>
      <trkpt lat="59.219602" lon="18.13971">
        <ele>22</ele>
        <time>2019-11-15T16:07:56Z</time>
      </trkpt>
      <trkpt lat="59.219649" lon="18.139658">
        <ele>22</ele>
        <time>2019-11-15T16:07:57Z</time>
      </trkpt>
      <trkpt lat="59.219694" lon="18.13961">
        <ele>23</ele>
        <time>2019-11-15T16:07:58Z</time>
      </trkpt>
      <trkpt lat="59.219741" lon="18.139562">
        <ele>23</ele>
        <time>2019-11-15T16:07:59Z</time>
      </trkpt>
      <trkpt lat="59.219786" lon="18.139509">
        <ele>23</ele>
        <time>2019-11-15T16:08:00Z</time>
      </trkpt>
      <trkpt lat="59.219833" lon="18.139452">
        <ele>0</ele>
        <time>2019-11-15T16:08:00Z</time>
      </trkpt>
      <trkpt lat="59.219879" lon="18.139396">
        <ele>23</ele>
        <time>2019-11-15T16:08:01Z</time>
      </trkpt>
      <trkpt lat="59.219964" lon="18.139282">
        <ele>23</ele>
        <time>2019-11-15T16:08:04Z</time>
      </trkpt>
      <trkpt lat="59.220009" lon="18.139223">
        <ele>23</ele>
        <time>2019-11-15T16:08:05Z</time>
      </trkpt>
      <trkpt lat="59.220052" lon="18.139167">
        <ele>23</ele>
        <time>2019-11-15T16:08:06Z</time>
      </trkpt>
      <trkpt lat="59.220091" lon="18.139115">
        <ele>23</ele>
        <time>2019-11-15T16:08:07Z</time>
      </trkpt>
      <trkpt lat="59.220127" lon="18.139069">
        <ele>23</ele>
        <time>2019-11-15T16:08:08Z</time>
      </trkpt>
      <trkpt lat="59.220161" lon="18.139023">
        <ele>24</ele>
        <time>2019-11-15T16:08:09Z</time>
      </trkpt>
      <trkpt lat="59.220194" lon="18.138979">
        <ele>24</ele>
        <time>2019-11-15T16:08:10Z</time>
      </trkpt>
      <trkpt lat="59.220225" lon="18.138939">
        <ele>24</ele>
        <time>2019-11-15T16:08:11Z</time>
      </trkpt>
      <trkpt lat="59.220253" lon="18.138903">
        <ele>24</ele>
        <time>2019-11-15T16:08:12Z</time>
      </trkpt>
      <trkpt lat="59.220286" lon="18.138869">
        <ele>24</ele>
        <time>2019-11-15T16:08:13Z</time>
      </trkpt>
      <trkpt lat="59.22032" lon="18.138839">
        <ele>24</ele>
        <time>2019-11-15T16:08:14Z</time>
      </trkpt>
      <trkpt lat="59.220355" lon="18.138811">
        <ele>24</ele>
        <time>2019-11-15T16:08:15Z</time>
      </trkpt>
      <trkpt lat="59.220393" lon="18.138782">
        <ele>24</ele>
        <time>2019-11-15T16:08:16Z</time>
      </trkpt>
      <trkpt lat="59.220431" lon="18.138756">
        <ele>24</ele>
        <time>2019-11-15T16:08:17Z</time>
      </trkpt>
      <trkpt lat="59.22047" lon="18.13873">
        <ele>25</ele>
        <time>2019-11-15T16:08:18Z</time>
      </trkpt>
      <trkpt lat="59.220508" lon="18.138704">
        <ele>25</ele>
        <time>2019-11-15T16:08:19Z</time>
      </trkpt>
      <trkpt lat="59.220545" lon="18.138679">
        <ele>0</ele>
        <time>2019-11-15T16:08:19Z</time>
      </trkpt>
      <trkpt lat="59.220579" lon="18.138655">
        <ele>25</ele>
        <time>2019-11-15T16:08:20Z</time>
      </trkpt>
      <trkpt lat="59.220617" lon="18.138631">
        <ele>25</ele>
        <time>2019-11-15T16:08:22Z</time>
      </trkpt>
      <trkpt lat="59.220654" lon="18.138608">
        <ele>25</ele>
        <time>2019-11-15T16:08:23Z</time>
      </trkpt>
      <trkpt lat="59.220691" lon="18.13859">
        <ele>25</ele>
        <time>2019-11-15T16:08:24Z</time>
      </trkpt>
      <trkpt lat="59.220726" lon="18.138574">
        <ele>25</ele>
        <time>2019-11-15T16:08:25Z</time>
      </trkpt>
      <trkpt lat="59.22076" lon="18.138559">
        <ele>26</ele>
        <time>2019-11-15T16:08:26Z</time>
      </trkpt>
      <trkpt lat="59.220796" lon="18.138544">
        <ele>26</ele>
        <time>2019-11-15T16:08:27Z</time>
      </trkpt>
      <trkpt lat="59.220835" lon="18.138528">
        <ele>26</ele>
        <time>2019-11-15T16:08:28Z</time>
      </trkpt>
      <trkpt lat="59.22087" lon="18.138512">
        <ele>26</ele>
        <time>2019-11-15T16:08:29Z</time>
      </trkpt>
      <trkpt lat="59.220907" lon="18.138497">
        <ele>26</ele>
        <time>2019-11-15T16:08:30Z</time>
      </trkpt>
      <trkpt lat="59.22094" lon="18.138479">
        <ele>26</ele>
        <time>2019-11-15T16:08:31Z</time>
      </trkpt>
      <trkpt lat="59.220978" lon="18.138464">
        <ele>26</ele>
        <time>2019-11-15T16:08:32Z</time>
      </trkpt>
      <trkpt lat="59.221016" lon="18.138449">
        <ele>26</ele>
        <time>2019-11-15T16:08:33Z</time>
      </trkpt>
      <trkpt lat="59.221055" lon="18.138433">
        <ele>26</ele>
        <time>2019-11-15T16:08:34Z</time>
      </trkpt>
      <trkpt lat="59.221093" lon="18.138417">
        <ele>26</ele>
        <time>2019-11-15T16:08:35Z</time>
      </trkpt>
      <trkpt lat="59.221135" lon="18.1384">
        <ele>26</ele>
        <time>2019-11-15T16:08:36Z</time>
      </trkpt>
      <trkpt lat="59.221182" lon="18.138385">
        <ele>26</ele>
        <time>2019-11-15T16:08:37Z</time>
      </trkpt>
      <trkpt lat="59.221227" lon="18.13837">
        <ele>26</ele>
        <time>2019-11-15T16:08:38Z</time>
      </trkpt>
      <trkpt lat="59.221273" lon="18.138352">
        <ele>26</ele>
        <time>2019-11-15T16:08:39Z</time>
      </trkpt>
      <trkpt lat="59.221316" lon="18.138334">
        <ele>26</ele>
        <time>2019-11-15T16:08:40Z</time>
      </trkpt>
      <trkpt lat="59.221357" lon="18.138318">
        <ele>26</ele>
        <time>2019-11-15T16:08:41Z</time>
      </trkpt>
      <trkpt lat="59.221397" lon="18.138301">
        <ele>27</ele>
        <time>2019-11-15T16:08:42Z</time>
      </trkpt>
      <trkpt lat="59.221436" lon="18.138284">
        <ele>27</ele>
        <time>2019-11-15T16:08:43Z</time>
      </trkpt>
      <trkpt lat="59.221476" lon="18.138269">
        <ele>27</ele>
        <time>2019-11-15T16:08:44Z</time>
      </trkpt>
      <trkpt lat="59.221516" lon="18.138254">
        <ele>27</ele>
        <time>2019-11-15T16:08:45Z</time>
      </trkpt>
      <trkpt lat="59.22156" lon="18.138236">
        <ele>27</ele>
        <time>2019-11-15T16:08:46Z</time>
      </trkpt>
      <trkpt lat="59.221604" lon="18.138216">
        <ele>27</ele>
        <time>2019-11-15T16:08:47Z</time>
      </trkpt>
      <trkpt lat="59.221651" lon="18.138196">
        <ele>27</ele>
        <time>2019-11-15T16:08:48Z</time>
      </trkpt>
      <trkpt lat="59.221697" lon="18.138176">
        <ele>27</ele>
        <time>2019-11-15T16:08:49Z</time>
      </trkpt>
      <trkpt lat="59.221745" lon="18.138156">
        <ele>27</ele>
        <time>2019-11-15T16:08:50Z</time>
      </trkpt>
      <trkpt lat="59.221792" lon="18.138138">
        <ele>27</ele>
        <time>2019-11-15T16:08:51Z</time>
      </trkpt>
      <trkpt lat="59.221839" lon="18.138117">
        <ele>27</ele>
        <time>2019-11-15T16:08:52Z</time>
      </trkpt>
      <trkpt lat="59.221887" lon="18.138096">
        <ele>27</ele>
        <time>2019-11-15T16:08:53Z</time>
      </trkpt>
      <trkpt lat="59.221935" lon="18.138073">
        <ele>27</ele>
        <time>2019-11-15T16:08:54Z</time>
      </trkpt>
      <trkpt lat="59.221983" lon="18.138049">
        <ele>27</ele>
        <time>2019-11-15T16:08:55Z</time>
      </trkpt>
      <trkpt lat="59.22203" lon="18.138026">
        <ele>27</ele>
        <time>2019-11-15T16:08:56Z</time>
      </trkpt>
      <trkpt lat="59.222079" lon="18.138004">
        <ele>27</ele>
        <time>2019-11-15T16:08:57Z</time>
      </trkpt>
      <trkpt lat="59.22213" lon="18.137978">
        <ele>27</ele>
        <time>2019-11-15T16:08:58Z</time>
      </trkpt>
      <trkpt lat="59.22218" lon="18.137952">
        <ele>27</ele>
        <time>2019-11-15T16:08:59Z</time>
      </trkpt>
      <trkpt lat="59.22223" lon="18.137925">
        <ele>28</ele>
        <time>2019-11-15T16:09:00Z</time>
      </trkpt>
      <trkpt lat="59.22228" lon="18.137897">
        <ele>28</ele>
        <time>2019-11-15T16:09:01Z</time>
      </trkpt>
      <trkpt lat="59.222331" lon="18.137868">
        <ele>28</ele>
        <time>2019-11-15T16:09:02Z</time>
      </trkpt>
      <trkpt lat="59.222383" lon="18.137836">
        <ele>28</ele>
        <time>2019-11-15T16:09:03Z</time>
      </trkpt>
      <trkpt lat="59.222433" lon="18.137804">
        <ele>28</ele>
        <time>2019-11-15T16:09:04Z</time>
      </trkpt>
      <trkpt lat="59.222483" lon="18.137773">
        <ele>28</ele>
        <time>2019-11-15T16:09:05Z</time>
      </trkpt>
      <trkpt lat="59.222532" lon="18.137744">
        <ele>29</ele>
        <time>2019-11-15T16:09:06Z</time>
      </trkpt>
      <trkpt lat="59.222584" lon="18.137712">
        <ele>29</ele>
        <time>2019-11-15T16:09:07Z</time>
      </trkpt>
      <trkpt lat="59.222637" lon="18.137673">
        <ele>29</ele>
        <time>2019-11-15T16:09:08Z</time>
      </trkpt>
      <trkpt lat="59.222685" lon="18.137632">
        <ele>30</ele>
        <time>2019-11-15T16:09:09Z</time>
      </trkpt>
      <trkpt lat="59.222734" lon="18.13759">
        <ele>30</ele>
        <time>2019-11-15T16:09:10Z</time>
      </trkpt>
      <trkpt lat="59.222786" lon="18.137546">
        <ele>30</ele>
        <time>2019-11-15T16:09:11Z</time>
      </trkpt>
      <trkpt lat="59.222836" lon="18.1375">
        <ele>30</ele>
        <time>2019-11-15T16:09:12Z</time>
      </trkpt>
      <trkpt lat="59.222886" lon="18.137452">
        <ele>30</ele>
        <time>2019-11-15T16:09:13Z</time>
      </trkpt>
      <trkpt lat="59.222935" lon="18.1374">
        <ele>30</ele>
        <time>2019-11-15T16:09:14Z</time>
      </trkpt>
      <trkpt lat="59.222981" lon="18.137341">
        <ele>30</ele>
        <time>2019-11-15T16:09:15Z</time>
      </trkpt>
      <trkpt lat="59.223031" lon="18.137278">
        <ele>30</ele>
        <time>2019-11-15T16:09:16Z</time>
      </trkpt>
      <trkpt lat="59.223082" lon="18.137212">
        <ele>30</ele>
        <time>2019-11-15T16:09:17Z</time>
      </trkpt>
      <trkpt lat="59.223136" lon="18.137145">
        <ele>30</ele>
        <time>2019-11-15T16:09:18Z</time>
      </trkpt>
      <trkpt lat="59.223187" lon="18.137077">
        <ele>30</ele>
        <time>2019-11-15T16:09:19Z</time>
      </trkpt>
      <trkpt lat="59.22324" lon="18.137007">
        <ele>30</ele>
        <time>2019-11-15T16:09:20Z</time>
      </trkpt>
      <trkpt lat="59.22329" lon="18.136933">
        <ele>30</ele>
        <time>2019-11-15T16:09:21Z</time>
      </trkpt>
      <trkpt lat="59.22334" lon="18.136855">
        <ele>29</ele>
        <time>2019-11-15T16:09:22Z</time>
      </trkpt>
      <trkpt lat="59.223387" lon="18.136776">
        <ele>29</ele>
        <time>2019-11-15T16:09:23Z</time>
      </trkpt>
      <trkpt lat="59.223435" lon="18.136694">
        <ele>29</ele>
        <time>2019-11-15T16:09:24Z</time>
      </trkpt>
      <trkpt lat="59.223482" lon="18.136609">
        <ele>29</ele>
        <time>2019-11-15T16:09:25Z</time>
      </trkpt>
      <trkpt lat="59.223528" lon="18.136521">
        <ele>29</ele>
        <time>2019-11-15T16:09:26Z</time>
      </trkpt>
      <trkpt lat="59.223572" lon="18.136433">
        <ele>29</ele>
        <time>2019-11-15T16:09:27Z</time>
      </trkpt>
      <trkpt lat="59.223615" lon="18.136342">
        <ele>29</ele>
        <time>2019-11-15T16:09:28Z</time>
      </trkpt>
      <trkpt lat="59.223657" lon="18.136247">
        <ele>28</ele>
        <time>2019-11-15T16:09:29Z</time>
      </trkpt>
      <trkpt lat="59.223698" lon="18.136149">
        <ele>28</ele>
        <time>2019-11-15T16:09:30Z</time>
      </trkpt>
      <trkpt lat="59.223738" lon="18.136049">
        <ele>28</ele>
        <time>2019-11-15T16:09:31Z</time>
      </trkpt>
      <trkpt lat="59.223779" lon="18.135948">
        <ele>28</ele>
        <time>2019-11-15T16:09:32Z</time>
      </trkpt>
      <trkpt lat="59.223817" lon="18.135842">
        <ele>28</ele>
        <time>2019-11-15T16:09:33Z</time>
      </trkpt>
      <trkpt lat="59.223856" lon="18.135735">
        <ele>28</ele>
        <time>2019-11-15T16:09:34Z</time>
      </trkpt>
      <trkpt lat="59.223895" lon="18.135627">
        <ele>28</ele>
        <time>2019-11-15T16:09:35Z</time>
      </trkpt>
      <trkpt lat="59.223938" lon="18.135517">
        <ele>28</ele>
        <time>2019-11-15T16:09:36Z</time>
      </trkpt>
      <trkpt lat="59.223981" lon="18.135407">
        <ele>28</ele>
        <time>2019-11-15T16:09:37Z</time>
      </trkpt>
      <trkpt lat="59.224026" lon="18.135299">
        <ele>28</ele>
        <time>2019-11-15T16:09:38Z</time>
      </trkpt>
      <trkpt lat="59.224072" lon="18.135191">
        <ele>28</ele>
        <time>2019-11-15T16:09:39Z</time>
      </trkpt>
      <trkpt lat="59.22411" lon="18.135082">
        <ele>28</ele>
        <time>2019-11-15T16:09:40Z</time>
      </trkpt>
      <trkpt lat="59.224152" lon="18.134972">
        <ele>28</ele>
        <time>2019-11-15T16:09:41Z</time>
      </trkpt>
      <trkpt lat="59.224193" lon="18.134862">
        <ele>28</ele>
        <time>2019-11-15T16:09:42Z</time>
      </trkpt>
      <trkpt lat="59.224231" lon="18.134752">
        <ele>28</ele>
        <time>2019-11-15T16:09:43Z</time>
      </trkpt>
      <trkpt lat="59.224267" lon="18.134641">
        <ele>28</ele>
        <time>2019-11-15T16:09:44Z</time>
      </trkpt>
      <trkpt lat="59.224301" lon="18.134533">
        <ele>28</ele>
        <time>2019-11-15T16:09:45Z</time>
      </trkpt>
      <trkpt lat="59.224341" lon="18.134427">
        <ele>28</ele>
        <time>2019-11-15T16:09:46Z</time>
      </trkpt>
      <trkpt lat="59.224386" lon="18.134329">
        <ele>28</ele>
        <time>2019-11-15T16:09:47Z</time>
      </trkpt>
      <trkpt lat="59.224434" lon="18.13423">
        <ele>28</ele>
        <time>2019-11-15T16:09:48Z</time>
      </trkpt>
      <trkpt lat="59.224477" lon="18.134134">
        <ele>28</ele>
        <time>2019-11-15T16:09:49Z</time>
      </trkpt>
      <trkpt lat="59.224519" lon="18.134039">
        <ele>28</ele>
        <time>2019-11-15T16:09:50Z</time>
      </trkpt>
      <trkpt lat="59.224557" lon="18.133945">
        <ele>28</ele>
        <time>2019-11-15T16:09:51Z</time>
      </trkpt>
      <trkpt lat="59.224599" lon="18.133854">
        <ele>27</ele>
        <time>2019-11-15T16:09:52Z</time>
      </trkpt>
      <trkpt lat="59.224638" lon="18.133765">
        <ele>27</ele>
        <time>2019-11-15T16:09:53Z</time>
      </trkpt>
      <trkpt lat="59.224676" lon="18.133679">
        <ele>27</ele>
        <time>2019-11-15T16:09:54Z</time>
      </trkpt>
      <trkpt lat="59.224709" lon="18.133597">
        <ele>27</ele>
        <time>2019-11-15T16:09:55Z</time>
      </trkpt>
      <trkpt lat="59.22474" lon="18.13352">
        <ele>28</ele>
        <time>2019-11-15T16:09:56Z</time>
      </trkpt>
      <trkpt lat="59.224771" lon="18.133447">
        <ele>28</ele>
        <time>2019-11-15T16:09:57Z</time>
      </trkpt>
      <trkpt lat="59.2248" lon="18.13338">
        <ele>28</ele>
        <time>2019-11-15T16:09:58Z</time>
      </trkpt>
      <trkpt lat="59.224829" lon="18.133317">
        <ele>28</ele>
        <time>2019-11-15T16:09:59Z</time>
      </trkpt>
      <trkpt lat="59.224856" lon="18.133259">
        <ele>28</ele>
        <time>2019-11-15T16:10:00Z</time>
      </trkpt>
      <trkpt lat="59.224878" lon="18.133204">
        <ele>29</ele>
        <time>2019-11-15T16:10:01Z</time>
      </trkpt>
      <trkpt lat="59.2249" lon="18.133153">
        <ele>29</ele>
        <time>2019-11-15T16:10:02Z</time>
      </trkpt>
      <trkpt lat="59.224923" lon="18.133108">
        <ele>29</ele>
        <time>2019-11-15T16:10:03Z</time>
      </trkpt>
      <trkpt lat="59.224946" lon="18.133068">
        <ele>29</ele>
        <time>2019-11-15T16:10:04Z</time>
      </trkpt>
      <trkpt lat="59.224967" lon="18.133028">
        <ele>30</ele>
        <time>2019-11-15T16:10:05Z</time>
      </trkpt>
      <trkpt lat="59.224983" lon="18.132992">
        <ele>30</ele>
        <time>2019-11-15T16:10:06Z</time>
      </trkpt>
      <trkpt lat="59.225004" lon="18.13295">
        <ele>31</ele>
        <time>2019-11-15T16:10:07Z</time>
      </trkpt>
      <trkpt lat="59.225029" lon="18.132901">
        <ele>31</ele>
        <time>2019-11-15T16:10:08Z</time>
      </trkpt>
      <trkpt lat="59.225055" lon="18.132856">
        <ele>31</ele>
        <time>2019-11-15T16:10:09Z</time>
      </trkpt>
      <trkpt lat="59.225085" lon="18.132809">
        <ele>31</ele>
        <time>2019-11-15T16:10:10Z</time>
      </trkpt>
      <trkpt lat="59.225108" lon="18.132769">
        <ele>31</ele>
        <time>2019-11-15T16:10:11Z</time>
      </trkpt>
      <trkpt lat="59.225133" lon="18.132727">
        <ele>32</ele>
        <time>2019-11-15T16:10:12Z</time>
      </trkpt>
      <trkpt lat="59.225157" lon="18.132682">
        <ele>32</ele>
        <time>2019-11-15T16:10:13Z</time>
      </trkpt>
      <trkpt lat="59.225181" lon="18.132639">
        <ele>32</ele>
        <time>2019-11-15T16:10:14Z</time>
      </trkpt>
      <trkpt lat="59.225203" lon="18.132595">
        <ele>32</ele>
        <time>2019-11-15T16:10:15Z</time>
      </trkpt>
      <trkpt lat="59.225228" lon="18.132553">
        <ele>33</ele>
        <time>2019-11-15T16:10:16Z</time>
      </trkpt>
      <trkpt lat="59.225253" lon="18.132513">
        <ele>33</ele>
        <time>2019-11-15T16:10:17Z</time>
      </trkpt>
      <trkpt lat="59.225276" lon="18.132478">
        <ele>33</ele>
        <time>2019-11-15T16:10:18Z</time>
      </trkpt>
      <trkpt lat="59.225302" lon="18.13244">
        <ele>33</ele>
        <time>2019-11-15T16:10:19Z</time>
      </trkpt>
      <trkpt lat="59.225332" lon="18.132398">
        <ele>33</ele>
        <time>2019-11-15T16:10:20Z</time>
      </trkpt>
      <trkpt lat="59.225354" lon="18.132361">
        <ele>33</ele>
        <time>2019-11-15T16:10:21Z</time>
      </trkpt>
      <trkpt lat="59.225382" lon="18.132328">
        <ele>34</ele>
        <time>2019-11-15T16:10:22Z</time>
      </trkpt>
      <trkpt lat="59.225405" lon="18.132294">
        <ele>34</ele>
        <time>2019-11-15T16:10:23Z</time>
      </trkpt>
      <trkpt lat="59.225429" lon="18.132257">
        <ele>34</ele>
        <time>2019-11-15T16:10:24Z</time>
      </trkpt>
      <trkpt lat="59.225457" lon="18.132219">
        <ele>34</ele>
        <time>2019-11-15T16:10:25Z</time>
      </trkpt>
      <trkpt lat="59.225485" lon="18.13218">
        <ele>34</ele>
        <time>2019-11-15T16:10:26Z</time>
      </trkpt>
      <trkpt lat="59.22552" lon="18.132134">
        <ele>35</ele>
        <time>2019-11-15T16:10:27Z</time>
      </trkpt>
      <trkpt lat="59.225555" lon="18.132076">
        <ele>35</ele>
        <time>2019-11-15T16:10:28Z</time>
      </trkpt>
      <trkpt lat="59.225585" lon="18.132005">
        <ele>35</ele>
        <time>2019-11-15T16:10:29Z</time>
      </trkpt>
      <trkpt lat="59.225614" lon="18.131928">
        <ele>35</ele>
        <time>2019-11-15T16:10:30Z</time>
      </trkpt>
      <trkpt lat="59.225641" lon="18.131854">
        <ele>35</ele>
        <time>2019-11-15T16:10:31Z</time>
      </trkpt>
      <trkpt lat="59.22567" lon="18.131776">
        <ele>36</ele>
        <time>2019-11-15T16:10:32Z</time>
      </trkpt>
      <trkpt lat="59.225689" lon="18.13169">
        <ele>36</ele>
        <time>2019-11-15T16:10:33Z</time>
      </trkpt>
      <trkpt lat="59.225708" lon="18.131608">
        <ele>36</ele>
        <time>2019-11-15T16:10:34Z</time>
      </trkpt>
      <trkpt lat="59.225736" lon="18.13153">
        <ele>36</ele>
        <time>2019-11-15T16:10:35Z</time>
      </trkpt>
      <trkpt lat="59.225766" lon="18.131463">
        <ele>36</ele>
        <time>2019-11-15T16:10:36Z</time>
      </trkpt>
      <trkpt lat="59.225798" lon="18.131405">
        <ele>36</ele>
        <time>2019-11-15T16:10:37Z</time>
      </trkpt>
      <trkpt lat="59.225828" lon="18.131357">
        <ele>36</ele>
        <time>2019-11-15T16:10:38Z</time>
      </trkpt>
      <trkpt lat="59.225861" lon="18.131308">
        <ele>36</ele>
        <time>2019-11-15T16:10:39Z</time>
      </trkpt>
      <trkpt lat="59.225897" lon="18.13126">
        <ele>36</ele>
        <time>2019-11-15T16:10:40Z</time>
      </trkpt>
      <trkpt lat="59.225933" lon="18.131214">
        <ele>37</ele>
        <time>2019-11-15T16:10:41Z</time>
      </trkpt>
      <trkpt lat="59.225969" lon="18.131168">
        <ele>37</ele>
        <time>2019-11-15T16:10:42Z</time>
      </trkpt>
      <trkpt lat="59.226004" lon="18.131121">
        <ele>37</ele>
        <time>2019-11-15T16:10:43Z</time>
      </trkpt>
      <trkpt lat="59.22604" lon="18.131076">
        <ele>37</ele>
        <time>2019-11-15T16:10:44Z</time>
      </trkpt>
      <trkpt lat="59.226075" lon="18.131028">
        <ele>37</ele>
        <time>2019-11-15T16:10:45Z</time>
      </trkpt>
      <trkpt lat="59.22611" lon="18.130978">
        <ele>37</ele>
        <time>2019-11-15T16:10:46Z</time>
      </trkpt>
      <trkpt lat="59.226144" lon="18.130927">
        <ele>38</ele>
        <time>2019-11-15T16:10:47Z</time>
      </trkpt>
      <trkpt lat="59.226177" lon="18.130876">
        <ele>38</ele>
        <time>2019-11-15T16:10:48Z</time>
      </trkpt>
      <trkpt lat="59.22621" lon="18.130825">
        <ele>38</ele>
        <time>2019-11-15T16:10:49Z</time>
      </trkpt>
      <trkpt lat="59.226243" lon="18.130774">
        <ele>38</ele>
        <time>2019-11-15T16:10:50Z</time>
      </trkpt>
      <trkpt lat="59.226279" lon="18.130726">
        <ele>38</ele>
        <time>2019-11-15T16:10:51Z</time>
      </trkpt>
      <trkpt lat="59.226316" lon="18.13068">
        <ele>38</ele>
        <time>2019-11-15T16:10:52Z</time>
      </trkpt>
      <trkpt lat="59.22635" lon="18.130633">
        <ele>38</ele>
        <time>2019-11-15T16:10:53Z</time>
      </trkpt>
      <trkpt lat="59.226382" lon="18.130583">
        <ele>38</ele>
        <time>2019-11-15T16:10:54Z</time>
      </trkpt>
      <trkpt lat="59.226413" lon="18.130534">
        <ele>38</ele>
        <time>2019-11-15T16:10:55Z</time>
      </trkpt>
      <trkpt lat="59.226446" lon="18.130481">
        <ele>38</ele>
        <time>2019-11-15T16:10:56Z</time>
      </trkpt>
      <trkpt lat="59.226477" lon="18.130425">
        <ele>38</ele>
        <time>2019-11-15T16:10:57Z</time>
      </trkpt>
      <trkpt lat="59.226507" lon="18.130368">
        <ele>37</ele>
        <time>2019-11-15T16:10:58Z</time>
      </trkpt>
      <trkpt lat="59.22654" lon="18.130305">
        <ele>37</ele>
        <time>2019-11-15T16:10:59Z</time>
      </trkpt>
      <trkpt lat="59.22657" lon="18.130237">
        <ele>37</ele>
        <time>2019-11-15T16:11:00Z</time>
      </trkpt>
      <trkpt lat="59.226598" lon="18.13017">
        <ele>37</ele>
        <time>2019-11-15T16:11:01Z</time>
      </trkpt>
      <trkpt lat="59.226624" lon="18.130102">
        <ele>37</ele>
        <time>2019-11-15T16:11:02Z</time>
      </trkpt>
      <trkpt lat="59.22665" lon="18.130032">
        <ele>37</ele>
        <time>2019-11-15T16:11:03Z</time>
      </trkpt>
      <trkpt lat="59.226675" lon="18.129963">
        <ele>37</ele>
        <time>2019-11-15T16:11:04Z</time>
      </trkpt>
      <trkpt lat="59.2267" lon="18.129894">
        <ele>37</ele>
        <time>2019-11-15T16:11:05Z</time>
      </trkpt>
      <trkpt lat="59.226724" lon="18.129826">
        <ele>37</ele>
        <time>2019-11-15T16:11:06Z</time>
      </trkpt>
      <trkpt lat="59.226746" lon="18.129755">
        <ele>37</ele>
        <time>2019-11-15T16:11:07Z</time>
      </trkpt>
      <trkpt lat="59.226768" lon="18.129681">
        <ele>37</ele>
        <time>2019-11-15T16:11:08Z</time>
      </trkpt>
      <trkpt lat="59.226791" lon="18.129607">
        <ele>37</ele>
        <time>2019-11-15T16:11:09Z</time>
      </trkpt>
      <trkpt lat="59.226816" lon="18.129535">
        <ele>37</ele>
        <time>2019-11-15T16:11:10Z</time>
      </trkpt>
      <trkpt lat="59.226843" lon="18.129464">
        <ele>37</ele>
        <time>2019-11-15T16:11:11Z</time>
      </trkpt>
      <trkpt lat="59.226869" lon="18.129393">
        <ele>37</ele>
        <time>2019-11-15T16:11:12Z</time>
      </trkpt>
      <trkpt lat="59.226893" lon="18.129322">
        <ele>37</ele>
        <time>2019-11-15T16:11:13Z</time>
      </trkpt>
      <trkpt lat="59.226918" lon="18.12925">
        <ele>37</ele>
        <time>2019-11-15T16:11:14Z</time>
      </trkpt>
      <trkpt lat="59.226942" lon="18.129176">
        <ele>38</ele>
        <time>2019-11-15T16:11:15Z</time>
      </trkpt>
      <trkpt lat="59.226964" lon="18.129102">
        <ele>38</ele>
        <time>2019-11-15T16:11:16Z</time>
      </trkpt>
      <trkpt lat="59.226985" lon="18.129028">
        <ele>38</ele>
        <time>2019-11-15T16:11:17Z</time>
      </trkpt>
      <trkpt lat="59.227006" lon="18.128955">
        <ele>38</ele>
        <time>2019-11-15T16:11:18Z</time>
      </trkpt>
      <trkpt lat="59.227026" lon="18.128882">
        <ele>38</ele>
        <time>2019-11-15T16:11:19Z</time>
      </trkpt>
      <trkpt lat="59.227047" lon="18.128812">
        <ele>38</ele>
        <time>2019-11-15T16:11:20Z</time>
      </trkpt>
      <trkpt lat="59.227069" lon="18.128741">
        <ele>38</ele>
        <time>2019-11-15T16:11:21Z</time>
      </trkpt>
      <trkpt lat="59.227092" lon="18.128668">
        <ele>38</ele>
        <time>2019-11-15T16:11:22Z</time>
      </trkpt>
      <trkpt lat="59.227118" lon="18.128588">
        <ele>38</ele>
        <time>2019-11-15T16:11:23Z</time>
      </trkpt>
      <trkpt lat="59.227144" lon="18.128508">
        <ele>38</ele>
        <time>2019-11-15T16:11:24Z</time>
      </trkpt>
      <trkpt lat="59.227172" lon="18.128429">
        <ele>38</ele>
        <time>2019-11-15T16:11:25Z</time>
      </trkpt>
      <trkpt lat="59.2272" lon="18.128349">
        <ele>38</ele>
        <time>2019-11-15T16:11:26Z</time>
      </trkpt>
      <trkpt lat="59.227231" lon="18.128268">
        <ele>38</ele>
        <time>2019-11-15T16:11:27Z</time>
      </trkpt>
      <trkpt lat="59.227261" lon="18.128188">
        <ele>38</ele>
        <time>2019-11-15T16:11:28Z</time>
      </trkpt>
      <trkpt lat="59.227288" lon="18.128111">
        <ele>38</ele>
        <time>2019-11-15T16:11:29Z</time>
      </trkpt>
      <trkpt lat="59.227318" lon="18.128035">
        <ele>38</ele>
        <time>2019-11-15T16:11:30Z</time>
      </trkpt>
      <trkpt lat="59.227351" lon="18.127956">
        <ele>38</ele>
        <time>2019-11-15T16:11:31Z</time>
      </trkpt>
      <trkpt lat="59.227385" lon="18.127879">
        <ele>38</ele>
        <time>2019-11-15T16:11:32Z</time>
      </trkpt>
      <trkpt lat="59.22742" lon="18.1278">
        <ele>38</ele>
        <time>2019-11-15T16:11:33Z</time>
      </trkpt>
      <trkpt lat="59.227456" lon="18.12772">
        <ele>39</ele>
        <time>2019-11-15T16:11:34Z</time>
      </trkpt>
      <trkpt lat="59.227489" lon="18.12764">
        <ele>39</ele>
        <time>2019-11-15T16:11:35Z</time>
      </trkpt>
      <trkpt lat="59.22752" lon="18.127558">
        <ele>39</ele>
        <time>2019-11-15T16:11:36Z</time>
      </trkpt>
      <trkpt lat="59.227547" lon="18.127478">
        <ele>39</ele>
        <time>2019-11-15T16:11:37Z</time>
      </trkpt>
      <trkpt lat="59.227573" lon="18.1274">
        <ele>39</ele>
        <time>2019-11-15T16:11:38Z</time>
      </trkpt>
      <trkpt lat="59.227602" lon="18.127322">
        <ele>39</ele>
        <time>2019-11-15T16:11:39Z</time>
      </trkpt>
      <trkpt lat="59.22763" lon="18.127246">
        <ele>39</ele>
        <time>2019-11-15T16:11:40Z</time>
      </trkpt>
      <trkpt lat="59.227656" lon="18.127171">
        <ele>39</ele>
        <time>2019-11-15T16:11:41Z</time>
      </trkpt>
      <trkpt lat="59.227681" lon="18.127093">
        <ele>39</ele>
        <time>2019-11-15T16:11:42Z</time>
      </trkpt>
      <trkpt lat="59.227704" lon="18.127011">
        <ele>39</ele>
        <time>2019-11-15T16:11:43Z</time>
      </trkpt>
      <trkpt lat="59.227724" lon="18.126926">
        <ele>40</ele>
        <time>2019-11-15T16:11:44Z</time>
      </trkpt>
      <trkpt lat="59.227736" lon="18.126838">
        <ele>40</ele>
        <time>2019-11-15T16:11:45Z</time>
      </trkpt>
      <trkpt lat="59.227747" lon="18.12675">
        <ele>40</ele>
        <time>2019-11-15T16:11:46Z</time>
      </trkpt>
      <trkpt lat="59.227759" lon="18.126664">
        <ele>40</ele>
        <time>2019-11-15T16:11:47Z</time>
      </trkpt>
      <trkpt lat="59.227781" lon="18.126585">
        <ele>40</ele>
        <time>2019-11-15T16:11:48Z</time>
      </trkpt>
      <trkpt lat="59.227813" lon="18.126528">
        <ele>40</ele>
        <time>2019-11-15T16:11:49Z</time>
      </trkpt>
      <trkpt lat="59.227855" lon="18.126498">
        <ele>40</ele>
        <time>2019-11-15T16:11:50Z</time>
      </trkpt>
      <trkpt lat="59.227902" lon="18.126483">
        <ele>40</ele>
        <time>2019-11-15T16:11:51Z</time>
      </trkpt>
      <trkpt lat="59.227952" lon="18.126472">
        <ele>40</ele>
        <time>2019-11-15T16:11:52Z</time>
      </trkpt>
      <trkpt lat="59.228003" lon="18.126462">
        <ele>40</ele>
        <time>2019-11-15T16:11:53Z</time>
      </trkpt>
      <trkpt lat="59.228056" lon="18.126455">
        <ele>40</ele>
        <time>2019-11-15T16:11:54Z</time>
      </trkpt>
      <trkpt lat="59.228112" lon="18.126449">
        <ele>40</ele>
        <time>2019-11-15T16:11:55Z</time>
      </trkpt>
      <trkpt lat="59.228169" lon="18.126438">
        <ele>40</ele>
        <time>2019-11-15T16:11:56Z</time>
      </trkpt>
      <trkpt lat="59.228229" lon="18.126425">
        <ele>40</ele>
        <time>2019-11-15T16:11:57Z</time>
      </trkpt>
      <trkpt lat="59.228291" lon="18.126414">
        <ele>41</ele>
        <time>2019-11-15T16:11:58Z</time>
      </trkpt>
      <trkpt lat="59.228356" lon="18.126407">
        <ele>41</ele>
        <time>2019-11-15T16:11:59Z</time>
      </trkpt>
      <trkpt lat="59.228422" lon="18.126409">
        <ele>41</ele>
        <time>2019-11-15T16:12:00Z</time>
      </trkpt>
      <trkpt lat="59.228491" lon="18.126413">
        <ele>40</ele>
        <time>2019-11-15T16:12:01Z</time>
      </trkpt>
      <trkpt lat="59.22856" lon="18.126394">
        <ele>40</ele>
        <time>2019-11-15T16:12:02Z</time>
      </trkpt>
      <trkpt lat="59.228622" lon="18.126339">
        <ele>40</ele>
        <time>2019-11-15T16:12:03Z</time>
      </trkpt>
      <trkpt lat="59.228677" lon="18.126255">
        <ele>40</ele>
        <time>2019-11-15T16:12:04Z</time>
      </trkpt>
      <trkpt lat="59.228727" lon="18.126159">
        <ele>40</ele>
        <time>2019-11-15T16:12:05Z</time>
      </trkpt>
      <trkpt lat="59.22878" lon="18.126056">
        <ele>40</ele>
        <time>2019-11-15T16:12:06Z</time>
      </trkpt>
      <trkpt lat="59.228829" lon="18.125947">
        <ele>40</ele>
        <time>2019-11-15T16:12:07Z</time>
      </trkpt>
      <trkpt lat="59.22888" lon="18.125828">
        <ele>39</ele>
        <time>2019-11-15T16:12:08Z</time>
      </trkpt>
      <trkpt lat="59.228934" lon="18.125708">
        <ele>39</ele>
        <time>2019-11-15T16:12:09Z</time>
      </trkpt>
      <trkpt lat="59.228986" lon="18.125594">
        <ele>39</ele>
        <time>2019-11-15T16:12:10Z</time>
      </trkpt>
      <trkpt lat="59.22904" lon="18.125486">
        <ele>39</ele>
        <time>2019-11-15T16:12:11Z</time>
      </trkpt>
      <trkpt lat="59.229097" lon="18.125382">
        <ele>39</ele>
        <time>2019-11-15T16:12:12Z</time>
      </trkpt>
      <trkpt lat="59.229147" lon="18.125276">
        <ele>39</ele>
        <time>2019-11-15T16:12:13Z</time>
      </trkpt>
      <trkpt lat="59.229191" lon="18.125163">
        <ele>39</ele>
        <time>2019-11-15T16:12:14Z</time>
      </trkpt>
      <trkpt lat="59.22923" lon="18.125029">
        <ele>39</ele>
        <time>2019-11-15T16:12:15Z</time>
      </trkpt>
      <trkpt lat="59.229262" lon="18.124887">
        <ele>39</ele>
        <time>2019-11-15T16:12:16Z</time>
      </trkpt>
      <trkpt lat="59.229287" lon="18.12477">
        <ele>38</ele>
        <time>2019-11-15T16:12:17Z</time>
      </trkpt>
      <trkpt lat="59.229303" lon="18.124655">
        <ele>38</ele>
        <time>2019-11-15T16:12:18Z</time>
      </trkpt>
      <trkpt lat="59.229307" lon="18.124532">
        <ele>38</ele>
        <time>2019-11-15T16:12:19Z</time>
      </trkpt>
      <trkpt lat="59.229309" lon="18.124409">
        <ele>38</ele>
        <time>2019-11-15T16:12:20Z</time>
      </trkpt>
      <trkpt lat="59.229349" lon="18.124176">
        <ele>38</ele>
        <time>2019-11-15T16:12:22Z</time>
      </trkpt>
      <trkpt lat="59.229393" lon="18.124088">
        <ele>37</ele>
        <time>2019-11-15T16:12:23Z</time>
      </trkpt>
      <trkpt lat="59.229449" lon="18.12402">
        <ele>37</ele>
        <time>2019-11-15T16:12:24Z</time>
      </trkpt>
      <trkpt lat="59.229499" lon="18.123962">
        <ele>37</ele>
        <time>2019-11-15T16:12:25Z</time>
      </trkpt>
      <trkpt lat="59.229549" lon="18.123908">
        <ele>37</ele>
        <time>2019-11-15T16:12:26Z</time>
      </trkpt>
      <trkpt lat="59.229602" lon="18.123857">
        <ele>37</ele>
        <time>2019-11-15T16:12:27Z</time>
      </trkpt>
      <trkpt lat="59.229649" lon="18.123808">
        <ele>37</ele>
        <time>2019-11-15T16:12:28Z</time>
      </trkpt>
      <trkpt lat="59.229696" lon="18.123759">
        <ele>37</ele>
        <time>2019-11-15T16:12:29Z</time>
      </trkpt>
      <trkpt lat="59.229748" lon="18.123704">
        <ele>38</ele>
        <time>2019-11-15T16:12:30Z</time>
      </trkpt>
      <trkpt lat="59.229797" lon="18.123648">
        <ele>38</ele>
        <time>2019-11-15T16:12:31Z</time>
      </trkpt>
      <trkpt lat="59.229846" lon="18.123592">
        <ele>38</ele>
        <time>2019-11-15T16:12:32Z</time>
      </trkpt>
      <trkpt lat="59.229895" lon="18.123537">
        <ele>37</ele>
        <time>2019-11-15T16:12:33Z</time>
      </trkpt>
      <trkpt lat="59.229948" lon="18.123482">
        <ele>37</ele>
        <time>2019-11-15T16:12:34Z</time>
      </trkpt>
      <trkpt lat="59.229994" lon="18.123416">
        <ele>37</ele>
        <time>2019-11-15T16:12:35Z</time>
      </trkpt>
      <trkpt lat="59.230024" lon="18.12333">
        <ele>37</ele>
        <time>2019-11-15T16:12:36Z</time>
      </trkpt>
      <trkpt lat="59.230041" lon="18.123224">
        <ele>37</ele>
        <time>2019-11-15T16:12:37Z</time>
      </trkpt>
      <trkpt lat="59.230048" lon="18.123106">
        <ele>36</ele>
        <time>2019-11-15T16:12:38Z</time>
      </trkpt>
      <trkpt lat="59.230044" lon="18.122983">
        <ele>36</ele>
        <time>2019-11-15T16:12:39Z</time>
      </trkpt>
      <trkpt lat="59.230023" lon="18.122857">
        <ele>36</ele>
        <time>2019-11-15T16:12:40Z</time>
      </trkpt>
      <trkpt lat="59.229993" lon="18.122734">
        <ele>36</ele>
        <time>2019-11-15T16:12:41Z</time>
      </trkpt>
      <trkpt lat="59.22996" lon="18.122609">
        <ele>36</ele>
        <time>2019-11-15T16:12:42Z</time>
      </trkpt>
      <trkpt lat="59.229925" lon="18.122484">
        <ele>35</ele>
        <time>2019-11-15T16:12:43Z</time>
      </trkpt>
      <trkpt lat="59.22989" lon="18.122357">
        <ele>35</ele>
        <time>2019-11-15T16:12:44Z</time>
      </trkpt>
      <trkpt lat="59.22985" lon="18.122234">
        <ele>35</ele>
        <time>2019-11-15T16:12:45Z</time>
      </trkpt>
      <trkpt lat="59.229809" lon="18.122111">
        <ele>35</ele>
        <time>2019-11-15T16:12:46Z</time>
      </trkpt>
      <trkpt lat="59.229776" lon="18.121991">
        <ele>34</ele>
        <time>2019-11-15T16:12:47Z</time>
      </trkpt>
      <trkpt lat="59.229753" lon="18.121873">
        <ele>34</ele>
        <time>2019-11-15T16:12:48Z</time>
      </trkpt>
      <trkpt lat="59.229752" lon="18.121757">
        <ele>34</ele>
        <time>2019-11-15T16:12:49Z</time>
      </trkpt>
      <trkpt lat="59.229779" lon="18.121653">
        <ele>34</ele>
        <time>2019-11-15T16:12:50Z</time>
      </trkpt>
      <trkpt lat="59.229815" lon="18.121578">
        <ele>34</ele>
        <time>2019-11-15T16:12:51Z</time>
      </trkpt>
      <trkpt lat="59.229851" lon="18.12153">
        <ele>35</ele>
        <time>2019-11-15T16:12:52Z</time>
      </trkpt>
      <trkpt lat="59.229892" lon="18.121492">
        <ele>35</ele>
        <time>2019-11-15T16:12:53Z</time>
      </trkpt>
      <trkpt lat="59.229937" lon="18.121451">
        <ele>35</ele>
        <time>2019-11-15T16:12:54Z</time>
      </trkpt>
      <trkpt lat="59.22998" lon="18.121408">
        <ele>35</ele>
        <time>2019-11-15T16:12:55Z</time>
      </trkpt>
      <trkpt lat="59.230018" lon="18.121365">
        <ele>35</ele>
        <time>2019-11-15T16:12:56Z</time>
      </trkpt>
      <trkpt lat="59.230058" lon="18.121324">
        <ele>35</ele>
        <time>2019-11-15T16:12:57Z</time>
      </trkpt>
      <trkpt lat="59.230097" lon="18.121283">
        <ele>35</ele>
        <time>2019-11-15T16:12:58Z</time>
      </trkpt>
      <trkpt lat="59.230136" lon="18.121244">
        <ele>36</ele>
        <time>2019-11-15T16:12:59Z</time>
      </trkpt>
      <trkpt lat="59.230174" lon="18.121207">
        <ele>36</ele>
        <time>2019-11-15T16:13:00Z</time>
      </trkpt>
      <trkpt lat="59.230214" lon="18.121174">
        <ele>36</ele>
        <time>2019-11-15T16:13:01Z</time>
      </trkpt>
      <trkpt lat="59.230252" lon="18.121156">
        <ele>36</ele>
        <time>2019-11-15T16:13:02Z</time>
      </trkpt>
      <trkpt lat="59.230297" lon="18.121145">
        <ele>36</ele>
        <time>2019-11-15T16:13:03Z</time>
      </trkpt>
      <trkpt lat="59.230339" lon="18.12114">
        <ele>37</ele>
        <time>2019-11-15T16:13:04Z</time>
      </trkpt>
      <trkpt lat="59.230385" lon="18.121137">
        <ele>37</ele>
        <time>2019-11-15T16:13:05Z</time>
      </trkpt>
      <trkpt lat="59.230431" lon="18.121138">
        <ele>37</ele>
        <time>2019-11-15T16:13:06Z</time>
      </trkpt>
      <trkpt lat="59.230474" lon="18.121141">
        <ele>37</ele>
        <time>2019-11-15T16:13:07Z</time>
      </trkpt>
      <trkpt lat="59.230518" lon="18.121141">
        <ele>37</ele>
        <time>2019-11-15T16:13:08Z</time>
      </trkpt>
      <trkpt lat="59.230562" lon="18.121134">
        <ele>38</ele>
        <time>2019-11-15T16:13:09Z</time>
      </trkpt>
      <trkpt lat="59.230613" lon="18.121113">
        <ele>38</ele>
        <time>2019-11-15T16:13:10Z</time>
      </trkpt>
      <trkpt lat="59.230668" lon="18.121087">
        <ele>38</ele>
        <time>2019-11-15T16:13:11Z</time>
      </trkpt>
      <trkpt lat="59.23072" lon="18.12106">
        <ele>38</ele>
        <time>2019-11-15T16:13:12Z</time>
      </trkpt>
      <trkpt lat="59.230772" lon="18.121033">
        <ele>39</ele>
        <time>2019-11-15T16:13:13Z</time>
      </trkpt>
      <trkpt lat="59.230825" lon="18.121003">
        <ele>39</ele>
        <time>2019-11-15T16:13:14Z</time>
      </trkpt>
      <trkpt lat="59.230875" lon="18.120973">
        <ele>39</ele>
        <time>2019-11-15T16:13:15Z</time>
      </trkpt>
      <trkpt lat="59.230923" lon="18.120943">
        <ele>39</ele>
        <time>2019-11-15T16:13:16Z</time>
      </trkpt>
      <trkpt lat="59.230969" lon="18.120912">
        <ele>39</ele>
        <time>2019-11-15T16:13:17Z</time>
      </trkpt>
      <trkpt lat="59.231013" lon="18.120883">
        <ele>40</ele>
        <time>2019-11-15T16:13:18Z</time>
      </trkpt>
      <trkpt lat="59.231057" lon="18.12085">
        <ele>40</ele>
        <time>2019-11-15T16:13:19Z</time>
      </trkpt>
      <trkpt lat="59.231096" lon="18.120821">
        <ele>40</ele>
        <time>2019-11-15T16:13:20Z</time>
      </trkpt>
      <trkpt lat="59.231131" lon="18.120795">
        <ele>40</ele>
        <time>2019-11-15T16:13:21Z</time>
      </trkpt>
      <trkpt lat="59.231169" lon="18.12077">
        <ele>41</ele>
        <time>2019-11-15T16:13:22Z</time>
      </trkpt>
      <trkpt lat="59.231211" lon="18.120742">
        <ele>41</ele>
        <time>2019-11-15T16:13:23Z</time>
      </trkpt>
      <trkpt lat="59.231258" lon="18.120709">
        <ele>41</ele>
        <time>2019-11-15T16:13:24Z</time>
      </trkpt>
      <trkpt lat="59.231305" lon="18.120674">
        <ele>41</ele>
        <time>2019-11-15T16:13:25Z</time>
      </trkpt>
      <trkpt lat="59.231351" lon="18.120639">
        <ele>41</ele>
        <time>2019-11-15T16:13:26Z</time>
      </trkpt>
      <trkpt lat="59.2314" lon="18.120602">
        <ele>41</ele>
        <time>2019-11-15T16:13:27Z</time>
      </trkpt>
      <trkpt lat="59.231462" lon="18.120562">
        <ele>41</ele>
        <time>2019-11-15T16:13:28Z</time>
      </trkpt>
      <trkpt lat="59.231519" lon="18.120525">
        <ele>41</ele>
        <time>2019-11-15T16:13:29Z</time>
      </trkpt>
      <trkpt lat="59.231572" lon="18.120491">
        <ele>41</ele>
        <time>2019-11-15T16:13:30Z</time>
      </trkpt>
      <trkpt lat="59.231623" lon="18.120461">
        <ele>41</ele>
        <time>2019-11-15T16:13:31Z</time>
      </trkpt>
      <trkpt lat="59.231672" lon="18.120432">
        <ele>41</ele>
        <time>2019-11-15T16:13:32Z</time>
      </trkpt>
      <trkpt lat="59.231717" lon="18.120402">
        <ele>42</ele>
        <time>2019-11-15T16:13:33Z</time>
      </trkpt>
      <trkpt lat="59.23176" lon="18.120372">
        <ele>42</ele>
        <time>2019-11-15T16:13:34Z</time>
      </trkpt>
      <trkpt lat="59.231803" lon="18.120345">
        <ele>42</ele>
        <time>2019-11-15T16:13:35Z</time>
      </trkpt>
      <trkpt lat="59.231852" lon="18.120318">
        <ele>42</ele>
        <time>2019-11-15T16:13:36Z</time>
      </trkpt>
      <trkpt lat="59.231903" lon="18.120291">
        <ele>42</ele>
        <time>2019-11-15T16:13:37Z</time>
      </trkpt>
      <trkpt lat="59.231952" lon="18.120266">
        <ele>42</ele>
        <time>2019-11-15T16:13:38Z</time>
      </trkpt>
      <trkpt lat="59.232001" lon="18.120249">
        <ele>42</ele>
        <time>2019-11-15T16:13:39Z</time>
      </trkpt>
      <trkpt lat="59.232058" lon="18.120242">
        <ele>42</ele>
        <time>2019-11-15T16:13:40Z</time>
      </trkpt>
      <trkpt lat="59.23212" lon="18.12024">
        <ele>42</ele>
        <time>2019-11-15T16:13:41Z</time>
      </trkpt>
      <trkpt lat="59.232183" lon="18.120245">
        <ele>42</ele>
        <time>2019-11-15T16:13:42Z</time>
      </trkpt>
      <trkpt lat="59.232241" lon="18.12026">
        <ele>42</ele>
        <time>2019-11-15T16:13:43Z</time>
      </trkpt>
      <trkpt lat="59.232287" lon="18.120282">
        <ele>42</ele>
        <time>2019-11-15T16:13:44Z</time>
      </trkpt>
      <trkpt lat="59.232324" lon="18.120311">
        <ele>42</ele>
        <time>2019-11-15T16:13:45Z</time>
      </trkpt>
      <trkpt lat="59.23235" lon="18.120343">
        <ele>43</ele>
        <time>2019-11-15T16:13:46Z</time>
      </trkpt>
      <trkpt lat="59.232369" lon="18.120379">
        <ele>43</ele>
        <time>2019-11-15T16:13:47Z</time>
      </trkpt>
      <trkpt lat="59.232389" lon="18.120416">
        <ele>43</ele>
        <time>2019-11-15T16:13:48Z</time>
      </trkpt>
      <trkpt lat="59.232408" lon="18.120447">
        <ele>42</ele>
        <time>2019-11-15T16:13:49Z</time>
      </trkpt>
      <trkpt lat="59.232423" lon="18.120477">
        <ele>43</ele>
        <time>2019-11-15T16:13:50Z</time>
      </trkpt>
      <trkpt lat="59.232441" lon="18.120541">
        <ele>43</ele>
        <time>2019-11-15T16:13:52Z</time>
      </trkpt>
      <trkpt lat="59.232448" lon="18.120575">
        <ele>43</ele>
        <time>2019-11-15T16:13:53Z</time>
      </trkpt>
      <trkpt lat="59.232461" lon="18.120624">
        <ele>43</ele>
        <time>2019-11-15T16:13:55Z</time>
      </trkpt>
      <trkpt lat="59.232473" lon="18.120665">
        <ele>43</ele>
        <time>2019-11-15T16:13:58Z</time>
      </trkpt>
      <trkpt lat="59.232472" lon="18.120667">
        <ele>0</ele>
        <time>2019-11-15T16:14:00Z</time>
      </trkpt>
      <trkpt lat="59.232492" lon="18.120738">
        <ele>42</ele>
        <time>2019-11-15T16:14:16Z</time>
      </trkpt>
      <trkpt lat="59.232512" lon="18.120785">
        <ele>41</ele>
        <time>2019-11-15T16:14:17Z</time>
      </trkpt>
      <trkpt lat="59.232535" lon="18.120847">
        <ele>41</ele>
        <time>2019-11-15T16:14:18Z</time>
      </trkpt>
      <trkpt lat="59.23256" lon="18.120914">
        <ele>41</ele>
        <time>2019-11-15T16:14:19Z</time>
      </trkpt>
      <trkpt lat="59.232589" lon="18.120978">
        <ele>41</ele>
        <time>2019-11-15T16:14:20Z</time>
      </trkpt>
      <trkpt lat="59.232626" lon="18.121026">
        <ele>41</ele>
        <time>2019-11-15T16:14:21Z</time>
      </trkpt>
      <trkpt lat="59.232669" lon="18.121064">
        <ele>41</ele>
        <time>2019-11-15T16:14:22Z</time>
      </trkpt>
      <trkpt lat="59.232713" lon="18.12111">
        <ele>41</ele>
        <time>2019-11-15T16:14:23Z</time>
      </trkpt>
      <trkpt lat="59.232754" lon="18.121167">
        <ele>41</ele>
        <time>2019-11-15T16:14:24Z</time>
      </trkpt>
      <trkpt lat="59.232795" lon="18.121228">
        <ele>41</ele>
        <time>2019-11-15T16:14:25Z</time>
      </trkpt>
      <trkpt lat="59.232839" lon="18.121285">
        <ele>41</ele>
        <time>2019-11-15T16:14:26Z</time>
      </trkpt>
      <trkpt lat="59.232886" lon="18.121334">
        <ele>41</ele>
        <time>2019-11-15T16:14:27Z</time>
      </trkpt>
      <trkpt lat="59.232937" lon="18.121371">
        <ele>41</ele>
        <time>2019-11-15T16:14:28Z</time>
      </trkpt>
      <trkpt lat="59.232993" lon="18.121393">
        <ele>40</ele>
        <time>2019-11-15T16:14:29Z</time>
      </trkpt>
      <trkpt lat="59.233055" lon="18.121399">
        <ele>40</ele>
        <time>2019-11-15T16:14:30Z</time>
      </trkpt>
      <trkpt lat="59.233119" lon="18.121383">
        <ele>40</ele>
        <time>2019-11-15T16:14:31Z</time>
      </trkpt>
      <trkpt lat="59.233186" lon="18.121347">
        <ele>40</ele>
        <time>2019-11-15T16:14:32Z</time>
      </trkpt>
      <trkpt lat="59.233254" lon="18.121294">
        <ele>40</ele>
        <time>2019-11-15T16:14:33Z</time>
      </trkpt>
      <trkpt lat="59.233326" lon="18.121235">
        <ele>40</ele>
        <time>2019-11-15T16:14:34Z</time>
      </trkpt>
      <trkpt lat="59.233402" lon="18.121177">
        <ele>40</ele>
        <time>2019-11-15T16:14:35Z</time>
      </trkpt>
      <trkpt lat="59.233478" lon="18.121122">
        <ele>40</ele>
        <time>2019-11-15T16:14:36Z</time>
      </trkpt>
      <trkpt lat="59.233554" lon="18.121067">
        <ele>41</ele>
        <time>2019-11-15T16:14:37Z</time>
      </trkpt>
      <trkpt lat="59.233633" lon="18.121011">
        <ele>41</ele>
        <time>2019-11-15T16:14:38Z</time>
      </trkpt>
      <trkpt lat="59.233711" lon="18.120953">
        <ele>41</ele>
        <time>2019-11-15T16:14:39Z</time>
      </trkpt>
      <trkpt lat="59.23379" lon="18.120894">
        <ele>41</ele>
        <time>2019-11-15T16:14:40Z</time>
      </trkpt>
      <trkpt lat="59.233866" lon="18.120834">
        <ele>41</ele>
        <time>2019-11-15T16:14:41Z</time>
      </trkpt>
      <trkpt lat="59.23395" lon="18.120783">
        <ele>41</ele>
        <time>2019-11-15T16:14:42Z</time>
      </trkpt>
      <trkpt lat="59.234032" lon="18.120729">
        <ele>41</ele>
        <time>2019-11-15T16:14:43Z</time>
      </trkpt>
      <trkpt lat="59.234121" lon="18.120676">
        <ele>40</ele>
        <time>2019-11-15T16:14:44Z</time>
      </trkpt>
      <trkpt lat="59.234208" lon="18.120614">
        <ele>40</ele>
        <time>2019-11-15T16:14:45Z</time>
      </trkpt>
      <trkpt lat="59.234295" lon="18.120554">
        <ele>39</ele>
        <time>2019-11-15T16:14:46Z</time>
      </trkpt>
      <trkpt lat="59.234389" lon="18.120494">
        <ele>38</ele>
        <time>2019-11-15T16:14:47Z</time>
      </trkpt>
      <trkpt lat="59.234487" lon="18.120437">
        <ele>37</ele>
        <time>2019-11-15T16:14:48Z</time>
      </trkpt>
      <trkpt lat="59.234583" lon="18.120379">
        <ele>37</ele>
        <time>2019-11-15T16:14:49Z</time>
      </trkpt>
      <trkpt lat="59.234677" lon="18.120319">
        <ele>37</ele>
        <time>2019-11-15T16:14:50Z</time>
      </trkpt>
      <trkpt lat="59.234773" lon="18.120259">
        <ele>35</ele>
        <time>2019-11-15T16:14:51Z</time>
      </trkpt>
      <trkpt lat="59.234866" lon="18.1202">
        <ele>35</ele>
        <time>2019-11-15T16:14:52Z</time>
      </trkpt>
      <trkpt lat="59.234958" lon="18.120146">
        <ele>35</ele>
        <time>2019-11-15T16:14:53Z</time>
      </trkpt>
      <trkpt lat="59.235046" lon="18.120103">
        <ele>34</ele>
        <time>2019-11-15T16:14:54Z</time>
      </trkpt>
      <trkpt lat="59.235139" lon="18.120075">
        <ele>34</ele>
        <time>2019-11-15T16:14:55Z</time>
      </trkpt>
      <trkpt lat="59.23523" lon="18.120056">
        <ele>34</ele>
        <time>2019-11-15T16:14:56Z</time>
      </trkpt>
      <trkpt lat="59.235319" lon="18.120029">
        <ele>34</ele>
        <time>2019-11-15T16:14:57Z</time>
      </trkpt>
      <trkpt lat="59.235407" lon="18.119992">
        <ele>33</ele>
        <time>2019-11-15T16:14:58Z</time>
      </trkpt>
      <trkpt lat="59.235491" lon="18.119952">
        <ele>33</ele>
        <time>2019-11-15T16:14:59Z</time>
      </trkpt>
      <trkpt lat="59.235573" lon="18.119906">
        <ele>33</ele>
        <time>2019-11-15T16:15:00Z</time>
      </trkpt>
      <trkpt lat="59.235651" lon="18.119851">
        <ele>33</ele>
        <time>2019-11-15T16:15:01Z</time>
      </trkpt>
      <trkpt lat="59.235725" lon="18.119797">
        <ele>33</ele>
        <time>2019-11-15T16:15:02Z</time>
      </trkpt>
      <trkpt lat="59.2358" lon="18.119748">
        <ele>33</ele>
        <time>2019-11-15T16:15:03Z</time>
      </trkpt>
      <trkpt lat="59.235875" lon="18.119709">
        <ele>33</ele>
        <time>2019-11-15T16:15:04Z</time>
      </trkpt>
      <trkpt lat="59.235949" lon="18.119681">
        <ele>33</ele>
        <time>2019-11-15T16:15:05Z</time>
      </trkpt>
      <trkpt lat="59.236023" lon="18.119658">
        <ele>33</ele>
        <time>2019-11-15T16:15:06Z</time>
      </trkpt>
      <trkpt lat="59.236097" lon="18.119636">
        <ele>32</ele>
        <time>2019-11-15T16:15:07Z</time>
      </trkpt>
      <trkpt lat="59.236171" lon="18.119616">
        <ele>32</ele>
        <time>2019-11-15T16:15:08Z</time>
      </trkpt>
      <trkpt lat="59.236244" lon="18.1196">
        <ele>32</ele>
        <time>2019-11-15T16:15:09Z</time>
      </trkpt>
      <trkpt lat="59.236316" lon="18.119588">
        <ele>32</ele>
        <time>2019-11-15T16:15:10Z</time>
      </trkpt>
      <trkpt lat="59.236389" lon="18.119575">
        <ele>32</ele>
        <time>2019-11-15T16:15:11Z</time>
      </trkpt>
      <trkpt lat="59.236461" lon="18.119561">
        <ele>32</ele>
        <time>2019-11-15T16:15:12Z</time>
      </trkpt>
      <trkpt lat="59.236533" lon="18.119553">
        <ele>32</ele>
        <time>2019-11-15T16:15:13Z</time>
      </trkpt>
      <trkpt lat="59.236605" lon="18.119549">
        <ele>32</ele>
        <time>2019-11-15T16:15:14Z</time>
      </trkpt>
      <trkpt lat="59.236678" lon="18.119545">
        <ele>32</ele>
        <time>2019-11-15T16:15:15Z</time>
      </trkpt>
      <trkpt lat="59.236749" lon="18.119545">
        <ele>31</ele>
        <time>2019-11-15T16:15:16Z</time>
      </trkpt>
      <trkpt lat="59.23682" lon="18.119548">
        <ele>31</ele>
        <time>2019-11-15T16:15:17Z</time>
      </trkpt>
      <trkpt lat="59.23689" lon="18.119554">
        <ele>31</ele>
        <time>2019-11-15T16:15:18Z</time>
      </trkpt>
      <trkpt lat="59.23696" lon="18.119564">
        <ele>31</ele>
        <time>2019-11-15T16:15:19Z</time>
      </trkpt>
      <trkpt lat="59.237029" lon="18.119572">
        <ele>31</ele>
        <time>2019-11-15T16:15:20Z</time>
      </trkpt>
      <trkpt lat="59.237099" lon="18.119581">
        <ele>31</ele>
        <time>2019-11-15T16:15:21Z</time>
      </trkpt>
      <trkpt lat="59.237168" lon="18.119589">
        <ele>31</ele>
        <time>2019-11-15T16:15:22Z</time>
      </trkpt>
      <trkpt lat="59.237238" lon="18.119597">
        <ele>31</ele>
        <time>2019-11-15T16:15:23Z</time>
      </trkpt>
      <trkpt lat="59.237308" lon="18.119607">
        <ele>31</ele>
        <time>2019-11-15T16:15:24Z</time>
      </trkpt>
      <trkpt lat="59.237375" lon="18.119619">
        <ele>31</ele>
        <time>2019-11-15T16:15:25Z</time>
      </trkpt>
      <trkpt lat="59.237441" lon="18.119632">
        <ele>31</ele>
        <time>2019-11-15T16:15:26Z</time>
      </trkpt>
      <trkpt lat="59.237506" lon="18.119645">
        <ele>31</ele>
        <time>2019-11-15T16:15:27Z</time>
      </trkpt>
      <trkpt lat="59.23757" lon="18.119656">
        <ele>31</ele>
        <time>2019-11-15T16:15:28Z</time>
      </trkpt>
      <trkpt lat="59.237633" lon="18.119667">
        <ele>31</ele>
        <time>2019-11-15T16:15:29Z</time>
      </trkpt>
      <trkpt lat="59.237694" lon="18.119672">
        <ele>31</ele>
        <time>2019-11-15T16:15:30Z</time>
      </trkpt>
      <trkpt lat="59.237757" lon="18.11968">
        <ele>32</ele>
        <time>2019-11-15T16:15:31Z</time>
      </trkpt>
      <trkpt lat="59.237822" lon="18.119691">
        <ele>32</ele>
        <time>2019-11-15T16:15:32Z</time>
      </trkpt>
      <trkpt lat="59.237887" lon="18.119699">
        <ele>32</ele>
        <time>2019-11-15T16:15:33Z</time>
      </trkpt>
      <trkpt lat="59.237952" lon="18.119706">
        <ele>32</ele>
        <time>2019-11-15T16:15:34Z</time>
      </trkpt>
      <trkpt lat="59.23802" lon="18.119717">
        <ele>32</ele>
        <time>2019-11-15T16:15:35Z</time>
      </trkpt>
      <trkpt lat="59.238089" lon="18.119731">
        <ele>32</ele>
        <time>2019-11-15T16:15:36Z</time>
      </trkpt>
      <trkpt lat="59.238159" lon="18.119743">
        <ele>32</ele>
        <time>2019-11-15T16:15:37Z</time>
      </trkpt>
      <trkpt lat="59.238228" lon="18.119755">
        <ele>32</ele>
        <time>2019-11-15T16:15:38Z</time>
      </trkpt>
      <trkpt lat="59.238302" lon="18.119764">
        <ele>32</ele>
        <time>2019-11-15T16:15:39Z</time>
      </trkpt>
      <trkpt lat="59.238375" lon="18.119776">
        <ele>32</ele>
        <time>2019-11-15T16:15:40Z</time>
      </trkpt>
      <trkpt lat="59.238448" lon="18.119787">
        <ele>32</ele>
        <time>2019-11-15T16:15:41Z</time>
      </trkpt>
      <trkpt lat="59.238519" lon="18.119797">
        <ele>33</ele>
        <time>2019-11-15T16:15:42Z</time>
      </trkpt>
      <trkpt lat="59.238593" lon="18.119807">
        <ele>33</ele>
        <time>2019-11-15T16:15:43Z</time>
      </trkpt>
      <trkpt lat="59.238665" lon="18.119815">
        <ele>33</ele>
        <time>2019-11-15T16:15:44Z</time>
      </trkpt>
      <trkpt lat="59.238734" lon="18.119823">
        <ele>33</ele>
        <time>2019-11-15T16:15:45Z</time>
      </trkpt>
      <trkpt lat="59.238803" lon="18.119831">
        <ele>33</ele>
        <time>2019-11-15T16:15:46Z</time>
      </trkpt>
      <trkpt lat="59.238872" lon="18.119836">
        <ele>33</ele>
        <time>2019-11-15T16:15:47Z</time>
      </trkpt>
      <trkpt lat="59.238938" lon="18.11984">
        <ele>33</ele>
        <time>2019-11-15T16:15:48Z</time>
      </trkpt>
      <trkpt lat="59.239005" lon="18.119841">
        <ele>33</ele>
        <time>2019-11-15T16:15:49Z</time>
      </trkpt>
      <trkpt lat="59.239069" lon="18.119842">
        <ele>33</ele>
        <time>2019-11-15T16:15:50Z</time>
      </trkpt>
      <trkpt lat="59.239134" lon="18.119839">
        <ele>33</ele>
        <time>2019-11-15T16:15:51Z</time>
      </trkpt>
      <trkpt lat="59.239196" lon="18.119832">
        <ele>33</ele>
        <time>2019-11-15T16:15:52Z</time>
      </trkpt>
      <trkpt lat="59.239259" lon="18.119819">
        <ele>33</ele>
        <time>2019-11-15T16:15:53Z</time>
      </trkpt>
      <trkpt lat="59.239323" lon="18.119804">
        <ele>33</ele>
        <time>2019-11-15T16:15:54Z</time>
      </trkpt>
      <trkpt lat="59.239388" lon="18.119787">
        <ele>33</ele>
        <time>2019-11-15T16:15:55Z</time>
      </trkpt>
      <trkpt lat="59.23945" lon="18.119766">
        <ele>33</ele>
        <time>2019-11-15T16:15:56Z</time>
      </trkpt>
      <trkpt lat="59.239513" lon="18.119741">
        <ele>33</ele>
        <time>2019-11-15T16:15:57Z</time>
      </trkpt>
      <trkpt lat="59.239575" lon="18.119717">
        <ele>33</ele>
        <time>2019-11-15T16:15:58Z</time>
      </trkpt>
      <trkpt lat="59.239639" lon="18.119692">
        <ele>33</ele>
        <time>2019-11-15T16:15:59Z</time>
      </trkpt>
      <trkpt lat="59.239702" lon="18.119666">
        <ele>33</ele>
        <time>2019-11-15T16:16:00Z</time>
      </trkpt>
      <trkpt lat="59.239766" lon="18.119639">
        <ele>32</ele>
        <time>2019-11-15T16:16:01Z</time>
      </trkpt>
      <trkpt lat="59.239828" lon="18.119613">
        <ele>32</ele>
        <time>2019-11-15T16:16:02Z</time>
      </trkpt>
      <trkpt lat="59.23989" lon="18.119587">
        <ele>32</ele>
        <time>2019-11-15T16:16:03Z</time>
      </trkpt>
      <trkpt lat="59.239952" lon="18.11956">
        <ele>32</ele>
        <time>2019-11-15T16:16:04Z</time>
      </trkpt>
      <trkpt lat="59.240015" lon="18.119535">
        <ele>32</ele>
        <time>2019-11-15T16:16:05Z</time>
      </trkpt>
      <trkpt lat="59.240075" lon="18.119511">
        <ele>32</ele>
        <time>2019-11-15T16:16:06Z</time>
      </trkpt>
      <trkpt lat="59.240136" lon="18.119486">
        <ele>32</ele>
        <time>2019-11-15T16:16:07Z</time>
      </trkpt>
      <trkpt lat="59.240197" lon="18.119461">
        <ele>32</ele>
        <time>2019-11-15T16:16:08Z</time>
      </trkpt>
      <trkpt lat="59.240255" lon="18.119437">
        <ele>32</ele>
        <time>2019-11-15T16:16:09Z</time>
      </trkpt>
      <trkpt lat="59.240311" lon="18.119412">
        <ele>31</ele>
        <time>2019-11-15T16:16:10Z</time>
      </trkpt>
      <trkpt lat="59.240361" lon="18.119389">
        <ele>31</ele>
        <time>2019-11-15T16:16:11Z</time>
      </trkpt>
      <trkpt lat="59.240406" lon="18.119382">
        <ele>31</ele>
        <time>2019-11-15T16:16:12Z</time>
      </trkpt>
      <trkpt lat="59.240447" lon="18.1194">
        <ele>30</ele>
        <time>2019-11-15T16:16:13Z</time>
      </trkpt>
      <trkpt lat="59.240484" lon="18.119446">
        <ele>30</ele>
        <time>2019-11-15T16:16:14Z</time>
      </trkpt>
      <trkpt lat="59.240508" lon="18.119506">
        <ele>30</ele>
        <time>2019-11-15T16:16:15Z</time>
      </trkpt>
      <trkpt lat="59.240543" lon="18.119544">
        <ele>29</ele>
        <time>2019-11-15T16:16:16Z</time>
      </trkpt>
      <trkpt lat="59.240584" lon="18.119557">
        <ele>29</ele>
        <time>2019-11-15T16:16:17Z</time>
      </trkpt>
      <trkpt lat="59.240627" lon="18.119555">
        <ele>29</ele>
        <time>2019-11-15T16:16:18Z</time>
      </trkpt>
      <trkpt lat="59.24067" lon="18.119549">
        <ele>29</ele>
        <time>2019-11-15T16:16:19Z</time>
      </trkpt>
      <trkpt lat="59.240714" lon="18.11955">
        <ele>29</ele>
        <time>2019-11-15T16:16:20Z</time>
      </trkpt>
      <trkpt lat="59.240759" lon="18.119561">
        <ele>29</ele>
        <time>2019-11-15T16:16:21Z</time>
      </trkpt>
      <trkpt lat="59.240804" lon="18.119578">
        <ele>29</ele>
        <time>2019-11-15T16:16:22Z</time>
      </trkpt>
      <trkpt lat="59.240851" lon="18.119604">
        <ele>29</ele>
        <time>2019-11-15T16:16:23Z</time>
      </trkpt>
      <trkpt lat="59.240893" lon="18.119639">
        <ele>29</ele>
        <time>2019-11-15T16:16:24Z</time>
      </trkpt>
      <trkpt lat="59.240932" lon="18.119679">
        <ele>29</ele>
        <time>2019-11-15T16:16:25Z</time>
      </trkpt>
      <trkpt lat="59.240967" lon="18.119719">
        <ele>29</ele>
        <time>2019-11-15T16:16:26Z</time>
      </trkpt>
      <trkpt lat="59.241004" lon="18.119762">
        <ele>29</ele>
        <time>2019-11-15T16:16:27Z</time>
      </trkpt>
      <trkpt lat="59.241042" lon="18.119806">
        <ele>29</ele>
        <time>2019-11-15T16:16:28Z</time>
      </trkpt>
      <trkpt lat="59.241075" lon="18.119842">
        <ele>29</ele>
        <time>2019-11-15T16:16:29Z</time>
      </trkpt>
      <trkpt lat="59.241107" lon="18.11986">
        <ele>29</ele>
        <time>2019-11-15T16:16:30Z</time>
      </trkpt>
      <trkpt lat="59.241112" lon="18.119534">
        <ele>30</ele>
        <time>2019-11-15T16:16:36Z</time>
      </trkpt>
      <trkpt lat="59.241134" lon="18.119387">
        <ele>30</ele>
        <time>2019-11-15T16:16:37Z</time>
      </trkpt>
      <trkpt lat="59.241172" lon="18.119284">
        <ele>30</ele>
        <time>2019-11-15T16:16:38Z</time>
      </trkpt>
      <trkpt lat="59.241214" lon="18.11924">
        <ele>31</ele>
        <time>2019-11-15T16:16:39Z</time>
      </trkpt>
      <trkpt lat="59.241256" lon="18.119216">
        <ele>30</ele>
        <time>2019-11-15T16:16:40Z</time>
      </trkpt>
      <trkpt lat="59.241297" lon="18.119204">
        <ele>30</ele>
        <time>2019-11-15T16:16:41Z</time>
      </trkpt>
      <trkpt lat="59.241344" lon="18.119203">
        <ele>30</ele>
        <time>2019-11-15T16:16:42Z</time>
      </trkpt>
      <trkpt lat="59.241412" lon="18.119231">
        <ele>30</ele>
        <time>2019-11-15T16:16:43Z</time>
      </trkpt>
      <trkpt lat="59.241535" lon="18.119253">
        <ele>30</ele>
        <time>2019-11-15T16:16:45Z</time>
      </trkpt>
      <trkpt lat="59.24164" lon="18.119291">
        <ele>30</ele>
        <time>2019-11-15T16:16:47Z</time>
      </trkpt>
      <trkpt lat="59.241693" lon="18.119319">
        <ele>29</ele>
        <time>2019-11-15T16:16:48Z</time>
      </trkpt>
      <trkpt lat="59.241739" lon="18.119345">
        <ele>29</ele>
        <time>2019-11-15T16:16:49Z</time>
      </trkpt>
      <trkpt lat="59.241784" lon="18.119363">
        <ele>29</ele>
        <time>2019-11-15T16:16:50Z</time>
      </trkpt>
      <trkpt lat="59.241825" lon="18.119379">
        <ele>28</ele>
        <time>2019-11-15T16:16:51Z</time>
      </trkpt>
      <trkpt lat="59.241865" lon="18.119385">
        <ele>28</ele>
        <time>2019-11-15T16:16:52Z</time>
      </trkpt>
      <trkpt lat="59.241909" lon="18.11938">
        <ele>28</ele>
        <time>2019-11-15T16:16:53Z</time>
      </trkpt>
      <trkpt lat="59.241953" lon="18.119368">
        <ele>28</ele>
        <time>2019-11-15T16:16:54Z</time>
      </trkpt>
      <trkpt lat="59.241997" lon="18.11935">
        <ele>28</ele>
        <time>2019-11-15T16:16:55Z</time>
      </trkpt>
      <trkpt lat="59.24204" lon="18.119329">
        <ele>28</ele>
        <time>2019-11-15T16:16:56Z</time>
      </trkpt>
      <trkpt lat="59.242083" lon="18.119304">
        <ele>28</ele>
        <time>2019-11-15T16:16:57Z</time>
      </trkpt>
      <trkpt lat="59.242126" lon="18.119275">
        <ele>28</ele>
        <time>2019-11-15T16:16:58Z</time>
      </trkpt>
      <trkpt lat="59.242169" lon="18.119244">
        <ele>28</ele>
        <time>2019-11-15T16:16:59Z</time>
      </trkpt>
      <trkpt lat="59.242213" lon="18.119212">
        <ele>28</ele>
        <time>2019-11-15T16:17:00Z</time>
      </trkpt>
      <trkpt lat="59.242256" lon="18.119175">
        <ele>28</ele>
        <time>2019-11-15T16:17:01Z</time>
      </trkpt>
      <trkpt lat="59.242301" lon="18.119133">
        <ele>28</ele>
        <time>2019-11-15T16:17:02Z</time>
      </trkpt>
      <trkpt lat="59.242345" lon="18.119087">
        <ele>28</ele>
        <time>2019-11-15T16:17:03Z</time>
      </trkpt>
      <trkpt lat="59.242389" lon="18.119035">
        <ele>28</ele>
        <time>2019-11-15T16:17:04Z</time>
      </trkpt>
      <trkpt lat="59.242431" lon="18.118979">
        <ele>28</ele>
        <time>2019-11-15T16:17:05Z</time>
      </trkpt>
      <trkpt lat="59.242473" lon="18.118915">
        <ele>0</ele>
        <time>2019-11-15T16:17:05Z</time>
      </trkpt>
      <trkpt lat="59.242513" lon="18.11884">
        <ele>28</ele>
        <time>2019-11-15T16:17:06Z</time>
      </trkpt>
      <trkpt lat="59.242551" lon="18.118757">
        <ele>28</ele>
        <time>2019-11-15T16:17:08Z</time>
      </trkpt>
      <trkpt lat="59.242585" lon="18.118669">
        <ele>28</ele>
        <time>2019-11-15T16:17:09Z</time>
      </trkpt>
      <trkpt lat="59.242614" lon="18.118578">
        <ele>28</ele>
        <time>2019-11-15T16:17:10Z</time>
      </trkpt>
      <trkpt lat="59.242643" lon="18.118487">
        <ele>28</ele>
        <time>2019-11-15T16:17:11Z</time>
      </trkpt>
      <trkpt lat="59.242669" lon="18.118393">
        <ele>27</ele>
        <time>2019-11-15T16:17:12Z</time>
      </trkpt>
      <trkpt lat="59.242696" lon="18.118298">
        <ele>27</ele>
        <time>2019-11-15T16:17:13Z</time>
      </trkpt>
      <trkpt lat="59.242725" lon="18.118205">
        <ele>27</ele>
        <time>2019-11-15T16:17:14Z</time>
      </trkpt>
      <trkpt lat="59.242754" lon="18.11811">
        <ele>27</ele>
        <time>2019-11-15T16:17:15Z</time>
      </trkpt>
      <trkpt lat="59.242782" lon="18.118012">
        <ele>27</ele>
        <time>2019-11-15T16:17:16Z</time>
      </trkpt>
      <trkpt lat="59.242809" lon="18.117912">
        <ele>27</ele>
        <time>2019-11-15T16:17:17Z</time>
      </trkpt>
      <trkpt lat="59.242841" lon="18.117818">
        <ele>27</ele>
        <time>2019-11-15T16:17:18Z</time>
      </trkpt>
      <trkpt lat="59.242871" lon="18.117723">
        <ele>27</ele>
        <time>2019-11-15T16:17:19Z</time>
      </trkpt>
      <trkpt lat="59.242901" lon="18.117627">
        <ele>27</ele>
        <time>2019-11-15T16:17:20Z</time>
      </trkpt>
      <trkpt lat="59.24293" lon="18.117531">
        <ele>27</ele>
        <time>2019-11-15T16:17:21Z</time>
      </trkpt>
      <trkpt lat="59.24296" lon="18.117437">
        <ele>27</ele>
        <time>2019-11-15T16:17:22Z</time>
      </trkpt>
      <trkpt lat="59.242989" lon="18.117342">
        <ele>27</ele>
        <time>2019-11-15T16:17:23Z</time>
      </trkpt>
      <trkpt lat="59.243018" lon="18.117247">
        <ele>27</ele>
        <time>2019-11-15T16:17:24Z</time>
      </trkpt>
      <trkpt lat="59.243047" lon="18.117153">
        <ele>27</ele>
        <time>2019-11-15T16:17:25Z</time>
      </trkpt>
      <trkpt lat="59.243074" lon="18.117058">
        <ele>27</ele>
        <time>2019-11-15T16:17:26Z</time>
      </trkpt>
      <trkpt lat="59.243104" lon="18.116965">
        <ele>27</ele>
        <time>2019-11-15T16:17:27Z</time>
      </trkpt>
      <trkpt lat="59.243133" lon="18.116874">
        <ele>27</ele>
        <time>2019-11-15T16:17:28Z</time>
      </trkpt>
      <trkpt lat="59.243161" lon="18.116781">
        <ele>26</ele>
        <time>2019-11-15T16:17:29Z</time>
      </trkpt>
      <trkpt lat="59.24319" lon="18.11669">
        <ele>26</ele>
        <time>2019-11-15T16:17:30Z</time>
      </trkpt>
      <trkpt lat="59.243219" lon="18.116599">
        <ele>26</ele>
        <time>2019-11-15T16:17:31Z</time>
      </trkpt>
      <trkpt lat="59.243248" lon="18.11651">
        <ele>26</ele>
        <time>2019-11-15T16:17:32Z</time>
      </trkpt>
      <trkpt lat="59.243279" lon="18.116419">
        <ele>26</ele>
        <time>2019-11-15T16:17:33Z</time>
      </trkpt>
      <trkpt lat="59.24331" lon="18.116328">
        <ele>26</ele>
        <time>2019-11-15T16:17:34Z</time>
      </trkpt>
      <trkpt lat="59.243341" lon="18.116237">
        <ele>26</ele>
        <time>2019-11-15T16:17:35Z</time>
      </trkpt>
      <trkpt lat="59.243371" lon="18.116144">
        <ele>26</ele>
        <time>2019-11-15T16:17:36Z</time>
      </trkpt>
      <trkpt lat="59.243402" lon="18.11605">
        <ele>26</ele>
        <time>2019-11-15T16:17:37Z</time>
      </trkpt>
      <trkpt lat="59.243432" lon="18.115957">
        <ele>26</ele>
        <time>2019-11-15T16:17:38Z</time>
      </trkpt>
      <trkpt lat="59.243462" lon="18.115863">
        <ele>26</ele>
        <time>2019-11-15T16:17:39Z</time>
      </trkpt>
      <trkpt lat="59.243491" lon="18.115769">
        <ele>26</ele>
        <time>2019-11-15T16:17:40Z</time>
      </trkpt>
      <trkpt lat="59.243518" lon="18.115672">
        <ele>26</ele>
        <time>2019-11-15T16:17:41Z</time>
      </trkpt>
      <trkpt lat="59.243542" lon="18.115573">
        <ele>26</ele>
        <time>2019-11-15T16:17:42Z</time>
      </trkpt>
      <trkpt lat="59.243559" lon="18.115469">
        <ele>26</ele>
        <time>2019-11-15T16:17:43Z</time>
      </trkpt>
      <trkpt lat="59.243571" lon="18.115362">
        <ele>26</ele>
        <time>2019-11-15T16:17:44Z</time>
      </trkpt>
      <trkpt lat="59.243578" lon="18.115254">
        <ele>26</ele>
        <time>2019-11-15T16:17:45Z</time>
      </trkpt>
      <trkpt lat="59.243586" lon="18.115147">
        <ele>26</ele>
        <time>2019-11-15T16:17:46Z</time>
      </trkpt>
      <trkpt lat="59.243596" lon="18.115043">
        <ele>26</ele>
        <time>2019-11-15T16:17:47Z</time>
      </trkpt>
      <trkpt lat="59.243609" lon="18.11494">
        <ele>26</ele>
        <time>2019-11-15T16:17:48Z</time>
      </trkpt>
      <trkpt lat="59.243623" lon="18.114836">
        <ele>26</ele>
        <time>2019-11-15T16:17:49Z</time>
      </trkpt>
      <trkpt lat="59.243639" lon="18.114734">
        <ele>26</ele>
        <time>2019-11-15T16:17:50Z</time>
      </trkpt>
      <trkpt lat="59.243655" lon="18.114631">
        <ele>26</ele>
        <time>2019-11-15T16:17:51Z</time>
      </trkpt>
      <trkpt lat="59.243673" lon="18.114528">
        <ele>26</ele>
        <time>2019-11-15T16:17:52Z</time>
      </trkpt>
      <trkpt lat="59.243689" lon="18.114425">
        <ele>26</ele>
        <time>2019-11-15T16:17:53Z</time>
      </trkpt>
      <trkpt lat="59.243706" lon="18.114322">
        <ele>26</ele>
        <time>2019-11-15T16:17:54Z</time>
      </trkpt>
      <trkpt lat="59.243722" lon="18.114217">
        <ele>26</ele>
        <time>2019-11-15T16:17:55Z</time>
      </trkpt>
      <trkpt lat="59.243737" lon="18.114113">
        <ele>27</ele>
        <time>2019-11-15T16:17:56Z</time>
      </trkpt>
      <trkpt lat="59.243749" lon="18.114007">
        <ele>27</ele>
        <time>2019-11-15T16:17:57Z</time>
      </trkpt>
      <trkpt lat="59.243762" lon="18.113901">
        <ele>27</ele>
        <time>2019-11-15T16:17:58Z</time>
      </trkpt>
      <trkpt lat="59.243775" lon="18.113796">
        <ele>27</ele>
        <time>2019-11-15T16:17:59Z</time>
      </trkpt>
      <trkpt lat="59.243788" lon="18.113689">
        <ele>27</ele>
        <time>2019-11-15T16:18:00Z</time>
      </trkpt>
      <trkpt lat="59.243803" lon="18.113581">
        <ele>27</ele>
        <time>2019-11-15T16:18:01Z</time>
      </trkpt>
      <trkpt lat="59.243815" lon="18.113474">
        <ele>26</ele>
        <time>2019-11-15T16:18:02Z</time>
      </trkpt>
      <trkpt lat="59.243827" lon="18.113365">
        <ele>26</ele>
        <time>2019-11-15T16:18:03Z</time>
      </trkpt>
      <trkpt lat="59.243839" lon="18.113255">
        <ele>26</ele>
        <time>2019-11-15T16:18:04Z</time>
      </trkpt>
      <trkpt lat="59.243852" lon="18.113147">
        <ele>26</ele>
        <time>2019-11-15T16:18:05Z</time>
      </trkpt>
      <trkpt lat="59.243863" lon="18.113036">
        <ele>26</ele>
        <time>2019-11-15T16:18:06Z</time>
      </trkpt>
      <trkpt lat="59.24387" lon="18.112924">
        <ele>26</ele>
        <time>2019-11-15T16:18:07Z</time>
      </trkpt>
      <trkpt lat="59.243876" lon="18.112811">
        <ele>26</ele>
        <time>2019-11-15T16:18:08Z</time>
      </trkpt>
      <trkpt lat="59.24388" lon="18.112697">
        <ele>26</ele>
        <time>2019-11-15T16:18:09Z</time>
      </trkpt>
      <trkpt lat="59.243884" lon="18.112584">
        <ele>26</ele>
        <time>2019-11-15T16:18:10Z</time>
      </trkpt>
      <trkpt lat="59.243887" lon="18.112473">
        <ele>26</ele>
        <time>2019-11-15T16:18:11Z</time>
      </trkpt>
      <trkpt lat="59.24389" lon="18.112362">
        <ele>26</ele>
        <time>2019-11-15T16:18:12Z</time>
      </trkpt>
      <trkpt lat="59.243893" lon="18.11225">
        <ele>26</ele>
        <time>2019-11-15T16:18:13Z</time>
      </trkpt>
      <trkpt lat="59.243894" lon="18.112137">
        <ele>26</ele>
        <time>2019-11-15T16:18:14Z</time>
      </trkpt>
      <trkpt lat="59.243897" lon="18.112026">
        <ele>26</ele>
        <time>2019-11-15T16:18:15Z</time>
      </trkpt>
      <trkpt lat="59.243899" lon="18.111916">
        <ele>26</ele>
        <time>2019-11-15T16:18:16Z</time>
      </trkpt>
      <trkpt lat="59.2439" lon="18.111808">
        <ele>26</ele>
        <time>2019-11-15T16:18:17Z</time>
      </trkpt>
      <trkpt lat="59.243899" lon="18.1117">
        <ele>27</ele>
        <time>2019-11-15T16:18:18Z</time>
      </trkpt>
      <trkpt lat="59.243899" lon="18.111592">
        <ele>27</ele>
        <time>2019-11-15T16:18:19Z</time>
      </trkpt>
      <trkpt lat="59.2439" lon="18.111486">
        <ele>27</ele>
        <time>2019-11-15T16:18:20Z</time>
      </trkpt>
      <trkpt lat="59.243901" lon="18.111381">
        <ele>27</ele>
        <time>2019-11-15T16:18:21Z</time>
      </trkpt>
      <trkpt lat="59.243903" lon="18.111281">
        <ele>27</ele>
        <time>2019-11-15T16:18:22Z</time>
      </trkpt>
      <trkpt lat="59.243905" lon="18.111186">
        <ele>27</ele>
        <time>2019-11-15T16:18:23Z</time>
      </trkpt>
      <trkpt lat="59.243908" lon="18.111094">
        <ele>27</ele>
        <time>2019-11-15T16:18:24Z</time>
      </trkpt>
      <trkpt lat="59.243908" lon="18.111004">
        <ele>27</ele>
        <time>2019-11-15T16:18:25Z</time>
      </trkpt>
      <trkpt lat="59.243908" lon="18.110914">
        <ele>27</ele>
        <time>2019-11-15T16:18:26Z</time>
      </trkpt>
      <trkpt lat="59.243908" lon="18.110825">
        <ele>27</ele>
        <time>2019-11-15T16:18:27Z</time>
      </trkpt>
      <trkpt lat="59.24391" lon="18.110738">
        <ele>27</ele>
        <time>2019-11-15T16:18:28Z</time>
      </trkpt>
      <trkpt lat="59.243912" lon="18.110651">
        <ele>27</ele>
        <time>2019-11-15T16:18:29Z</time>
      </trkpt>
      <trkpt lat="59.243915" lon="18.110565">
        <ele>27</ele>
        <time>2019-11-15T16:18:30Z</time>
      </trkpt>
      <trkpt lat="59.243918" lon="18.110482">
        <ele>28</ele>
        <time>2019-11-15T16:18:31Z</time>
      </trkpt>
      <trkpt lat="59.243921" lon="18.110398">
        <ele>28</ele>
        <time>2019-11-15T16:18:32Z</time>
      </trkpt>
      <trkpt lat="59.243923" lon="18.110313">
        <ele>28</ele>
        <time>2019-11-15T16:18:33Z</time>
      </trkpt>
      <trkpt lat="59.243926" lon="18.110229">
        <ele>28</ele>
        <time>2019-11-15T16:18:34Z</time>
      </trkpt>
      <trkpt lat="59.24393" lon="18.110146">
        <ele>28</ele>
        <time>2019-11-15T16:18:35Z</time>
      </trkpt>
      <trkpt lat="59.243934" lon="18.110062">
        <ele>28</ele>
        <time>2019-11-15T16:18:36Z</time>
      </trkpt>
      <trkpt lat="59.243938" lon="18.109979">
        <ele>28</ele>
        <time>2019-11-15T16:18:37Z</time>
      </trkpt>
      <trkpt lat="59.243943" lon="18.109896">
        <ele>28</ele>
        <time>2019-11-15T16:18:38Z</time>
      </trkpt>
      <trkpt lat="59.243947" lon="18.109812">
        <ele>29</ele>
        <time>2019-11-15T16:18:39Z</time>
      </trkpt>
      <trkpt lat="59.243956" lon="18.109729">
        <ele>29</ele>
        <time>2019-11-15T16:18:40Z</time>
      </trkpt>
      <trkpt lat="59.243967" lon="18.109646">
        <ele>29</ele>
        <time>2019-11-15T16:18:41Z</time>
      </trkpt>
      <trkpt lat="59.24398" lon="18.109565">
        <ele>29</ele>
        <time>2019-11-15T16:18:42Z</time>
      </trkpt>
      <trkpt lat="59.243993" lon="18.109481">
        <ele>29</ele>
        <time>2019-11-15T16:18:43Z</time>
      </trkpt>
      <trkpt lat="59.244007" lon="18.109398">
        <ele>29</ele>
        <time>2019-11-15T16:18:44Z</time>
      </trkpt>
      <trkpt lat="59.244023" lon="18.109314">
        <ele>30</ele>
        <time>2019-11-15T16:18:45Z</time>
      </trkpt>
      <trkpt lat="59.244043" lon="18.109235">
        <ele>30</ele>
        <time>2019-11-15T16:18:46Z</time>
      </trkpt>
      <trkpt lat="59.244067" lon="18.109163">
        <ele>30</ele>
        <time>2019-11-15T16:18:47Z</time>
      </trkpt>
      <trkpt lat="59.244093" lon="18.109094">
        <ele>30</ele>
        <time>2019-11-15T16:18:48Z</time>
      </trkpt>
      <trkpt lat="59.244122" lon="18.109028">
        <ele>30</ele>
        <time>2019-11-15T16:18:49Z</time>
      </trkpt>
      <trkpt lat="59.24415" lon="18.108962">
        <ele>30</ele>
        <time>2019-11-15T16:18:50Z</time>
      </trkpt>
      <trkpt lat="59.24418" lon="18.108898">
        <ele>30</ele>
        <time>2019-11-15T16:18:51Z</time>
      </trkpt>
      <trkpt lat="59.244212" lon="18.108837">
        <ele>31</ele>
        <time>2019-11-15T16:18:52Z</time>
      </trkpt>
      <trkpt lat="59.244245" lon="18.108776">
        <ele>31</ele>
        <time>2019-11-15T16:18:53Z</time>
      </trkpt>
      <trkpt lat="59.244277" lon="18.108714">
        <ele>31</ele>
        <time>2019-11-15T16:18:54Z</time>
      </trkpt>
      <trkpt lat="59.244309" lon="18.108652">
        <ele>31</ele>
        <time>2019-11-15T16:18:55Z</time>
      </trkpt>
      <trkpt lat="59.244343" lon="18.108591">
        <ele>31</ele>
        <time>2019-11-15T16:18:56Z</time>
      </trkpt>
      <trkpt lat="59.244376" lon="18.108528">
        <ele>31</ele>
        <time>2019-11-15T16:18:57Z</time>
      </trkpt>
      <trkpt lat="59.244409" lon="18.108464">
        <ele>32</ele>
        <time>2019-11-15T16:18:58Z</time>
      </trkpt>
      <trkpt lat="59.244442" lon="18.108402">
        <ele>32</ele>
        <time>2019-11-15T16:18:59Z</time>
      </trkpt>
      <trkpt lat="59.244475" lon="18.10834">
        <ele>32</ele>
        <time>2019-11-15T16:19:00Z</time>
      </trkpt>
      <trkpt lat="59.244508" lon="18.108279">
        <ele>32</ele>
        <time>2019-11-15T16:19:01Z</time>
      </trkpt>
      <trkpt lat="59.24454" lon="18.108217">
        <ele>32</ele>
        <time>2019-11-15T16:19:02Z</time>
      </trkpt>
      <trkpt lat="59.244573" lon="18.108156">
        <ele>32</ele>
        <time>2019-11-15T16:19:03Z</time>
      </trkpt>
      <trkpt lat="59.244606" lon="18.108093">
        <ele>32</ele>
        <time>2019-11-15T16:19:04Z</time>
      </trkpt>
      <trkpt lat="59.24464" lon="18.10803">
        <ele>32</ele>
        <time>2019-11-15T16:19:05Z</time>
      </trkpt>
      <trkpt lat="59.244674" lon="18.107968">
        <ele>33</ele>
        <time>2019-11-15T16:19:06Z</time>
      </trkpt>
      <trkpt lat="59.244708" lon="18.107906">
        <ele>33</ele>
        <time>2019-11-15T16:19:07Z</time>
      </trkpt>
      <trkpt lat="59.244742" lon="18.107842">
        <ele>33</ele>
        <time>2019-11-15T16:19:08Z</time>
      </trkpt>
      <trkpt lat="59.244778" lon="18.107778">
        <ele>33</ele>
        <time>2019-11-15T16:19:09Z</time>
      </trkpt>
      <trkpt lat="59.244811" lon="18.107714">
        <ele>33</ele>
        <time>2019-11-15T16:19:10Z</time>
      </trkpt>
      <trkpt lat="59.244843" lon="18.10765">
        <ele>33</ele>
        <time>2019-11-15T16:19:11Z</time>
      </trkpt>
      <trkpt lat="59.244878" lon="18.107584">
        <ele>0</ele>
        <time>2019-11-15T16:19:11Z</time>
      </trkpt>
      <trkpt lat="59.244914" lon="18.10752">
        <ele>33</ele>
        <time>2019-11-15T16:19:12Z</time>
      </trkpt>
      <trkpt lat="59.244952" lon="18.107459">
        <ele>33</ele>
        <time>2019-11-15T16:19:14Z</time>
      </trkpt>
      <trkpt lat="59.244991" lon="18.107399">
        <ele>33</ele>
        <time>2019-11-15T16:19:15Z</time>
      </trkpt>
      <trkpt lat="59.24503" lon="18.107338">
        <ele>32</ele>
        <time>2019-11-15T16:19:16Z</time>
      </trkpt>
      <trkpt lat="59.245066" lon="18.107273">
        <ele>32</ele>
        <time>2019-11-15T16:19:17Z</time>
      </trkpt>
      <trkpt lat="59.245099" lon="18.107206">
        <ele>33</ele>
        <time>2019-11-15T16:19:18Z</time>
      </trkpt>
      <trkpt lat="59.245133" lon="18.107135">
        <ele>32</ele>
        <time>2019-11-15T16:19:19Z</time>
      </trkpt>
      <trkpt lat="59.245171" lon="18.107061">
        <ele>32</ele>
        <time>2019-11-15T16:19:20Z</time>
      </trkpt>
      <trkpt lat="59.245214" lon="18.106984">
        <ele>32</ele>
        <time>2019-11-15T16:19:21Z</time>
      </trkpt>
      <trkpt lat="59.245257" lon="18.106906">
        <ele>32</ele>
        <time>2019-11-15T16:19:22Z</time>
      </trkpt>
      <trkpt lat="59.245306" lon="18.106823">
        <ele>32</ele>
        <time>2019-11-15T16:19:23Z</time>
      </trkpt>
      <trkpt lat="59.245352" lon="18.106737">
        <ele>32</ele>
        <time>2019-11-15T16:19:24Z</time>
      </trkpt>
      <trkpt lat="59.2454" lon="18.106651">
        <ele>32</ele>
        <time>2019-11-15T16:19:25Z</time>
      </trkpt>
      <trkpt lat="59.245446" lon="18.106564">
        <ele>32</ele>
        <time>2019-11-15T16:19:26Z</time>
      </trkpt>
      <trkpt lat="59.245496" lon="18.106474">
        <ele>32</ele>
        <time>2019-11-15T16:19:27Z</time>
      </trkpt>
      <trkpt lat="59.245546" lon="18.106383">
        <ele>32</ele>
        <time>2019-11-15T16:19:28Z</time>
      </trkpt>
      <trkpt lat="59.245596" lon="18.106289">
        <ele>32</ele>
        <time>2019-11-15T16:19:29Z</time>
      </trkpt>
      <trkpt lat="59.245651" lon="18.1062">
        <ele>32</ele>
        <time>2019-11-15T16:19:30Z</time>
      </trkpt>
      <trkpt lat="59.245707" lon="18.106114">
        <ele>32</ele>
        <time>2019-11-15T16:19:31Z</time>
      </trkpt>
      <trkpt lat="59.245766" lon="18.106027">
        <ele>32</ele>
        <time>2019-11-15T16:19:32Z</time>
      </trkpt>
      <trkpt lat="59.245826" lon="18.105941">
        <ele>32</ele>
        <time>2019-11-15T16:19:33Z</time>
      </trkpt>
      <trkpt lat="59.245884" lon="18.105853">
        <ele>32</ele>
        <time>2019-11-15T16:19:34Z</time>
      </trkpt>
      <trkpt lat="59.245943" lon="18.105769">
        <ele>32</ele>
        <time>2019-11-15T16:19:35Z</time>
      </trkpt>
      <trkpt lat="59.246" lon="18.105685">
        <ele>32</ele>
        <time>2019-11-15T16:19:36Z</time>
      </trkpt>
      <trkpt lat="59.24606" lon="18.105601">
        <ele>32</ele>
        <time>2019-11-15T16:19:37Z</time>
      </trkpt>
      <trkpt lat="59.246121" lon="18.10552">
        <ele>32</ele>
        <time>2019-11-15T16:19:38Z</time>
      </trkpt>
      <trkpt lat="59.246188" lon="18.10545">
        <ele>31</ele>
        <time>2019-11-15T16:19:39Z</time>
      </trkpt>
      <trkpt lat="59.246253" lon="18.1054">
        <ele>31</ele>
        <time>2019-11-15T16:19:40Z</time>
      </trkpt>
      <trkpt lat="59.246322" lon="18.105361">
        <ele>31</ele>
        <time>2019-11-15T16:19:41Z</time>
      </trkpt>
      <trkpt lat="59.246389" lon="18.105327">
        <ele>31</ele>
        <time>2019-11-15T16:19:42Z</time>
      </trkpt>
      <trkpt lat="59.246464" lon="18.105305">
        <ele>31</ele>
        <time>2019-11-15T16:19:43Z</time>
      </trkpt>
      <trkpt lat="59.246537" lon="18.105279">
        <ele>30</ele>
        <time>2019-11-15T16:19:44Z</time>
      </trkpt>
      <trkpt lat="59.246604" lon="18.105223">
        <ele>30</ele>
        <time>2019-11-15T16:19:45Z</time>
      </trkpt>
      <trkpt lat="59.246671" lon="18.105147">
        <ele>29</ele>
        <time>2019-11-15T16:19:46Z</time>
      </trkpt>
      <trkpt lat="59.246736" lon="18.105065">
        <ele>29</ele>
        <time>2019-11-15T16:19:47Z</time>
      </trkpt>
      <trkpt lat="59.246798" lon="18.104983">
        <ele>29</ele>
        <time>2019-11-15T16:19:48Z</time>
      </trkpt>
      <trkpt lat="59.246859" lon="18.104905">
        <ele>28</ele>
        <time>2019-11-15T16:19:49Z</time>
      </trkpt>
      <trkpt lat="59.246908" lon="18.104835">
        <ele>28</ele>
        <time>2019-11-15T16:19:50Z</time>
      </trkpt>
      <trkpt lat="59.246944" lon="18.104759">
        <ele>28</ele>
        <time>2019-11-15T16:19:51Z</time>
      </trkpt>
      <trkpt lat="59.246953" lon="18.104665">
        <ele>27</ele>
        <time>2019-11-15T16:19:52Z</time>
      </trkpt>
      <trkpt lat="59.246953" lon="18.104557">
        <ele>27</ele>
        <time>2019-11-15T16:19:53Z</time>
      </trkpt>
      <trkpt lat="59.246945" lon="18.10445">
        <ele>27</ele>
        <time>2019-11-15T16:19:54Z</time>
      </trkpt>
      <trkpt lat="59.246942" lon="18.104346">
        <ele>27</ele>
        <time>2019-11-15T16:19:55Z</time>
      </trkpt>
      <trkpt lat="59.246944" lon="18.104233">
        <ele>27</ele>
        <time>2019-11-15T16:19:56Z</time>
      </trkpt>
      <trkpt lat="59.24695" lon="18.104123">
        <ele>27</ele>
        <time>2019-11-15T16:19:57Z</time>
      </trkpt>
      <trkpt lat="59.246965" lon="18.104021">
        <ele>26</ele>
        <time>2019-11-15T16:19:58Z</time>
      </trkpt>
      <trkpt lat="59.246982" lon="18.103925">
        <ele>26</ele>
        <time>2019-11-15T16:19:59Z</time>
      </trkpt>
      <trkpt lat="59.247" lon="18.103835">
        <ele>26</ele>
        <time>2019-11-15T16:20:00Z</time>
      </trkpt>
      <trkpt lat="59.247022" lon="18.103748">
        <ele>26</ele>
        <time>2019-11-15T16:20:01Z</time>
      </trkpt>
      <trkpt lat="59.247044" lon="18.103665">
        <ele>26</ele>
        <time>2019-11-15T16:20:02Z</time>
      </trkpt>
      <trkpt lat="59.247071" lon="18.103587">
        <ele>26</ele>
        <time>2019-11-15T16:20:03Z</time>
      </trkpt>
      <trkpt lat="59.247099" lon="18.103515">
        <ele>26</ele>
        <time>2019-11-15T16:20:04Z</time>
      </trkpt>
      <trkpt lat="59.247129" lon="18.103451">
        <ele>26</ele>
        <time>2019-11-15T16:20:05Z</time>
      </trkpt>
      <trkpt lat="59.247163" lon="18.103392">
        <ele>26</ele>
        <time>2019-11-15T16:20:06Z</time>
      </trkpt>
      <trkpt lat="59.247199" lon="18.103332">
        <ele>27</ele>
        <time>2019-11-15T16:20:07Z</time>
      </trkpt>
      <trkpt lat="59.247236" lon="18.103276">
        <ele>27</ele>
        <time>2019-11-15T16:20:08Z</time>
      </trkpt>
      <trkpt lat="59.247277" lon="18.103218">
        <ele>27</ele>
        <time>2019-11-15T16:20:09Z</time>
      </trkpt>
      <trkpt lat="59.247319" lon="18.103156">
        <ele>27</ele>
        <time>2019-11-15T16:20:10Z</time>
      </trkpt>
      <trkpt lat="59.247354" lon="18.103093">
        <ele>28</ele>
        <time>2019-11-15T16:20:11Z</time>
      </trkpt>
      <trkpt lat="59.247391" lon="18.103031">
        <ele>28</ele>
        <time>2019-11-15T16:20:12Z</time>
      </trkpt>
      <trkpt lat="59.247422" lon="18.102967">
        <ele>28</ele>
        <time>2019-11-15T16:20:13Z</time>
      </trkpt>
      <trkpt lat="59.247451" lon="18.102898">
        <ele>29</ele>
        <time>2019-11-15T16:20:14Z</time>
      </trkpt>
      <trkpt lat="59.247478" lon="18.102823">
        <ele>29</ele>
        <time>2019-11-15T16:20:15Z</time>
      </trkpt>
      <trkpt lat="59.247501" lon="18.102746">
        <ele>29</ele>
        <time>2019-11-15T16:20:16Z</time>
      </trkpt>
      <trkpt lat="59.247524" lon="18.102669">
        <ele>29</ele>
        <time>2019-11-15T16:20:17Z</time>
      </trkpt>
      <trkpt lat="59.247548" lon="18.102588">
        <ele>29</ele>
        <time>2019-11-15T16:20:18Z</time>
      </trkpt>
      <trkpt lat="59.24757" lon="18.102506">
        <ele>29</ele>
        <time>2019-11-15T16:20:19Z</time>
      </trkpt>
      <trkpt lat="59.247591" lon="18.102422">
        <ele>29</ele>
        <time>2019-11-15T16:20:20Z</time>
      </trkpt>
      <trkpt lat="59.247613" lon="18.102339">
        <ele>29</ele>
        <time>2019-11-15T16:20:21Z</time>
      </trkpt>
      <trkpt lat="59.247632" lon="18.102254">
        <ele>29</ele>
        <time>2019-11-15T16:20:22Z</time>
      </trkpt>
      <trkpt lat="59.247652" lon="18.102168">
        <ele>29</ele>
        <time>2019-11-15T16:20:23Z</time>
      </trkpt>
      <trkpt lat="59.247675" lon="18.102082">
        <ele>29</ele>
        <time>2019-11-15T16:20:24Z</time>
      </trkpt>
      <trkpt lat="59.2477" lon="18.101997">
        <ele>29</ele>
        <time>2019-11-15T16:20:25Z</time>
      </trkpt>
      <trkpt lat="59.247722" lon="18.10191">
        <ele>29</ele>
        <time>2019-11-15T16:20:26Z</time>
      </trkpt>
      <trkpt lat="59.247743" lon="18.101821">
        <ele>29</ele>
        <time>2019-11-15T16:20:27Z</time>
      </trkpt>
      <trkpt lat="59.247764" lon="18.101728">
        <ele>29</ele>
        <time>2019-11-15T16:20:28Z</time>
      </trkpt>
      <trkpt lat="59.247787" lon="18.101633">
        <ele>29</ele>
        <time>2019-11-15T16:20:29Z</time>
      </trkpt>
      <trkpt lat="59.247813" lon="18.10154">
        <ele>29</ele>
        <time>2019-11-15T16:20:30Z</time>
      </trkpt>
      <trkpt lat="59.247843" lon="18.101445">
        <ele>29</ele>
        <time>2019-11-15T16:20:31Z</time>
      </trkpt>
      <trkpt lat="59.247875" lon="18.101348">
        <ele>29</ele>
        <time>2019-11-15T16:20:32Z</time>
      </trkpt>
      <trkpt lat="59.247909" lon="18.101253">
        <ele>29</ele>
        <time>2019-11-15T16:20:33Z</time>
      </trkpt>
      <trkpt lat="59.247943" lon="18.101159">
        <ele>29</ele>
        <time>2019-11-15T16:20:34Z</time>
      </trkpt>
      <trkpt lat="59.247981" lon="18.101064">
        <ele>29</ele>
        <time>2019-11-15T16:20:35Z</time>
      </trkpt>
      <trkpt lat="59.248019" lon="18.100969">
        <ele>29</ele>
        <time>2019-11-15T16:20:36Z</time>
      </trkpt>
      <trkpt lat="59.24806" lon="18.100875">
        <ele>29</ele>
        <time>2019-11-15T16:20:37Z</time>
      </trkpt>
      <trkpt lat="59.248104" lon="18.100787">
        <ele>29</ele>
        <time>2019-11-15T16:20:38Z</time>
      </trkpt>
      <trkpt lat="59.248151" lon="18.100709">
        <ele>29</ele>
        <time>2019-11-15T16:20:39Z</time>
      </trkpt>
      <trkpt lat="59.248203" lon="18.100642">
        <ele>29</ele>
        <time>2019-11-15T16:20:40Z</time>
      </trkpt>
      <trkpt lat="59.248259" lon="18.100585">
        <ele>29</ele>
        <time>2019-11-15T16:20:41Z</time>
      </trkpt>
      <trkpt lat="59.248318" lon="18.100532">
        <ele>29</ele>
        <time>2019-11-15T16:20:42Z</time>
      </trkpt>
      <trkpt lat="59.248382" lon="18.100479">
        <ele>29</ele>
        <time>2019-11-15T16:20:43Z</time>
      </trkpt>
      <trkpt lat="59.24845" lon="18.100418">
        <ele>29</ele>
        <time>2019-11-15T16:20:44Z</time>
      </trkpt>
      <trkpt lat="59.248516" lon="18.100343">
        <ele>29</ele>
        <time>2019-11-15T16:20:45Z</time>
      </trkpt>
      <trkpt lat="59.248579" lon="18.100262">
        <ele>29</ele>
        <time>2019-11-15T16:20:46Z</time>
      </trkpt>
      <trkpt lat="59.248641" lon="18.100181">
        <ele>29</ele>
        <time>2019-11-15T16:20:47Z</time>
      </trkpt>
      <trkpt lat="59.248699" lon="18.1001">
        <ele>29</ele>
        <time>2019-11-15T16:20:48Z</time>
      </trkpt>
      <trkpt lat="59.248755" lon="18.100023">
        <ele>29</ele>
        <time>2019-11-15T16:20:49Z</time>
      </trkpt>
      <trkpt lat="59.24881" lon="18.09995">
        <ele>29</ele>
        <time>2019-11-15T16:20:50Z</time>
      </trkpt>
      <trkpt lat="59.248866" lon="18.099879">
        <ele>29</ele>
        <time>2019-11-15T16:20:51Z</time>
      </trkpt>
      <trkpt lat="59.248925" lon="18.099814">
        <ele>29</ele>
        <time>2019-11-15T16:20:52Z</time>
      </trkpt>
      <trkpt lat="59.248986" lon="18.099757">
        <ele>29</ele>
        <time>2019-11-15T16:20:53Z</time>
      </trkpt>
      <trkpt lat="59.249049" lon="18.099707">
        <ele>29</ele>
        <time>2019-11-15T16:20:54Z</time>
      </trkpt>
      <trkpt lat="59.249116" lon="18.099662">
        <ele>29</ele>
        <time>2019-11-15T16:20:55Z</time>
      </trkpt>
      <trkpt lat="59.249183" lon="18.099624">
        <ele>29</ele>
        <time>2019-11-15T16:20:56Z</time>
      </trkpt>
      <trkpt lat="59.249257" lon="18.099595">
        <ele>29</ele>
        <time>2019-11-15T16:20:57Z</time>
      </trkpt>
      <trkpt lat="59.24933" lon="18.099567">
        <ele>29</ele>
        <time>2019-11-15T16:20:58Z</time>
      </trkpt>
      <trkpt lat="59.249401" lon="18.099538">
        <ele>29</ele>
        <time>2019-11-15T16:20:59Z</time>
      </trkpt>
      <trkpt lat="59.249472" lon="18.099509">
        <ele>29</ele>
        <time>2019-11-15T16:21:00Z</time>
      </trkpt>
      <trkpt lat="59.249542" lon="18.099484">
        <ele>29</ele>
        <time>2019-11-15T16:21:01Z</time>
      </trkpt>
      <trkpt lat="59.249613" lon="18.099466">
        <ele>29</ele>
        <time>2019-11-15T16:21:02Z</time>
      </trkpt>
      <trkpt lat="59.249686" lon="18.099463">
        <ele>29</ele>
        <time>2019-11-15T16:21:03Z</time>
      </trkpt>
      <trkpt lat="59.249757" lon="18.099479">
        <ele>29</ele>
        <time>2019-11-15T16:21:04Z</time>
      </trkpt>
      <trkpt lat="59.249823" lon="18.099503">
        <ele>29</ele>
        <time>2019-11-15T16:21:05Z</time>
      </trkpt>
      <trkpt lat="59.249886" lon="18.09953">
        <ele>29</ele>
        <time>2019-11-15T16:21:06Z</time>
      </trkpt>
      <trkpt lat="59.249945" lon="18.09956">
        <ele>29</ele>
        <time>2019-11-15T16:21:07Z</time>
      </trkpt>
      <trkpt lat="59.250001" lon="18.099589">
        <ele>29</ele>
        <time>2019-11-15T16:21:08Z</time>
      </trkpt>
      <trkpt lat="59.250055" lon="18.099615">
        <ele>29</ele>
        <time>2019-11-15T16:21:09Z</time>
      </trkpt>
      <trkpt lat="59.250109" lon="18.09964">
        <ele>29</ele>
        <time>2019-11-15T16:21:10Z</time>
      </trkpt>
      <trkpt lat="59.250161" lon="18.099665">
        <ele>29</ele>
        <time>2019-11-15T16:21:11Z</time>
      </trkpt>
      <trkpt lat="59.250213" lon="18.099689">
        <ele>29</ele>
        <time>2019-11-15T16:21:12Z</time>
      </trkpt>
      <trkpt lat="59.250263" lon="18.099712">
        <ele>29</ele>
        <time>2019-11-15T16:21:13Z</time>
      </trkpt>
      <trkpt lat="59.250312" lon="18.099736">
        <ele>29</ele>
        <time>2019-11-15T16:21:14Z</time>
      </trkpt>
      <trkpt lat="59.250358" lon="18.09976">
        <ele>29</ele>
        <time>2019-11-15T16:21:15Z</time>
      </trkpt>
      <trkpt lat="59.250402" lon="18.099786">
        <ele>29</ele>
        <time>2019-11-15T16:21:16Z</time>
      </trkpt>
      <trkpt lat="59.250444" lon="18.099813">
        <ele>29</ele>
        <time>2019-11-15T16:21:17Z</time>
      </trkpt>
      <trkpt lat="59.250485" lon="18.099848">
        <ele>29</ele>
        <time>2019-11-15T16:21:18Z</time>
      </trkpt>
      <trkpt lat="59.250525" lon="18.099895">
        <ele>29</ele>
        <time>2019-11-15T16:21:19Z</time>
      </trkpt>
      <trkpt lat="59.250563" lon="18.099947">
        <ele>29</ele>
        <time>2019-11-15T16:21:20Z</time>
      </trkpt>
      <trkpt lat="59.250599" lon="18.100001">
        <ele>29</ele>
        <time>2019-11-15T16:21:21Z</time>
      </trkpt>
      <trkpt lat="59.250636" lon="18.100055">
        <ele>29</ele>
        <time>2019-11-15T16:21:22Z</time>
      </trkpt>
      <trkpt lat="59.25067" lon="18.100114">
        <ele>28</ele>
        <time>2019-11-15T16:21:23Z</time>
      </trkpt>
      <trkpt lat="59.250702" lon="18.100181">
        <ele>28</ele>
        <time>2019-11-15T16:21:24Z</time>
      </trkpt>
      <trkpt lat="59.250734" lon="18.100256">
        <ele>28</ele>
        <time>2019-11-15T16:21:25Z</time>
      </trkpt>
      <trkpt lat="59.250766" lon="18.100334">
        <ele>28</ele>
        <time>2019-11-15T16:21:26Z</time>
      </trkpt>
      <trkpt lat="59.250799" lon="18.100416">
        <ele>28</ele>
        <time>2019-11-15T16:21:27Z</time>
      </trkpt>
      <trkpt lat="59.250836" lon="18.100496">
        <ele>28</ele>
        <time>2019-11-15T16:21:28Z</time>
      </trkpt>
      <trkpt lat="59.250877" lon="18.100572">
        <ele>28</ele>
        <time>2019-11-15T16:21:29Z</time>
      </trkpt>
      <trkpt lat="59.250923" lon="18.10064">
        <ele>28</ele>
        <time>2019-11-15T16:21:30Z</time>
      </trkpt>
      <trkpt lat="59.250972" lon="18.100704">
        <ele>28</ele>
        <time>2019-11-15T16:21:31Z</time>
      </trkpt>
      <trkpt lat="59.251026" lon="18.100762">
        <ele>28</ele>
        <time>2019-11-15T16:21:32Z</time>
      </trkpt>
      <trkpt lat="59.251081" lon="18.100815">
        <ele>28</ele>
        <time>2019-11-15T16:21:33Z</time>
      </trkpt>
      <trkpt lat="59.251139" lon="18.100861">
        <ele>28</ele>
        <time>2019-11-15T16:21:34Z</time>
      </trkpt>
      <trkpt lat="59.251199" lon="18.100904">
        <ele>28</ele>
        <time>2019-11-15T16:21:35Z</time>
      </trkpt>
      <trkpt lat="59.251262" lon="18.100943">
        <ele>27</ele>
        <time>2019-11-15T16:21:36Z</time>
      </trkpt>
      <trkpt lat="59.251326" lon="18.100971">
        <ele>27</ele>
        <time>2019-11-15T16:21:37Z</time>
      </trkpt>
      <trkpt lat="59.251393" lon="18.10098">
        <ele>27</ele>
        <time>2019-11-15T16:21:38Z</time>
      </trkpt>
      <trkpt lat="59.251459" lon="18.100968">
        <ele>27</ele>
        <time>2019-11-15T16:21:39Z</time>
      </trkpt>
      <trkpt lat="59.251525" lon="18.10094">
        <ele>27</ele>
        <time>2019-11-15T16:21:40Z</time>
      </trkpt>
      <trkpt lat="59.251591" lon="18.100902">
        <ele>27</ele>
        <time>2019-11-15T16:21:41Z</time>
      </trkpt>
      <trkpt lat="59.251658" lon="18.100859">
        <ele>27</ele>
        <time>2019-11-15T16:21:42Z</time>
      </trkpt>
      <trkpt lat="59.251727" lon="18.100814">
        <ele>27</ele>
        <time>2019-11-15T16:21:43Z</time>
      </trkpt>
      <trkpt lat="59.251797" lon="18.100769">
        <ele>26</ele>
        <time>2019-11-15T16:21:44Z</time>
      </trkpt>
      <trkpt lat="59.251868" lon="18.100722">
        <ele>26</ele>
        <time>2019-11-15T16:21:45Z</time>
      </trkpt>
      <trkpt lat="59.251941" lon="18.100672">
        <ele>26</ele>
        <time>2019-11-15T16:21:46Z</time>
      </trkpt>
      <trkpt lat="59.252016" lon="18.100621">
        <ele>26</ele>
        <time>2019-11-15T16:21:47Z</time>
      </trkpt>
      <trkpt lat="59.252093" lon="18.10057">
        <ele>26</ele>
        <time>2019-11-15T16:21:48Z</time>
      </trkpt>
      <trkpt lat="59.252171" lon="18.100519">
        <ele>25</ele>
        <time>2019-11-15T16:21:49Z</time>
      </trkpt>
      <trkpt lat="59.25225" lon="18.100467">
        <ele>25</ele>
        <time>2019-11-15T16:21:50Z</time>
      </trkpt>
      <trkpt lat="59.25233" lon="18.100414">
        <ele>25</ele>
        <time>2019-11-15T16:21:51Z</time>
      </trkpt>
      <trkpt lat="59.25241" lon="18.100361">
        <ele>25</ele>
        <time>2019-11-15T16:21:52Z</time>
      </trkpt>
      <trkpt lat="59.252491" lon="18.100314">
        <ele>25</ele>
        <time>2019-11-15T16:21:53Z</time>
      </trkpt>
      <trkpt lat="59.252572" lon="18.100273">
        <ele>24</ele>
        <time>2019-11-15T16:21:54Z</time>
      </trkpt>
      <trkpt lat="59.25265" lon="18.100237">
        <ele>24</ele>
        <time>2019-11-15T16:21:55Z</time>
      </trkpt>
      <trkpt lat="59.252728" lon="18.100211">
        <ele>24</ele>
        <time>2019-11-15T16:21:56Z</time>
      </trkpt>
      <trkpt lat="59.252804" lon="18.100194">
        <ele>24</ele>
        <time>2019-11-15T16:21:57Z</time>
      </trkpt>
      <trkpt lat="59.25288" lon="18.100182">
        <ele>24</ele>
        <time>2019-11-15T16:21:58Z</time>
      </trkpt>
      <trkpt lat="59.252954" lon="18.100175">
        <ele>24</ele>
        <time>2019-11-15T16:21:59Z</time>
      </trkpt>
      <trkpt lat="59.253026" lon="18.100174">
        <ele>25</ele>
        <time>2019-11-15T16:22:00Z</time>
      </trkpt>
      <trkpt lat="59.253097" lon="18.100174">
        <ele>25</ele>
        <time>2019-11-15T16:22:01Z</time>
      </trkpt>
      <trkpt lat="59.253164" lon="18.100184">
        <ele>25</ele>
        <time>2019-11-15T16:22:02Z</time>
      </trkpt>
      <trkpt lat="59.253228" lon="18.100208">
        <ele>25</ele>
        <time>2019-11-15T16:22:03Z</time>
      </trkpt>
      <trkpt lat="59.253288" lon="18.100245">
        <ele>25</ele>
        <time>2019-11-15T16:22:04Z</time>
      </trkpt>
      <trkpt lat="59.253346" lon="18.100289">
        <ele>25</ele>
        <time>2019-11-15T16:22:05Z</time>
      </trkpt>
      <trkpt lat="59.253403" lon="18.100335">
        <ele>25</ele>
        <time>2019-11-15T16:22:06Z</time>
      </trkpt>
      <trkpt lat="59.253462" lon="18.100378">
        <ele>25</ele>
        <time>2019-11-15T16:22:07Z</time>
      </trkpt>
      <trkpt lat="59.253518" lon="18.100417">
        <ele>25</ele>
        <time>2019-11-15T16:22:08Z</time>
      </trkpt>
      <trkpt lat="59.253574" lon="18.100452">
        <ele>25</ele>
        <time>2019-11-15T16:22:09Z</time>
      </trkpt>
      <trkpt lat="59.253631" lon="18.100484">
        <ele>25</ele>
        <time>2019-11-15T16:22:10Z</time>
      </trkpt>
      <trkpt lat="59.253687" lon="18.100511">
        <ele>25</ele>
        <time>2019-11-15T16:22:11Z</time>
      </trkpt>
      <trkpt lat="59.253741" lon="18.100532">
        <ele>25</ele>
        <time>2019-11-15T16:22:12Z</time>
      </trkpt>
      <trkpt lat="59.253795" lon="18.100548">
        <ele>25</ele>
        <time>2019-11-15T16:22:13Z</time>
      </trkpt>
      <trkpt lat="59.253847" lon="18.100565">
        <ele>26</ele>
        <time>2019-11-15T16:22:14Z</time>
      </trkpt>
      <trkpt lat="59.253897" lon="18.100587">
        <ele>26</ele>
        <time>2019-11-15T16:22:15Z</time>
      </trkpt>
      <trkpt lat="59.253946" lon="18.100605">
        <ele>26</ele>
        <time>2019-11-15T16:22:16Z</time>
      </trkpt>
      <trkpt lat="59.253993" lon="18.100621">
        <ele>25</ele>
        <time>2019-11-15T16:22:17Z</time>
      </trkpt>
      <trkpt lat="59.25404" lon="18.100633">
        <ele>25</ele>
        <time>2019-11-15T16:22:18Z</time>
      </trkpt>
      <trkpt lat="59.254085" lon="18.100639">
        <ele>25</ele>
        <time>2019-11-15T16:22:19Z</time>
      </trkpt>
      <trkpt lat="59.254132" lon="18.100638">
        <ele>25</ele>
        <time>2019-11-15T16:22:20Z</time>
      </trkpt>
      <trkpt lat="59.254179" lon="18.100639">
        <ele>25</ele>
        <time>2019-11-15T16:22:21Z</time>
      </trkpt>
      <trkpt lat="59.254226" lon="18.100647">
        <ele>25</ele>
        <time>2019-11-15T16:22:22Z</time>
      </trkpt>
      <trkpt lat="59.254273" lon="18.100663">
        <ele>25</ele>
        <time>2019-11-15T16:22:23Z</time>
      </trkpt>
      <trkpt lat="59.254319" lon="18.100681">
        <ele>25</ele>
        <time>2019-11-15T16:22:24Z</time>
      </trkpt>
      <trkpt lat="59.254367" lon="18.100697">
        <ele>25</ele>
        <time>2019-11-15T16:22:25Z</time>
      </trkpt>
      <trkpt lat="59.254416" lon="18.100714">
        <ele>25</ele>
        <time>2019-11-15T16:22:26Z</time>
      </trkpt>
      <trkpt lat="59.254464" lon="18.100729">
        <ele>25</ele>
        <time>2019-11-15T16:22:27Z</time>
      </trkpt>
      <trkpt lat="59.25451" lon="18.100744">
        <ele>25</ele>
        <time>2019-11-15T16:22:28Z</time>
      </trkpt>
      <trkpt lat="59.254557" lon="18.100762">
        <ele>25</ele>
        <time>2019-11-15T16:22:29Z</time>
      </trkpt>
      <trkpt lat="59.254605" lon="18.100779">
        <ele>25</ele>
        <time>2019-11-15T16:22:30Z</time>
      </trkpt>
      <trkpt lat="59.254649" lon="18.100793">
        <ele>25</ele>
        <time>2019-11-15T16:22:31Z</time>
      </trkpt>
      <trkpt lat="59.25469" lon="18.100804">
        <ele>26</ele>
        <time>2019-11-15T16:22:32Z</time>
      </trkpt>
      <trkpt lat="59.254734" lon="18.100819">
        <ele>26</ele>
        <time>2019-11-15T16:22:33Z</time>
      </trkpt>
      <trkpt lat="59.254778" lon="18.100832">
        <ele>26</ele>
        <time>2019-11-15T16:22:34Z</time>
      </trkpt>
      <trkpt lat="59.254824" lon="18.100843">
        <ele>26</ele>
        <time>2019-11-15T16:22:35Z</time>
      </trkpt>
      <trkpt lat="59.254868" lon="18.100853">
        <ele>26</ele>
        <time>2019-11-15T16:22:36Z</time>
      </trkpt>
      <trkpt lat="59.254912" lon="18.100864">
        <ele>26</ele>
        <time>2019-11-15T16:22:37Z</time>
      </trkpt>
      <trkpt lat="59.254954" lon="18.10088">
        <ele>26</ele>
        <time>2019-11-15T16:22:38Z</time>
      </trkpt>
      <trkpt lat="59.254999" lon="18.100893">
        <ele>26</ele>
        <time>2019-11-15T16:22:39Z</time>
      </trkpt>
      <trkpt lat="59.255045" lon="18.100906">
        <ele>26</ele>
        <time>2019-11-15T16:22:40Z</time>
      </trkpt>
      <trkpt lat="59.255089" lon="18.100918">
        <ele>26</ele>
        <time>2019-11-15T16:22:41Z</time>
      </trkpt>
      <trkpt lat="59.255131" lon="18.100929">
        <ele>26</ele>
        <time>2019-11-15T16:22:42Z</time>
      </trkpt>
      <trkpt lat="59.255166" lon="18.100938">
        <ele>26</ele>
        <time>2019-11-15T16:22:43Z</time>
      </trkpt>
      <trkpt lat="59.255201" lon="18.100944">
        <ele>27</ele>
        <time>2019-11-15T16:22:44Z</time>
      </trkpt>
      <trkpt lat="59.25524" lon="18.100945">
        <ele>27</ele>
        <time>2019-11-15T16:22:45Z</time>
      </trkpt>
      <trkpt lat="59.255273" lon="18.100946">
        <ele>27</ele>
        <time>2019-11-15T16:22:46Z</time>
      </trkpt>
      <trkpt lat="59.255305" lon="18.10095">
        <ele>27</ele>
        <time>2019-11-15T16:22:47Z</time>
      </trkpt>
      <trkpt lat="59.255341" lon="18.10096">
        <ele>26</ele>
        <time>2019-11-15T16:22:48Z</time>
      </trkpt>
      <trkpt lat="59.255378" lon="18.10097">
        <ele>27</ele>
        <time>2019-11-15T16:22:49Z</time>
      </trkpt>
      <trkpt lat="59.255414" lon="18.100978">
        <ele>0</ele>
        <time>2019-11-15T16:22:49Z</time>
      </trkpt>
      <trkpt lat="59.255449" lon="18.100987">
        <ele>27</ele>
        <time>2019-11-15T16:22:50Z</time>
      </trkpt>
      <trkpt lat="59.255482" lon="18.100996">
        <ele>27</ele>
        <time>2019-11-15T16:22:52Z</time>
      </trkpt>
      <trkpt lat="59.255512" lon="18.101005">
        <ele>27</ele>
        <time>2019-11-15T16:22:53Z</time>
      </trkpt>
      <trkpt lat="59.255544" lon="18.101013">
        <ele>27</ele>
        <time>2019-11-15T16:22:54Z</time>
      </trkpt>
      <trkpt lat="59.255579" lon="18.10102">
        <ele>27</ele>
        <time>2019-11-15T16:22:55Z</time>
      </trkpt>
      <trkpt lat="59.255612" lon="18.101025">
        <ele>27</ele>
        <time>2019-11-15T16:22:56Z</time>
      </trkpt>
      <trkpt lat="59.255643" lon="18.101026">
        <ele>27</ele>
        <time>2019-11-15T16:22:57Z</time>
      </trkpt>
      <trkpt lat="59.255676" lon="18.101025">
        <ele>27</ele>
        <time>2019-11-15T16:22:58Z</time>
      </trkpt>
      <trkpt lat="59.255712" lon="18.101027">
        <ele>27</ele>
        <time>2019-11-15T16:22:59Z</time>
      </trkpt>
      <trkpt lat="59.255748" lon="18.101031">
        <ele>28</ele>
        <time>2019-11-15T16:23:00Z</time>
      </trkpt>
      <trkpt lat="59.255782" lon="18.101033">
        <ele>28</ele>
        <time>2019-11-15T16:23:01Z</time>
      </trkpt>
      <trkpt lat="59.255813" lon="18.101032">
        <ele>28</ele>
        <time>2019-11-15T16:23:02Z</time>
      </trkpt>
      <trkpt lat="59.255843" lon="18.101035">
        <ele>28</ele>
        <time>2019-11-15T16:23:03Z</time>
      </trkpt>
      <trkpt lat="59.255875" lon="18.101043">
        <ele>28</ele>
        <time>2019-11-15T16:23:04Z</time>
      </trkpt>
      <trkpt lat="59.255905" lon="18.101054">
        <ele>28</ele>
        <time>2019-11-15T16:23:05Z</time>
      </trkpt>
      <trkpt lat="59.255923" lon="18.101065">
        <ele>28</ele>
        <time>2019-11-15T16:23:06Z</time>
      </trkpt>
      <trkpt lat="59.255932" lon="18.101073">
        <ele>0</ele>
        <time>2019-11-15T16:23:11Z</time>
      </trkpt>
      <trkpt lat="59.255973" lon="18.101081">
        <ele>27</ele>
        <time>2019-11-15T16:25:33Z</time>
      </trkpt>
      <trkpt lat="59.255997" lon="18.101086">
        <ele>27</ele>
        <time>2019-11-15T16:25:34Z</time>
      </trkpt>
      <trkpt lat="59.25603" lon="18.101093">
        <ele>27</ele>
        <time>2019-11-15T16:25:35Z</time>
      </trkpt>
      <trkpt lat="59.256067" lon="18.101106">
        <ele>27</ele>
        <time>2019-11-15T16:25:36Z</time>
      </trkpt>
      <trkpt lat="59.256113" lon="18.101112">
        <ele>27</ele>
        <time>2019-11-15T16:25:37Z</time>
      </trkpt>
      <trkpt lat="59.256163" lon="18.101115">
        <ele>27</ele>
        <time>2019-11-15T16:25:38Z</time>
      </trkpt>
      <trkpt lat="59.256213" lon="18.10112">
        <ele>27</ele>
        <time>2019-11-15T16:25:39Z</time>
      </trkpt>
      <trkpt lat="59.256265" lon="18.101125">
        <ele>27</ele>
        <time>2019-11-15T16:25:40Z</time>
      </trkpt>
      <trkpt lat="59.256324" lon="18.101129">
        <ele>27</ele>
        <time>2019-11-15T16:25:41Z</time>
      </trkpt>
      <trkpt lat="59.256383" lon="18.101134">
        <ele>27</ele>
        <time>2019-11-15T16:25:42Z</time>
      </trkpt>
      <trkpt lat="59.256436" lon="18.101139">
        <ele>27</ele>
        <time>2019-11-15T16:25:43Z</time>
      </trkpt>
      <trkpt lat="59.25649" lon="18.101144">
        <ele>27</ele>
        <time>2019-11-15T16:25:44Z</time>
      </trkpt>
      <trkpt lat="59.256556" lon="18.101145">
        <ele>27</ele>
        <time>2019-11-15T16:25:45Z</time>
      </trkpt>
      <trkpt lat="59.256621" lon="18.101145">
        <ele>27</ele>
        <time>2019-11-15T16:25:46Z</time>
      </trkpt>
      <trkpt lat="59.25668" lon="18.101145">
        <ele>27</ele>
        <time>2019-11-15T16:25:47Z</time>
      </trkpt>
      <trkpt lat="59.256735" lon="18.101141">
        <ele>27</ele>
        <time>2019-11-15T16:25:48Z</time>
      </trkpt>
      <trkpt lat="59.256788" lon="18.101136">
        <ele>27</ele>
        <time>2019-11-15T16:25:49Z</time>
      </trkpt>
      <trkpt lat="59.256842" lon="18.101134">
        <ele>26</ele>
        <time>2019-11-15T16:25:50Z</time>
      </trkpt>
      <trkpt lat="59.256893" lon="18.101123">
        <ele>26</ele>
        <time>2019-11-15T16:25:51Z</time>
      </trkpt>
      <trkpt lat="59.256938" lon="18.101088">
        <ele>26</ele>
        <time>2019-11-15T16:25:52Z</time>
      </trkpt>
      <trkpt lat="59.256973" lon="18.101029">
        <ele>26</ele>
        <time>2019-11-15T16:25:53Z</time>
      </trkpt>
      <trkpt lat="59.256996" lon="18.100954">
        <ele>26</ele>
        <time>2019-11-15T16:25:54Z</time>
      </trkpt>
      <trkpt lat="59.257016" lon="18.100869">
        <ele>26</ele>
        <time>2019-11-15T16:25:55Z</time>
      </trkpt>
      <trkpt lat="59.257038" lon="18.100782">
        <ele>26</ele>
        <time>2019-11-15T16:25:56Z</time>
      </trkpt>
      <trkpt lat="59.257061" lon="18.100695">
        <ele>26</ele>
        <time>2019-11-15T16:25:57Z</time>
      </trkpt>
      <trkpt lat="59.257084" lon="18.100612">
        <ele>26</ele>
        <time>2019-11-15T16:25:58Z</time>
      </trkpt>
      <trkpt lat="59.257104" lon="18.10054">
        <ele>26</ele>
        <time>2019-11-15T16:25:59Z</time>
      </trkpt>
      <trkpt lat="59.257155" lon="18.100175">
        <ele>27</ele>
        <time>2019-11-15T16:26:03Z</time>
      </trkpt>
      <trkpt lat="59.257245" lon="18.09996">
        <ele>26</ele>
        <time>2019-11-15T16:26:04Z</time>
      </trkpt>
      <trkpt lat="59.257332" lon="18.099707">
        <ele>26</ele>
        <time>2019-11-15T16:26:06Z</time>
      </trkpt>
      <trkpt lat="59.257378" lon="18.099604">
        <ele>26</ele>
        <time>2019-11-15T16:26:07Z</time>
      </trkpt>
      <trkpt lat="59.25742" lon="18.099508">
        <ele>26</ele>
        <time>2019-11-15T16:26:08Z</time>
      </trkpt>
      <trkpt lat="59.257467" lon="18.09941">
        <ele>26</ele>
        <time>2019-11-15T16:26:09Z</time>
      </trkpt>
      <trkpt lat="59.257511" lon="18.099341">
        <ele>26</ele>
        <time>2019-11-15T16:26:10Z</time>
      </trkpt>
      <trkpt lat="59.257564" lon="18.099287">
        <ele>26</ele>
        <time>2019-11-15T16:26:11Z</time>
      </trkpt>
      <trkpt lat="59.257615" lon="18.099253">
        <ele>27</ele>
        <time>2019-11-15T16:26:12Z</time>
      </trkpt>
      <trkpt lat="59.257669" lon="18.09922">
        <ele>27</ele>
        <time>2019-11-15T16:26:13Z</time>
      </trkpt>
      <trkpt lat="59.257721" lon="18.099194">
        <ele>27</ele>
        <time>2019-11-15T16:26:14Z</time>
      </trkpt>
      <trkpt lat="59.257773" lon="18.099186">
        <ele>27</ele>
        <time>2019-11-15T16:26:15Z</time>
      </trkpt>
      <trkpt lat="59.257829" lon="18.099188">
        <ele>27</ele>
        <time>2019-11-15T16:26:16Z</time>
      </trkpt>
      <trkpt lat="59.257884" lon="18.099201">
        <ele>28</ele>
        <time>2019-11-15T16:26:17Z</time>
      </trkpt>
      <trkpt lat="59.257938" lon="18.099216">
        <ele>28</ele>
        <time>2019-11-15T16:26:18Z</time>
      </trkpt>
      <trkpt lat="59.257993" lon="18.09923">
        <ele>28</ele>
        <time>2019-11-15T16:26:19Z</time>
      </trkpt>
      <trkpt lat="59.258044" lon="18.099238">
        <ele>28</ele>
        <time>2019-11-15T16:26:20Z</time>
      </trkpt>
      <trkpt lat="59.258094" lon="18.099247">
        <ele>28</ele>
        <time>2019-11-15T16:26:21Z</time>
      </trkpt>
      <trkpt lat="59.258151" lon="18.099253">
        <ele>29</ele>
        <time>2019-11-15T16:26:22Z</time>
      </trkpt>
      <trkpt lat="59.25821" lon="18.099257">
        <ele>29</ele>
        <time>2019-11-15T16:26:23Z</time>
      </trkpt>
      <trkpt lat="59.258269" lon="18.099258">
        <ele>29</ele>
        <time>2019-11-15T16:26:24Z</time>
      </trkpt>
      <trkpt lat="59.258328" lon="18.09926">
        <ele>29</ele>
        <time>2019-11-15T16:26:25Z</time>
      </trkpt>
      <trkpt lat="59.258388" lon="18.099266">
        <ele>29</ele>
        <time>2019-11-15T16:26:26Z</time>
      </trkpt>
      <trkpt lat="59.258447" lon="18.099269">
        <ele>29</ele>
        <time>2019-11-15T16:26:27Z</time>
      </trkpt>
      <trkpt lat="59.258507" lon="18.099275">
        <ele>29</ele>
        <time>2019-11-15T16:26:28Z</time>
      </trkpt>
      <trkpt lat="59.258568" lon="18.09928">
        <ele>29</ele>
        <time>2019-11-15T16:26:29Z</time>
      </trkpt>
      <trkpt lat="59.258628" lon="18.099277">
        <ele>29</ele>
        <time>2019-11-15T16:26:30Z</time>
      </trkpt>
      <trkpt lat="59.258687" lon="18.099273">
        <ele>29</ele>
        <time>2019-11-15T16:26:31Z</time>
      </trkpt>
      <trkpt lat="59.258748" lon="18.09927">
        <ele>29</ele>
        <time>2019-11-15T16:26:32Z</time>
      </trkpt>
      <trkpt lat="59.258809" lon="18.099265">
        <ele>29</ele>
        <time>2019-11-15T16:26:33Z</time>
      </trkpt>
      <trkpt lat="59.258871" lon="18.099259">
        <ele>29</ele>
        <time>2019-11-15T16:26:34Z</time>
      </trkpt>
      <trkpt lat="59.258932" lon="18.099254">
        <ele>29</ele>
        <time>2019-11-15T16:26:35Z</time>
      </trkpt>
      <trkpt lat="59.258994" lon="18.099247">
        <ele>30</ele>
        <time>2019-11-15T16:26:36Z</time>
      </trkpt>
      <trkpt lat="59.259056" lon="18.099244">
        <ele>30</ele>
        <time>2019-11-15T16:26:37Z</time>
      </trkpt>
      <trkpt lat="59.25912" lon="18.09924">
        <ele>30</ele>
        <time>2019-11-15T16:26:38Z</time>
      </trkpt>
      <trkpt lat="59.259186" lon="18.099235">
        <ele>30</ele>
        <time>2019-11-15T16:26:39Z</time>
      </trkpt>
      <trkpt lat="59.25925" lon="18.099218">
        <ele>30</ele>
        <time>2019-11-15T16:26:40Z</time>
      </trkpt>
      <trkpt lat="59.259316" lon="18.099182">
        <ele>30</ele>
        <time>2019-11-15T16:26:41Z</time>
      </trkpt>
      <trkpt lat="59.259378" lon="18.099133">
        <ele>29</ele>
        <time>2019-11-15T16:26:42Z</time>
      </trkpt>
      <trkpt lat="59.259435" lon="18.09907">
        <ele>29</ele>
        <time>2019-11-15T16:26:43Z</time>
      </trkpt>
      <trkpt lat="59.259487" lon="18.098991">
        <ele>29</ele>
        <time>2019-11-15T16:26:44Z</time>
      </trkpt>
      <trkpt lat="59.259533" lon="18.098899">
        <ele>29</ele>
        <time>2019-11-15T16:26:45Z</time>
      </trkpt>
      <trkpt lat="59.259572" lon="18.098798">
        <ele>29</ele>
        <time>2019-11-15T16:26:46Z</time>
      </trkpt>
      <trkpt lat="59.259602" lon="18.09869">
        <ele>29</ele>
        <time>2019-11-15T16:26:47Z</time>
      </trkpt>
      <trkpt lat="59.259625" lon="18.09858">
        <ele>29</ele>
        <time>2019-11-15T16:26:48Z</time>
      </trkpt>
      <trkpt lat="59.25964" lon="18.098468">
        <ele>29</ele>
        <time>2019-11-15T16:26:49Z</time>
      </trkpt>
      <trkpt lat="59.259648" lon="18.098353">
        <ele>29</ele>
        <time>2019-11-15T16:26:50Z</time>
      </trkpt>
      <trkpt lat="59.259654" lon="18.09824">
        <ele>29</ele>
        <time>2019-11-15T16:26:51Z</time>
      </trkpt>
      <trkpt lat="59.259659" lon="18.098132">
        <ele>29</ele>
        <time>2019-11-15T16:26:52Z</time>
      </trkpt>
      <trkpt lat="59.259667" lon="18.098031">
        <ele>29</ele>
        <time>2019-11-15T16:26:53Z</time>
      </trkpt>
      <trkpt lat="59.259675" lon="18.097943">
        <ele>29</ele>
        <time>2019-11-15T16:26:54Z</time>
      </trkpt>
      <trkpt lat="59.259683" lon="18.097844">
        <ele>29</ele>
        <time>2019-11-15T16:26:55Z</time>
      </trkpt>
      <trkpt lat="59.259687" lon="18.097725">
        <ele>29</ele>
        <time>2019-11-15T16:26:56Z</time>
      </trkpt>
      <trkpt lat="59.259694" lon="18.097608">
        <ele>29</ele>
        <time>2019-11-15T16:26:57Z</time>
      </trkpt>
      <trkpt lat="59.259702" lon="18.097492">
        <ele>30</ele>
        <time>2019-11-15T16:26:58Z</time>
      </trkpt>
      <trkpt lat="59.259718" lon="18.097383">
        <ele>30</ele>
        <time>2019-11-15T16:26:59Z</time>
      </trkpt>
      <trkpt lat="59.259738" lon="18.097275">
        <ele>29</ele>
        <time>2019-11-15T16:27:00Z</time>
      </trkpt>
      <trkpt lat="59.259765" lon="18.097174">
        <ele>29</ele>
        <time>2019-11-15T16:27:01Z</time>
      </trkpt>
      <trkpt lat="59.259799" lon="18.097081">
        <ele>29</ele>
        <time>2019-11-15T16:27:02Z</time>
      </trkpt>
      <trkpt lat="59.259844" lon="18.096998">
        <ele>28</ele>
        <time>2019-11-15T16:27:03Z</time>
      </trkpt>
      <trkpt lat="59.259896" lon="18.096927">
        <ele>28</ele>
        <time>2019-11-15T16:27:04Z</time>
      </trkpt>
      <trkpt lat="59.259954" lon="18.096867">
        <ele>28</ele>
        <time>2019-11-15T16:27:05Z</time>
      </trkpt>
      <trkpt lat="59.260017" lon="18.096814">
        <ele>27</ele>
        <time>2019-11-15T16:27:06Z</time>
      </trkpt>
      <trkpt lat="59.260083" lon="18.096766">
        <ele>27</ele>
        <time>2019-11-15T16:27:07Z</time>
      </trkpt>
      <trkpt lat="59.26015" lon="18.09672">
        <ele>27</ele>
        <time>2019-11-15T16:27:08Z</time>
      </trkpt>
      <trkpt lat="59.260217" lon="18.096677">
        <ele>27</ele>
        <time>2019-11-15T16:27:09Z</time>
      </trkpt>
      <trkpt lat="59.260285" lon="18.096632">
        <ele>27</ele>
        <time>2019-11-15T16:27:10Z</time>
      </trkpt>
      <trkpt lat="59.260353" lon="18.096593">
        <ele>27</ele>
        <time>2019-11-15T16:27:11Z</time>
      </trkpt>
      <trkpt lat="59.260485" lon="18.096536">
        <ele>27</ele>
        <time>2019-11-15T16:27:13Z</time>
      </trkpt>
      <trkpt lat="59.260553" lon="18.096526">
        <ele>27</ele>
        <time>2019-11-15T16:27:14Z</time>
      </trkpt>
      <trkpt lat="59.260617" lon="18.096525">
        <ele>27</ele>
        <time>2019-11-15T16:27:15Z</time>
      </trkpt>
      <trkpt lat="59.260674" lon="18.096526">
        <ele>27</ele>
        <time>2019-11-15T16:27:16Z</time>
      </trkpt>
      <trkpt lat="59.260724" lon="18.096517">
        <ele>27</ele>
        <time>2019-11-15T16:27:17Z</time>
      </trkpt>
      <trkpt lat="59.260774" lon="18.096508">
        <ele>27</ele>
        <time>2019-11-15T16:27:18Z</time>
      </trkpt>
      <trkpt lat="59.26082" lon="18.096498">
        <ele>27</ele>
        <time>2019-11-15T16:27:19Z</time>
      </trkpt>
      <trkpt lat="59.260863" lon="18.096488">
        <ele>27</ele>
        <time>2019-11-15T16:27:20Z</time>
      </trkpt>
      <trkpt lat="59.260905" lon="18.096482">
        <ele>27</ele>
        <time>2019-11-15T16:27:21Z</time>
      </trkpt>
      <trkpt lat="59.26095" lon="18.096482">
        <ele>27</ele>
        <time>2019-11-15T16:27:22Z</time>
      </trkpt>
      <trkpt lat="59.260997" lon="18.096494">
        <ele>27</ele>
        <time>2019-11-15T16:27:23Z</time>
      </trkpt>
      <trkpt lat="59.261044" lon="18.096515">
        <ele>27</ele>
        <time>2019-11-15T16:27:24Z</time>
      </trkpt>
      <trkpt lat="59.261089" lon="18.09654">
        <ele>27</ele>
        <time>2019-11-15T16:27:25Z</time>
      </trkpt>
      <trkpt lat="59.261134" lon="18.096566">
        <ele>28</ele>
        <time>2019-11-15T16:27:26Z</time>
      </trkpt>
      <trkpt lat="59.261179" lon="18.096594">
        <ele>28</ele>
        <time>2019-11-15T16:27:27Z</time>
      </trkpt>
      <trkpt lat="59.261225" lon="18.096623">
        <ele>28</ele>
        <time>2019-11-15T16:27:28Z</time>
      </trkpt>
      <trkpt lat="59.261269" lon="18.096656">
        <ele>28</ele>
        <time>2019-11-15T16:27:29Z</time>
      </trkpt>
      <trkpt lat="59.261313" lon="18.096693">
        <ele>28</ele>
        <time>2019-11-15T16:27:30Z</time>
      </trkpt>
      <trkpt lat="59.261357" lon="18.096734">
        <ele>28</ele>
        <time>2019-11-15T16:27:31Z</time>
      </trkpt>
      <trkpt lat="59.261399" lon="18.096779">
        <ele>28</ele>
        <time>2019-11-15T16:27:32Z</time>
      </trkpt>
      <trkpt lat="59.261441" lon="18.096829">
        <ele>28</ele>
        <time>2019-11-15T16:27:33Z</time>
      </trkpt>
      <trkpt lat="59.261482" lon="18.096884">
        <ele>28</ele>
        <time>2019-11-15T16:27:34Z</time>
      </trkpt>
      <trkpt lat="59.261522" lon="18.096943">
        <ele>28</ele>
        <time>2019-11-15T16:27:35Z</time>
      </trkpt>
      <trkpt lat="59.261561" lon="18.097005">
        <ele>29</ele>
        <time>2019-11-15T16:27:36Z</time>
      </trkpt>
      <trkpt lat="59.2616" lon="18.097067">
        <ele>29</ele>
        <time>2019-11-15T16:27:37Z</time>
      </trkpt>
      <trkpt lat="59.261638" lon="18.097131">
        <ele>29</ele>
        <time>2019-11-15T16:27:38Z</time>
      </trkpt>
      <trkpt lat="59.261676" lon="18.097196">
        <ele>29</ele>
        <time>2019-11-15T16:27:39Z</time>
      </trkpt>
      <trkpt lat="59.261715" lon="18.097261">
        <ele>29</ele>
        <time>2019-11-15T16:27:40Z</time>
      </trkpt>
      <trkpt lat="59.261754" lon="18.097326">
        <ele>29</ele>
        <time>2019-11-15T16:27:41Z</time>
      </trkpt>
      <trkpt lat="59.261792" lon="18.097389">
        <ele>29</ele>
        <time>2019-11-15T16:27:42Z</time>
      </trkpt>
      <trkpt lat="59.261832" lon="18.097452">
        <ele>29</ele>
        <time>2019-11-15T16:27:43Z</time>
      </trkpt>
      <trkpt lat="59.261872" lon="18.097516">
        <ele>29</ele>
        <time>2019-11-15T16:27:44Z</time>
      </trkpt>
      <trkpt lat="59.261912" lon="18.097579">
        <ele>29</ele>
        <time>2019-11-15T16:27:45Z</time>
      </trkpt>
      <trkpt lat="59.261953" lon="18.097644">
        <ele>29</ele>
        <time>2019-11-15T16:27:46Z</time>
      </trkpt>
      <trkpt lat="59.261996" lon="18.09771">
        <ele>29</ele>
        <time>2019-11-15T16:27:47Z</time>
      </trkpt>
      <trkpt lat="59.26204" lon="18.097777">
        <ele>29</ele>
        <time>2019-11-15T16:27:48Z</time>
      </trkpt>
      <trkpt lat="59.262084" lon="18.097845">
        <ele>29</ele>
        <time>2019-11-15T16:27:49Z</time>
      </trkpt>
      <trkpt lat="59.262127" lon="18.097912">
        <ele>29</ele>
        <time>2019-11-15T16:27:50Z</time>
      </trkpt>
      <trkpt lat="59.26217" lon="18.097976">
        <ele>29</ele>
        <time>2019-11-15T16:27:51Z</time>
      </trkpt>
      <trkpt lat="59.262214" lon="18.098035">
        <ele>29</ele>
        <time>2019-11-15T16:27:52Z</time>
      </trkpt>
      <trkpt lat="59.262259" lon="18.098087">
        <ele>29</ele>
        <time>2019-11-15T16:27:53Z</time>
      </trkpt>
      <trkpt lat="59.262307" lon="18.09813">
        <ele>29</ele>
        <time>2019-11-15T16:27:54Z</time>
      </trkpt>
      <trkpt lat="59.262355" lon="18.098161">
        <ele>29</ele>
        <time>2019-11-15T16:27:55Z</time>
      </trkpt>
      <trkpt lat="59.262406" lon="18.098181">
        <ele>29</ele>
        <time>2019-11-15T16:27:56Z</time>
      </trkpt>
      <trkpt lat="59.262455" lon="18.098194">
        <ele>29</ele>
        <time>2019-11-15T16:27:57Z</time>
      </trkpt>
      <trkpt lat="59.262503" lon="18.098202">
        <ele>29</ele>
        <time>2019-11-15T16:27:58Z</time>
      </trkpt>
      <trkpt lat="59.26255" lon="18.098206">
        <ele>29</ele>
        <time>2019-11-15T16:27:59Z</time>
      </trkpt>
      <trkpt lat="59.262596" lon="18.098206">
        <ele>29</ele>
        <time>2019-11-15T16:28:00Z</time>
      </trkpt>
      <trkpt lat="59.262641" lon="18.098204">
        <ele>29</ele>
        <time>2019-11-15T16:28:01Z</time>
      </trkpt>
      <trkpt lat="59.262685" lon="18.098203">
        <ele>30</ele>
        <time>2019-11-15T16:28:02Z</time>
      </trkpt>
      <trkpt lat="59.262729" lon="18.098201">
        <ele>30</ele>
        <time>2019-11-15T16:28:03Z</time>
      </trkpt>
      <trkpt lat="59.262772" lon="18.098198">
        <ele>30</ele>
        <time>2019-11-15T16:28:04Z</time>
      </trkpt>
      <trkpt lat="59.262817" lon="18.098196">
        <ele>30</ele>
        <time>2019-11-15T16:28:05Z</time>
      </trkpt>
      <trkpt lat="59.26286" lon="18.098193">
        <ele>30</ele>
        <time>2019-11-15T16:28:06Z</time>
      </trkpt>
      <trkpt lat="59.262897" lon="18.09819">
        <ele>30</ele>
        <time>2019-11-15T16:28:07Z</time>
      </trkpt>
      <trkpt lat="59.262935" lon="18.098189">
        <ele>30</ele>
        <time>2019-11-15T16:28:08Z</time>
      </trkpt>
      <trkpt lat="59.262979" lon="18.098187">
        <ele>31</ele>
        <time>2019-11-15T16:28:09Z</time>
      </trkpt>
      <trkpt lat="59.263021" lon="18.098183">
        <ele>31</ele>
        <time>2019-11-15T16:28:10Z</time>
      </trkpt>
      <trkpt lat="59.263067" lon="18.098176">
        <ele>31</ele>
        <time>2019-11-15T16:28:11Z</time>
      </trkpt>
      <trkpt lat="59.263109" lon="18.098173">
        <ele>31</ele>
        <time>2019-11-15T16:28:12Z</time>
      </trkpt>
      <trkpt lat="59.263148" lon="18.098169">
        <ele>31</ele>
        <time>2019-11-15T16:28:13Z</time>
      </trkpt>
      <trkpt lat="59.263187" lon="18.098161">
        <ele>31</ele>
        <time>2019-11-15T16:28:14Z</time>
      </trkpt>
      <trkpt lat="59.263222" lon="18.098154">
        <ele>31</ele>
        <time>2019-11-15T16:28:15Z</time>
      </trkpt>
      <trkpt lat="59.263257" lon="18.098147">
        <ele>32</ele>
        <time>2019-11-15T16:28:16Z</time>
      </trkpt>
      <trkpt lat="59.263298" lon="18.098136">
        <ele>32</ele>
        <time>2019-11-15T16:28:17Z</time>
      </trkpt>
      <trkpt lat="59.263342" lon="18.098123">
        <ele>32</ele>
        <time>2019-11-15T16:28:18Z</time>
      </trkpt>
      <trkpt lat="59.263387" lon="18.098107">
        <ele>32</ele>
        <time>2019-11-15T16:28:19Z</time>
      </trkpt>
      <trkpt lat="59.263433" lon="18.098091">
        <ele>33</ele>
        <time>2019-11-15T16:28:20Z</time>
      </trkpt>
      <trkpt lat="59.263477" lon="18.098077">
        <ele>33</ele>
        <time>2019-11-15T16:28:21Z</time>
      </trkpt>
      <trkpt lat="59.263518" lon="18.098063">
        <ele>33</ele>
        <time>2019-11-15T16:28:22Z</time>
      </trkpt>
      <trkpt lat="59.263565" lon="18.098047">
        <ele>33</ele>
        <time>2019-11-15T16:28:23Z</time>
      </trkpt>
      <trkpt lat="59.263614" lon="18.098027">
        <ele>33</ele>
        <time>2019-11-15T16:28:24Z</time>
      </trkpt>
      <trkpt lat="59.263658" lon="18.098012">
        <ele>33</ele>
        <time>2019-11-15T16:28:25Z</time>
      </trkpt>
      <trkpt lat="59.2637" lon="18.097994">
        <ele>33</ele>
        <time>2019-11-15T16:28:26Z</time>
      </trkpt>
      <trkpt lat="59.26374" lon="18.097977">
        <ele>33</ele>
        <time>2019-11-15T16:28:27Z</time>
      </trkpt>
      <trkpt lat="59.263782" lon="18.09796">
        <ele>33</ele>
        <time>2019-11-15T16:28:28Z</time>
      </trkpt>
      <trkpt lat="59.263822" lon="18.097945">
        <ele>34</ele>
        <time>2019-11-15T16:28:29Z</time>
      </trkpt>
      <trkpt lat="59.263862" lon="18.09793">
        <ele>34</ele>
        <time>2019-11-15T16:28:30Z</time>
      </trkpt>
      <trkpt lat="59.263904" lon="18.097916">
        <ele>34</ele>
        <time>2019-11-15T16:28:31Z</time>
      </trkpt>
      <trkpt lat="59.263944" lon="18.097903">
        <ele>34</ele>
        <time>2019-11-15T16:28:32Z</time>
      </trkpt>
      <trkpt lat="59.263983" lon="18.097892">
        <ele>34</ele>
        <time>2019-11-15T16:28:33Z</time>
      </trkpt>
      <trkpt lat="59.264022" lon="18.097879">
        <ele>34</ele>
        <time>2019-11-15T16:28:34Z</time>
      </trkpt>
      <trkpt lat="59.264064" lon="18.097863">
        <ele>34</ele>
        <time>2019-11-15T16:28:35Z</time>
      </trkpt>
      <trkpt lat="59.264106" lon="18.097846">
        <ele>35</ele>
        <time>2019-11-15T16:28:36Z</time>
      </trkpt>
      <trkpt lat="59.264147" lon="18.097831">
        <ele>35</ele>
        <time>2019-11-15T16:28:37Z</time>
      </trkpt>
      <trkpt lat="59.264188" lon="18.097815">
        <ele>35</ele>
        <time>2019-11-15T16:28:38Z</time>
      </trkpt>
      <trkpt lat="59.264229" lon="18.097796">
        <ele>35</ele>
        <time>2019-11-15T16:28:39Z</time>
      </trkpt>
      <trkpt lat="59.264272" lon="18.097779">
        <ele>35</ele>
        <time>2019-11-15T16:28:40Z</time>
      </trkpt>
      <trkpt lat="59.264315" lon="18.097761">
        <ele>35</ele>
        <time>2019-11-15T16:28:41Z</time>
      </trkpt>
      <trkpt lat="59.264356" lon="18.097743">
        <ele>35</ele>
        <time>2019-11-15T16:28:42Z</time>
      </trkpt>
      <trkpt lat="59.264398" lon="18.097722">
        <ele>35</ele>
        <time>2019-11-15T16:28:43Z</time>
      </trkpt>
      <trkpt lat="59.264441" lon="18.097699">
        <ele>35</ele>
        <time>2019-11-15T16:28:44Z</time>
      </trkpt>
      <trkpt lat="59.264486" lon="18.097675">
        <ele>36</ele>
        <time>2019-11-15T16:28:45Z</time>
      </trkpt>
      <trkpt lat="59.264533" lon="18.097649">
        <ele>36</ele>
        <time>2019-11-15T16:28:46Z</time>
      </trkpt>
      <trkpt lat="59.264585" lon="18.097623">
        <ele>36</ele>
        <time>2019-11-15T16:28:47Z</time>
      </trkpt>
      <trkpt lat="59.264642" lon="18.097595">
        <ele>36</ele>
        <time>2019-11-15T16:28:48Z</time>
      </trkpt>
      <trkpt lat="59.264699" lon="18.097565">
        <ele>36</ele>
        <time>2019-11-15T16:28:49Z</time>
      </trkpt>
      <trkpt lat="59.264757" lon="18.097539">
        <ele>36</ele>
        <time>2019-11-15T16:28:50Z</time>
      </trkpt>
      <trkpt lat="59.264812" lon="18.097515">
        <ele>36</ele>
        <time>2019-11-15T16:28:51Z</time>
      </trkpt>
      <trkpt lat="59.264865" lon="18.097491">
        <ele>36</ele>
        <time>2019-11-15T16:28:52Z</time>
      </trkpt>
      <trkpt lat="59.264927" lon="18.097458">
        <ele>36</ele>
        <time>2019-11-15T16:28:53Z</time>
      </trkpt>
      <trkpt lat="59.264998" lon="18.097428">
        <ele>36</ele>
        <time>2019-11-15T16:28:54Z</time>
      </trkpt>
      <trkpt lat="59.265071" lon="18.097397">
        <ele>36</ele>
        <time>2019-11-15T16:28:55Z</time>
      </trkpt>
      <trkpt lat="59.265138" lon="18.097367">
        <ele>36</ele>
        <time>2019-11-15T16:28:56Z</time>
      </trkpt>
      <trkpt lat="59.265198" lon="18.097346">
        <ele>36</ele>
        <time>2019-11-15T16:28:57Z</time>
      </trkpt>
      <trkpt lat="59.265254" lon="18.097345">
        <ele>36</ele>
        <time>2019-11-15T16:28:58Z</time>
      </trkpt>
      <trkpt lat="59.265301" lon="18.097375">
        <ele>36</ele>
        <time>2019-11-15T16:28:59Z</time>
      </trkpt>
      <trkpt lat="59.265343" lon="18.097433">
        <ele>36</ele>
        <time>2019-11-15T16:29:00Z</time>
      </trkpt>
      <trkpt lat="59.265362" lon="18.097515">
        <ele>0</ele>
        <time>2019-11-15T16:29:00Z</time>
      </trkpt>
      <trkpt lat="59.265375" lon="18.097602">
        <ele>36</ele>
        <time>2019-11-15T16:29:01Z</time>
      </trkpt>
      <trkpt lat="59.265385" lon="18.097693">
        <ele>36</ele>
        <time>2019-11-15T16:29:03Z</time>
      </trkpt>
      <trkpt lat="59.265411" lon="18.097881">
        <ele>36</ele>
        <time>2019-11-15T16:29:05Z</time>
      </trkpt>
      <trkpt lat="59.265461" lon="18.098052">
        <ele>36</ele>
        <time>2019-11-15T16:29:07Z</time>
      </trkpt>
      <trkpt lat="59.265557" lon="18.098192">
        <ele>35</ele>
        <time>2019-11-15T16:29:10Z</time>
      </trkpt>
      <trkpt lat="59.265597" lon="18.098171">
        <ele>35</ele>
        <time>2019-11-15T16:29:11Z</time>
      </trkpt>
      <trkpt lat="59.265642" lon="18.098146">
        <ele>35</ele>
        <time>2019-11-15T16:29:12Z</time>
      </trkpt>
      <trkpt lat="59.265683" lon="18.098123">
        <ele>35</ele>
        <time>2019-11-15T16:29:13Z</time>
      </trkpt>
      <trkpt lat="59.265723" lon="18.098096">
        <ele>35</ele>
        <time>2019-11-15T16:29:14Z</time>
      </trkpt>
      <trkpt lat="59.265766" lon="18.09807">
        <ele>35</ele>
        <time>2019-11-15T16:29:15Z</time>
      </trkpt>
      <trkpt lat="59.265807" lon="18.098043">
        <ele>35</ele>
        <time>2019-11-15T16:29:16Z</time>
      </trkpt>
      <trkpt lat="59.265849" lon="18.098013">
        <ele>35</ele>
        <time>2019-11-15T16:29:17Z</time>
      </trkpt>
      <trkpt lat="59.265891" lon="18.097985">
        <ele>35</ele>
        <time>2019-11-15T16:29:18Z</time>
      </trkpt>
      <trkpt lat="59.265932" lon="18.097956">
        <ele>35</ele>
        <time>2019-11-15T16:29:19Z</time>
      </trkpt>
      <trkpt lat="59.265972" lon="18.097928">
        <ele>35</ele>
        <time>2019-11-15T16:29:20Z</time>
      </trkpt>
      <trkpt lat="59.266011" lon="18.097901">
        <ele>35</ele>
        <time>2019-11-15T16:29:21Z</time>
      </trkpt>
      <trkpt lat="59.266048" lon="18.097874">
        <ele>35</ele>
        <time>2019-11-15T16:29:22Z</time>
      </trkpt>
      <trkpt lat="59.266084" lon="18.09785">
        <ele>36</ele>
        <time>2019-11-15T16:29:23Z</time>
      </trkpt>
      <trkpt lat="59.266117" lon="18.097843">
        <ele>36</ele>
        <time>2019-11-15T16:29:24Z</time>
      </trkpt>
      <trkpt lat="59.266145" lon="18.09786">
        <ele>35</ele>
        <time>2019-11-15T16:29:25Z</time>
      </trkpt>
      <trkpt lat="59.266157" lon="18.097907">
        <ele>36</ele>
        <time>2019-11-15T16:29:27Z</time>
      </trkpt>
      <trkpt lat="59.26617" lon="18.09797">
        <ele>36</ele>
        <time>2019-11-15T16:29:30Z</time>
      </trkpt>
      <trkpt lat="59.266186" lon="18.098014">
        <ele>36</ele>
        <time>2019-11-15T16:29:31Z</time>
      </trkpt>
      <trkpt lat="59.266211" lon="18.098043">
        <ele>36</ele>
        <time>2019-11-15T16:29:32Z</time>
      </trkpt>
      <trkpt lat="59.266245" lon="18.098038">
        <ele>36</ele>
        <time>2019-11-15T16:29:33Z</time>
      </trkpt>
      <trkpt lat="59.266282" lon="18.098015">
        <ele>37</ele>
        <time>2019-11-15T16:29:34Z</time>
      </trkpt>
      <trkpt lat="59.266324" lon="18.097987">
        <ele>36</ele>
        <time>2019-11-15T16:29:35Z</time>
      </trkpt>
      <trkpt lat="59.266367" lon="18.097965">
        <ele>37</ele>
        <time>2019-11-15T16:29:36Z</time>
      </trkpt>
      <trkpt lat="59.266413" lon="18.097952">
        <ele>37</ele>
        <time>2019-11-15T16:29:37Z</time>
      </trkpt>
      <trkpt lat="59.26646" lon="18.097938">
        <ele>37</ele>
        <time>2019-11-15T16:29:38Z</time>
      </trkpt>
      <trkpt lat="59.266508" lon="18.097916">
        <ele>37</ele>
        <time>2019-11-15T16:29:39Z</time>
      </trkpt>
      <trkpt lat="59.266554" lon="18.097894">
        <ele>37</ele>
        <time>2019-11-15T16:29:40Z</time>
      </trkpt>
      <trkpt lat="59.266599" lon="18.09787">
        <ele>37</ele>
        <time>2019-11-15T16:29:41Z</time>
      </trkpt>
      <trkpt lat="59.266644" lon="18.097845">
        <ele>37</ele>
        <time>2019-11-15T16:29:42Z</time>
      </trkpt>
      <trkpt lat="59.266691" lon="18.097818">
        <ele>37</ele>
        <time>2019-11-15T16:29:43Z</time>
      </trkpt>
      <trkpt lat="59.266739" lon="18.097791">
        <ele>37</ele>
        <time>2019-11-15T16:29:44Z</time>
      </trkpt>
      <trkpt lat="59.266786" lon="18.097765">
        <ele>37</ele>
        <time>2019-11-15T16:29:45Z</time>
      </trkpt>
      <trkpt lat="59.266833" lon="18.097741">
        <ele>37</ele>
        <time>2019-11-15T16:29:46Z</time>
      </trkpt>
      <trkpt lat="59.266878" lon="18.097716">
        <ele>37</ele>
        <time>2019-11-15T16:29:47Z</time>
      </trkpt>
      <trkpt lat="59.266924" lon="18.09769">
        <ele>37</ele>
        <time>2019-11-15T16:29:48Z</time>
      </trkpt>
      <trkpt lat="59.266971" lon="18.097662">
        <ele>37</ele>
        <time>2019-11-15T16:29:49Z</time>
      </trkpt>
      <trkpt lat="59.267017" lon="18.097628">
        <ele>37</ele>
        <time>2019-11-15T16:29:50Z</time>
      </trkpt>
      <trkpt lat="59.267062" lon="18.097593">
        <ele>37</ele>
        <time>2019-11-15T16:29:51Z</time>
      </trkpt>
      <trkpt lat="59.267105" lon="18.097563">
        <ele>37</ele>
        <time>2019-11-15T16:29:52Z</time>
      </trkpt>
      <trkpt lat="59.267154" lon="18.097531">
        <ele>37</ele>
        <time>2019-11-15T16:29:53Z</time>
      </trkpt>
      <trkpt lat="59.267211" lon="18.097491">
        <ele>37</ele>
        <time>2019-11-15T16:29:54Z</time>
      </trkpt>
      <trkpt lat="59.267266" lon="18.097449">
        <ele>37</ele>
        <time>2019-11-15T16:29:55Z</time>
      </trkpt>
      <trkpt lat="59.267325" lon="18.097405">
        <ele>37</ele>
        <time>2019-11-15T16:29:56Z</time>
      </trkpt>
      <trkpt lat="59.267384" lon="18.097361">
        <ele>37</ele>
        <time>2019-11-15T16:29:57Z</time>
      </trkpt>
      <trkpt lat="59.267443" lon="18.097318">
        <ele>38</ele>
        <time>2019-11-15T16:29:58Z</time>
      </trkpt>
      <trkpt lat="59.267502" lon="18.097274">
        <ele>38</ele>
        <time>2019-11-15T16:29:59Z</time>
      </trkpt>
      <trkpt lat="59.267564" lon="18.097231">
        <ele>38</ele>
        <time>2019-11-15T16:30:00Z</time>
      </trkpt>
      <trkpt lat="59.267625" lon="18.097192">
        <ele>38</ele>
        <time>2019-11-15T16:30:01Z</time>
      </trkpt>
      <trkpt lat="59.267684" lon="18.097159">
        <ele>38</ele>
        <time>2019-11-15T16:30:02Z</time>
      </trkpt>
      <trkpt lat="59.267741" lon="18.097128">
        <ele>38</ele>
        <time>2019-11-15T16:30:03Z</time>
      </trkpt>
      <trkpt lat="59.267797" lon="18.097099">
        <ele>38</ele>
        <time>2019-11-15T16:30:04Z</time>
      </trkpt>
      <trkpt lat="59.267852" lon="18.097073">
        <ele>38</ele>
        <time>2019-11-15T16:30:05Z</time>
      </trkpt>
      <trkpt lat="59.267907" lon="18.097048">
        <ele>38</ele>
        <time>2019-11-15T16:30:06Z</time>
      </trkpt>
      <trkpt lat="59.26796" lon="18.097025">
        <ele>38</ele>
        <time>2019-11-15T16:30:07Z</time>
      </trkpt>
      <trkpt lat="59.268013" lon="18.097002">
        <ele>38</ele>
        <time>2019-11-15T16:30:08Z</time>
      </trkpt>
      <trkpt lat="59.268064" lon="18.096975">
        <ele>38</ele>
        <time>2019-11-15T16:30:09Z</time>
      </trkpt>
      <trkpt lat="59.268115" lon="18.096942">
        <ele>38</ele>
        <time>2019-11-15T16:30:10Z</time>
      </trkpt>
      <trkpt lat="59.268165" lon="18.096906">
        <ele>38</ele>
        <time>2019-11-15T16:30:11Z</time>
      </trkpt>
      <trkpt lat="59.268212" lon="18.096866">
        <ele>38</ele>
        <time>2019-11-15T16:30:12Z</time>
      </trkpt>
      <trkpt lat="59.268261" lon="18.096827">
        <ele>38</ele>
        <time>2019-11-15T16:30:13Z</time>
      </trkpt>
      <trkpt lat="59.268312" lon="18.096789">
        <ele>38</ele>
        <time>2019-11-15T16:30:14Z</time>
      </trkpt>
      <trkpt lat="59.268362" lon="18.096751">
        <ele>38</ele>
        <time>2019-11-15T16:30:15Z</time>
      </trkpt>
      <trkpt lat="59.268413" lon="18.096713">
        <ele>38</ele>
        <time>2019-11-15T16:30:16Z</time>
      </trkpt>
      <trkpt lat="59.268466" lon="18.096675">
        <ele>38</ele>
        <time>2019-11-15T16:30:17Z</time>
      </trkpt>
      <trkpt lat="59.26852" lon="18.096639">
        <ele>38</ele>
        <time>2019-11-15T16:30:18Z</time>
      </trkpt>
      <trkpt lat="59.268574" lon="18.096606">
        <ele>38</ele>
        <time>2019-11-15T16:30:19Z</time>
      </trkpt>
      <trkpt lat="59.268628" lon="18.096574">
        <ele>38</ele>
        <time>2019-11-15T16:30:20Z</time>
      </trkpt>
      <trkpt lat="59.268684" lon="18.096541">
        <ele>38</ele>
        <time>2019-11-15T16:30:21Z</time>
      </trkpt>
      <trkpt lat="59.26874" lon="18.09651">
        <ele>38</ele>
        <time>2019-11-15T16:30:22Z</time>
      </trkpt>
      <trkpt lat="59.268795" lon="18.096478">
        <ele>38</ele>
        <time>2019-11-15T16:30:23Z</time>
      </trkpt>
      <trkpt lat="59.268851" lon="18.096447">
        <ele>38</ele>
        <time>2019-11-15T16:30:24Z</time>
      </trkpt>
      <trkpt lat="59.268908" lon="18.09642">
        <ele>38</ele>
        <time>2019-11-15T16:30:25Z</time>
      </trkpt>
      <trkpt lat="59.268963" lon="18.096396">
        <ele>38</ele>
        <time>2019-11-15T16:30:26Z</time>
      </trkpt>
      <trkpt lat="59.269018" lon="18.096372">
        <ele>38</ele>
        <time>2019-11-15T16:30:27Z</time>
      </trkpt>
      <trkpt lat="59.269068" lon="18.096346">
        <ele>38</ele>
        <time>2019-11-15T16:30:28Z</time>
      </trkpt>
      <trkpt lat="59.269119" lon="18.096318">
        <ele>38</ele>
        <time>2019-11-15T16:30:29Z</time>
      </trkpt>
      <trkpt lat="59.269169" lon="18.096292">
        <ele>38</ele>
        <time>2019-11-15T16:30:30Z</time>
      </trkpt>
      <trkpt lat="59.269217" lon="18.096262">
        <ele>38</ele>
        <time>2019-11-15T16:30:31Z</time>
      </trkpt>
      <trkpt lat="59.269267" lon="18.096235">
        <ele>38</ele>
        <time>2019-11-15T16:30:32Z</time>
      </trkpt>
      <trkpt lat="59.269316" lon="18.09621">
        <ele>38</ele>
        <time>2019-11-15T16:30:33Z</time>
      </trkpt>
      <trkpt lat="59.269366" lon="18.096185">
        <ele>39</ele>
        <time>2019-11-15T16:30:34Z</time>
      </trkpt>
      <trkpt lat="59.269415" lon="18.096159">
        <ele>39</ele>
        <time>2019-11-15T16:30:35Z</time>
      </trkpt>
      <trkpt lat="59.269463" lon="18.096133">
        <ele>39</ele>
        <time>2019-11-15T16:30:36Z</time>
      </trkpt>
      <trkpt lat="59.269508" lon="18.096109">
        <ele>39</ele>
        <time>2019-11-15T16:30:37Z</time>
      </trkpt>
      <trkpt lat="59.269549" lon="18.096089">
        <ele>39</ele>
        <time>2019-11-15T16:30:38Z</time>
      </trkpt>
      <trkpt lat="59.269588" lon="18.096067">
        <ele>39</ele>
        <time>2019-11-15T16:30:39Z</time>
      </trkpt>
      <trkpt lat="59.26963" lon="18.096035">
        <ele>39</ele>
        <time>2019-11-15T16:30:40Z</time>
      </trkpt>
      <trkpt lat="59.269673" lon="18.096004">
        <ele>39</ele>
        <time>2019-11-15T16:30:41Z</time>
      </trkpt>
      <trkpt lat="59.269719" lon="18.095968">
        <ele>39</ele>
        <time>2019-11-15T16:30:42Z</time>
      </trkpt>
      <trkpt lat="59.269773" lon="18.095936">
        <ele>39</ele>
        <time>2019-11-15T16:30:43Z</time>
      </trkpt>
      <trkpt lat="59.269825" lon="18.095901">
        <ele>39</ele>
        <time>2019-11-15T16:30:44Z</time>
      </trkpt>
      <trkpt lat="59.269882" lon="18.095867">
        <ele>39</ele>
        <time>2019-11-15T16:30:45Z</time>
      </trkpt>
      <trkpt lat="59.26994" lon="18.095832">
        <ele>40</ele>
        <time>2019-11-15T16:30:46Z</time>
      </trkpt>
      <trkpt lat="59.269997" lon="18.095797">
        <ele>40</ele>
        <time>2019-11-15T16:30:47Z</time>
      </trkpt>
      <trkpt lat="59.270057" lon="18.095762">
        <ele>40</ele>
        <time>2019-11-15T16:30:48Z</time>
      </trkpt>
      <trkpt lat="59.270111" lon="18.095735">
        <ele>40</ele>
        <time>2019-11-15T16:30:49Z</time>
      </trkpt>
      <trkpt lat="59.270165" lon="18.095714">
        <ele>40</ele>
        <time>2019-11-15T16:30:50Z</time>
      </trkpt>
      <trkpt lat="59.270229" lon="18.095694">
        <ele>40</ele>
        <time>2019-11-15T16:30:51Z</time>
      </trkpt>
      <trkpt lat="59.270288" lon="18.095673">
        <ele>40</ele>
        <time>2019-11-15T16:30:52Z</time>
      </trkpt>
      <trkpt lat="59.270345" lon="18.095651">
        <ele>40</ele>
        <time>2019-11-15T16:30:53Z</time>
      </trkpt>
      <trkpt lat="59.270405" lon="18.095633">
        <ele>40</ele>
        <time>2019-11-15T16:30:54Z</time>
      </trkpt>
      <trkpt lat="59.270467" lon="18.095621">
        <ele>40</ele>
        <time>2019-11-15T16:30:55Z</time>
      </trkpt>
      <trkpt lat="59.270528" lon="18.095602">
        <ele>40</ele>
        <time>2019-11-15T16:30:56Z</time>
      </trkpt>
      <trkpt lat="59.270586" lon="18.09557">
        <ele>40</ele>
        <time>2019-11-15T16:30:57Z</time>
      </trkpt>
      <trkpt lat="59.27064" lon="18.095532">
        <ele>41</ele>
        <time>2019-11-15T16:30:58Z</time>
      </trkpt>
      <trkpt lat="59.270696" lon="18.09549">
        <ele>41</ele>
        <time>2019-11-15T16:30:59Z</time>
      </trkpt>
      <trkpt lat="59.270749" lon="18.095454">
        <ele>41</ele>
        <time>2019-11-15T16:31:00Z</time>
      </trkpt>
      <trkpt lat="59.270805" lon="18.095415">
        <ele>41</ele>
        <time>2019-11-15T16:31:01Z</time>
      </trkpt>
      <trkpt lat="59.270866" lon="18.095374">
        <ele>41</ele>
        <time>2019-11-15T16:31:02Z</time>
      </trkpt>
      <trkpt lat="59.270929" lon="18.095335">
        <ele>41</ele>
        <time>2019-11-15T16:31:03Z</time>
      </trkpt>
      <trkpt lat="59.270987" lon="18.095303">
        <ele>41</ele>
        <time>2019-11-15T16:31:04Z</time>
      </trkpt>
      <trkpt lat="59.271046" lon="18.095275">
        <ele>41</ele>
        <time>2019-11-15T16:31:05Z</time>
      </trkpt>
      <trkpt lat="59.271099" lon="18.095246">
        <ele>41</ele>
        <time>2019-11-15T16:31:06Z</time>
      </trkpt>
      <trkpt lat="59.271148" lon="18.095216">
        <ele>41</ele>
        <time>2019-11-15T16:31:07Z</time>
      </trkpt>
      <trkpt lat="59.271198" lon="18.095189">
        <ele>41</ele>
        <time>2019-11-15T16:31:08Z</time>
      </trkpt>
      <trkpt lat="59.271246" lon="18.095174">
        <ele>41</ele>
        <time>2019-11-15T16:31:09Z</time>
      </trkpt>
      <trkpt lat="59.271301" lon="18.095153">
        <ele>41</ele>
        <time>2019-11-15T16:31:10Z</time>
      </trkpt>
      <trkpt lat="59.271354" lon="18.095135">
        <ele>41</ele>
        <time>2019-11-15T16:31:11Z</time>
      </trkpt>
      <trkpt lat="59.271406" lon="18.095122">
        <ele>41</ele>
        <time>2019-11-15T16:31:12Z</time>
      </trkpt>
      <trkpt lat="59.271451" lon="18.095105">
        <ele>41</ele>
        <time>2019-11-15T16:31:13Z</time>
      </trkpt>
      <trkpt lat="59.2715" lon="18.095085">
        <ele>41</ele>
        <time>2019-11-15T16:31:14Z</time>
      </trkpt>
      <trkpt lat="59.271552" lon="18.095062">
        <ele>41</ele>
        <time>2019-11-15T16:31:15Z</time>
      </trkpt>
      <trkpt lat="59.271604" lon="18.095041">
        <ele>41</ele>
        <time>2019-11-15T16:31:16Z</time>
      </trkpt>
      <trkpt lat="59.271653" lon="18.095021">
        <ele>41</ele>
        <time>2019-11-15T16:31:17Z</time>
      </trkpt>
      <trkpt lat="59.271707" lon="18.094992">
        <ele>41</ele>
        <time>2019-11-15T16:31:18Z</time>
      </trkpt>
      <trkpt lat="59.271759" lon="18.094958">
        <ele>41</ele>
        <time>2019-11-15T16:31:19Z</time>
      </trkpt>
      <trkpt lat="59.271812" lon="18.094917">
        <ele>41</ele>
        <time>2019-11-15T16:31:20Z</time>
      </trkpt>
      <trkpt lat="59.271867" lon="18.094869">
        <ele>41</ele>
        <time>2019-11-15T16:31:21Z</time>
      </trkpt>
      <trkpt lat="59.271918" lon="18.094831">
        <ele>41</ele>
        <time>2019-11-15T16:31:22Z</time>
      </trkpt>
      <trkpt lat="59.271967" lon="18.094797">
        <ele>41</ele>
        <time>2019-11-15T16:31:23Z</time>
      </trkpt>
      <trkpt lat="59.272015" lon="18.094774">
        <ele>41</ele>
        <time>2019-11-15T16:31:24Z</time>
      </trkpt>
      <trkpt lat="59.272063" lon="18.094759">
        <ele>41</ele>
        <time>2019-11-15T16:31:25Z</time>
      </trkpt>
      <trkpt lat="59.27211" lon="18.094745">
        <ele>41</ele>
        <time>2019-11-15T16:31:26Z</time>
      </trkpt>
      <trkpt lat="59.272157" lon="18.094733">
        <ele>41</ele>
        <time>2019-11-15T16:31:27Z</time>
      </trkpt>
      <trkpt lat="59.272204" lon="18.094723">
        <ele>41</ele>
        <time>2019-11-15T16:31:28Z</time>
      </trkpt>
      <trkpt lat="59.272252" lon="18.09471">
        <ele>41</ele>
        <time>2019-11-15T16:31:29Z</time>
      </trkpt>
      <trkpt lat="59.272299" lon="18.094696">
        <ele>41</ele>
        <time>2019-11-15T16:31:30Z</time>
      </trkpt>
      <trkpt lat="59.272346" lon="18.094682">
        <ele>41</ele>
        <time>2019-11-15T16:31:31Z</time>
      </trkpt>
      <trkpt lat="59.272393" lon="18.094666">
        <ele>41</ele>
        <time>2019-11-15T16:31:32Z</time>
      </trkpt>
      <trkpt lat="59.27244" lon="18.094653">
        <ele>41</ele>
        <time>2019-11-15T16:31:33Z</time>
      </trkpt>
      <trkpt lat="59.272487" lon="18.094642">
        <ele>41</ele>
        <time>2019-11-15T16:31:34Z</time>
      </trkpt>
      <trkpt lat="59.272535" lon="18.094634">
        <ele>41</ele>
        <time>2019-11-15T16:31:35Z</time>
      </trkpt>
      <trkpt lat="59.272581" lon="18.094624">
        <ele>41</ele>
        <time>2019-11-15T16:31:36Z</time>
      </trkpt>
      <trkpt lat="59.272627" lon="18.094611">
        <ele>41</ele>
        <time>2019-11-15T16:31:37Z</time>
      </trkpt>
      <trkpt lat="59.272674" lon="18.094597">
        <ele>41</ele>
        <time>2019-11-15T16:31:38Z</time>
      </trkpt>
      <trkpt lat="59.272721" lon="18.094584">
        <ele>41</ele>
        <time>2019-11-15T16:31:39Z</time>
      </trkpt>
      <trkpt lat="59.272767" lon="18.094569">
        <ele>41</ele>
        <time>2019-11-15T16:31:40Z</time>
      </trkpt>
      <trkpt lat="59.272812" lon="18.09455">
        <ele>42</ele>
        <time>2019-11-15T16:31:41Z</time>
      </trkpt>
      <trkpt lat="59.272859" lon="18.094532">
        <ele>42</ele>
        <time>2019-11-15T16:31:42Z</time>
      </trkpt>
      <trkpt lat="59.272907" lon="18.094513">
        <ele>42</ele>
        <time>2019-11-15T16:31:43Z</time>
      </trkpt>
      <trkpt lat="59.272958" lon="18.094496">
        <ele>42</ele>
        <time>2019-11-15T16:31:44Z</time>
      </trkpt>
      <trkpt lat="59.273008" lon="18.094481">
        <ele>42</ele>
        <time>2019-11-15T16:31:45Z</time>
      </trkpt>
      <trkpt lat="59.273058" lon="18.094463">
        <ele>42</ele>
        <time>2019-11-15T16:31:46Z</time>
      </trkpt>
      <trkpt lat="59.27311" lon="18.094442">
        <ele>42</ele>
        <time>2019-11-15T16:31:47Z</time>
      </trkpt>
      <trkpt lat="59.273165" lon="18.094426">
        <ele>42</ele>
        <time>2019-11-15T16:31:48Z</time>
      </trkpt>
      <trkpt lat="59.273225" lon="18.094412">
        <ele>42</ele>
        <time>2019-11-15T16:31:49Z</time>
      </trkpt>
      <trkpt lat="59.273287" lon="18.094399">
        <ele>42</ele>
        <time>2019-11-15T16:31:50Z</time>
      </trkpt>
      <trkpt lat="59.273352" lon="18.094382">
        <ele>42</ele>
        <time>2019-11-15T16:31:51Z</time>
      </trkpt>
      <trkpt lat="59.27342" lon="18.094357">
        <ele>41</ele>
        <time>2019-11-15T16:31:52Z</time>
      </trkpt>
      <trkpt lat="59.27349" lon="18.094327">
        <ele>41</ele>
        <time>2019-11-15T16:31:53Z</time>
      </trkpt>
      <trkpt lat="59.273561" lon="18.094292">
        <ele>41</ele>
        <time>2019-11-15T16:31:54Z</time>
      </trkpt>
      <trkpt lat="59.273632" lon="18.094246">
        <ele>41</ele>
        <time>2019-11-15T16:31:55Z</time>
      </trkpt>
      <trkpt lat="59.273703" lon="18.09419">
        <ele>41</ele>
        <time>2019-11-15T16:31:56Z</time>
      </trkpt>
      <trkpt lat="59.273775" lon="18.094139">
        <ele>40</ele>
        <time>2019-11-15T16:31:57Z</time>
      </trkpt>
      <trkpt lat="59.273849" lon="18.094097">
        <ele>40</ele>
        <time>2019-11-15T16:31:58Z</time>
      </trkpt>
      <trkpt lat="59.273926" lon="18.094061">
        <ele>40</ele>
        <time>2019-11-15T16:31:59Z</time>
      </trkpt>
      <trkpt lat="59.274005" lon="18.094026">
        <ele>40</ele>
        <time>2019-11-15T16:32:00Z</time>
      </trkpt>
      <trkpt lat="59.274085" lon="18.093989">
        <ele>40</ele>
        <time>2019-11-15T16:32:01Z</time>
      </trkpt>
      <trkpt lat="59.274166" lon="18.093952">
        <ele>39</ele>
        <time>2019-11-15T16:32:02Z</time>
      </trkpt>
      <trkpt lat="59.274248" lon="18.093918">
        <ele>39</ele>
        <time>2019-11-15T16:32:03Z</time>
      </trkpt>
      <trkpt lat="59.274329" lon="18.093883">
        <ele>39</ele>
        <time>2019-11-15T16:32:04Z</time>
      </trkpt>
      <trkpt lat="59.27441" lon="18.093848">
        <ele>38</ele>
        <time>2019-11-15T16:32:05Z</time>
      </trkpt>
      <trkpt lat="59.274488" lon="18.093815">
        <ele>38</ele>
        <time>2019-11-15T16:32:06Z</time>
      </trkpt>
      <trkpt lat="59.274566" lon="18.093782">
        <ele>38</ele>
        <time>2019-11-15T16:32:07Z</time>
      </trkpt>
      <trkpt lat="59.274643" lon="18.093753">
        <ele>38</ele>
        <time>2019-11-15T16:32:08Z</time>
      </trkpt>
      <trkpt lat="59.27472" lon="18.093724">
        <ele>38</ele>
        <time>2019-11-15T16:32:09Z</time>
      </trkpt>
      <trkpt lat="59.274795" lon="18.093692">
        <ele>38</ele>
        <time>2019-11-15T16:32:10Z</time>
      </trkpt>
      <trkpt lat="59.274869" lon="18.09366">
        <ele>38</ele>
        <time>2019-11-15T16:32:11Z</time>
      </trkpt>
      <trkpt lat="59.274943" lon="18.093633">
        <ele>38</ele>
        <time>2019-11-15T16:32:12Z</time>
      </trkpt>
      <trkpt lat="59.275016" lon="18.093611">
        <ele>38</ele>
        <time>2019-11-15T16:32:13Z</time>
      </trkpt>
      <trkpt lat="59.275086" lon="18.093584">
        <ele>38</ele>
        <time>2019-11-15T16:32:14Z</time>
      </trkpt>
      <trkpt lat="59.275154" lon="18.093553">
        <ele>38</ele>
        <time>2019-11-15T16:32:15Z</time>
      </trkpt>
      <trkpt lat="59.275224" lon="18.093525">
        <ele>38</ele>
        <time>2019-11-15T16:32:16Z</time>
      </trkpt>
      <trkpt lat="59.275291" lon="18.093502">
        <ele>38</ele>
        <time>2019-11-15T16:32:17Z</time>
      </trkpt>
      <trkpt lat="59.275361" lon="18.093484">
        <ele>37</ele>
        <time>2019-11-15T16:32:18Z</time>
      </trkpt>
      <trkpt lat="59.275431" lon="18.093468">
        <ele>37</ele>
        <time>2019-11-15T16:32:19Z</time>
      </trkpt>
      <trkpt lat="59.275499" lon="18.09345">
        <ele>37</ele>
        <time>2019-11-15T16:32:20Z</time>
      </trkpt>
      <trkpt lat="59.275568" lon="18.093431">
        <ele>37</ele>
        <time>2019-11-15T16:32:21Z</time>
      </trkpt>
      <trkpt lat="59.275636" lon="18.093413">
        <ele>37</ele>
        <time>2019-11-15T16:32:22Z</time>
      </trkpt>
      <trkpt lat="59.275705" lon="18.093397">
        <ele>37</ele>
        <time>2019-11-15T16:32:23Z</time>
      </trkpt>
      <trkpt lat="59.275773" lon="18.093381">
        <ele>37</ele>
        <time>2019-11-15T16:32:24Z</time>
      </trkpt>
      <trkpt lat="59.27584" lon="18.093364">
        <ele>37</ele>
        <time>2019-11-15T16:32:25Z</time>
      </trkpt>
      <trkpt lat="59.275908" lon="18.093348">
        <ele>37</ele>
        <time>2019-11-15T16:32:26Z</time>
      </trkpt>
      <trkpt lat="59.275975" lon="18.09333">
        <ele>37</ele>
        <time>2019-11-15T16:32:27Z</time>
      </trkpt>
      <trkpt lat="59.27604" lon="18.093312">
        <ele>37</ele>
        <time>2019-11-15T16:32:28Z</time>
      </trkpt>
      <trkpt lat="59.276108" lon="18.0933">
        <ele>37</ele>
        <time>2019-11-15T16:32:29Z</time>
      </trkpt>
      <trkpt lat="59.276176" lon="18.093293">
        <ele>37</ele>
        <time>2019-11-15T16:32:30Z</time>
      </trkpt>
      <trkpt lat="59.276243" lon="18.093287">
        <ele>37</ele>
        <time>2019-11-15T16:32:31Z</time>
      </trkpt>
      <trkpt lat="59.276309" lon="18.093277">
        <ele>36</ele>
        <time>2019-11-15T16:32:32Z</time>
      </trkpt>
      <trkpt lat="59.276376" lon="18.093266">
        <ele>36</ele>
        <time>2019-11-15T16:32:33Z</time>
      </trkpt>
      <trkpt lat="59.276443" lon="18.093255">
        <ele>36</ele>
        <time>2019-11-15T16:32:34Z</time>
      </trkpt>
      <trkpt lat="59.276509" lon="18.093243">
        <ele>36</ele>
        <time>2019-11-15T16:32:35Z</time>
      </trkpt>
      <trkpt lat="59.276576" lon="18.093232">
        <ele>36</ele>
        <time>2019-11-15T16:32:36Z</time>
      </trkpt>
      <trkpt lat="59.276642" lon="18.09322">
        <ele>36</ele>
        <time>2019-11-15T16:32:37Z</time>
      </trkpt>
      <trkpt lat="59.276708" lon="18.093207">
        <ele>36</ele>
        <time>2019-11-15T16:32:38Z</time>
      </trkpt>
      <trkpt lat="59.276775" lon="18.093195">
        <ele>36</ele>
        <time>2019-11-15T16:32:39Z</time>
      </trkpt>
      <trkpt lat="59.276841" lon="18.093182">
        <ele>36</ele>
        <time>2019-11-15T16:32:40Z</time>
      </trkpt>
      <trkpt lat="59.276906" lon="18.09317">
        <ele>36</ele>
        <time>2019-11-15T16:32:41Z</time>
      </trkpt>
      <trkpt lat="59.276971" lon="18.093156">
        <ele>36</ele>
        <time>2019-11-15T16:32:42Z</time>
      </trkpt>
      <trkpt lat="59.277035" lon="18.093136">
        <ele>36</ele>
        <time>2019-11-15T16:32:43Z</time>
      </trkpt>
      <trkpt lat="59.277098" lon="18.093115">
        <ele>36</ele>
        <time>2019-11-15T16:32:44Z</time>
      </trkpt>
      <trkpt lat="59.277162" lon="18.093097">
        <ele>36</ele>
        <time>2019-11-15T16:32:45Z</time>
      </trkpt>
      <trkpt lat="59.277226" lon="18.093078">
        <ele>36</ele>
        <time>2019-11-15T16:32:46Z</time>
      </trkpt>
      <trkpt lat="59.277289" lon="18.093053">
        <ele>36</ele>
        <time>2019-11-15T16:32:47Z</time>
      </trkpt>
      <trkpt lat="59.27735" lon="18.093029">
        <ele>36</ele>
        <time>2019-11-15T16:32:48Z</time>
      </trkpt>
      <trkpt lat="59.277412" lon="18.093006">
        <ele>36</ele>
        <time>2019-11-15T16:32:49Z</time>
      </trkpt>
      <trkpt lat="59.277473" lon="18.092984">
        <ele>36</ele>
        <time>2019-11-15T16:32:50Z</time>
      </trkpt>
      <trkpt lat="59.277534" lon="18.092962">
        <ele>35</ele>
        <time>2019-11-15T16:32:51Z</time>
      </trkpt>
      <trkpt lat="59.277595" lon="18.09294">
        <ele>35</ele>
        <time>2019-11-15T16:32:52Z</time>
      </trkpt>
      <trkpt lat="59.277656" lon="18.092921">
        <ele>36</ele>
        <time>2019-11-15T16:32:53Z</time>
      </trkpt>
      <trkpt lat="59.277716" lon="18.0929">
        <ele>36</ele>
        <time>2019-11-15T16:32:54Z</time>
      </trkpt>
      <trkpt lat="59.277775" lon="18.09287">
        <ele>36</ele>
        <time>2019-11-15T16:32:55Z</time>
      </trkpt>
      <trkpt lat="59.277835" lon="18.092842">
        <ele>36</ele>
        <time>2019-11-15T16:32:56Z</time>
      </trkpt>
      <trkpt lat="59.277895" lon="18.092817">
        <ele>36</ele>
        <time>2019-11-15T16:32:57Z</time>
      </trkpt>
      <trkpt lat="59.277955" lon="18.092794">
        <ele>36</ele>
        <time>2019-11-15T16:32:58Z</time>
      </trkpt>
      <trkpt lat="59.278015" lon="18.09277">
        <ele>35</ele>
        <time>2019-11-15T16:32:59Z</time>
      </trkpt>
      <trkpt lat="59.278075" lon="18.092747">
        <ele>35</ele>
        <time>2019-11-15T16:33:00Z</time>
      </trkpt>
      <trkpt lat="59.278133" lon="18.092724">
        <ele>35</ele>
        <time>2019-11-15T16:33:01Z</time>
      </trkpt>
      <trkpt lat="59.278191" lon="18.092702">
        <ele>35</ele>
        <time>2019-11-15T16:33:02Z</time>
      </trkpt>
      <trkpt lat="59.278248" lon="18.092678">
        <ele>35</ele>
        <time>2019-11-15T16:33:03Z</time>
      </trkpt>
      <trkpt lat="59.278306" lon="18.092652">
        <ele>35</ele>
        <time>2019-11-15T16:33:04Z</time>
      </trkpt>
      <trkpt lat="59.278365" lon="18.092626">
        <ele>35</ele>
        <time>2019-11-15T16:33:05Z</time>
      </trkpt>
      <trkpt lat="59.278424" lon="18.0926">
        <ele>35</ele>
        <time>2019-11-15T16:33:06Z</time>
      </trkpt>
      <trkpt lat="59.278484" lon="18.092572">
        <ele>35</ele>
        <time>2019-11-15T16:33:07Z</time>
      </trkpt>
      <trkpt lat="59.278544" lon="18.092547">
        <ele>35</ele>
        <time>2019-11-15T16:33:08Z</time>
      </trkpt>
      <trkpt lat="59.278604" lon="18.09252">
        <ele>35</ele>
        <time>2019-11-15T16:33:09Z</time>
      </trkpt>
      <trkpt lat="59.278665" lon="18.092494">
        <ele>35</ele>
        <time>2019-11-15T16:33:10Z</time>
      </trkpt>
      <trkpt lat="59.278724" lon="18.092466">
        <ele>35</ele>
        <time>2019-11-15T16:33:11Z</time>
      </trkpt>
      <trkpt lat="59.278781" lon="18.092439">
        <ele>35</ele>
        <time>2019-11-15T16:33:12Z</time>
      </trkpt>
      <trkpt lat="59.278838" lon="18.092413">
        <ele>35</ele>
        <time>2019-11-15T16:33:13Z</time>
      </trkpt>
      <trkpt lat="59.278894" lon="18.092388">
        <ele>35</ele>
        <time>2019-11-15T16:33:14Z</time>
      </trkpt>
      <trkpt lat="59.27895" lon="18.092365">
        <ele>35</ele>
        <time>2019-11-15T16:33:15Z</time>
      </trkpt>
      <trkpt lat="59.279007" lon="18.092346">
        <ele>35</ele>
        <time>2019-11-15T16:33:16Z</time>
      </trkpt>
      <trkpt lat="59.27906" lon="18.092327">
        <ele>35</ele>
        <time>2019-11-15T16:33:17Z</time>
      </trkpt>
      <trkpt lat="59.279108" lon="18.092311">
        <ele>35</ele>
        <time>2019-11-15T16:33:18Z</time>
      </trkpt>
      <trkpt lat="59.279147" lon="18.092301">
        <ele>35</ele>
        <time>2019-11-15T16:33:19Z</time>
      </trkpt>
      <trkpt lat="59.279176" lon="18.092297">
        <ele>35</ele>
        <time>2019-11-15T16:33:20Z</time>
      </trkpt>
      <trkpt lat="59.279201" lon="18.092295">
        <ele>35</ele>
        <time>2019-11-15T16:33:21Z</time>
      </trkpt>
      <trkpt lat="59.279219" lon="18.092301">
        <ele>35</ele>
        <time>2019-11-15T16:33:22Z</time>
      </trkpt>
      <trkpt lat="59.279243" lon="18.092306">
        <ele>35</ele>
        <time>2019-11-15T16:33:24Z</time>
      </trkpt>
      <trkpt lat="59.279269" lon="18.092298">
        <ele>35</ele>
        <time>2019-11-15T16:33:28Z</time>
      </trkpt>
      <trkpt lat="59.279296" lon="18.092281">
        <ele>36</ele>
        <time>2019-11-15T16:33:29Z</time>
      </trkpt>
      <trkpt lat="59.279326" lon="18.092265">
        <ele>36</ele>
        <time>2019-11-15T16:33:30Z</time>
      </trkpt>
      <trkpt lat="59.279362" lon="18.092244">
        <ele>36</ele>
        <time>2019-11-15T16:33:31Z</time>
      </trkpt>
      <trkpt lat="59.279407" lon="18.092222">
        <ele>36</ele>
        <time>2019-11-15T16:33:32Z</time>
      </trkpt>
      <trkpt lat="59.279456" lon="18.0922">
        <ele>36</ele>
        <time>2019-11-15T16:33:33Z</time>
      </trkpt>
      <trkpt lat="59.27951" lon="18.092176">
        <ele>36</ele>
        <time>2019-11-15T16:33:34Z</time>
      </trkpt>
      <trkpt lat="59.279564" lon="18.092152">
        <ele>36</ele>
        <time>2019-11-15T16:33:35Z</time>
      </trkpt>
      <trkpt lat="59.27962" lon="18.092127">
        <ele>36</ele>
        <time>2019-11-15T16:33:36Z</time>
      </trkpt>
      <trkpt lat="59.279674" lon="18.092098">
        <ele>36</ele>
        <time>2019-11-15T16:33:37Z</time>
      </trkpt>
      <trkpt lat="59.279727" lon="18.092064">
        <ele>37</ele>
        <time>2019-11-15T16:33:38Z</time>
      </trkpt>
      <trkpt lat="59.27978" lon="18.09203">
        <ele>37</ele>
        <time>2019-11-15T16:33:39Z</time>
      </trkpt>
      <trkpt lat="59.279835" lon="18.092003">
        <ele>36</ele>
        <time>2019-11-15T16:33:40Z</time>
      </trkpt>
      <trkpt lat="59.279891" lon="18.091981">
        <ele>36</ele>
        <time>2019-11-15T16:33:41Z</time>
      </trkpt>
      <trkpt lat="59.279947" lon="18.091961">
        <ele>36</ele>
        <time>2019-11-15T16:33:42Z</time>
      </trkpt>
      <trkpt lat="59.280003" lon="18.091941">
        <ele>36</ele>
        <time>2019-11-15T16:33:43Z</time>
      </trkpt>
      <trkpt lat="59.28006" lon="18.091924">
        <ele>36</ele>
        <time>2019-11-15T16:33:44Z</time>
      </trkpt>
      <trkpt lat="59.280117" lon="18.091908">
        <ele>36</ele>
        <time>2019-11-15T16:33:45Z</time>
      </trkpt>
      <trkpt lat="59.280176" lon="18.091889">
        <ele>36</ele>
        <time>2019-11-15T16:33:46Z</time>
      </trkpt>
      <trkpt lat="59.280234" lon="18.091869">
        <ele>36</ele>
        <time>2019-11-15T16:33:47Z</time>
      </trkpt>
      <trkpt lat="59.280292" lon="18.091848">
        <ele>36</ele>
        <time>2019-11-15T16:33:48Z</time>
      </trkpt>
      <trkpt lat="59.280352" lon="18.091831">
        <ele>36</ele>
        <time>2019-11-15T16:33:49Z</time>
      </trkpt>
      <trkpt lat="59.280412" lon="18.091815">
        <ele>36</ele>
        <time>2019-11-15T16:33:50Z</time>
      </trkpt>
      <trkpt lat="59.280472" lon="18.091796">
        <ele>36</ele>
        <time>2019-11-15T16:33:51Z</time>
      </trkpt>
      <trkpt lat="59.280531" lon="18.091777">
        <ele>36</ele>
        <time>2019-11-15T16:33:52Z</time>
      </trkpt>
      <trkpt lat="59.28059" lon="18.091758">
        <ele>36</ele>
        <time>2019-11-15T16:33:53Z</time>
      </trkpt>
      <trkpt lat="59.28065" lon="18.09174">
        <ele>36</ele>
        <time>2019-11-15T16:33:54Z</time>
      </trkpt>
      <trkpt lat="59.28071" lon="18.09172">
        <ele>35</ele>
        <time>2019-11-15T16:33:55Z</time>
      </trkpt>
      <trkpt lat="59.280771" lon="18.0917">
        <ele>35</ele>
        <time>2019-11-15T16:33:56Z</time>
      </trkpt>
      <trkpt lat="59.280831" lon="18.091679">
        <ele>35</ele>
        <time>2019-11-15T16:33:57Z</time>
      </trkpt>
      <trkpt lat="59.280892" lon="18.091657">
        <ele>35</ele>
        <time>2019-11-15T16:33:58Z</time>
      </trkpt>
      <trkpt lat="59.280953" lon="18.091634">
        <ele>35</ele>
        <time>2019-11-15T16:33:59Z</time>
      </trkpt>
      <trkpt lat="59.281014" lon="18.091613">
        <ele>35</ele>
        <time>2019-11-15T16:34:00Z</time>
      </trkpt>
      <trkpt lat="59.281075" lon="18.091593">
        <ele>35</ele>
        <time>2019-11-15T16:34:01Z</time>
      </trkpt>
      <trkpt lat="59.281136" lon="18.091573">
        <ele>35</ele>
        <time>2019-11-15T16:34:02Z</time>
      </trkpt>
      <trkpt lat="59.281198" lon="18.091553">
        <ele>35</ele>
        <time>2019-11-15T16:34:03Z</time>
      </trkpt>
      <trkpt lat="59.281259" lon="18.09153">
        <ele>35</ele>
        <time>2019-11-15T16:34:04Z</time>
      </trkpt>
      <trkpt lat="59.28132" lon="18.091509">
        <ele>34</ele>
        <time>2019-11-15T16:34:05Z</time>
      </trkpt>
      <trkpt lat="59.281381" lon="18.09149">
        <ele>34</ele>
        <time>2019-11-15T16:34:06Z</time>
      </trkpt>
      <trkpt lat="59.281443" lon="18.091471">
        <ele>34</ele>
        <time>2019-11-15T16:34:07Z</time>
      </trkpt>
      <trkpt lat="59.281504" lon="18.091451">
        <ele>34</ele>
        <time>2019-11-15T16:34:08Z</time>
      </trkpt>
      <trkpt lat="59.281566" lon="18.091431">
        <ele>34</ele>
        <time>2019-11-15T16:34:09Z</time>
      </trkpt>
      <trkpt lat="59.281628" lon="18.091415">
        <ele>34</ele>
        <time>2019-11-15T16:34:10Z</time>
      </trkpt>
      <trkpt lat="59.281688" lon="18.091397">
        <ele>34</ele>
        <time>2019-11-15T16:34:11Z</time>
      </trkpt>
      <trkpt lat="59.28175" lon="18.091377">
        <ele>34</ele>
        <time>2019-11-15T16:34:12Z</time>
      </trkpt>
      <trkpt lat="59.281809" lon="18.091356">
        <ele>34</ele>
        <time>2019-11-15T16:34:13Z</time>
      </trkpt>
      <trkpt lat="59.28187" lon="18.091335">
        <ele>34</ele>
        <time>2019-11-15T16:34:14Z</time>
      </trkpt>
      <trkpt lat="59.28193" lon="18.091313">
        <ele>34</ele>
        <time>2019-11-15T16:34:15Z</time>
      </trkpt>
      <trkpt lat="59.281992" lon="18.091296">
        <ele>34</ele>
        <time>2019-11-15T16:34:16Z</time>
      </trkpt>
      <trkpt lat="59.282054" lon="18.091277">
        <ele>34</ele>
        <time>2019-11-15T16:34:17Z</time>
      </trkpt>
      <trkpt lat="59.282114" lon="18.091257">
        <ele>34</ele>
        <time>2019-11-15T16:34:18Z</time>
      </trkpt>
      <trkpt lat="59.282175" lon="18.091239">
        <ele>34</ele>
        <time>2019-11-15T16:34:19Z</time>
      </trkpt>
      <trkpt lat="59.282236" lon="18.09122">
        <ele>34</ele>
        <time>2019-11-15T16:34:20Z</time>
      </trkpt>
      <trkpt lat="59.282294" lon="18.091197">
        <ele>34</ele>
        <time>2019-11-15T16:34:21Z</time>
      </trkpt>
      <trkpt lat="59.282353" lon="18.091173">
        <ele>34</ele>
        <time>2019-11-15T16:34:22Z</time>
      </trkpt>
      <trkpt lat="59.282411" lon="18.091148">
        <ele>34</ele>
        <time>2019-11-15T16:34:23Z</time>
      </trkpt>
      <trkpt lat="59.282469" lon="18.09112">
        <ele>35</ele>
        <time>2019-11-15T16:34:24Z</time>
      </trkpt>
      <trkpt lat="59.282526" lon="18.09109">
        <ele>35</ele>
        <time>2019-11-15T16:34:25Z</time>
      </trkpt>
      <trkpt lat="59.282582" lon="18.091061">
        <ele>35</ele>
        <time>2019-11-15T16:34:26Z</time>
      </trkpt>
      <trkpt lat="59.282639" lon="18.091032">
        <ele>35</ele>
        <time>2019-11-15T16:34:27Z</time>
      </trkpt>
      <trkpt lat="59.282697" lon="18.091002">
        <ele>35</ele>
        <time>2019-11-15T16:34:28Z</time>
      </trkpt>
      <trkpt lat="59.282752" lon="18.090977">
        <ele>35</ele>
        <time>2019-11-15T16:34:29Z</time>
      </trkpt>
      <trkpt lat="59.282806" lon="18.090953">
        <ele>35</ele>
        <time>2019-11-15T16:34:30Z</time>
      </trkpt>
      <trkpt lat="59.282856" lon="18.090929">
        <ele>35</ele>
        <time>2019-11-15T16:34:31Z</time>
      </trkpt>
      <trkpt lat="59.282908" lon="18.090902">
        <ele>35</ele>
        <time>2019-11-15T16:34:32Z</time>
      </trkpt>
      <trkpt lat="59.282968" lon="18.09087">
        <ele>34</ele>
        <time>2019-11-15T16:34:33Z</time>
      </trkpt>
      <trkpt lat="59.283027" lon="18.090842">
        <ele>34</ele>
        <time>2019-11-15T16:34:34Z</time>
      </trkpt>
      <trkpt lat="59.28309" lon="18.09082">
        <ele>34</ele>
        <time>2019-11-15T16:34:35Z</time>
      </trkpt>
      <trkpt lat="59.283153" lon="18.090786">
        <ele>35</ele>
        <time>2019-11-15T16:34:36Z</time>
      </trkpt>
      <trkpt lat="59.283218" lon="18.090753">
        <ele>34</ele>
        <time>2019-11-15T16:34:37Z</time>
      </trkpt>
      <trkpt lat="59.283276" lon="18.090721">
        <ele>35</ele>
        <time>2019-11-15T16:34:38Z</time>
      </trkpt>
      <trkpt lat="59.283336" lon="18.09069">
        <ele>35</ele>
        <time>2019-11-15T16:34:39Z</time>
      </trkpt>
      <trkpt lat="59.283396" lon="18.090659">
        <ele>35</ele>
        <time>2019-11-15T16:34:40Z</time>
      </trkpt>
      <trkpt lat="59.283454" lon="18.090627">
        <ele>35</ele>
        <time>2019-11-15T16:34:41Z</time>
      </trkpt>
      <trkpt lat="59.283514" lon="18.090602">
        <ele>35</ele>
        <time>2019-11-15T16:34:42Z</time>
      </trkpt>
      <trkpt lat="59.283573" lon="18.090574">
        <ele>35</ele>
        <time>2019-11-15T16:34:43Z</time>
      </trkpt>
      <trkpt lat="59.283632" lon="18.090542">
        <ele>35</ele>
        <time>2019-11-15T16:34:44Z</time>
      </trkpt>
      <trkpt lat="59.283691" lon="18.090511">
        <ele>35</ele>
        <time>2019-11-15T16:34:45Z</time>
      </trkpt>
      <trkpt lat="59.283749" lon="18.09048">
        <ele>35</ele>
        <time>2019-11-15T16:34:46Z</time>
      </trkpt>
      <trkpt lat="59.283804" lon="18.090453">
        <ele>35</ele>
        <time>2019-11-15T16:34:47Z</time>
      </trkpt>
      <trkpt lat="59.283862" lon="18.090434">
        <ele>35</ele>
        <time>2019-11-15T16:34:48Z</time>
      </trkpt>
      <trkpt lat="59.283914" lon="18.090407">
        <ele>36</ele>
        <time>2019-11-15T16:34:49Z</time>
      </trkpt>
      <trkpt lat="59.283966" lon="18.090373">
        <ele>36</ele>
        <time>2019-11-15T16:34:50Z</time>
      </trkpt>
      <trkpt lat="59.28402" lon="18.090341">
        <ele>36</ele>
        <time>2019-11-15T16:34:51Z</time>
      </trkpt>
      <trkpt lat="59.284074" lon="18.090311">
        <ele>36</ele>
        <time>2019-11-15T16:34:52Z</time>
      </trkpt>
      <trkpt lat="59.284128" lon="18.090277">
        <ele>36</ele>
        <time>2019-11-15T16:34:53Z</time>
      </trkpt>
      <trkpt lat="59.284184" lon="18.090246">
        <ele>36</ele>
        <time>2019-11-15T16:34:54Z</time>
      </trkpt>
      <trkpt lat="59.284239" lon="18.090218">
        <ele>36</ele>
        <time>2019-11-15T16:34:55Z</time>
      </trkpt>
      <trkpt lat="59.284294" lon="18.090189">
        <ele>36</ele>
        <time>2019-11-15T16:34:56Z</time>
      </trkpt>
      <trkpt lat="59.284349" lon="18.09016">
        <ele>36</ele>
        <time>2019-11-15T16:34:57Z</time>
      </trkpt>
      <trkpt lat="59.284406" lon="18.09013">
        <ele>36</ele>
        <time>2019-11-15T16:34:58Z</time>
      </trkpt>
      <trkpt lat="59.28446" lon="18.090101">
        <ele>36</ele>
        <time>2019-11-15T16:34:59Z</time>
      </trkpt>
      <trkpt lat="59.284511" lon="18.090074">
        <ele>36</ele>
        <time>2019-11-15T16:35:00Z</time>
      </trkpt>
      <trkpt lat="59.284566" lon="18.090046">
        <ele>36</ele>
        <time>2019-11-15T16:35:01Z</time>
      </trkpt>
      <trkpt lat="59.284623" lon="18.090016">
        <ele>36</ele>
        <time>2019-11-15T16:35:01Z</time>
      </trkpt>
      <trkpt lat="59.28468" lon="18.089982">
        <ele>36</ele>
        <time>2019-11-15T16:35:02Z</time>
      </trkpt>
      <trkpt lat="59.28474" lon="18.089957">
        <ele>36</ele>
        <time>2019-11-15T16:35:04Z</time>
      </trkpt>
      <trkpt lat="59.2848" lon="18.089935">
        <ele>36</ele>
        <time>2019-11-15T16:35:05Z</time>
      </trkpt>
      <trkpt lat="59.284858" lon="18.089909">
        <ele>36</ele>
        <time>2019-11-15T16:35:06Z</time>
      </trkpt>
      <trkpt lat="59.284916" lon="18.089884">
        <ele>36</ele>
        <time>2019-11-15T16:35:07Z</time>
      </trkpt>
      <trkpt lat="59.284973" lon="18.089858">
        <ele>36</ele>
        <time>2019-11-15T16:35:08Z</time>
      </trkpt>
      <trkpt lat="59.28503" lon="18.089831">
        <ele>36</ele>
        <time>2019-11-15T16:35:09Z</time>
      </trkpt>
      <trkpt lat="59.285086" lon="18.089802">
        <ele>36</ele>
        <time>2019-11-15T16:35:10Z</time>
      </trkpt>
      <trkpt lat="59.285143" lon="18.089775">
        <ele>36</ele>
        <time>2019-11-15T16:35:11Z</time>
      </trkpt>
      <trkpt lat="59.2852" lon="18.08975">
        <ele>36</ele>
        <time>2019-11-15T16:35:12Z</time>
      </trkpt>
      <trkpt lat="59.285257" lon="18.089728">
        <ele>36</ele>
        <time>2019-11-15T16:35:13Z</time>
      </trkpt>
      <trkpt lat="59.285312" lon="18.0897">
        <ele>36</ele>
        <time>2019-11-15T16:35:14Z</time>
      </trkpt>
      <trkpt lat="59.285368" lon="18.089671">
        <ele>36</ele>
        <time>2019-11-15T16:35:15Z</time>
      </trkpt>
      <trkpt lat="59.285424" lon="18.089643">
        <ele>36</ele>
        <time>2019-11-15T16:35:16Z</time>
      </trkpt>
      <trkpt lat="59.28548" lon="18.089615">
        <ele>35</ele>
        <time>2019-11-15T16:35:17Z</time>
      </trkpt>
      <trkpt lat="59.285535" lon="18.089587">
        <ele>36</ele>
        <time>2019-11-15T16:35:18Z</time>
      </trkpt>
      <trkpt lat="59.285589" lon="18.089557">
        <ele>36</ele>
        <time>2019-11-15T16:35:19Z</time>
      </trkpt>
      <trkpt lat="59.285642" lon="18.089528">
        <ele>36</ele>
        <time>2019-11-15T16:35:20Z</time>
      </trkpt>
      <trkpt lat="59.285695" lon="18.0895">
        <ele>36</ele>
        <time>2019-11-15T16:35:21Z</time>
      </trkpt>
      <trkpt lat="59.28575" lon="18.089473">
        <ele>36</ele>
        <time>2019-11-15T16:35:22Z</time>
      </trkpt>
      <trkpt lat="59.285803" lon="18.089448">
        <ele>36</ele>
        <time>2019-11-15T16:35:23Z</time>
      </trkpt>
      <trkpt lat="59.285855" lon="18.089423">
        <ele>35</ele>
        <time>2019-11-15T16:35:24Z</time>
      </trkpt>
      <trkpt lat="59.285908" lon="18.089397">
        <ele>35</ele>
        <time>2019-11-15T16:35:25Z</time>
      </trkpt>
      <trkpt lat="59.285963" lon="18.08937">
        <ele>35</ele>
        <time>2019-11-15T16:35:26Z</time>
      </trkpt>
      <trkpt lat="59.286017" lon="18.089345">
        <ele>35</ele>
        <time>2019-11-15T16:35:27Z</time>
      </trkpt>
      <trkpt lat="59.286072" lon="18.089326">
        <ele>35</ele>
        <time>2019-11-15T16:35:28Z</time>
      </trkpt>
      <trkpt lat="59.286126" lon="18.089304">
        <ele>35</ele>
        <time>2019-11-15T16:35:29Z</time>
      </trkpt>
      <trkpt lat="59.286182" lon="18.089282">
        <ele>35</ele>
        <time>2019-11-15T16:35:30Z</time>
      </trkpt>
      <trkpt lat="59.286238" lon="18.089256">
        <ele>35</ele>
        <time>2019-11-15T16:35:31Z</time>
      </trkpt>
      <trkpt lat="59.286294" lon="18.089231">
        <ele>34</ele>
        <time>2019-11-15T16:35:32Z</time>
      </trkpt>
      <trkpt lat="59.286349" lon="18.089209">
        <ele>34</ele>
        <time>2019-11-15T16:35:33Z</time>
      </trkpt>
      <trkpt lat="59.286405" lon="18.089187">
        <ele>34</ele>
        <time>2019-11-15T16:35:34Z</time>
      </trkpt>
      <trkpt lat="59.286462" lon="18.089169">
        <ele>34</ele>
        <time>2019-11-15T16:35:35Z</time>
      </trkpt>
      <trkpt lat="59.286519" lon="18.089153">
        <ele>34</ele>
        <time>2019-11-15T16:35:36Z</time>
      </trkpt>
      <trkpt lat="59.286575" lon="18.089136">
        <ele>34</ele>
        <time>2019-11-15T16:35:37Z</time>
      </trkpt>
      <trkpt lat="59.28663" lon="18.089117">
        <ele>34</ele>
        <time>2019-11-15T16:35:38Z</time>
      </trkpt>
      <trkpt lat="59.286686" lon="18.089097">
        <ele>34</ele>
        <time>2019-11-15T16:35:39Z</time>
      </trkpt>
      <trkpt lat="59.286742" lon="18.089077">
        <ele>34</ele>
        <time>2019-11-15T16:35:40Z</time>
      </trkpt>
      <trkpt lat="59.286797" lon="18.089056">
        <ele>34</ele>
        <time>2019-11-15T16:35:41Z</time>
      </trkpt>
      <trkpt lat="59.286852" lon="18.089033">
        <ele>34</ele>
        <time>2019-11-15T16:35:42Z</time>
      </trkpt>
      <trkpt lat="59.286906" lon="18.089006">
        <ele>34</ele>
        <time>2019-11-15T16:35:43Z</time>
      </trkpt>
      <trkpt lat="59.286959" lon="18.088975">
        <ele>34</ele>
        <time>2019-11-15T16:35:44Z</time>
      </trkpt>
      <trkpt lat="59.28701" lon="18.088941">
        <ele>34</ele>
        <time>2019-11-15T16:35:45Z</time>
      </trkpt>
      <trkpt lat="59.28706" lon="18.088906">
        <ele>34</ele>
        <time>2019-11-15T16:35:46Z</time>
      </trkpt>
      <trkpt lat="59.28711" lon="18.088877">
        <ele>34</ele>
        <time>2019-11-15T16:35:47Z</time>
      </trkpt>
      <trkpt lat="59.28716" lon="18.088851">
        <ele>35</ele>
        <time>2019-11-15T16:35:48Z</time>
      </trkpt>
      <trkpt lat="59.28721" lon="18.088825">
        <ele>35</ele>
        <time>2019-11-15T16:35:49Z</time>
      </trkpt>
      <trkpt lat="59.287259" lon="18.088799">
        <ele>35</ele>
        <time>2019-11-15T16:35:50Z</time>
      </trkpt>
      <trkpt lat="59.287306" lon="18.088774">
        <ele>35</ele>
        <time>2019-11-15T16:35:51Z</time>
      </trkpt>
      <trkpt lat="59.287353" lon="18.088751">
        <ele>35</ele>
        <time>2019-11-15T16:35:52Z</time>
      </trkpt>
      <trkpt lat="59.287397" lon="18.08874">
        <ele>35</ele>
        <time>2019-11-15T16:35:53Z</time>
      </trkpt>
      <trkpt lat="59.287439" lon="18.088752">
        <ele>35</ele>
        <time>2019-11-15T16:35:54Z</time>
      </trkpt>
      <trkpt lat="59.287475" lon="18.08881">
        <ele>35</ele>
        <time>2019-11-15T16:35:55Z</time>
      </trkpt>
      <trkpt lat="59.287501" lon="18.088896">
        <ele>35</ele>
        <time>2019-11-15T16:35:56Z</time>
      </trkpt>
      <trkpt lat="59.287525" lon="18.088981">
        <ele>34</ele>
        <time>2019-11-15T16:35:57Z</time>
      </trkpt>
      <trkpt lat="59.287554" lon="18.08906">
        <ele>35</ele>
        <time>2019-11-15T16:35:58Z</time>
      </trkpt>
      <trkpt lat="59.287588" lon="18.089117">
        <ele>35</ele>
        <time>2019-11-15T16:35:59Z</time>
      </trkpt>
      <trkpt lat="59.287629" lon="18.089151">
        <ele>35</ele>
        <time>2019-11-15T16:36:00Z</time>
      </trkpt>
      <trkpt lat="59.287672" lon="18.089164">
        <ele>35</ele>
        <time>2019-11-15T16:36:01Z</time>
      </trkpt>
      <trkpt lat="59.287715" lon="18.089166">
        <ele>36</ele>
        <time>2019-11-15T16:36:02Z</time>
      </trkpt>
      <trkpt lat="59.287759" lon="18.08917">
        <ele>36</ele>
        <time>2019-11-15T16:36:03Z</time>
      </trkpt>
      <trkpt lat="59.287805" lon="18.08917">
        <ele>36</ele>
        <time>2019-11-15T16:36:04Z</time>
      </trkpt>
      <trkpt lat="59.287851" lon="18.08916">
        <ele>36</ele>
        <time>2019-11-15T16:36:05Z</time>
      </trkpt>
      <trkpt lat="59.287897" lon="18.08914">
        <ele>36</ele>
        <time>2019-11-15T16:36:06Z</time>
      </trkpt>
      <trkpt lat="59.287945" lon="18.089114">
        <ele>36</ele>
        <time>2019-11-15T16:36:07Z</time>
      </trkpt>
      <trkpt lat="59.287995" lon="18.089085">
        <ele>36</ele>
        <time>2019-11-15T16:36:08Z</time>
      </trkpt>
      <trkpt lat="59.288045" lon="18.089056">
        <ele>36</ele>
        <time>2019-11-15T16:36:09Z</time>
      </trkpt>
      <trkpt lat="59.288095" lon="18.089028">
        <ele>37</ele>
        <time>2019-11-15T16:36:10Z</time>
      </trkpt>
      <trkpt lat="59.288147" lon="18.089">
        <ele>37</ele>
        <time>2019-11-15T16:36:11Z</time>
      </trkpt>
      <trkpt lat="59.288196" lon="18.08897">
        <ele>37</ele>
        <time>2019-11-15T16:36:12Z</time>
      </trkpt>
      <trkpt lat="59.288243" lon="18.088942">
        <ele>37</ele>
        <time>2019-11-15T16:36:13Z</time>
      </trkpt>
      <trkpt lat="59.28829" lon="18.088918">
        <ele>37</ele>
        <time>2019-11-15T16:36:14Z</time>
      </trkpt>
      <trkpt lat="59.288333" lon="18.088896">
        <ele>37</ele>
        <time>2019-11-15T16:36:15Z</time>
      </trkpt>
      <trkpt lat="59.288374" lon="18.088876">
        <ele>37</ele>
        <time>2019-11-15T16:36:16Z</time>
      </trkpt>
      <trkpt lat="59.288409" lon="18.088854">
        <ele>37</ele>
        <time>2019-11-15T16:36:17Z</time>
      </trkpt>
      <trkpt lat="59.288441" lon="18.08884">
        <ele>37</ele>
        <time>2019-11-15T16:36:18Z</time>
      </trkpt>
      <trkpt lat="59.288471" lon="18.088828">
        <ele>37</ele>
        <time>2019-11-15T16:36:19Z</time>
      </trkpt>
      <trkpt lat="59.288498" lon="18.088817">
        <ele>37</ele>
        <time>2019-11-15T16:36:20Z</time>
      </trkpt>
      <trkpt lat="59.28852" lon="18.08881">
        <ele>37</ele>
        <time>2019-11-15T16:36:21Z</time>
      </trkpt>
      <trkpt lat="59.288544" lon="18.088802">
        <ele>37</ele>
        <time>2019-11-15T16:36:23Z</time>
      </trkpt>
      <trkpt lat="59.288554" lon="18.088803">
        <ele>0</ele>
        <time>2019-11-15T16:36:28Z</time>
      </trkpt>
      <trkpt lat="59.288627" lon="18.088778">
        <ele>37</ele>
        <time>2019-11-15T16:36:48Z</time>
      </trkpt>
      <trkpt lat="59.28866" lon="18.088769">
        <ele>37</ele>
        <time>2019-11-15T16:36:49Z</time>
      </trkpt>
      <trkpt lat="59.288694" lon="18.088754">
        <ele>37</ele>
        <time>2019-11-15T16:36:50Z</time>
      </trkpt>
      <trkpt lat="59.288727" lon="18.088726">
        <ele>37</ele>
        <time>2019-11-15T16:36:51Z</time>
      </trkpt>
      <trkpt lat="59.288753" lon="18.088679">
        <ele>37</ele>
        <time>2019-11-15T16:36:52Z</time>
      </trkpt>
      <trkpt lat="59.288766" lon="18.08861">
        <ele>37</ele>
        <time>2019-11-15T16:36:53Z</time>
      </trkpt>
      <trkpt lat="59.288772" lon="18.08853">
        <ele>37</ele>
        <time>2019-11-15T16:36:54Z</time>
      </trkpt>
      <trkpt lat="59.288785" lon="18.08845">
        <ele>37</ele>
        <time>2019-11-15T16:36:55Z</time>
      </trkpt>
      <trkpt lat="59.288807" lon="18.088374">
        <ele>37</ele>
        <time>2019-11-15T16:36:56Z</time>
      </trkpt>
      <trkpt lat="59.28884" lon="18.088314">
        <ele>37</ele>
        <time>2019-11-15T16:36:57Z</time>
      </trkpt>
      <trkpt lat="59.288883" lon="18.088278">
        <ele>37</ele>
        <time>2019-11-15T16:36:58Z</time>
      </trkpt>
      <trkpt lat="59.288935" lon="18.088256">
        <ele>37</ele>
        <time>2019-11-15T16:36:59Z</time>
      </trkpt>
      <trkpt lat="59.288989" lon="18.088234">
        <ele>37</ele>
        <time>2019-11-15T16:37:00Z</time>
      </trkpt>
      <trkpt lat="59.289044" lon="18.08821">
        <ele>37</ele>
        <time>2019-11-15T16:37:01Z</time>
      </trkpt>
      <trkpt lat="59.289099" lon="18.088183">
        <ele>37</ele>
        <time>2019-11-15T16:37:02Z</time>
      </trkpt>
      <trkpt lat="59.289154" lon="18.088155">
        <ele>37</ele>
        <time>2019-11-15T16:37:03Z</time>
      </trkpt>
      <trkpt lat="59.289208" lon="18.088128">
        <ele>36</ele>
        <time>2019-11-15T16:37:04Z</time>
      </trkpt>
      <trkpt lat="59.289262" lon="18.088103">
        <ele>36</ele>
        <time>2019-11-15T16:37:05Z</time>
      </trkpt>
      <trkpt lat="59.289315" lon="18.088078">
        <ele>36</ele>
        <time>2019-11-15T16:37:06Z</time>
      </trkpt>
      <trkpt lat="59.289368" lon="18.088053">
        <ele>36</ele>
        <time>2019-11-15T16:37:07Z</time>
      </trkpt>
      <trkpt lat="59.28942" lon="18.088027">
        <ele>36</ele>
        <time>2019-11-15T16:37:08Z</time>
      </trkpt>
      <trkpt lat="59.289471" lon="18.088003">
        <ele>36</ele>
        <time>2019-11-15T16:37:09Z</time>
      </trkpt>
      <trkpt lat="59.289523" lon="18.087981">
        <ele>36</ele>
        <time>2019-11-15T16:37:10Z</time>
      </trkpt>
      <trkpt lat="59.289574" lon="18.087956">
        <ele>36</ele>
        <time>2019-11-15T16:37:11Z</time>
      </trkpt>
      <trkpt lat="59.289625" lon="18.087931">
        <ele>36</ele>
        <time>2019-11-15T16:37:12Z</time>
      </trkpt>
      <trkpt lat="59.289675" lon="18.087905">
        <ele>36</ele>
        <time>2019-11-15T16:37:13Z</time>
      </trkpt>
      <trkpt lat="59.289725" lon="18.087878">
        <ele>37</ele>
        <time>2019-11-15T16:37:14Z</time>
      </trkpt>
      <trkpt lat="59.289775" lon="18.087851">
        <ele>37</ele>
        <time>2019-11-15T16:37:15Z</time>
      </trkpt>
      <trkpt lat="59.289825" lon="18.087824">
        <ele>37</ele>
        <time>2019-11-15T16:37:16Z</time>
      </trkpt>
      <trkpt lat="59.289874" lon="18.087797">
        <ele>37</ele>
        <time>2019-11-15T16:37:17Z</time>
      </trkpt>
      <trkpt lat="59.289922" lon="18.087765">
        <ele>37</ele>
        <time>2019-11-15T16:37:18Z</time>
      </trkpt>
      <trkpt lat="59.289969" lon="18.087725">
        <ele>37</ele>
        <time>2019-11-15T16:37:19Z</time>
      </trkpt>
      <trkpt lat="59.290016" lon="18.087679">
        <ele>37</ele>
        <time>2019-11-15T16:37:20Z</time>
      </trkpt>
      <trkpt lat="59.290063" lon="18.087629">
        <ele>37</ele>
        <time>2019-11-15T16:37:21Z</time>
      </trkpt>
      <trkpt lat="59.290112" lon="18.087583">
        <ele>37</ele>
        <time>2019-11-15T16:37:22Z</time>
      </trkpt>
      <trkpt lat="59.290162" lon="18.087544">
        <ele>37</ele>
        <time>2019-11-15T16:37:23Z</time>
      </trkpt>
      <trkpt lat="59.290212" lon="18.087506">
        <ele>37</ele>
        <time>2019-11-15T16:37:24Z</time>
      </trkpt>
      <trkpt lat="59.290262" lon="18.087468">
        <ele>38</ele>
        <time>2019-11-15T16:37:25Z</time>
      </trkpt>
      <trkpt lat="59.290311" lon="18.087431">
        <ele>38</ele>
        <time>2019-11-15T16:37:26Z</time>
      </trkpt>
      <trkpt lat="59.29036" lon="18.087395">
        <ele>38</ele>
        <time>2019-11-15T16:37:27Z</time>
      </trkpt>
      <trkpt lat="59.29041" lon="18.087358">
        <ele>38</ele>
        <time>2019-11-15T16:37:28Z</time>
      </trkpt>
      <trkpt lat="59.290461" lon="18.087322">
        <ele>38</ele>
        <time>2019-11-15T16:37:29Z</time>
      </trkpt>
      <trkpt lat="59.290512" lon="18.087289">
        <ele>38</ele>
        <time>2019-11-15T16:37:30Z</time>
      </trkpt>
      <trkpt lat="59.290563" lon="18.087258">
        <ele>38</ele>
        <time>2019-11-15T16:37:31Z</time>
      </trkpt>
      <trkpt lat="59.290613" lon="18.087226">
        <ele>38</ele>
        <time>2019-11-15T16:37:32Z</time>
      </trkpt>
      <trkpt lat="59.290664" lon="18.087195">
        <ele>38</ele>
        <time>2019-11-15T16:37:33Z</time>
      </trkpt>
      <trkpt lat="59.290714" lon="18.087166">
        <ele>38</ele>
        <time>2019-11-15T16:37:34Z</time>
      </trkpt>
      <trkpt lat="59.290763" lon="18.087139">
        <ele>38</ele>
        <time>2019-11-15T16:37:35Z</time>
      </trkpt>
      <trkpt lat="59.290811" lon="18.087112">
        <ele>38</ele>
        <time>2019-11-15T16:37:36Z</time>
      </trkpt>
      <trkpt lat="59.290858" lon="18.087083">
        <ele>38</ele>
        <time>2019-11-15T16:37:37Z</time>
      </trkpt>
      <trkpt lat="59.290905" lon="18.087057">
        <ele>38</ele>
        <time>2019-11-15T16:37:38Z</time>
      </trkpt>
      <trkpt lat="59.290951" lon="18.087032">
        <ele>39</ele>
        <time>2019-11-15T16:37:39Z</time>
      </trkpt>
      <trkpt lat="59.290997" lon="18.087006">
        <ele>39</ele>
        <time>2019-11-15T16:37:40Z</time>
      </trkpt>
      <trkpt lat="59.291042" lon="18.086981">
        <ele>39</ele>
        <time>2019-11-15T16:37:41Z</time>
      </trkpt>
      <trkpt lat="59.291087" lon="18.086958">
        <ele>39</ele>
        <time>2019-11-15T16:37:42Z</time>
      </trkpt>
      <trkpt lat="59.291131" lon="18.086936">
        <ele>39</ele>
        <time>2019-11-15T16:37:43Z</time>
      </trkpt>
      <trkpt lat="59.291175" lon="18.08692">
        <ele>39</ele>
        <time>2019-11-15T16:37:44Z</time>
      </trkpt>
      <trkpt lat="59.291219" lon="18.086906">
        <ele>39</ele>
        <time>2019-11-15T16:37:45Z</time>
      </trkpt>
      <trkpt lat="59.291264" lon="18.086889">
        <ele>40</ele>
        <time>2019-11-15T16:37:46Z</time>
      </trkpt>
      <trkpt lat="59.291311" lon="18.086868">
        <ele>40</ele>
        <time>2019-11-15T16:37:47Z</time>
      </trkpt>
      <trkpt lat="59.291355" lon="18.086847">
        <ele>39</ele>
        <time>2019-11-15T16:37:48Z</time>
      </trkpt>
      <trkpt lat="59.2914" lon="18.086826">
        <ele>40</ele>
        <time>2019-11-15T16:37:49Z</time>
      </trkpt>
      <trkpt lat="59.291444" lon="18.086804">
        <ele>39</ele>
        <time>2019-11-15T16:37:50Z</time>
      </trkpt>
      <trkpt lat="59.291486" lon="18.086782">
        <ele>40</ele>
        <time>2019-11-15T16:37:51Z</time>
      </trkpt>
      <trkpt lat="59.291528" lon="18.086762">
        <ele>40</ele>
        <time>2019-11-15T16:37:52Z</time>
      </trkpt>
      <trkpt lat="59.29157" lon="18.086741">
        <ele>40</ele>
        <time>2019-11-15T16:37:53Z</time>
      </trkpt>
      <trkpt lat="59.291609" lon="18.086717">
        <ele>40</ele>
        <time>2019-11-15T16:37:54Z</time>
      </trkpt>
      <trkpt lat="59.29165" lon="18.086696">
        <ele>40</ele>
        <time>2019-11-15T16:37:55Z</time>
      </trkpt>
      <trkpt lat="59.29169" lon="18.086675">
        <ele>40</ele>
        <time>2019-11-15T16:37:56Z</time>
      </trkpt>
      <trkpt lat="59.291729" lon="18.086653">
        <ele>40</ele>
        <time>2019-11-15T16:37:57Z</time>
      </trkpt>
      <trkpt lat="59.291771" lon="18.086634">
        <ele>40</ele>
        <time>2019-11-15T16:37:58Z</time>
      </trkpt>
      <trkpt lat="59.291811" lon="18.086615">
        <ele>40</ele>
        <time>2019-11-15T16:37:59Z</time>
      </trkpt>
      <trkpt lat="59.291849" lon="18.086596">
        <ele>40</ele>
        <time>2019-11-15T16:38:00Z</time>
      </trkpt>
      <trkpt lat="59.291887" lon="18.086578">
        <ele>40</ele>
        <time>2019-11-15T16:38:01Z</time>
      </trkpt>
      <trkpt lat="59.291928" lon="18.086556">
        <ele>40</ele>
        <time>2019-11-15T16:38:02Z</time>
      </trkpt>
      <trkpt lat="59.291969" lon="18.086533">
        <ele>41</ele>
        <time>2019-11-15T16:38:03Z</time>
      </trkpt>
      <trkpt lat="59.29201" lon="18.086513">
        <ele>41</ele>
        <time>2019-11-15T16:38:04Z</time>
      </trkpt>
      <trkpt lat="59.29205" lon="18.08649">
        <ele>41</ele>
        <time>2019-11-15T16:38:05Z</time>
      </trkpt>
      <trkpt lat="59.29209" lon="18.086467">
        <ele>41</ele>
        <time>2019-11-15T16:38:06Z</time>
      </trkpt>
      <trkpt lat="59.292132" lon="18.08645">
        <ele>41</ele>
        <time>2019-11-15T16:38:07Z</time>
      </trkpt>
      <trkpt lat="59.292174" lon="18.08643">
        <ele>42</ele>
        <time>2019-11-15T16:38:08Z</time>
      </trkpt>
      <trkpt lat="59.292216" lon="18.086409">
        <ele>42</ele>
        <time>2019-11-15T16:38:09Z</time>
      </trkpt>
      <trkpt lat="59.292257" lon="18.086388">
        <ele>42</ele>
        <time>2019-11-15T16:38:10Z</time>
      </trkpt>
      <trkpt lat="59.292298" lon="18.086364">
        <ele>42</ele>
        <time>2019-11-15T16:38:11Z</time>
      </trkpt>
      <trkpt lat="59.292339" lon="18.08634">
        <ele>42</ele>
        <time>2019-11-15T16:38:12Z</time>
      </trkpt>
      <trkpt lat="59.292381" lon="18.086321">
        <ele>42</ele>
        <time>2019-11-15T16:38:13Z</time>
      </trkpt>
      <trkpt lat="59.292423" lon="18.086302">
        <ele>42</ele>
        <time>2019-11-15T16:38:14Z</time>
      </trkpt>
      <trkpt lat="59.292464" lon="18.086282">
        <ele>42</ele>
        <time>2019-11-15T16:38:15Z</time>
      </trkpt>
      <trkpt lat="59.292507" lon="18.086263">
        <ele>43</ele>
        <time>2019-11-15T16:38:16Z</time>
      </trkpt>
      <trkpt lat="59.292551" lon="18.086245">
        <ele>43</ele>
        <time>2019-11-15T16:38:17Z</time>
      </trkpt>
      <trkpt lat="59.292596" lon="18.086224">
        <ele>43</ele>
        <time>2019-11-15T16:38:18Z</time>
      </trkpt>
      <trkpt lat="59.292642" lon="18.086199">
        <ele>43</ele>
        <time>2019-11-15T16:38:19Z</time>
      </trkpt>
      <trkpt lat="59.292688" lon="18.086172">
        <ele>43</ele>
        <time>2019-11-15T16:38:20Z</time>
      </trkpt>
      <trkpt lat="59.292734" lon="18.086146">
        <ele>43</ele>
        <time>2019-11-15T16:38:21Z</time>
      </trkpt>
      <trkpt lat="59.292781" lon="18.08612">
        <ele>43</ele>
        <time>2019-11-15T16:38:22Z</time>
      </trkpt>
      <trkpt lat="59.292828" lon="18.086095">
        <ele>43</ele>
        <time>2019-11-15T16:38:23Z</time>
      </trkpt>
      <trkpt lat="59.292876" lon="18.086069">
        <ele>43</ele>
        <time>2019-11-15T16:38:24Z</time>
      </trkpt>
      <trkpt lat="59.292924" lon="18.086045">
        <ele>44</ele>
        <time>2019-11-15T16:38:25Z</time>
      </trkpt>
      <trkpt lat="59.292972" lon="18.086024">
        <ele>44</ele>
        <time>2019-11-15T16:38:26Z</time>
      </trkpt>
      <trkpt lat="59.29302" lon="18.086003">
        <ele>44</ele>
        <time>2019-11-15T16:38:27Z</time>
      </trkpt>
      <trkpt lat="59.293069" lon="18.085979">
        <ele>44</ele>
        <time>2019-11-15T16:38:28Z</time>
      </trkpt>
      <trkpt lat="59.293119" lon="18.085951">
        <ele>44</ele>
        <time>2019-11-15T16:38:29Z</time>
      </trkpt>
      <trkpt lat="59.293172" lon="18.085925">
        <ele>44</ele>
        <time>2019-11-15T16:38:30Z</time>
      </trkpt>
      <trkpt lat="59.293228" lon="18.085895">
        <ele>44</ele>
        <time>2019-11-15T16:38:31Z</time>
      </trkpt>
      <trkpt lat="59.293284" lon="18.085863">
        <ele>44</ele>
        <time>2019-11-15T16:38:32Z</time>
      </trkpt>
      <trkpt lat="59.293338" lon="18.08583">
        <ele>44</ele>
        <time>2019-11-15T16:38:33Z</time>
      </trkpt>
      <trkpt lat="59.293391" lon="18.085793">
        <ele>44</ele>
        <time>2019-11-15T16:38:34Z</time>
      </trkpt>
      <trkpt lat="59.293445" lon="18.085755">
        <ele>44</ele>
        <time>2019-11-15T16:38:35Z</time>
      </trkpt>
      <trkpt lat="59.293499" lon="18.085718">
        <ele>44</ele>
        <time>2019-11-15T16:38:36Z</time>
      </trkpt>
      <trkpt lat="59.293554" lon="18.085688">
        <ele>44</ele>
        <time>2019-11-15T16:38:37Z</time>
      </trkpt>
      <trkpt lat="59.29361" lon="18.085659">
        <ele>44</ele>
        <time>2019-11-15T16:38:38Z</time>
      </trkpt>
      <trkpt lat="59.293667" lon="18.08563">
        <ele>44</ele>
        <time>2019-11-15T16:38:39Z</time>
      </trkpt>
      <trkpt lat="59.293723" lon="18.085601">
        <ele>44</ele>
        <time>2019-11-15T16:38:40Z</time>
      </trkpt>
      <trkpt lat="59.29378" lon="18.085564">
        <ele>44</ele>
        <time>2019-11-15T16:38:41Z</time>
      </trkpt>
      <trkpt lat="59.293836" lon="18.085523">
        <ele>44</ele>
        <time>2019-11-15T16:38:42Z</time>
      </trkpt>
      <trkpt lat="59.293893" lon="18.085485">
        <ele>44</ele>
        <time>2019-11-15T16:38:43Z</time>
      </trkpt>
      <trkpt lat="59.293949" lon="18.085446">
        <ele>44</ele>
        <time>2019-11-15T16:38:44Z</time>
      </trkpt>
      <trkpt lat="59.294007" lon="18.085411">
        <ele>44</ele>
        <time>2019-11-15T16:38:45Z</time>
      </trkpt>
      <trkpt lat="59.294064" lon="18.08538">
        <ele>44</ele>
        <time>2019-11-15T16:38:46Z</time>
      </trkpt>
      <trkpt lat="59.29412" lon="18.085349">
        <ele>44</ele>
        <time>2019-11-15T16:38:47Z</time>
      </trkpt>
      <trkpt lat="59.294177" lon="18.085317">
        <ele>45</ele>
        <time>2019-11-15T16:38:48Z</time>
      </trkpt>
      <trkpt lat="59.294231" lon="18.085285">
        <ele>45</ele>
        <time>2019-11-15T16:38:49Z</time>
      </trkpt>
      <trkpt lat="59.29428" lon="18.085246">
        <ele>45</ele>
        <time>2019-11-15T16:38:50Z</time>
      </trkpt>
      <trkpt lat="59.294371" lon="18.085201">
        <ele>44</ele>
        <time>2019-11-15T16:38:52Z</time>
      </trkpt>
      <trkpt lat="59.294494" lon="18.085148">
        <ele>44</ele>
        <time>2019-11-15T16:38:54Z</time>
      </trkpt>
      <trkpt lat="59.294587" lon="18.085088">
        <ele>44</ele>
        <time>2019-11-15T16:38:55Z</time>
      </trkpt>
      <trkpt lat="59.294701" lon="18.08496">
        <ele>43</ele>
        <time>2019-11-15T16:38:57Z</time>
      </trkpt>
      <trkpt lat="59.294771" lon="18.084738">
        <ele>42</ele>
        <time>2019-11-15T16:38:59Z</time>
      </trkpt>
      <trkpt lat="59.294859" lon="18.084697">
        <ele>42</ele>
        <time>2019-11-15T16:39:01Z</time>
      </trkpt>
      <trkpt lat="59.294956" lon="18.084682">
        <ele>42</ele>
        <time>2019-11-15T16:39:03Z</time>
      </trkpt>
      <trkpt lat="59.295056" lon="18.084682">
        <ele>42</ele>
        <time>2019-11-15T16:39:05Z</time>
      </trkpt>
      <trkpt lat="59.295108" lon="18.084662">
        <ele>42</ele>
        <time>2019-11-15T16:39:06Z</time>
      </trkpt>
      <trkpt lat="59.295159" lon="18.084647">
        <ele>42</ele>
        <time>2019-11-15T16:39:07Z</time>
      </trkpt>
      <trkpt lat="59.29526" lon="18.084627">
        <ele>41</ele>
        <time>2019-11-15T16:39:09Z</time>
      </trkpt>
      <trkpt lat="59.295311" lon="18.084605">
        <ele>41</ele>
        <time>2019-11-15T16:39:10Z</time>
      </trkpt>
      <trkpt lat="59.295365" lon="18.084589">
        <ele>41</ele>
        <time>2019-11-15T16:39:11Z</time>
      </trkpt>
      <trkpt lat="59.29542" lon="18.084574">
        <ele>41</ele>
        <time>2019-11-15T16:39:12Z</time>
      </trkpt>
      <trkpt lat="59.295474" lon="18.084557">
        <ele>41</ele>
        <time>2019-11-15T16:39:13Z</time>
      </trkpt>
      <trkpt lat="59.295527" lon="18.084537">
        <ele>41</ele>
        <time>2019-11-15T16:39:14Z</time>
      </trkpt>
      <trkpt lat="59.295579" lon="18.084515">
        <ele>41</ele>
        <time>2019-11-15T16:39:15Z</time>
      </trkpt>
      <trkpt lat="59.29563" lon="18.084487">
        <ele>41</ele>
        <time>2019-11-15T16:39:16Z</time>
      </trkpt>
      <trkpt lat="59.295681" lon="18.084462">
        <ele>41</ele>
        <time>2019-11-15T16:39:17Z</time>
      </trkpt>
      <trkpt lat="59.295731" lon="18.084437">
        <ele>41</ele>
        <time>2019-11-15T16:39:18Z</time>
      </trkpt>
      <trkpt lat="59.29578" lon="18.08441">
        <ele>41</ele>
        <time>2019-11-15T16:39:19Z</time>
      </trkpt>
      <trkpt lat="59.295829" lon="18.084383">
        <ele>41</ele>
        <time>2019-11-15T16:39:20Z</time>
      </trkpt>
      <trkpt lat="59.295879" lon="18.084357">
        <ele>41</ele>
        <time>2019-11-15T16:39:21Z</time>
      </trkpt>
      <trkpt lat="59.295929" lon="18.084331">
        <ele>41</ele>
        <time>2019-11-15T16:39:22Z</time>
      </trkpt>
      <trkpt lat="59.295978" lon="18.084304">
        <ele>41</ele>
        <time>2019-11-15T16:39:23Z</time>
      </trkpt>
      <trkpt lat="59.296028" lon="18.084275">
        <ele>41</ele>
        <time>2019-11-15T16:39:24Z</time>
      </trkpt>
      <trkpt lat="59.296078" lon="18.084246">
        <ele>41</ele>
        <time>2019-11-15T16:39:25Z</time>
      </trkpt>
      <trkpt lat="59.296129" lon="18.084217">
        <ele>41</ele>
        <time>2019-11-15T16:39:26Z</time>
      </trkpt>
      <trkpt lat="59.296179" lon="18.08419">
        <ele>41</ele>
        <time>2019-11-15T16:39:27Z</time>
      </trkpt>
      <trkpt lat="59.29623" lon="18.084171">
        <ele>41</ele>
        <time>2019-11-15T16:39:28Z</time>
      </trkpt>
      <trkpt lat="59.296283" lon="18.084162">
        <ele>41</ele>
        <time>2019-11-15T16:39:29Z</time>
      </trkpt>
      <trkpt lat="59.296334" lon="18.084175">
        <ele>41</ele>
        <time>2019-11-15T16:39:30Z</time>
      </trkpt>
      <trkpt lat="59.29638" lon="18.084221">
        <ele>41</ele>
        <time>2019-11-15T16:39:31Z</time>
      </trkpt>
      <trkpt lat="59.296414" lon="18.084301">
        <ele>41</ele>
        <time>2019-11-15T16:39:32Z</time>
      </trkpt>
      <trkpt lat="59.296436" lon="18.0844">
        <ele>42</ele>
        <time>2019-11-15T16:39:33Z</time>
      </trkpt>
      <trkpt lat="59.296455" lon="18.0845">
        <ele>41</ele>
        <time>2019-11-15T16:39:34Z</time>
      </trkpt>
      <trkpt lat="59.296479" lon="18.084585">
        <ele>42</ele>
        <time>2019-11-15T16:39:35Z</time>
      </trkpt>
      <trkpt lat="59.296515" lon="18.08465">
        <ele>42</ele>
        <time>2019-11-15T16:39:36Z</time>
      </trkpt>
      <trkpt lat="59.296558" lon="18.084686">
        <ele>42</ele>
        <time>2019-11-15T16:39:37Z</time>
      </trkpt>
      <trkpt lat="59.296604" lon="18.084697">
        <ele>42</ele>
        <time>2019-11-15T16:39:38Z</time>
      </trkpt>
      <trkpt lat="59.296652" lon="18.084699">
        <ele>42</ele>
        <time>2019-11-15T16:39:39Z</time>
      </trkpt>
      <trkpt lat="59.2967" lon="18.0847">
        <ele>42</ele>
        <time>2019-11-15T16:39:40Z</time>
      </trkpt>
      <trkpt lat="59.296748" lon="18.084701">
        <ele>42</ele>
        <time>2019-11-15T16:39:41Z</time>
      </trkpt>
      <trkpt lat="59.296797" lon="18.084701">
        <ele>41</ele>
        <time>2019-11-15T16:39:42Z</time>
      </trkpt>
      <trkpt lat="59.296848" lon="18.084702">
        <ele>41</ele>
        <time>2019-11-15T16:39:43Z</time>
      </trkpt>
      <trkpt lat="59.296901" lon="18.084703">
        <ele>41</ele>
        <time>2019-11-15T16:39:44Z</time>
      </trkpt>
      <trkpt lat="59.296956" lon="18.084703">
        <ele>41</ele>
        <time>2019-11-15T16:39:45Z</time>
      </trkpt>
      <trkpt lat="59.297014" lon="18.084693">
        <ele>41</ele>
        <time>2019-11-15T16:39:46Z</time>
      </trkpt>
      <trkpt lat="59.29707" lon="18.084658">
        <ele>40</ele>
        <time>2019-11-15T16:39:47Z</time>
      </trkpt>
      <trkpt lat="59.297121" lon="18.08459">
        <ele>40</ele>
        <time>2019-11-15T16:39:48Z</time>
      </trkpt>
      <trkpt lat="59.297165" lon="18.084493">
        <ele>40</ele>
        <time>2019-11-15T16:39:49Z</time>
      </trkpt>
      <trkpt lat="59.297204" lon="18.084378">
        <ele>40</ele>
        <time>2019-11-15T16:39:50Z</time>
      </trkpt>
      <trkpt lat="59.297234" lon="18.084247">
        <ele>40</ele>
        <time>2019-11-15T16:39:51Z</time>
      </trkpt>
      <trkpt lat="59.297254" lon="18.084103">
        <ele>40</ele>
        <time>2019-11-15T16:39:52Z</time>
      </trkpt>
      <trkpt lat="59.29726" lon="18.083954">
        <ele>40</ele>
        <time>2019-11-15T16:39:53Z</time>
      </trkpt>
      <trkpt lat="59.297255" lon="18.083805">
        <ele>40</ele>
        <time>2019-11-15T16:39:54Z</time>
      </trkpt>
      <trkpt lat="59.297248" lon="18.083666">
        <ele>40</ele>
        <time>2019-11-15T16:39:55Z</time>
      </trkpt>
      <trkpt lat="59.297252" lon="18.083537">
        <ele>40</ele>
        <time>2019-11-15T16:39:56Z</time>
      </trkpt>
      <trkpt lat="59.297275" lon="18.083426">
        <ele>40</ele>
        <time>2019-11-15T16:39:57Z</time>
      </trkpt>
      <trkpt lat="59.297312" lon="18.083339">
        <ele>40</ele>
        <time>2019-11-15T16:39:58Z</time>
      </trkpt>
      <trkpt lat="59.29736" lon="18.083278">
        <ele>40</ele>
        <time>2019-11-15T16:39:59Z</time>
      </trkpt>
      <trkpt lat="59.297414" lon="18.083238">
        <ele>40</ele>
        <time>2019-11-15T16:40:00Z</time>
      </trkpt>
      <trkpt lat="59.297472" lon="18.083206">
        <ele>40</ele>
        <time>2019-11-15T16:40:01Z</time>
      </trkpt>
      <trkpt lat="59.297532" lon="18.08317">
        <ele>40</ele>
        <time>2019-11-15T16:40:02Z</time>
      </trkpt>
      <trkpt lat="59.297593" lon="18.083132">
        <ele>40</ele>
        <time>2019-11-15T16:40:03Z</time>
      </trkpt>
      <trkpt lat="59.297655" lon="18.083094">
        <ele>40</ele>
        <time>2019-11-15T16:40:04Z</time>
      </trkpt>
      <trkpt lat="59.297718" lon="18.083068">
        <ele>40</ele>
        <time>2019-11-15T16:40:05Z</time>
      </trkpt>
      <trkpt lat="59.297782" lon="18.083056">
        <ele>40</ele>
        <time>2019-11-15T16:40:06Z</time>
      </trkpt>
      <trkpt lat="59.297847" lon="18.083051">
        <ele>40</ele>
        <time>2019-11-15T16:40:07Z</time>
      </trkpt>
      <trkpt lat="59.297913" lon="18.083041">
        <ele>40</ele>
        <time>2019-11-15T16:40:08Z</time>
      </trkpt>
      <trkpt lat="59.297979" lon="18.083021">
        <ele>39</ele>
        <time>2019-11-15T16:40:09Z</time>
      </trkpt>
      <trkpt lat="59.298047" lon="18.082989">
        <ele>39</ele>
        <time>2019-11-15T16:40:10Z</time>
      </trkpt>
      <trkpt lat="59.298115" lon="18.08295">
        <ele>39</ele>
        <time>2019-11-15T16:40:11Z</time>
      </trkpt>
      <trkpt lat="59.298184" lon="18.082904">
        <ele>39</ele>
        <time>2019-11-15T16:40:12Z</time>
      </trkpt>
      <trkpt lat="59.298252" lon="18.082854">
        <ele>39</ele>
        <time>2019-11-15T16:40:13Z</time>
      </trkpt>
      <trkpt lat="59.298317" lon="18.082796">
        <ele>39</ele>
        <time>2019-11-15T16:40:14Z</time>
      </trkpt>
      <trkpt lat="59.29838" lon="18.082734">
        <ele>39</ele>
        <time>2019-11-15T16:40:15Z</time>
      </trkpt>
      <trkpt lat="59.298444" lon="18.08267">
        <ele>38</ele>
        <time>2019-11-15T16:40:16Z</time>
      </trkpt>
      <trkpt lat="59.298507" lon="18.082608">
        <ele>38</ele>
        <time>2019-11-15T16:40:17Z</time>
      </trkpt>
      <trkpt lat="59.298572" lon="18.082553">
        <ele>38</ele>
        <time>2019-11-15T16:40:18Z</time>
      </trkpt>
      <trkpt lat="59.29864" lon="18.082508">
        <ele>38</ele>
        <time>2019-11-15T16:40:19Z</time>
      </trkpt>
      <trkpt lat="59.298708" lon="18.082464">
        <ele>38</ele>
        <time>2019-11-15T16:40:20Z</time>
      </trkpt>
      <trkpt lat="59.298776" lon="18.082419">
        <ele>38</ele>
        <time>2019-11-15T16:40:21Z</time>
      </trkpt>
      <trkpt lat="59.298844" lon="18.082373">
        <ele>38</ele>
        <time>2019-11-15T16:40:22Z</time>
      </trkpt>
      <trkpt lat="59.298912" lon="18.082328">
        <ele>38</ele>
        <time>2019-11-15T16:40:23Z</time>
      </trkpt>
      <trkpt lat="59.298981" lon="18.082286">
        <ele>38</ele>
        <time>2019-11-15T16:40:24Z</time>
      </trkpt>
      <trkpt lat="59.299051" lon="18.082254">
        <ele>38</ele>
        <time>2019-11-15T16:40:25Z</time>
      </trkpt>
      <trkpt lat="59.299118" lon="18.082227">
        <ele>38</ele>
        <time>2019-11-15T16:40:26Z</time>
      </trkpt>
      <trkpt lat="59.299178" lon="18.082199">
        <ele>38</ele>
        <time>2019-11-15T16:40:27Z</time>
      </trkpt>
      <trkpt lat="59.299239" lon="18.082185">
        <ele>38</ele>
        <time>2019-11-15T16:40:28Z</time>
      </trkpt>
      <trkpt lat="59.299307" lon="18.082211">
        <ele>38</ele>
        <time>2019-11-15T16:40:29Z</time>
      </trkpt>
      <trkpt lat="59.299373" lon="18.082237">
        <ele>38</ele>
        <time>2019-11-15T16:40:30Z</time>
      </trkpt>
      <trkpt lat="59.299436" lon="18.082228">
        <ele>38</ele>
        <time>2019-11-15T16:40:31Z</time>
      </trkpt>
      <trkpt lat="59.299509" lon="18.082206">
        <ele>38</ele>
        <time>2019-11-15T16:40:32Z</time>
      </trkpt>
      <trkpt lat="59.299584" lon="18.082188">
        <ele>39</ele>
        <time>2019-11-15T16:40:33Z</time>
      </trkpt>
      <trkpt lat="59.299658" lon="18.082159">
        <ele>39</ele>
        <time>2019-11-15T16:40:34Z</time>
      </trkpt>
      <trkpt lat="59.299728" lon="18.082128">
        <ele>0</ele>
        <time>2019-11-15T16:40:34Z</time>
      </trkpt>
      <trkpt lat="59.299795" lon="18.082093">
        <ele>39</ele>
        <time>2019-11-15T16:40:35Z</time>
      </trkpt>
      <trkpt lat="59.299859" lon="18.082055">
        <ele>39</ele>
        <time>2019-11-15T16:40:37Z</time>
      </trkpt>
      <trkpt lat="59.299925" lon="18.082014">
        <ele>39</ele>
        <time>2019-11-15T16:40:38Z</time>
      </trkpt>
      <trkpt lat="59.29999" lon="18.08196">
        <ele>39</ele>
        <time>2019-11-15T16:40:39Z</time>
      </trkpt>
      <trkpt lat="59.300051" lon="18.081896">
        <ele>39</ele>
        <time>2019-11-15T16:40:40Z</time>
      </trkpt>
      <trkpt lat="59.300114" lon="18.081836">
        <ele>38</ele>
        <time>2019-11-15T16:40:41Z</time>
      </trkpt>
      <trkpt lat="59.30018" lon="18.081786">
        <ele>38</ele>
        <time>2019-11-15T16:40:42Z</time>
      </trkpt>
      <trkpt lat="59.300246" lon="18.081744">
        <ele>38</ele>
        <time>2019-11-15T16:40:43Z</time>
      </trkpt>
      <trkpt lat="59.300312" lon="18.081705">
        <ele>38</ele>
        <time>2019-11-15T16:40:44Z</time>
      </trkpt>
      <trkpt lat="59.300378" lon="18.081668">
        <ele>38</ele>
        <time>2019-11-15T16:40:45Z</time>
      </trkpt>
      <trkpt lat="59.300443" lon="18.081629">
        <ele>38</ele>
        <time>2019-11-15T16:40:46Z</time>
      </trkpt>
      <trkpt lat="59.300507" lon="18.081586">
        <ele>38</ele>
        <time>2019-11-15T16:40:47Z</time>
      </trkpt>
      <trkpt lat="59.300572" lon="18.081541">
        <ele>38</ele>
        <time>2019-11-15T16:40:48Z</time>
      </trkpt>
      <trkpt lat="59.300637" lon="18.081494">
        <ele>38</ele>
        <time>2019-11-15T16:40:49Z</time>
      </trkpt>
      <trkpt lat="59.300701" lon="18.081444">
        <ele>38</ele>
        <time>2019-11-15T16:40:50Z</time>
      </trkpt>
      <trkpt lat="59.300764" lon="18.081391">
        <ele>38</ele>
        <time>2019-11-15T16:40:51Z</time>
      </trkpt>
      <trkpt lat="59.300827" lon="18.081335">
        <ele>39</ele>
        <time>2019-11-15T16:40:52Z</time>
      </trkpt>
      <trkpt lat="59.30089" lon="18.081277">
        <ele>39</ele>
        <time>2019-11-15T16:40:53Z</time>
      </trkpt>
      <trkpt lat="59.300951" lon="18.081212">
        <ele>39</ele>
        <time>2019-11-15T16:40:54Z</time>
      </trkpt>
      <trkpt lat="59.301012" lon="18.081142">
        <ele>38</ele>
        <time>2019-11-15T16:40:55Z</time>
      </trkpt>
      <trkpt lat="59.301073" lon="18.081072">
        <ele>38</ele>
        <time>2019-11-15T16:40:56Z</time>
      </trkpt>
      <trkpt lat="59.301135" lon="18.081005">
        <ele>38</ele>
        <time>2019-11-15T16:40:57Z</time>
      </trkpt>
      <trkpt lat="59.301197" lon="18.08094">
        <ele>38</ele>
        <time>2019-11-15T16:40:58Z</time>
      </trkpt>
      <trkpt lat="59.301257" lon="18.080876">
        <ele>38</ele>
        <time>2019-11-15T16:40:59Z</time>
      </trkpt>
      <trkpt lat="59.301318" lon="18.080817">
        <ele>38</ele>
        <time>2019-11-15T16:41:00Z</time>
      </trkpt>
      <trkpt lat="59.301381" lon="18.080763">
        <ele>38</ele>
        <time>2019-11-15T16:41:01Z</time>
      </trkpt>
      <trkpt lat="59.301446" lon="18.080713">
        <ele>38</ele>
        <time>2019-11-15T16:41:02Z</time>
      </trkpt>
      <trkpt lat="59.301512" lon="18.080664">
        <ele>38</ele>
        <time>2019-11-15T16:41:03Z</time>
      </trkpt>
      <trkpt lat="59.301578" lon="18.080615">
        <ele>38</ele>
        <time>2019-11-15T16:41:04Z</time>
      </trkpt>
      <trkpt lat="59.301645" lon="18.080566">
        <ele>38</ele>
        <time>2019-11-15T16:41:05Z</time>
      </trkpt>
      <trkpt lat="59.301714" lon="18.080518">
        <ele>38</ele>
        <time>2019-11-15T16:41:06Z</time>
      </trkpt>
      <trkpt lat="59.301781" lon="18.080469">
        <ele>38</ele>
        <time>2019-11-15T16:41:07Z</time>
      </trkpt>
      <trkpt lat="59.301847" lon="18.080421">
        <ele>38</ele>
        <time>2019-11-15T16:41:08Z</time>
      </trkpt>
      <trkpt lat="59.301913" lon="18.080374">
        <ele>38</ele>
        <time>2019-11-15T16:41:09Z</time>
      </trkpt>
      <trkpt lat="59.301977" lon="18.080329">
        <ele>38</ele>
        <time>2019-11-15T16:41:10Z</time>
      </trkpt>
      <trkpt lat="59.302041" lon="18.080287">
        <ele>38</ele>
        <time>2019-11-15T16:41:11Z</time>
      </trkpt>
      <trkpt lat="59.302106" lon="18.080247">
        <ele>38</ele>
        <time>2019-11-15T16:41:12Z</time>
      </trkpt>
      <trkpt lat="59.30217" lon="18.080208">
        <ele>38</ele>
        <time>2019-11-15T16:41:13Z</time>
      </trkpt>
      <trkpt lat="59.302234" lon="18.080168">
        <ele>38</ele>
        <time>2019-11-15T16:41:14Z</time>
      </trkpt>
      <trkpt lat="59.302299" lon="18.080129">
        <ele>38</ele>
        <time>2019-11-15T16:41:15Z</time>
      </trkpt>
      <trkpt lat="59.302363" lon="18.08009">
        <ele>38</ele>
        <time>2019-11-15T16:41:16Z</time>
      </trkpt>
      <trkpt lat="59.302428" lon="18.080051">
        <ele>38</ele>
        <time>2019-11-15T16:41:17Z</time>
      </trkpt>
      <trkpt lat="59.302493" lon="18.080012">
        <ele>0</ele>
        <time>2019-11-15T16:41:17Z</time>
      </trkpt>
      <trkpt lat="59.302557" lon="18.079972">
        <ele>37</ele>
        <time>2019-11-15T16:41:18Z</time>
      </trkpt>
      <trkpt lat="59.302622" lon="18.079932">
        <ele>37</ele>
        <time>2019-11-15T16:41:20Z</time>
      </trkpt>
      <trkpt lat="59.302687" lon="18.079891">
        <ele>37</ele>
        <time>2019-11-15T16:41:21Z</time>
      </trkpt>
      <trkpt lat="59.302752" lon="18.079851">
        <ele>37</ele>
        <time>2019-11-15T16:41:22Z</time>
      </trkpt>
      <trkpt lat="59.302817" lon="18.079811">
        <ele>37</ele>
        <time>2019-11-15T16:41:23Z</time>
      </trkpt>
      <trkpt lat="59.302882" lon="18.07977">
        <ele>37</ele>
        <time>2019-11-15T16:41:24Z</time>
      </trkpt>
      <trkpt lat="59.302947" lon="18.07973">
        <ele>37</ele>
        <time>2019-11-15T16:41:25Z</time>
      </trkpt>
      <trkpt lat="59.303012" lon="18.079691">
        <ele>37</ele>
        <time>2019-11-15T16:41:26Z</time>
      </trkpt>
      <trkpt lat="59.303076" lon="18.079651">
        <ele>37</ele>
        <time>2019-11-15T16:41:27Z</time>
      </trkpt>
      <trkpt lat="59.303141" lon="18.079611">
        <ele>37</ele>
        <time>2019-11-15T16:41:28Z</time>
      </trkpt>
      <trkpt lat="59.303204" lon="18.079571">
        <ele>37</ele>
        <time>2019-11-15T16:41:29Z</time>
      </trkpt>
      <trkpt lat="59.303267" lon="18.07953">
        <ele>37</ele>
        <time>2019-11-15T16:41:30Z</time>
      </trkpt>
      <trkpt lat="59.30333" lon="18.079491">
        <ele>37</ele>
        <time>2019-11-15T16:41:31Z</time>
      </trkpt>
      <trkpt lat="59.303394" lon="18.07945">
        <ele>37</ele>
        <time>2019-11-15T16:41:32Z</time>
      </trkpt>
      <trkpt lat="59.303459" lon="18.079408">
        <ele>37</ele>
        <time>2019-11-15T16:41:33Z</time>
      </trkpt>
      <trkpt lat="59.303524" lon="18.079365">
        <ele>37</ele>
        <time>2019-11-15T16:41:34Z</time>
      </trkpt>
      <trkpt lat="59.30359" lon="18.079321">
        <ele>36</ele>
        <time>2019-11-15T16:41:35Z</time>
      </trkpt>
      <trkpt lat="59.303657" lon="18.07928">
        <ele>36</ele>
        <time>2019-11-15T16:41:36Z</time>
      </trkpt>
      <trkpt lat="59.303725" lon="18.079238">
        <ele>36</ele>
        <time>2019-11-15T16:41:37Z</time>
      </trkpt>
      <trkpt lat="59.303792" lon="18.079194">
        <ele>36</ele>
        <time>2019-11-15T16:41:38Z</time>
      </trkpt>
      <trkpt lat="59.303861" lon="18.07915">
        <ele>36</ele>
        <time>2019-11-15T16:41:39Z</time>
      </trkpt>
      <trkpt lat="59.303929" lon="18.079105">
        <ele>35</ele>
        <time>2019-11-15T16:41:40Z</time>
      </trkpt>
      <trkpt lat="59.303999" lon="18.07906">
        <ele>35</ele>
        <time>2019-11-15T16:41:41Z</time>
      </trkpt>
      <trkpt lat="59.304069" lon="18.079016">
        <ele>34</ele>
        <time>2019-11-15T16:41:42Z</time>
      </trkpt>
      <trkpt lat="59.30414" lon="18.078973">
        <ele>34</ele>
        <time>2019-11-15T16:41:43Z</time>
      </trkpt>
      <trkpt lat="59.304212" lon="18.078929">
        <ele>34</ele>
        <time>2019-11-15T16:41:44Z</time>
      </trkpt>
      <trkpt lat="59.304284" lon="18.078884">
        <ele>34</ele>
        <time>2019-11-15T16:41:45Z</time>
      </trkpt>
      <trkpt lat="59.304357" lon="18.078839">
        <ele>33</ele>
        <time>2019-11-15T16:41:46Z</time>
      </trkpt>
      <trkpt lat="59.304429" lon="18.078794">
        <ele>33</ele>
        <time>2019-11-15T16:41:47Z</time>
      </trkpt>
      <trkpt lat="59.304503" lon="18.07875">
        <ele>33</ele>
        <time>2019-11-15T16:41:48Z</time>
      </trkpt>
      <trkpt lat="59.304576" lon="18.078705">
        <ele>32</ele>
        <time>2019-11-15T16:41:49Z</time>
      </trkpt>
      <trkpt lat="59.30465" lon="18.078659">
        <ele>32</ele>
        <time>2019-11-15T16:41:50Z</time>
      </trkpt>
      <trkpt lat="59.304725" lon="18.078611">
        <ele>31</ele>
        <time>2019-11-15T16:41:51Z</time>
      </trkpt>
      <trkpt lat="59.304802" lon="18.078563">
        <ele>31</ele>
        <time>2019-11-15T16:41:52Z</time>
      </trkpt>
      <trkpt lat="59.30488" lon="18.078514">
        <ele>31</ele>
        <time>2019-11-15T16:41:53Z</time>
      </trkpt>
      <trkpt lat="59.30496" lon="18.078465">
        <ele>30</ele>
        <time>2019-11-15T16:41:54Z</time>
      </trkpt>
      <trkpt lat="59.305041" lon="18.078415">
        <ele>30</ele>
        <time>2019-11-15T16:41:55Z</time>
      </trkpt>
      <trkpt lat="59.305122" lon="18.078362">
        <ele>29</ele>
        <time>2019-11-15T16:41:56Z</time>
      </trkpt>
      <trkpt lat="59.305204" lon="18.078306">
        <ele>29</ele>
        <time>2019-11-15T16:41:57Z</time>
      </trkpt>
      <trkpt lat="59.305286" lon="18.078253">
        <ele>28</ele>
        <time>2019-11-15T16:41:58Z</time>
      </trkpt>
      <trkpt lat="59.305368" lon="18.078203">
        <ele>28</ele>
        <time>2019-11-15T16:41:59Z</time>
      </trkpt>
      <trkpt lat="59.305451" lon="18.078154">
        <ele>28</ele>
        <time>2019-11-15T16:42:00Z</time>
      </trkpt>
      <trkpt lat="59.305533" lon="18.078102">
        <ele>27</ele>
        <time>2019-11-15T16:42:01Z</time>
      </trkpt>
      <trkpt lat="59.305615" lon="18.07805">
        <ele>27</ele>
        <time>2019-11-15T16:42:02Z</time>
      </trkpt>
      <trkpt lat="59.305697" lon="18.077999">
        <ele>27</ele>
        <time>2019-11-15T16:42:03Z</time>
      </trkpt>
      <trkpt lat="59.30578" lon="18.077947">
        <ele>27</ele>
        <time>2019-11-15T16:42:04Z</time>
      </trkpt>
      <trkpt lat="59.305862" lon="18.077895">
        <ele>27</ele>
        <time>2019-11-15T16:42:05Z</time>
      </trkpt>
      <trkpt lat="59.305943" lon="18.077844">
        <ele>26</ele>
        <time>2019-11-15T16:42:06Z</time>
      </trkpt>
      <trkpt lat="59.306023" lon="18.077791">
        <ele>26</ele>
        <time>2019-11-15T16:42:07Z</time>
      </trkpt>
      <trkpt lat="59.306102" lon="18.077739">
        <ele>26</ele>
        <time>2019-11-15T16:42:08Z</time>
      </trkpt>
      <trkpt lat="59.306181" lon="18.077687">
        <ele>26</ele>
        <time>2019-11-15T16:42:09Z</time>
      </trkpt>
      <trkpt lat="59.306259" lon="18.077634">
        <ele>25</ele>
        <time>2019-11-15T16:42:10Z</time>
      </trkpt>
      <trkpt lat="59.306334" lon="18.077578">
        <ele>25</ele>
        <time>2019-11-15T16:42:11Z</time>
      </trkpt>
      <trkpt lat="59.306409" lon="18.07752">
        <ele>25</ele>
        <time>2019-11-15T16:42:12Z</time>
      </trkpt>
      <trkpt lat="59.306483" lon="18.077459">
        <ele>25</ele>
        <time>2019-11-15T16:42:13Z</time>
      </trkpt>
      <trkpt lat="59.306558" lon="18.077402">
        <ele>25</ele>
        <time>2019-11-15T16:42:14Z</time>
      </trkpt>
      <trkpt lat="59.306632" lon="18.077354">
        <ele>25</ele>
        <time>2019-11-15T16:42:15Z</time>
      </trkpt>
      <trkpt lat="59.306705" lon="18.077315">
        <ele>25</ele>
        <time>2019-11-15T16:42:16Z</time>
      </trkpt>
      <trkpt lat="59.306776" lon="18.07728">
        <ele>25</ele>
        <time>2019-11-15T16:42:17Z</time>
      </trkpt>
      <trkpt lat="59.306846" lon="18.077244">
        <ele>25</ele>
        <time>2019-11-15T16:42:18Z</time>
      </trkpt>
      <trkpt lat="59.306912" lon="18.077207">
        <ele>25</ele>
        <time>2019-11-15T16:42:19Z</time>
      </trkpt>
      <trkpt lat="59.306974" lon="18.07717">
        <ele>25</ele>
        <time>2019-11-15T16:42:20Z</time>
      </trkpt>
      <trkpt lat="59.307032" lon="18.077132">
        <ele>25</ele>
        <time>2019-11-15T16:42:21Z</time>
      </trkpt>
      <trkpt lat="59.307088" lon="18.0771">
        <ele>25</ele>
        <time>2019-11-15T16:42:22Z</time>
      </trkpt>
      <trkpt lat="59.307142" lon="18.07707">
        <ele>25</ele>
        <time>2019-11-15T16:42:23Z</time>
      </trkpt>
      <trkpt lat="59.307194" lon="18.077044">
        <ele>26</ele>
        <time>2019-11-15T16:42:24Z</time>
      </trkpt>
      <trkpt lat="59.307245" lon="18.077017">
        <ele>26</ele>
        <time>2019-11-15T16:42:25Z</time>
      </trkpt>
      <trkpt lat="59.307293" lon="18.076989">
        <ele>26</ele>
        <time>2019-11-15T16:42:26Z</time>
      </trkpt>
      <trkpt lat="59.307339" lon="18.076966">
        <ele>26</ele>
        <time>2019-11-15T16:42:27Z</time>
      </trkpt>
      <trkpt lat="59.30738" lon="18.076945">
        <ele>26</ele>
        <time>2019-11-15T16:42:28Z</time>
      </trkpt>
      <trkpt lat="59.307415" lon="18.076924">
        <ele>26</ele>
        <time>2019-11-15T16:42:29Z</time>
      </trkpt>
      <trkpt lat="59.307445" lon="18.076905">
        <ele>26</ele>
        <time>2019-11-15T16:42:30Z</time>
      </trkpt>
      <trkpt lat="59.30747" lon="18.07689">
        <ele>26</ele>
        <time>2019-11-15T16:42:31Z</time>
      </trkpt>
      <trkpt lat="59.307489" lon="18.076878">
        <ele>26</ele>
        <time>2019-11-15T16:42:32Z</time>
      </trkpt>
      <trkpt lat="59.307519" lon="18.076861">
        <ele>26</ele>
        <time>2019-11-15T16:42:34Z</time>
      </trkpt>
      <trkpt lat="59.307534" lon="18.076841">
        <ele>26</ele>
        <time>2019-11-15T16:42:37Z</time>
      </trkpt>
      <trkpt lat="59.307549" lon="18.076824">
        <ele>0</ele>
        <time>2019-11-15T16:42:43Z</time>
      </trkpt>
      <trkpt lat="59.307619" lon="18.076767">
        <ele>26</ele>
        <time>2019-11-15T16:42:59Z</time>
      </trkpt>
      <trkpt lat="59.307659" lon="18.076747">
        <ele>26</ele>
        <time>2019-11-15T16:43:00Z</time>
      </trkpt>
      <trkpt lat="59.307703" lon="18.076726">
        <ele>26</ele>
        <time>2019-11-15T16:43:01Z</time>
      </trkpt>
      <trkpt lat="59.307744" lon="18.076693">
        <ele>26</ele>
        <time>2019-11-15T16:43:02Z</time>
      </trkpt>
      <trkpt lat="59.307794" lon="18.076663">
        <ele>26</ele>
        <time>2019-11-15T16:43:03Z</time>
      </trkpt>
      <trkpt lat="59.307849" lon="18.076629">
        <ele>26</ele>
        <time>2019-11-15T16:43:04Z</time>
      </trkpt>
      <trkpt lat="59.307905" lon="18.076595">
        <ele>26</ele>
        <time>2019-11-15T16:43:05Z</time>
      </trkpt>
      <trkpt lat="59.307961" lon="18.076564">
        <ele>26</ele>
        <time>2019-11-15T16:43:06Z</time>
      </trkpt>
      <trkpt lat="59.308017" lon="18.076529">
        <ele>27</ele>
        <time>2019-11-15T16:43:07Z</time>
      </trkpt>
      <trkpt lat="59.308072" lon="18.076491">
        <ele>27</ele>
        <time>2019-11-15T16:43:08Z</time>
      </trkpt>
      <trkpt lat="59.30813" lon="18.076456">
        <ele>28</ele>
        <time>2019-11-15T16:43:09Z</time>
      </trkpt>
      <trkpt lat="59.308189" lon="18.076419">
        <ele>28</ele>
        <time>2019-11-15T16:43:10Z</time>
      </trkpt>
      <trkpt lat="59.308251" lon="18.076382">
        <ele>28</ele>
        <time>2019-11-15T16:43:11Z</time>
      </trkpt>
      <trkpt lat="59.308315" lon="18.076341">
        <ele>28</ele>
        <time>2019-11-15T16:43:12Z</time>
      </trkpt>
      <trkpt lat="59.308381" lon="18.076301">
        <ele>29</ele>
        <time>2019-11-15T16:43:13Z</time>
      </trkpt>
      <trkpt lat="59.308444" lon="18.076266">
        <ele>30</ele>
        <time>2019-11-15T16:43:14Z</time>
      </trkpt>
      <trkpt lat="59.308503" lon="18.076228">
        <ele>30</ele>
        <time>2019-11-15T16:43:15Z</time>
      </trkpt>
      <trkpt lat="59.308566" lon="18.076195">
        <ele>31</ele>
        <time>2019-11-15T16:43:16Z</time>
      </trkpt>
      <trkpt lat="59.308631" lon="18.076161">
        <ele>31</ele>
        <time>2019-11-15T16:43:17Z</time>
      </trkpt>
      <trkpt lat="59.308701" lon="18.076126">
        <ele>32</ele>
        <time>2019-11-15T16:43:18Z</time>
      </trkpt>
      <trkpt lat="59.308769" lon="18.07609">
        <ele>32</ele>
        <time>2019-11-15T16:43:19Z</time>
      </trkpt>
      <trkpt lat="59.308837" lon="18.076053">
        <ele>32</ele>
        <time>2019-11-15T16:43:20Z</time>
      </trkpt>
      <trkpt lat="59.308904" lon="18.076021">
        <ele>32</ele>
        <time>2019-11-15T16:43:21Z</time>
      </trkpt>
      <trkpt lat="59.308974" lon="18.075983">
        <ele>33</ele>
        <time>2019-11-15T16:43:22Z</time>
      </trkpt>
      <trkpt lat="59.309046" lon="18.075944">
        <ele>33</ele>
        <time>2019-11-15T16:43:23Z</time>
      </trkpt>
      <trkpt lat="59.309113" lon="18.07591">
        <ele>33</ele>
        <time>2019-11-15T16:43:24Z</time>
      </trkpt>
      <trkpt lat="59.309182" lon="18.075875">
        <ele>34</ele>
        <time>2019-11-15T16:43:25Z</time>
      </trkpt>
      <trkpt lat="59.309253" lon="18.075837">
        <ele>34</ele>
        <time>2019-11-15T16:43:26Z</time>
      </trkpt>
      <trkpt lat="59.309323" lon="18.075799">
        <ele>34</ele>
        <time>2019-11-15T16:43:27Z</time>
      </trkpt>
      <trkpt lat="59.309394" lon="18.075758">
        <ele>34</ele>
        <time>2019-11-15T16:43:28Z</time>
      </trkpt>
      <trkpt lat="59.309462" lon="18.075717">
        <ele>35</ele>
        <time>2019-11-15T16:43:29Z</time>
      </trkpt>
      <trkpt lat="59.309527" lon="18.075676">
        <ele>36</ele>
        <time>2019-11-15T16:43:30Z</time>
      </trkpt>
      <trkpt lat="59.30959" lon="18.075641">
        <ele>36</ele>
        <time>2019-11-15T16:43:31Z</time>
      </trkpt>
      <trkpt lat="59.309651" lon="18.075603">
        <ele>36</ele>
        <time>2019-11-15T16:43:32Z</time>
      </trkpt>
      <trkpt lat="59.309714" lon="18.075567">
        <ele>36</ele>
        <time>2019-11-15T16:43:33Z</time>
      </trkpt>
      <trkpt lat="59.309782" lon="18.075534">
        <ele>37</ele>
        <time>2019-11-15T16:43:34Z</time>
      </trkpt>
      <trkpt lat="59.30985" lon="18.075505">
        <ele>37</ele>
        <time>2019-11-15T16:43:35Z</time>
      </trkpt>
      <trkpt lat="59.309919" lon="18.075474">
        <ele>37</ele>
        <time>2019-11-15T16:43:36Z</time>
      </trkpt>
      <trkpt lat="59.309989" lon="18.075442">
        <ele>38</ele>
        <time>2019-11-15T16:43:37Z</time>
      </trkpt>
      <trkpt lat="59.310057" lon="18.075409">
        <ele>38</ele>
        <time>2019-11-15T16:43:38Z</time>
      </trkpt>
      <trkpt lat="59.310125" lon="18.075376">
        <ele>38</ele>
        <time>2019-11-15T16:43:39Z</time>
      </trkpt>
      <trkpt lat="59.310189" lon="18.075346">
        <ele>38</ele>
        <time>2019-11-15T16:43:40Z</time>
      </trkpt>
      <trkpt lat="59.310253" lon="18.075315">
        <ele>38</ele>
        <time>2019-11-15T16:43:41Z</time>
      </trkpt>
      <trkpt lat="59.310317" lon="18.075281">
        <ele>38</ele>
        <time>2019-11-15T16:43:42Z</time>
      </trkpt>
      <trkpt lat="59.310381" lon="18.07525">
        <ele>39</ele>
        <time>2019-11-15T16:43:43Z</time>
      </trkpt>
      <trkpt lat="59.310444" lon="18.075216">
        <ele>39</ele>
        <time>2019-11-15T16:43:44Z</time>
      </trkpt>
      <trkpt lat="59.310507" lon="18.075191">
        <ele>38</ele>
        <time>2019-11-15T16:43:45Z</time>
      </trkpt>
      <trkpt lat="59.310569" lon="18.075169">
        <ele>39</ele>
        <time>2019-11-15T16:43:46Z</time>
      </trkpt>
      <trkpt lat="59.310628" lon="18.075131">
        <ele>40</ele>
        <time>2019-11-15T16:43:47Z</time>
      </trkpt>
      <trkpt lat="59.31069" lon="18.075099">
        <ele>40</ele>
        <time>2019-11-15T16:43:48Z</time>
      </trkpt>
      <trkpt lat="59.31075" lon="18.075063">
        <ele>41</ele>
        <time>2019-11-15T16:43:49Z</time>
      </trkpt>
      <trkpt lat="59.310811" lon="18.075032">
        <ele>41</ele>
        <time>2019-11-15T16:43:50Z</time>
      </trkpt>
      <trkpt lat="59.310872" lon="18.075003">
        <ele>41</ele>
        <time>2019-11-15T16:43:51Z</time>
      </trkpt>
      <trkpt lat="59.310933" lon="18.074974">
        <ele>42</ele>
        <time>2019-11-15T16:43:52Z</time>
      </trkpt>
      <trkpt lat="59.310994" lon="18.074942">
        <ele>42</ele>
        <time>2019-11-15T16:43:53Z</time>
      </trkpt>
      <trkpt lat="59.311055" lon="18.074907">
        <ele>43</ele>
        <time>2019-11-15T16:43:54Z</time>
      </trkpt>
      <trkpt lat="59.311114" lon="18.074869">
        <ele>43</ele>
        <time>2019-11-15T16:43:55Z</time>
      </trkpt>
      <trkpt lat="59.311175" lon="18.074837">
        <ele>43</ele>
        <time>2019-11-15T16:43:56Z</time>
      </trkpt>
      <trkpt lat="59.311234" lon="18.074807">
        <ele>43</ele>
        <time>2019-11-15T16:43:57Z</time>
      </trkpt>
      <trkpt lat="59.311295" lon="18.074776">
        <ele>42</ele>
        <time>2019-11-15T16:43:58Z</time>
      </trkpt>
      <trkpt lat="59.311361" lon="18.07474">
        <ele>41</ele>
        <time>2019-11-15T16:43:59Z</time>
      </trkpt>
      <trkpt lat="59.31144" lon="18.074698">
        <ele>41</ele>
        <time>2019-11-15T16:44:00Z</time>
      </trkpt>
      <trkpt lat="59.311503" lon="18.074661">
        <ele>41</ele>
        <time>2019-11-15T16:44:01Z</time>
      </trkpt>
      <trkpt lat="59.311562" lon="18.074618">
        <ele>41</ele>
        <time>2019-11-15T16:44:02Z</time>
      </trkpt>
      <trkpt lat="59.311625" lon="18.074602">
        <ele>40</ele>
        <time>2019-11-15T16:44:03Z</time>
      </trkpt>
      <trkpt lat="59.311686" lon="18.074585">
        <ele>40</ele>
        <time>2019-11-15T16:44:04Z</time>
      </trkpt>
      <trkpt lat="59.311757" lon="18.074564">
        <ele>40</ele>
        <time>2019-11-15T16:44:05Z</time>
      </trkpt>
      <trkpt lat="59.311829" lon="18.074528">
        <ele>39</ele>
        <time>2019-11-15T16:44:06Z</time>
      </trkpt>
      <trkpt lat="59.3119" lon="18.074497">
        <ele>39</ele>
        <time>2019-11-15T16:44:07Z</time>
      </trkpt>
      <trkpt lat="59.311964" lon="18.07445">
        <ele>39</ele>
        <time>2019-11-15T16:44:08Z</time>
      </trkpt>
      <trkpt lat="59.312027" lon="18.074403">
        <ele>39</ele>
        <time>2019-11-15T16:44:09Z</time>
      </trkpt>
      <trkpt lat="59.312087" lon="18.074366">
        <ele>39</ele>
        <time>2019-11-15T16:44:10Z</time>
      </trkpt>
      <trkpt lat="59.312146" lon="18.074333">
        <ele>38</ele>
        <time>2019-11-15T16:44:11Z</time>
      </trkpt>
      <trkpt lat="59.312198" lon="18.074305">
        <ele>38</ele>
        <time>2019-11-15T16:44:12Z</time>
      </trkpt>
      <trkpt lat="59.312253" lon="18.074286">
        <ele>38</ele>
        <time>2019-11-15T16:44:13Z</time>
      </trkpt>
      <trkpt lat="59.312309" lon="18.074271">
        <ele>39</ele>
        <time>2019-11-15T16:44:14Z</time>
      </trkpt>
      <trkpt lat="59.31236" lon="18.074246">
        <ele>39</ele>
        <time>2019-11-15T16:44:15Z</time>
      </trkpt>
      <trkpt lat="59.312409" lon="18.074206">
        <ele>39</ele>
        <time>2019-11-15T16:44:16Z</time>
      </trkpt>
      <trkpt lat="59.312459" lon="18.074168">
        <ele>39</ele>
        <time>2019-11-15T16:44:17Z</time>
      </trkpt>
      <trkpt lat="59.31251" lon="18.07414">
        <ele>39</ele>
        <time>2019-11-15T16:44:18Z</time>
      </trkpt>
      <trkpt lat="59.312554" lon="18.074121">
        <ele>39</ele>
        <time>2019-11-15T16:44:19Z</time>
      </trkpt>
      <trkpt lat="59.31259" lon="18.074106">
        <ele>39</ele>
        <time>2019-11-15T16:44:20Z</time>
      </trkpt>
      <trkpt lat="59.312626" lon="18.074097">
        <ele>39</ele>
        <time>2019-11-15T16:44:21Z</time>
      </trkpt>
      <trkpt lat="59.312652" lon="18.074093">
        <ele>40</ele>
        <time>2019-11-15T16:44:22Z</time>
      </trkpt>
      <trkpt lat="59.312672" lon="18.074092">
        <ele>40</ele>
        <time>2019-11-15T16:44:23Z</time>
      </trkpt>
      <trkpt lat="59.312694" lon="18.074091">
        <ele>40</ele>
        <time>2019-11-15T16:44:24Z</time>
      </trkpt>
      <trkpt lat="59.312712" lon="18.074087">
        <ele>41</ele>
        <time>2019-11-15T16:44:25Z</time>
      </trkpt>
      <trkpt lat="59.312732" lon="18.074085">
        <ele>41</ele>
        <time>2019-11-15T16:44:27Z</time>
      </trkpt>
      <trkpt lat="59.312731" lon="18.074085">
        <ele>0</ele>
        <time>2019-11-15T16:44:30Z</time>
      </trkpt>
      <trkpt lat="59.312749" lon="18.07408">
        <ele>43</ele>
        <time>2019-11-15T16:44:50Z</time>
      </trkpt>
      <trkpt lat="59.312769" lon="18.074078">
        <ele>43</ele>
        <time>2019-11-15T16:44:51Z</time>
      </trkpt>
      <trkpt lat="59.312797" lon="18.074072">
        <ele>43</ele>
        <time>2019-11-15T16:44:52Z</time>
      </trkpt>
      <trkpt lat="59.312832" lon="18.074067">
        <ele>44</ele>
        <time>2019-11-15T16:44:53Z</time>
      </trkpt>
      <trkpt lat="59.312875" lon="18.074055">
        <ele>44</ele>
        <time>2019-11-15T16:44:54Z</time>
      </trkpt>
      <trkpt lat="59.312933" lon="18.074047">
        <ele>45</ele>
        <time>2019-11-15T16:44:55Z</time>
      </trkpt>
      <trkpt lat="59.312973" lon="18.074028">
        <ele>45</ele>
        <time>2019-11-15T16:44:56Z</time>
      </trkpt>
      <trkpt lat="59.313011" lon="18.074012">
        <ele>45</ele>
        <time>2019-11-15T16:44:57Z</time>
      </trkpt>
      <trkpt lat="59.313039" lon="18.074003">
        <ele>45</ele>
        <time>2019-11-15T16:44:58Z</time>
      </trkpt>
      <trkpt lat="59.313078" lon="18.073988">
        <ele>46</ele>
        <time>2019-11-15T16:44:59Z</time>
      </trkpt>
      <trkpt lat="59.313142" lon="18.073947">
        <ele>46</ele>
        <time>2019-11-15T16:45:00Z</time>
      </trkpt>
      <trkpt lat="59.313203" lon="18.07391">
        <ele>0</ele>
        <time>2019-11-15T16:45:00Z</time>
      </trkpt>
      <trkpt lat="59.31326" lon="18.073878">
        <ele>46</ele>
        <time>2019-11-15T16:45:01Z</time>
      </trkpt>
      <trkpt lat="59.313311" lon="18.073849">
        <ele>46</ele>
        <time>2019-11-15T16:45:03Z</time>
      </trkpt>
      <trkpt lat="59.313367" lon="18.073812">
        <ele>47</ele>
        <time>2019-11-15T16:45:04Z</time>
      </trkpt>
      <trkpt lat="59.313426" lon="18.073787">
        <ele>47</ele>
        <time>2019-11-15T16:45:05Z</time>
      </trkpt>
      <trkpt lat="59.313477" lon="18.073746">
        <ele>47</ele>
        <time>2019-11-15T16:45:06Z</time>
      </trkpt>
      <trkpt lat="59.31353" lon="18.073712">
        <ele>47</ele>
        <time>2019-11-15T16:45:07Z</time>
      </trkpt>
      <trkpt lat="59.313652" lon="18.073635">
        <ele>48</ele>
        <time>2019-11-15T16:45:09Z</time>
      </trkpt>
      <trkpt lat="59.31371" lon="18.073594">
        <ele>48</ele>
        <time>2019-11-15T16:45:10Z</time>
      </trkpt>
      <trkpt lat="59.313796" lon="18.073524">
        <ele>50</ele>
        <time>2019-11-15T16:45:12Z</time>
      </trkpt>
      <trkpt lat="59.313837" lon="18.073482">
        <ele>50</ele>
        <time>2019-11-15T16:45:13Z</time>
      </trkpt>
      <trkpt lat="59.313872" lon="18.073451">
        <ele>50</ele>
        <time>2019-11-15T16:45:14Z</time>
      </trkpt>
      <trkpt lat="59.313899" lon="18.073444">
        <ele>51</ele>
        <time>2019-11-15T16:45:15Z</time>
      </trkpt>
      <trkpt lat="59.313921" lon="18.073439">
        <ele>51</ele>
        <time>2019-11-15T16:45:16Z</time>
      </trkpt>
      <trkpt lat="59.313951" lon="18.073424">
        <ele>52</ele>
        <time>2019-11-15T16:45:18Z</time>
      </trkpt>
      <trkpt lat="59.313973" lon="18.073398">
        <ele>54</ele>
        <time>2019-11-15T16:45:21Z</time>
      </trkpt>
      <trkpt lat="59.313979" lon="18.073382">
        <ele>0</ele>
        <time>2019-11-15T16:45:26Z</time>
      </trkpt>
      <trkpt lat="59.313998" lon="18.073343">
        <ele>56</ele>
        <time>2019-11-15T16:45:38Z</time>
      </trkpt>
      <trkpt lat="59.314027" lon="18.07334">
        <ele>57</ele>
        <time>2019-11-15T16:45:39Z</time>
      </trkpt>
      <trkpt lat="59.314147" lon="18.073466">
        <ele>56</ele>
        <time>2019-11-15T16:45:41Z</time>
      </trkpt>
      <trkpt lat="59.31426" lon="18.073471">
        <ele>55</ele>
        <time>2019-11-15T16:45:43Z</time>
      </trkpt>
      <trkpt lat="59.314319" lon="18.073442">
        <ele>54</ele>
        <time>2019-11-15T16:45:44Z</time>
      </trkpt>
      <trkpt lat="59.314392" lon="18.073387">
        <ele>53</ele>
        <time>2019-11-15T16:45:45Z</time>
      </trkpt>
      <trkpt lat="59.314457" lon="18.073336">
        <ele>53</ele>
        <time>2019-11-15T16:45:46Z</time>
      </trkpt>
      <trkpt lat="59.314511" lon="18.073304">
        <ele>53</ele>
        <time>2019-11-15T16:45:47Z</time>
      </trkpt>
      <trkpt lat="59.314564" lon="18.073283">
        <ele>53</ele>
        <time>2019-11-15T16:45:48Z</time>
      </trkpt>
      <trkpt lat="59.314613" lon="18.073248">
        <ele>53</ele>
        <time>2019-11-15T16:45:49Z</time>
      </trkpt>
      <trkpt lat="59.314654" lon="18.07321">
        <ele>52</ele>
        <time>2019-11-15T16:45:50Z</time>
      </trkpt>
      <trkpt lat="59.314693" lon="18.073183">
        <ele>52</ele>
        <time>2019-11-15T16:45:51Z</time>
      </trkpt>
      <trkpt lat="59.314722" lon="18.073164">
        <ele>52</ele>
        <time>2019-11-15T16:45:52Z</time>
      </trkpt>
      <trkpt lat="59.31475" lon="18.073149">
        <ele>51</ele>
        <time>2019-11-15T16:45:54Z</time>
      </trkpt>
      <trkpt lat="59.314785" lon="18.073117">
        <ele>50</ele>
        <time>2019-11-15T16:45:56Z</time>
      </trkpt>
      <trkpt lat="59.314816" lon="18.073106">
        <ele>50</ele>
        <time>2019-11-15T16:45:57Z</time>
      </trkpt>
      <trkpt lat="59.314858" lon="18.073101">
        <ele>50</ele>
        <time>2019-11-15T16:45:58Z</time>
      </trkpt>
      <trkpt lat="59.314904" lon="18.073084">
        <ele>49</ele>
        <time>2019-11-15T16:45:59Z</time>
      </trkpt>
      <trkpt lat="59.314955" lon="18.073063">
        <ele>48</ele>
        <time>2019-11-15T16:46:00Z</time>
      </trkpt>
      <trkpt lat="59.315009" lon="18.073044">
        <ele>48</ele>
        <time>2019-11-15T16:46:01Z</time>
      </trkpt>
      <trkpt lat="59.315065" lon="18.073027">
        <ele>46</ele>
        <time>2019-11-15T16:46:02Z</time>
      </trkpt>
      <trkpt lat="59.315121" lon="18.073009">
        <ele>46</ele>
        <time>2019-11-15T16:46:03Z</time>
      </trkpt>
      <trkpt lat="59.315177" lon="18.07299">
        <ele>45</ele>
        <time>2019-11-15T16:46:04Z</time>
      </trkpt>
      <trkpt lat="59.315231" lon="18.072975">
        <ele>45</ele>
        <time>2019-11-15T16:46:05Z</time>
      </trkpt>
      <trkpt lat="59.315285" lon="18.072962">
        <ele>44</ele>
        <time>2019-11-15T16:46:06Z</time>
      </trkpt>
      <trkpt lat="59.315338" lon="18.072948">
        <ele>43</ele>
        <time>2019-11-15T16:46:07Z</time>
      </trkpt>
      <trkpt lat="59.315393" lon="18.072928">
        <ele>43</ele>
        <time>2019-11-15T16:46:08Z</time>
      </trkpt>
      <trkpt lat="59.315448" lon="18.0729">
        <ele>42</ele>
        <time>2019-11-15T16:46:09Z</time>
      </trkpt>
      <trkpt lat="59.315499" lon="18.072864">
        <ele>42</ele>
        <time>2019-11-15T16:46:10Z</time>
      </trkpt>
      <trkpt lat="59.315548" lon="18.072827">
        <ele>42</ele>
        <time>2019-11-15T16:46:11Z</time>
      </trkpt>
      <trkpt lat="59.315595" lon="18.072779">
        <ele>41</ele>
        <time>2019-11-15T16:46:12Z</time>
      </trkpt>
      <trkpt lat="59.315639" lon="18.072728">
        <ele>41</ele>
        <time>2019-11-15T16:46:13Z</time>
      </trkpt>
      <trkpt lat="59.315676" lon="18.072671">
        <ele>40</ele>
        <time>2019-11-15T16:46:14Z</time>
      </trkpt>
      <trkpt lat="59.315714" lon="18.072602">
        <ele>40</ele>
        <time>2019-11-15T16:46:15Z</time>
      </trkpt>
      <trkpt lat="59.315753" lon="18.072543">
        <ele>40</ele>
        <time>2019-11-15T16:46:16Z</time>
      </trkpt>
      <trkpt lat="59.3158" lon="18.072503">
        <ele>40</ele>
        <time>2019-11-15T16:46:17Z</time>
      </trkpt>
      <trkpt lat="59.315851" lon="18.072473">
        <ele>41</ele>
        <time>2019-11-15T16:46:18Z</time>
      </trkpt>
      <trkpt lat="59.315904" lon="18.072446">
        <ele>41</ele>
        <time>2019-11-15T16:46:19Z</time>
      </trkpt>
      <trkpt lat="59.315956" lon="18.072419">
        <ele>41</ele>
        <time>2019-11-15T16:46:20Z</time>
      </trkpt>
      <trkpt lat="59.316009" lon="18.07239">
        <ele>41</ele>
        <time>2019-11-15T16:46:21Z</time>
      </trkpt>
      <trkpt lat="59.316061" lon="18.072363">
        <ele>41</ele>
        <time>2019-11-15T16:46:22Z</time>
      </trkpt>
      <trkpt lat="59.316113" lon="18.072335">
        <ele>41</ele>
        <time>2019-11-15T16:46:23Z</time>
      </trkpt>
      <trkpt lat="59.316159" lon="18.072307">
        <ele>41</ele>
        <time>2019-11-15T16:46:24Z</time>
      </trkpt>
      <trkpt lat="59.316206" lon="18.072285">
        <ele>41</ele>
        <time>2019-11-15T16:46:25Z</time>
      </trkpt>
      <trkpt lat="59.316252" lon="18.072269">
        <ele>41</ele>
        <time>2019-11-15T16:46:26Z</time>
      </trkpt>
      <trkpt lat="59.316298" lon="18.072254">
        <ele>41</ele>
        <time>2019-11-15T16:46:27Z</time>
      </trkpt>
      <trkpt lat="59.316344" lon="18.072231">
        <ele>41</ele>
        <time>2019-11-15T16:46:28Z</time>
      </trkpt>
      <trkpt lat="59.316388" lon="18.072211">
        <ele>41</ele>
        <time>2019-11-15T16:46:29Z</time>
      </trkpt>
      <trkpt lat="59.31643" lon="18.072189">
        <ele>41</ele>
        <time>2019-11-15T16:46:30Z</time>
      </trkpt>
      <trkpt lat="59.316472" lon="18.072163">
        <ele>41</ele>
        <time>2019-11-15T16:46:31Z</time>
      </trkpt>
      <trkpt lat="59.316517" lon="18.072145">
        <ele>41</ele>
        <time>2019-11-15T16:46:32Z</time>
      </trkpt>
      <trkpt lat="59.31656" lon="18.072127">
        <ele>41</ele>
        <time>2019-11-15T16:46:33Z</time>
      </trkpt>
      <trkpt lat="59.316598" lon="18.0721">
        <ele>41</ele>
        <time>2019-11-15T16:46:34Z</time>
      </trkpt>
      <trkpt lat="59.31664" lon="18.072068">
        <ele>41</ele>
        <time>2019-11-15T16:46:35Z</time>
      </trkpt>
      <trkpt lat="59.316676" lon="18.072048">
        <ele>41</ele>
        <time>2019-11-15T16:46:36Z</time>
      </trkpt>
      <trkpt lat="59.316717" lon="18.072035">
        <ele>41</ele>
        <time>2019-11-15T16:46:37Z</time>
      </trkpt>
      <trkpt lat="59.316755" lon="18.072026">
        <ele>42</ele>
        <time>2019-11-15T16:46:38Z</time>
      </trkpt>
      <trkpt lat="59.316795" lon="18.072014">
        <ele>42</ele>
        <time>2019-11-15T16:46:39Z</time>
      </trkpt>
      <trkpt lat="59.316833" lon="18.071995">
        <ele>42</ele>
        <time>2019-11-15T16:46:40Z</time>
      </trkpt>
      <trkpt lat="59.316871" lon="18.071982">
        <ele>42</ele>
        <time>2019-11-15T16:46:41Z</time>
      </trkpt>
      <trkpt lat="59.316906" lon="18.071955">
        <ele>42</ele>
        <time>2019-11-15T16:46:42Z</time>
      </trkpt>
      <trkpt lat="59.316937" lon="18.071925">
        <ele>43</ele>
        <time>2019-11-15T16:46:43Z</time>
      </trkpt>
      <trkpt lat="59.31696" lon="18.071898">
        <ele>43</ele>
        <time>2019-11-15T16:46:44Z</time>
      </trkpt>
      <trkpt lat="59.316983" lon="18.071878">
        <ele>43</ele>
        <time>2019-11-15T16:46:45Z</time>
      </trkpt>
      <trkpt lat="59.317003" lon="18.071862">
        <ele>43</ele>
        <time>2019-11-15T16:46:46Z</time>
      </trkpt>
      <trkpt lat="59.317035" lon="18.071848">
        <ele>43</ele>
        <time>2019-11-15T16:46:47Z</time>
      </trkpt>
      <trkpt lat="59.317066" lon="18.07183">
        <ele>43</ele>
        <time>2019-11-15T16:46:48Z</time>
      </trkpt>
      <trkpt lat="59.317103" lon="18.071802">
        <ele>43</ele>
        <time>2019-11-15T16:46:49Z</time>
      </trkpt>
      <trkpt lat="59.317148" lon="18.07178">
        <ele>44</ele>
        <time>2019-11-15T16:46:50Z</time>
      </trkpt>
      <trkpt lat="59.317191" lon="18.071755">
        <ele>44</ele>
        <time>2019-11-15T16:46:51Z</time>
      </trkpt>
      <trkpt lat="59.317236" lon="18.071729">
        <ele>44</ele>
        <time>2019-11-15T16:46:52Z</time>
      </trkpt>
      <trkpt lat="59.317283" lon="18.071707">
        <ele>44</ele>
        <time>2019-11-15T16:46:53Z</time>
      </trkpt>
      <trkpt lat="59.317329" lon="18.07169">
        <ele>44</ele>
        <time>2019-11-15T16:46:54Z</time>
      </trkpt>
      <trkpt lat="59.31737" lon="18.071678">
        <ele>44</ele>
        <time>2019-11-15T16:46:55Z</time>
      </trkpt>
      <trkpt lat="59.317413" lon="18.071655">
        <ele>44</ele>
        <time>2019-11-15T16:46:56Z</time>
      </trkpt>
      <trkpt lat="59.317461" lon="18.071623">
        <ele>44</ele>
        <time>2019-11-15T16:46:57Z</time>
      </trkpt>
      <trkpt lat="59.317504" lon="18.071598">
        <ele>44</ele>
        <time>2019-11-15T16:46:58Z</time>
      </trkpt>
      <trkpt lat="59.317545" lon="18.071572">
        <ele>44</ele>
        <time>2019-11-15T16:46:59Z</time>
      </trkpt>
      <trkpt lat="59.31759" lon="18.071547">
        <ele>44</ele>
        <time>2019-11-15T16:47:00Z</time>
      </trkpt>
      <trkpt lat="59.317637" lon="18.071516">
        <ele>44</ele>
        <time>2019-11-15T16:47:01Z</time>
      </trkpt>
      <trkpt lat="59.317683" lon="18.07148">
        <ele>44</ele>
        <time>2019-11-15T16:47:02Z</time>
      </trkpt>
      <trkpt lat="59.317726" lon="18.071452">
        <ele>44</ele>
        <time>2019-11-15T16:47:03Z</time>
      </trkpt>
      <trkpt lat="59.317773" lon="18.071438">
        <ele>44</ele>
        <time>2019-11-15T16:47:04Z</time>
      </trkpt>
      <trkpt lat="59.31782" lon="18.071424">
        <ele>44</ele>
        <time>2019-11-15T16:47:05Z</time>
      </trkpt>
      <trkpt lat="59.31786" lon="18.071404">
        <ele>44</ele>
        <time>2019-11-15T16:47:06Z</time>
      </trkpt>
      <trkpt lat="59.317887" lon="18.071378">
        <ele>44</ele>
        <time>2019-11-15T16:47:07Z</time>
      </trkpt>
      <trkpt lat="59.317905" lon="18.071357">
        <ele>44</ele>
        <time>2019-11-15T16:47:08Z</time>
      </trkpt>
      <trkpt lat="59.317932" lon="18.071364">
        <ele>44</ele>
        <time>2019-11-15T16:47:10Z</time>
      </trkpt>
      <trkpt lat="59.317953" lon="18.071362">
        <ele>45</ele>
        <time>2019-11-15T16:47:11Z</time>
      </trkpt>
      <trkpt lat="59.317984" lon="18.071362">
        <ele>45</ele>
        <time>2019-11-15T16:47:12Z</time>
      </trkpt>
      <trkpt lat="59.318024" lon="18.071356">
        <ele>45</ele>
        <time>2019-11-15T16:47:13Z</time>
      </trkpt>
      <trkpt lat="59.318067" lon="18.071349">
        <ele>45</ele>
        <time>2019-11-15T16:47:14Z</time>
      </trkpt>
      <trkpt lat="59.318118" lon="18.071327">
        <ele>45</ele>
        <time>2019-11-15T16:47:15Z</time>
      </trkpt>
      <trkpt lat="59.318177" lon="18.071304">
        <ele>45</ele>
        <time>2019-11-15T16:47:16Z</time>
      </trkpt>
      <trkpt lat="59.318225" lon="18.071291">
        <ele>45</ele>
        <time>2019-11-15T16:47:17Z</time>
      </trkpt>
      <trkpt lat="59.318266" lon="18.071264">
        <ele>45</ele>
        <time>2019-11-15T16:47:18Z</time>
      </trkpt>
      <trkpt lat="59.318308" lon="18.071238">
        <ele>45</ele>
        <time>2019-11-15T16:47:19Z</time>
      </trkpt>
      <trkpt lat="59.318355" lon="18.071218">
        <ele>46</ele>
        <time>2019-11-15T16:47:20Z</time>
      </trkpt>
      <trkpt lat="59.3184" lon="18.0712">
        <ele>46</ele>
        <time>2019-11-15T16:47:21Z</time>
      </trkpt>
      <trkpt lat="59.31845" lon="18.071176">
        <ele>46</ele>
        <time>2019-11-15T16:47:22Z</time>
      </trkpt>
      <trkpt lat="59.318577" lon="18.071064">
        <ele>46</ele>
        <time>2019-11-15T16:47:24Z</time>
      </trkpt>
      <trkpt lat="59.318693" lon="18.070974">
        <ele>47</ele>
        <time>2019-11-15T16:47:26Z</time>
      </trkpt>
      <trkpt lat="59.318752" lon="18.070956">
        <ele>47</ele>
        <time>2019-11-15T16:47:27Z</time>
      </trkpt>
      <trkpt lat="59.318819" lon="18.07096">
        <ele>47</ele>
        <time>2019-11-15T16:47:28Z</time>
      </trkpt>
      <trkpt lat="59.318891" lon="18.070952">
        <ele>47</ele>
        <time>2019-11-15T16:47:29Z</time>
      </trkpt>
      <trkpt lat="59.318966" lon="18.07092">
        <ele>47</ele>
        <time>2019-11-15T16:47:30Z</time>
      </trkpt>
      <trkpt lat="59.319043" lon="18.070885">
        <ele>46</ele>
        <time>2019-11-15T16:47:31Z</time>
      </trkpt>
      <trkpt lat="59.319118" lon="18.070858">
        <ele>46</ele>
        <time>2019-11-15T16:47:32Z</time>
      </trkpt>
      <trkpt lat="59.319193" lon="18.070817">
        <ele>45</ele>
        <time>2019-11-15T16:47:33Z</time>
      </trkpt>
      <trkpt lat="59.319281" lon="18.070784">
        <ele>45</ele>
        <time>2019-11-15T16:47:34Z</time>
      </trkpt>
      <trkpt lat="59.319351" lon="18.070741">
        <ele>45</ele>
        <time>2019-11-15T16:47:35Z</time>
      </trkpt>
      <trkpt lat="59.31941" lon="18.070703">
        <ele>45</ele>
        <time>2019-11-15T16:47:36Z</time>
      </trkpt>
      <trkpt lat="59.319451" lon="18.070689">
        <ele>45</ele>
        <time>2019-11-15T16:47:37Z</time>
      </trkpt>
      <trkpt lat="59.319495" lon="18.070662">
        <ele>45</ele>
        <time>2019-11-15T16:47:38Z</time>
      </trkpt>
      <trkpt lat="59.319565" lon="18.070607">
        <ele>45</ele>
        <time>2019-11-15T16:47:40Z</time>
      </trkpt>
      <trkpt lat="59.319598" lon="18.070571">
        <ele>44</ele>
        <time>2019-11-15T16:47:41Z</time>
      </trkpt>
      <trkpt lat="59.319635" lon="18.070532">
        <ele>44</ele>
        <time>2019-11-15T16:47:42Z</time>
      </trkpt>
      <trkpt lat="59.319662" lon="18.070498">
        <ele>44</ele>
        <time>2019-11-15T16:47:43Z</time>
      </trkpt>
      <trkpt lat="59.319679" lon="18.070471">
        <ele>45</ele>
        <time>2019-11-15T16:47:44Z</time>
      </trkpt>
      <trkpt lat="59.319703" lon="18.070442">
        <ele>44</ele>
        <time>2019-11-15T16:47:46Z</time>
      </trkpt>
      <trkpt lat="59.319732" lon="18.070408">
        <ele>44</ele>
        <time>2019-11-15T16:47:48Z</time>
      </trkpt>
      <trkpt lat="59.319758" lon="18.070398">
        <ele>43</ele>
        <time>2019-11-15T16:47:49Z</time>
      </trkpt>
      <trkpt lat="59.319798" lon="18.070404">
        <ele>42</ele>
        <time>2019-11-15T16:47:50Z</time>
      </trkpt>
      <trkpt lat="59.319853" lon="18.070474">
        <ele>40</ele>
        <time>2019-11-15T16:47:51Z</time>
      </trkpt>
      <trkpt lat="59.319891" lon="18.070562">
        <ele>39</ele>
        <time>2019-11-15T16:47:52Z</time>
      </trkpt>
      <trkpt lat="59.31993" lon="18.070662">
        <ele>37</ele>
        <time>2019-11-15T16:47:53Z</time>
      </trkpt>
      <trkpt lat="59.319975" lon="18.070753">
        <ele>37</ele>
        <time>2019-11-15T16:47:54Z</time>
      </trkpt>
      <trkpt lat="59.320005" lon="18.070831">
        <ele>36</ele>
        <time>2019-11-15T16:47:55Z</time>
      </trkpt>
      <trkpt lat="59.320027" lon="18.070893">
        <ele>36</ele>
        <time>2019-11-15T16:47:56Z</time>
      </trkpt>
      <trkpt lat="59.320043" lon="18.070935">
        <ele>36</ele>
        <time>2019-11-15T16:47:57Z</time>
      </trkpt>
      <trkpt lat="59.320062" lon="18.07098">
        <ele>34</ele>
        <time>2019-11-15T16:47:59Z</time>
      </trkpt>
      <trkpt lat="59.320061" lon="18.071001">
        <ele>32</ele>
        <time>2019-11-15T16:48:03Z</time>
      </trkpt>
      <trkpt lat="59.3201" lon="18.071046">
        <ele>30</ele>
        <time>2019-11-15T16:48:09Z</time>
      </trkpt>
      <trkpt lat="59.320125" lon="18.071068">
        <ele>29</ele>
        <time>2019-11-15T16:48:10Z</time>
      </trkpt>
      <trkpt lat="59.320155" lon="18.071096">
        <ele>29</ele>
        <time>2019-11-15T16:48:11Z</time>
      </trkpt>
      <trkpt lat="59.320192" lon="18.071128">
        <ele>28</ele>
        <time>2019-11-15T16:48:12Z</time>
      </trkpt>
      <trkpt lat="59.320229" lon="18.071166">
        <ele>27</ele>
        <time>2019-11-15T16:48:13Z</time>
      </trkpt>
      <trkpt lat="59.320259" lon="18.071216">
        <ele>26</ele>
        <time>2019-11-15T16:48:14Z</time>
      </trkpt>
      <trkpt lat="59.320287" lon="18.07127">
        <ele>26</ele>
        <time>2019-11-15T16:48:15Z</time>
      </trkpt>
      <trkpt lat="59.320323" lon="18.071314">
        <ele>25</ele>
        <time>2019-11-15T16:48:16Z</time>
      </trkpt>
      <trkpt lat="59.320364" lon="18.07135">
        <ele>25</ele>
        <time>2019-11-15T16:48:17Z</time>
      </trkpt>
      <trkpt lat="59.320409" lon="18.071386">
        <ele>25</ele>
        <time>2019-11-15T16:48:18Z</time>
      </trkpt>
      <trkpt lat="59.320455" lon="18.071417">
        <ele>24</ele>
        <time>2019-11-15T16:48:19Z</time>
      </trkpt>
      <trkpt lat="59.320506" lon="18.071436">
        <ele>24</ele>
        <time>2019-11-15T16:48:20Z</time>
      </trkpt>
      <trkpt lat="59.320558" lon="18.071444">
        <ele>24</ele>
        <time>2019-11-15T16:48:21Z</time>
      </trkpt>
      <trkpt lat="59.320609" lon="18.071451">
        <ele>23</ele>
        <time>2019-11-15T16:48:22Z</time>
      </trkpt>
      <trkpt lat="59.320661" lon="18.071464">
        <ele>23</ele>
        <time>2019-11-15T16:48:23Z</time>
      </trkpt>
      <trkpt lat="59.320712" lon="18.071487">
        <ele>23</ele>
        <time>2019-11-15T16:48:24Z</time>
      </trkpt>
      <trkpt lat="59.32076" lon="18.071527">
        <ele>22</ele>
        <time>2019-11-15T16:48:25Z</time>
      </trkpt>
      <trkpt lat="59.320799" lon="18.071595">
        <ele>22</ele>
        <time>2019-11-15T16:48:26Z</time>
      </trkpt>
      <trkpt lat="59.320826" lon="18.071689">
        <ele>21</ele>
        <time>2019-11-15T16:48:27Z</time>
      </trkpt>
      <trkpt lat="59.320848" lon="18.071794">
        <ele>20</ele>
        <time>2019-11-15T16:48:28Z</time>
      </trkpt>
      <trkpt lat="59.320871" lon="18.071905">
        <ele>20</ele>
        <time>2019-11-15T16:48:29Z</time>
      </trkpt>
      <trkpt lat="59.3209" lon="18.072013">
        <ele>19</ele>
        <time>2019-11-15T16:48:30Z</time>
      </trkpt>
      <trkpt lat="59.320939" lon="18.072102">
        <ele>18</ele>
        <time>2019-11-15T16:48:31Z</time>
      </trkpt>
      <trkpt lat="59.320988" lon="18.072162">
        <ele>18</ele>
        <time>2019-11-15T16:48:32Z</time>
      </trkpt>
      <trkpt lat="59.321044" lon="18.072206">
        <ele>17</ele>
        <time>2019-11-15T16:48:33Z</time>
      </trkpt>
      <trkpt lat="59.321104" lon="18.072249">
        <ele>17</ele>
        <time>2019-11-15T16:48:34Z</time>
      </trkpt>
      <trkpt lat="59.321166" lon="18.072292">
        <ele>17</ele>
        <time>2019-11-15T16:48:35Z</time>
      </trkpt>
      <trkpt lat="59.321231" lon="18.072338">
        <ele>16</ele>
        <time>2019-11-15T16:48:36Z</time>
      </trkpt>
      <trkpt lat="59.321297" lon="18.072384">
        <ele>16</ele>
        <time>2019-11-15T16:48:37Z</time>
      </trkpt>
      <trkpt lat="59.321364" lon="18.07243">
        <ele>16</ele>
        <time>2019-11-15T16:48:38Z</time>
      </trkpt>
      <trkpt lat="59.32143" lon="18.072479">
        <ele>15</ele>
        <time>2019-11-15T16:48:39Z</time>
      </trkpt>
      <trkpt lat="59.321497" lon="18.07253">
        <ele>14</ele>
        <time>2019-11-15T16:48:40Z</time>
      </trkpt>
      <trkpt lat="59.321565" lon="18.07258">
        <ele>14</ele>
        <time>2019-11-15T16:48:41Z</time>
      </trkpt>
      <trkpt lat="59.321631" lon="18.072631">
        <ele>14</ele>
        <time>2019-11-15T16:48:42Z</time>
      </trkpt>
      <trkpt lat="59.321695" lon="18.072685">
        <ele>13</ele>
        <time>2019-11-15T16:48:43Z</time>
      </trkpt>
      <trkpt lat="59.321754" lon="18.072741">
        <ele>13</ele>
        <time>2019-11-15T16:48:44Z</time>
      </trkpt>
      <trkpt lat="59.321809" lon="18.072791">
        <ele>12</ele>
        <time>2019-11-15T16:48:45Z</time>
      </trkpt>
      <trkpt lat="59.321863" lon="18.072831">
        <ele>12</ele>
        <time>2019-11-15T16:48:46Z</time>
      </trkpt>
      <trkpt lat="59.32191" lon="18.07287">
        <ele>11</ele>
        <time>2019-11-15T16:48:47Z</time>
      </trkpt>
      <trkpt lat="59.321943" lon="18.072926">
        <ele>11</ele>
        <time>2019-11-15T16:48:48Z</time>
      </trkpt>
      <trkpt lat="59.321964" lon="18.073">
        <ele>11</ele>
        <time>2019-11-15T16:48:49Z</time>
      </trkpt>
      <trkpt lat="59.321974" lon="18.073089">
        <ele>11</ele>
        <time>2019-11-15T16:48:50Z</time>
      </trkpt>
      <trkpt lat="59.321969" lon="18.073185">
        <ele>11</ele>
        <time>2019-11-15T16:48:51Z</time>
      </trkpt>
      <trkpt lat="59.321951" lon="18.073281">
        <ele>11</ele>
        <time>2019-11-15T16:48:52Z</time>
      </trkpt>
      <trkpt lat="59.321929" lon="18.073381">
        <ele>11</ele>
        <time>2019-11-15T16:48:53Z</time>
      </trkpt>
      <trkpt lat="59.321911" lon="18.073483">
        <ele>11</ele>
        <time>2019-11-15T16:48:54Z</time>
      </trkpt>
      <trkpt lat="59.321894" lon="18.073586">
        <ele>11</ele>
        <time>2019-11-15T16:48:55Z</time>
      </trkpt>
      <trkpt lat="59.32188" lon="18.073689">
        <ele>11</ele>
        <time>2019-11-15T16:48:56Z</time>
      </trkpt>
      <trkpt lat="59.321876" lon="18.073789">
        <ele>11</ele>
        <time>2019-11-15T16:48:57Z</time>
      </trkpt>
      <trkpt lat="59.321887" lon="18.073882">
        <ele>11</ele>
        <time>2019-11-15T16:48:58Z</time>
      </trkpt>
      <trkpt lat="59.321913" lon="18.073969">
        <ele>10</ele>
        <time>2019-11-15T16:48:59Z</time>
      </trkpt>
      <trkpt lat="59.321939" lon="18.074058">
        <ele>10</ele>
        <time>2019-11-15T16:49:00Z</time>
      </trkpt>
      <trkpt lat="59.321968" lon="18.074148">
        <ele>10</ele>
        <time>2019-11-15T16:49:01Z</time>
      </trkpt>
      <trkpt lat="59.322001" lon="18.074229">
        <ele>10</ele>
        <time>2019-11-15T16:49:02Z</time>
      </trkpt>
      <trkpt lat="59.322044" lon="18.074284">
        <ele>10</ele>
        <time>2019-11-15T16:49:03Z</time>
      </trkpt>
      <trkpt lat="59.322099" lon="18.074316">
        <ele>10</ele>
        <time>2019-11-15T16:49:04Z</time>
      </trkpt>
      <trkpt lat="59.322157" lon="18.074344">
        <ele>9</ele>
        <time>2019-11-15T16:49:05Z</time>
      </trkpt>
      <trkpt lat="59.322218" lon="18.074382">
        <ele>9</ele>
        <time>2019-11-15T16:49:06Z</time>
      </trkpt>
      <trkpt lat="59.322278" lon="18.074423">
        <ele>9</ele>
        <time>2019-11-15T16:49:07Z</time>
      </trkpt>
      <trkpt lat="59.322337" lon="18.074463">
        <ele>9</ele>
        <time>2019-11-15T16:49:08Z</time>
      </trkpt>
      <trkpt lat="59.322397" lon="18.074502">
        <ele>9</ele>
        <time>2019-11-15T16:49:09Z</time>
      </trkpt>
      <trkpt lat="59.322456" lon="18.074547">
        <ele>9</ele>
        <time>2019-11-15T16:49:10Z</time>
      </trkpt>
      <trkpt lat="59.322513" lon="18.074595">
        <ele>9</ele>
        <time>2019-11-15T16:49:11Z</time>
      </trkpt>
      <trkpt lat="59.322567" lon="18.074652">
        <ele>9</ele>
        <time>2019-11-15T16:49:12Z</time>
      </trkpt>
      <trkpt lat="59.32262" lon="18.074715">
        <ele>9</ele>
        <time>2019-11-15T16:49:13Z</time>
      </trkpt>
      <trkpt lat="59.322672" lon="18.074782">
        <ele>9</ele>
        <time>2019-11-15T16:49:14Z</time>
      </trkpt>
      <trkpt lat="59.322724" lon="18.07485">
        <ele>8</ele>
        <time>2019-11-15T16:49:15Z</time>
      </trkpt>
      <trkpt lat="59.322776" lon="18.074914">
        <ele>8</ele>
        <time>2019-11-15T16:49:16Z</time>
      </trkpt>
      <trkpt lat="59.322829" lon="18.074973">
        <ele>8</ele>
        <time>2019-11-15T16:49:17Z</time>
      </trkpt>
      <trkpt lat="59.322882" lon="18.075032">
        <ele>8</ele>
        <time>2019-11-15T16:49:18Z</time>
      </trkpt>
      <trkpt lat="59.322937" lon="18.075089">
        <ele>8</ele>
        <time>2019-11-15T16:49:19Z</time>
      </trkpt>
      <trkpt lat="59.322995" lon="18.075138">
        <ele>8</ele>
        <time>2019-11-15T16:49:20Z</time>
      </trkpt>
      <trkpt lat="59.323055" lon="18.075177">
        <ele>8</ele>
        <time>2019-11-15T16:49:21Z</time>
      </trkpt>
      <trkpt lat="59.323115" lon="18.075204">
        <ele>7</ele>
        <time>2019-11-15T16:49:22Z</time>
      </trkpt>
      <trkpt lat="59.323175" lon="18.075227">
        <ele>7</ele>
        <time>2019-11-15T16:49:23Z</time>
      </trkpt>
      <trkpt lat="59.323235" lon="18.075254">
        <ele>0</ele>
        <time>2019-11-15T16:49:23Z</time>
      </trkpt>
      <trkpt lat="59.323294" lon="18.075277">
        <ele>7</ele>
        <time>2019-11-15T16:49:24Z</time>
      </trkpt>
      <trkpt lat="59.323352" lon="18.075297">
        <ele>7</ele>
        <time>2019-11-15T16:49:26Z</time>
      </trkpt>
      <trkpt lat="59.32341" lon="18.075319">
        <ele>7</ele>
        <time>2019-11-15T16:49:27Z</time>
      </trkpt>
      <trkpt lat="59.323468" lon="18.075339">
        <ele>7</ele>
        <time>2019-11-15T16:49:28Z</time>
      </trkpt>
      <trkpt lat="59.323526" lon="18.07536">
        <ele>7</ele>
        <time>2019-11-15T16:49:29Z</time>
      </trkpt>
      <trkpt lat="59.323585" lon="18.07538">
        <ele>7</ele>
        <time>2019-11-15T16:49:30Z</time>
      </trkpt>
      <trkpt lat="59.323643" lon="18.075401">
        <ele>7</ele>
        <time>2019-11-15T16:49:31Z</time>
      </trkpt>
      <trkpt lat="59.3237" lon="18.075425">
        <ele>7</ele>
        <time>2019-11-15T16:49:32Z</time>
      </trkpt>
      <trkpt lat="59.323757" lon="18.075449">
        <ele>0</ele>
        <time>2019-11-15T16:49:32Z</time>
      </trkpt>
      <trkpt lat="59.323816" lon="18.075471">
        <ele>7</ele>
        <time>2019-11-15T16:49:33Z</time>
      </trkpt>
      <trkpt lat="59.323874" lon="18.075491">
        <ele>8</ele>
        <time>2019-11-15T16:49:35Z</time>
      </trkpt>
      <trkpt lat="59.323933" lon="18.075513">
        <ele>8</ele>
        <time>2019-11-15T16:49:36Z</time>
      </trkpt>
      <trkpt lat="59.323991" lon="18.075536">
        <ele>8</ele>
        <time>2019-11-15T16:49:37Z</time>
      </trkpt>
      <trkpt lat="59.324049" lon="18.07556">
        <ele>8</ele>
        <time>2019-11-15T16:49:38Z</time>
      </trkpt>
      <trkpt lat="59.324108" lon="18.075582">
        <ele>8</ele>
        <time>2019-11-15T16:49:39Z</time>
      </trkpt>
      <trkpt lat="59.324166" lon="18.075603">
        <ele>8</ele>
        <time>2019-11-15T16:49:40Z</time>
      </trkpt>
      <trkpt lat="59.324224" lon="18.075626">
        <ele>8</ele>
        <time>2019-11-15T16:49:41Z</time>
      </trkpt>
      <trkpt lat="59.324281" lon="18.075648">
        <ele>8</ele>
        <time>2019-11-15T16:49:42Z</time>
      </trkpt>
      <trkpt lat="59.324339" lon="18.075667">
        <ele>7</ele>
        <time>2019-11-15T16:49:43Z</time>
      </trkpt>
      <trkpt lat="59.324396" lon="18.075687">
        <ele>7</ele>
        <time>2019-11-15T16:49:44Z</time>
      </trkpt>
      <trkpt lat="59.324453" lon="18.075708">
        <ele>7</ele>
        <time>2019-11-15T16:49:45Z</time>
      </trkpt>
      <trkpt lat="59.32451" lon="18.07573">
        <ele>7</ele>
        <time>2019-11-15T16:49:46Z</time>
      </trkpt>
      <trkpt lat="59.324567" lon="18.075751">
        <ele>7</ele>
        <time>2019-11-15T16:49:47Z</time>
      </trkpt>
      <trkpt lat="59.324624" lon="18.075774">
        <ele>7</ele>
        <time>2019-11-15T16:49:48Z</time>
      </trkpt>
      <trkpt lat="59.324682" lon="18.075796">
        <ele>7</ele>
        <time>2019-11-15T16:49:49Z</time>
      </trkpt>
      <trkpt lat="59.324739" lon="18.075815">
        <ele>7</ele>
        <time>2019-11-15T16:49:50Z</time>
      </trkpt>
      <trkpt lat="59.324797" lon="18.075829">
        <ele>7</ele>
        <time>2019-11-15T16:49:51Z</time>
      </trkpt>
      <trkpt lat="59.324853" lon="18.075841">
        <ele>7</ele>
        <time>2019-11-15T16:49:52Z</time>
      </trkpt>
      <trkpt lat="59.324908" lon="18.075849">
        <ele>7</ele>
        <time>2019-11-15T16:49:53Z</time>
      </trkpt>
      <trkpt lat="59.324962" lon="18.075855">
        <ele>7</ele>
        <time>2019-11-15T16:49:54Z</time>
      </trkpt>
      <trkpt lat="59.325014" lon="18.075866">
        <ele>7</ele>
        <time>2019-11-15T16:49:55Z</time>
      </trkpt>
      <trkpt lat="59.325067" lon="18.075875">
        <ele>7</ele>
        <time>2019-11-15T16:49:56Z</time>
      </trkpt>
      <trkpt lat="59.325121" lon="18.075872">
        <ele>7</ele>
        <time>2019-11-15T16:49:57Z</time>
      </trkpt>
      <trkpt lat="59.325176" lon="18.075862">
        <ele>7</ele>
        <time>2019-11-15T16:49:58Z</time>
      </trkpt>
      <trkpt lat="59.32523" lon="18.075849">
        <ele>7</ele>
        <time>2019-11-15T16:49:59Z</time>
      </trkpt>
      <trkpt lat="59.325283" lon="18.075837">
        <ele>7</ele>
        <time>2019-11-15T16:50:00Z</time>
      </trkpt>
      <trkpt lat="59.325337" lon="18.075823">
        <ele>7</ele>
        <time>2019-11-15T16:50:01Z</time>
      </trkpt>
      <trkpt lat="59.325392" lon="18.075811">
        <ele>7</ele>
        <time>2019-11-15T16:50:02Z</time>
      </trkpt>
      <trkpt lat="59.325446" lon="18.075802">
        <ele>7</ele>
        <time>2019-11-15T16:50:03Z</time>
      </trkpt>
      <trkpt lat="59.325504" lon="18.075791">
        <ele>7</ele>
        <time>2019-11-15T16:50:04Z</time>
      </trkpt>
      <trkpt lat="59.325562" lon="18.075782">
        <ele>7</ele>
        <time>2019-11-15T16:50:05Z</time>
      </trkpt>
      <trkpt lat="59.325622" lon="18.075769">
        <ele>7</ele>
        <time>2019-11-15T16:50:06Z</time>
      </trkpt>
      <trkpt lat="59.32568" lon="18.07575">
        <ele>7</ele>
        <time>2019-11-15T16:50:07Z</time>
      </trkpt>
      <trkpt lat="59.325737" lon="18.075724">
        <ele>7</ele>
        <time>2019-11-15T16:50:08Z</time>
      </trkpt>
      <trkpt lat="59.325793" lon="18.075691">
        <ele>6</ele>
        <time>2019-11-15T16:50:09Z</time>
      </trkpt>
      <trkpt lat="59.325849" lon="18.075654">
        <ele>6</ele>
        <time>2019-11-15T16:50:10Z</time>
      </trkpt>
      <trkpt lat="59.325902" lon="18.075613">
        <ele>6</ele>
        <time>2019-11-15T16:50:11Z</time>
      </trkpt>
      <trkpt lat="59.325954" lon="18.075567">
        <ele>6</ele>
        <time>2019-11-15T16:50:12Z</time>
      </trkpt>
      <trkpt lat="59.326006" lon="18.075516">
        <ele>6</ele>
        <time>2019-11-15T16:50:13Z</time>
      </trkpt>
      <trkpt lat="59.326056" lon="18.07546">
        <ele>6</ele>
        <time>2019-11-15T16:50:14Z</time>
      </trkpt>
      <trkpt lat="59.326106" lon="18.075402">
        <ele>6</ele>
        <time>2019-11-15T16:50:15Z</time>
      </trkpt>
      <trkpt lat="59.326153" lon="18.075339">
        <ele>6</ele>
        <time>2019-11-15T16:50:16Z</time>
      </trkpt>
      <trkpt lat="59.326201" lon="18.075275">
        <ele>6</ele>
        <time>2019-11-15T16:50:17Z</time>
      </trkpt>
      <trkpt lat="59.326248" lon="18.075213">
        <ele>6</ele>
        <time>2019-11-15T16:50:18Z</time>
      </trkpt>
      <trkpt lat="59.326296" lon="18.075154">
        <ele>6</ele>
        <time>2019-11-15T16:50:19Z</time>
      </trkpt>
      <trkpt lat="59.326344" lon="18.075097">
        <ele>6</ele>
        <time>2019-11-15T16:50:20Z</time>
      </trkpt>
      <trkpt lat="59.32639" lon="18.075037">
        <ele>6</ele>
        <time>2019-11-15T16:50:21Z</time>
      </trkpt>
      <trkpt lat="59.326436" lon="18.074976">
        <ele>6</ele>
        <time>2019-11-15T16:50:22Z</time>
      </trkpt>
      <trkpt lat="59.326482" lon="18.074918">
        <ele>6</ele>
        <time>2019-11-15T16:50:23Z</time>
      </trkpt>
      <trkpt lat="59.32653" lon="18.074865">
        <ele>6</ele>
        <time>2019-11-15T16:50:24Z</time>
      </trkpt>
      <trkpt lat="59.326578" lon="18.074819">
        <ele>6</ele>
        <time>2019-11-15T16:50:25Z</time>
      </trkpt>
      <trkpt lat="59.326626" lon="18.074775">
        <ele>6</ele>
        <time>2019-11-15T16:50:26Z</time>
      </trkpt>
      <trkpt lat="59.326674" lon="18.074733">
        <ele>6</ele>
        <time>2019-11-15T16:50:27Z</time>
      </trkpt>
      <trkpt lat="59.326722" lon="18.074691">
        <ele>5</ele>
        <time>2019-11-15T16:50:28Z</time>
      </trkpt>
      <trkpt lat="59.32677" lon="18.074648">
        <ele>5</ele>
        <time>2019-11-15T16:50:29Z</time>
      </trkpt>
      <trkpt lat="59.326818" lon="18.074601">
        <ele>5</ele>
        <time>2019-11-15T16:50:30Z</time>
      </trkpt>
      <trkpt lat="59.326863" lon="18.074546">
        <ele>5</ele>
        <time>2019-11-15T16:50:31Z</time>
      </trkpt>
      <trkpt lat="59.326908" lon="18.074486">
        <ele>5</ele>
        <time>2019-11-15T16:50:32Z</time>
      </trkpt>
      <trkpt lat="59.326952" lon="18.074426">
        <ele>5</ele>
        <time>2019-11-15T16:50:33Z</time>
      </trkpt>
      <trkpt lat="59.326997" lon="18.074368">
        <ele>5</ele>
        <time>2019-11-15T16:50:34Z</time>
      </trkpt>
      <trkpt lat="59.327042" lon="18.074312">
        <ele>5</ele>
        <time>2019-11-15T16:50:35Z</time>
      </trkpt>
      <trkpt lat="59.327088" lon="18.074255">
        <ele>5</ele>
        <time>2019-11-15T16:50:36Z</time>
      </trkpt>
      <trkpt lat="59.327134" lon="18.0742">
        <ele>5</ele>
        <time>2019-11-15T16:50:37Z</time>
      </trkpt>
      <trkpt lat="59.327182" lon="18.074144">
        <ele>5</ele>
        <time>2019-11-15T16:50:38Z</time>
      </trkpt>
      <trkpt lat="59.327228" lon="18.074088">
        <ele>4</ele>
        <time>2019-11-15T16:50:39Z</time>
      </trkpt>
      <trkpt lat="59.327277" lon="18.074031">
        <ele>4</ele>
        <time>2019-11-15T16:50:40Z</time>
      </trkpt>
      <trkpt lat="59.327326" lon="18.073974">
        <ele>4</ele>
        <time>2019-11-15T16:50:41Z</time>
      </trkpt>
      <trkpt lat="59.327374" lon="18.073916">
        <ele>4</ele>
        <time>2019-11-15T16:50:42Z</time>
      </trkpt>
      <trkpt lat="59.327423" lon="18.073857">
        <ele>4</ele>
        <time>2019-11-15T16:50:43Z</time>
      </trkpt>
      <trkpt lat="59.327474" lon="18.073797">
        <ele>4</ele>
        <time>2019-11-15T16:50:44Z</time>
      </trkpt>
      <trkpt lat="59.327523" lon="18.073737">
        <ele>4</ele>
        <time>2019-11-15T16:50:45Z</time>
      </trkpt>
      <trkpt lat="59.327572" lon="18.073676">
        <ele>4</ele>
        <time>2019-11-15T16:50:46Z</time>
      </trkpt>
      <trkpt lat="59.327622" lon="18.073615">
        <ele>4</ele>
        <time>2019-11-15T16:50:47Z</time>
      </trkpt>
      <trkpt lat="59.32767" lon="18.073555">
        <ele>4</ele>
        <time>2019-11-15T16:50:48Z</time>
      </trkpt>
      <trkpt lat="59.32772" lon="18.073494">
        <ele>4</ele>
        <time>2019-11-15T16:50:49Z</time>
      </trkpt>
      <trkpt lat="59.327769" lon="18.073436">
        <ele>4</ele>
        <time>2019-11-15T16:50:50Z</time>
      </trkpt>
      <trkpt lat="59.32782" lon="18.07338">
        <ele>4</ele>
        <time>2019-11-15T16:50:51Z</time>
      </trkpt>
      <trkpt lat="59.32787" lon="18.073325">
        <ele>4</ele>
        <time>2019-11-15T16:50:52Z</time>
      </trkpt>
      <trkpt lat="59.327924" lon="18.073274">
        <ele>4</ele>
        <time>2019-11-15T16:50:53Z</time>
      </trkpt>
      <trkpt lat="59.327977" lon="18.073226">
        <ele>4</ele>
        <time>2019-11-15T16:50:54Z</time>
      </trkpt>
      <trkpt lat="59.328032" lon="18.073184">
        <ele>4</ele>
        <time>2019-11-15T16:50:55Z</time>
      </trkpt>
      <trkpt lat="59.328088" lon="18.073149">
        <ele>4</ele>
        <time>2019-11-15T16:50:56Z</time>
      </trkpt>
      <trkpt lat="59.328146" lon="18.073122">
        <ele>3</ele>
        <time>2019-11-15T16:50:57Z</time>
      </trkpt>
      <trkpt lat="59.328204" lon="18.073103">
        <ele>3</ele>
        <time>2019-11-15T16:50:58Z</time>
      </trkpt>
      <trkpt lat="59.328262" lon="18.073098">
        <ele>3</ele>
        <time>2019-11-15T16:50:59Z</time>
      </trkpt>
      <trkpt lat="59.328318" lon="18.073103">
        <ele>3</ele>
        <time>2019-11-15T16:51:00Z</time>
      </trkpt>
      <trkpt lat="59.328374" lon="18.073114">
        <ele>3</ele>
        <time>2019-11-15T16:51:01Z</time>
      </trkpt>
      <trkpt lat="59.328431" lon="18.073127">
        <ele>3</ele>
        <time>2019-11-15T16:51:02Z</time>
      </trkpt>
      <trkpt lat="59.328487" lon="18.073142">
        <ele>3</ele>
        <time>2019-11-15T16:51:03Z</time>
      </trkpt>
      <trkpt lat="59.328543" lon="18.073157">
        <ele>3</ele>
        <time>2019-11-15T16:51:04Z</time>
      </trkpt>
      <trkpt lat="59.328599" lon="18.07317">
        <ele>3</ele>
        <time>2019-11-15T16:51:05Z</time>
      </trkpt>
      <trkpt lat="59.328654" lon="18.073185">
        <ele>3</ele>
        <time>2019-11-15T16:51:06Z</time>
      </trkpt>
      <trkpt lat="59.32871" lon="18.073201">
        <ele>3</ele>
        <time>2019-11-15T16:51:07Z</time>
      </trkpt>
      <trkpt lat="59.328767" lon="18.073216">
        <ele>3</ele>
        <time>2019-11-15T16:51:08Z</time>
      </trkpt>
      <trkpt lat="59.328823" lon="18.07323">
        <ele>3</ele>
        <time>2019-11-15T16:51:09Z</time>
      </trkpt>
      <trkpt lat="59.328881" lon="18.073245">
        <ele>3</ele>
        <time>2019-11-15T16:51:10Z</time>
      </trkpt>
      <trkpt lat="59.328939" lon="18.073261">
        <ele>2</ele>
        <time>2019-11-15T16:51:11Z</time>
      </trkpt>
      <trkpt lat="59.328996" lon="18.073276">
        <ele>2</ele>
        <time>2019-11-15T16:51:12Z</time>
      </trkpt>
      <trkpt lat="59.329054" lon="18.073289">
        <ele>2</ele>
        <time>2019-11-15T16:51:13Z</time>
      </trkpt>
      <trkpt lat="59.329111" lon="18.073301">
        <ele>2</ele>
        <time>2019-11-15T16:51:14Z</time>
      </trkpt>
      <trkpt lat="59.329168" lon="18.073314">
        <ele>2</ele>
        <time>2019-11-15T16:51:15Z</time>
      </trkpt>
      <trkpt lat="59.329224" lon="18.073329">
        <ele>2</ele>
        <time>2019-11-15T16:51:16Z</time>
      </trkpt>
      <trkpt lat="59.32928" lon="18.073342">
        <ele>2</ele>
        <time>2019-11-15T16:51:17Z</time>
      </trkpt>
      <trkpt lat="59.329337" lon="18.073355">
        <ele>0</ele>
        <time>2019-11-15T16:51:17Z</time>
      </trkpt>
      <trkpt lat="59.329393" lon="18.073369">
        <ele>2</ele>
        <time>2019-11-15T16:51:18Z</time>
      </trkpt>
      <trkpt lat="59.329447" lon="18.073389">
        <ele>2</ele>
        <time>2019-11-15T16:51:20Z</time>
      </trkpt>
      <trkpt lat="59.329497" lon="18.073427">
        <ele>2</ele>
        <time>2019-11-15T16:51:21Z</time>
      </trkpt>
      <trkpt lat="59.329541" lon="18.07349">
        <ele>2</ele>
        <time>2019-11-15T16:51:22Z</time>
      </trkpt>
      <trkpt lat="59.329578" lon="18.073572">
        <ele>2</ele>
        <time>2019-11-15T16:51:23Z</time>
      </trkpt>
      <trkpt lat="59.329607" lon="18.073667">
        <ele>1</ele>
        <time>2019-11-15T16:51:24Z</time>
      </trkpt>
      <trkpt lat="59.329635" lon="18.073766">
        <ele>1</ele>
        <time>2019-11-15T16:51:25Z</time>
      </trkpt>
      <trkpt lat="59.329658" lon="18.073872">
        <ele>1</ele>
        <time>2019-11-15T16:51:26Z</time>
      </trkpt>
      <trkpt lat="59.329676" lon="18.073983">
        <ele>1</ele>
        <time>2019-11-15T16:51:27Z</time>
      </trkpt>
      <trkpt lat="59.329689" lon="18.074097">
        <ele>1</ele>
        <time>2019-11-15T16:51:28Z</time>
      </trkpt>
      <trkpt lat="59.329699" lon="18.074212">
        <ele>1</ele>
        <time>2019-11-15T16:51:29Z</time>
      </trkpt>
      <trkpt lat="59.329711" lon="18.074329">
        <ele>1</ele>
        <time>2019-11-15T16:51:30Z</time>
      </trkpt>
      <trkpt lat="59.329724" lon="18.074445">
        <ele>1</ele>
        <time>2019-11-15T16:51:31Z</time>
      </trkpt>
      <trkpt lat="59.329739" lon="18.074556">
        <ele>1</ele>
        <time>2019-11-15T16:51:32Z</time>
      </trkpt>
      <trkpt lat="59.32976" lon="18.074657">
        <ele>1</ele>
        <time>2019-11-15T16:51:33Z</time>
      </trkpt>
      <trkpt lat="59.329781" lon="18.074746">
        <ele>1</ele>
        <time>2019-11-15T16:51:34Z</time>
      </trkpt>
      <trkpt lat="59.329812" lon="18.074823">
        <ele>2</ele>
        <time>2019-11-15T16:51:35Z</time>
      </trkpt>
      <trkpt lat="59.329852" lon="18.074889">
        <ele>2</ele>
        <time>2019-11-15T16:51:36Z</time>
      </trkpt>
      <trkpt lat="59.329891" lon="18.074949">
        <ele>0</ele>
        <time>2019-11-15T16:51:36Z</time>
      </trkpt>
      <trkpt lat="59.329929" lon="18.074999">
        <ele>2</ele>
        <time>2019-11-15T16:51:37Z</time>
      </trkpt>
      <trkpt lat="59.32997" lon="18.075044">
        <ele>2</ele>
        <time>2019-11-15T16:51:39Z</time>
      </trkpt>
      <trkpt lat="59.330007" lon="18.07509">
        <ele>3</ele>
        <time>2019-11-15T16:51:40Z</time>
      </trkpt>
      <trkpt lat="59.330043" lon="18.075135">
        <ele>3</ele>
        <time>2019-11-15T16:51:41Z</time>
      </trkpt>
      <trkpt lat="59.330083" lon="18.075179">
        <ele>3</ele>
        <time>2019-11-15T16:51:42Z</time>
      </trkpt>
      <trkpt lat="59.330122" lon="18.075209">
        <ele>3</ele>
        <time>2019-11-15T16:51:43Z</time>
      </trkpt>
      <trkpt lat="59.330157" lon="18.075246">
        <ele>3</ele>
        <time>2019-11-15T16:51:44Z</time>
      </trkpt>
      <trkpt lat="59.330195" lon="18.075282">
        <ele>3</ele>
        <time>2019-11-15T16:51:45Z</time>
      </trkpt>
      <trkpt lat="59.33023" lon="18.075307">
        <ele>3</ele>
        <time>2019-11-15T16:51:46Z</time>
      </trkpt>
      <trkpt lat="59.330264" lon="18.075339">
        <ele>3</ele>
        <time>2019-11-15T16:51:47Z</time>
      </trkpt>
      <trkpt lat="59.330295" lon="18.075387">
        <ele>4</ele>
        <time>2019-11-15T16:51:48Z</time>
      </trkpt>
      <trkpt lat="59.330327" lon="18.075437">
        <ele>4</ele>
        <time>2019-11-15T16:51:49Z</time>
      </trkpt>
      <trkpt lat="59.330356" lon="18.075494">
        <ele>5</ele>
        <time>2019-11-15T16:51:50Z</time>
      </trkpt>
      <trkpt lat="59.330376" lon="18.075537">
        <ele>5</ele>
        <time>2019-11-15T16:51:51Z</time>
      </trkpt>
      <trkpt lat="59.330397" lon="18.075581">
        <ele>6</ele>
        <time>2019-11-15T16:51:52Z</time>
      </trkpt>
      <trkpt lat="59.330409" lon="18.075624">
        <ele>6</ele>
        <time>2019-11-15T16:51:53Z</time>
      </trkpt>
      <trkpt lat="59.330433" lon="18.075671">
        <ele>7</ele>
        <time>2019-11-15T16:51:54Z</time>
      </trkpt>
      <trkpt lat="59.330467" lon="18.075732">
        <ele>7</ele>
        <time>2019-11-15T16:51:55Z</time>
      </trkpt>
      <trkpt lat="59.330498" lon="18.075799">
        <ele>7</ele>
        <time>2019-11-15T16:51:56Z</time>
      </trkpt>
      <trkpt lat="59.330535" lon="18.075867">
        <ele>7</ele>
        <time>2019-11-15T16:51:57Z</time>
      </trkpt>
      <trkpt lat="59.330584" lon="18.075943">
        <ele>7</ele>
        <time>2019-11-15T16:51:58Z</time>
      </trkpt>
      <trkpt lat="59.330639" lon="18.076023">
        <ele>7</ele>
        <time>2019-11-15T16:51:59Z</time>
      </trkpt>
      <trkpt lat="59.330697" lon="18.076111">
        <ele>7</ele>
        <time>2019-11-15T16:52:00Z</time>
      </trkpt>
      <trkpt lat="59.330768" lon="18.076201">
        <ele>7</ele>
        <time>2019-11-15T16:52:01Z</time>
      </trkpt>
      <trkpt lat="59.33082" lon="18.076272">
        <ele>7</ele>
        <time>2019-11-15T16:52:02Z</time>
      </trkpt>
      <trkpt lat="59.330874" lon="18.076343">
        <ele>7</ele>
        <time>2019-11-15T16:52:03Z</time>
      </trkpt>
      <trkpt lat="59.330914" lon="18.076396">
        <ele>7</ele>
        <time>2019-11-15T16:52:04Z</time>
      </trkpt>
      <trkpt lat="59.330945" lon="18.07644">
        <ele>7</ele>
        <time>2019-11-15T16:52:05Z</time>
      </trkpt>
      <trkpt lat="59.330975" lon="18.076462">
        <ele>7</ele>
        <time>2019-11-15T16:52:06Z</time>
      </trkpt>
      <trkpt lat="59.331003" lon="18.07648">
        <ele>7</ele>
        <time>2019-11-15T16:52:07Z</time>
      </trkpt>
      <trkpt lat="59.331044" lon="18.076507">
        <ele>7</ele>
        <time>2019-11-15T16:52:09Z</time>
      </trkpt>
      <trkpt lat="59.331055" lon="18.076539">
        <ele>7</ele>
        <time>2019-11-15T16:52:10Z</time>
      </trkpt>
      <trkpt lat="59.33106" lon="18.076595">
        <ele>6</ele>
        <time>2019-11-15T16:52:11Z</time>
      </trkpt>
      <trkpt lat="59.331063" lon="18.07663">
        <ele>6</ele>
        <time>2019-11-15T16:52:12Z</time>
      </trkpt>
      <trkpt lat="59.331063" lon="18.076631">
        <ele>0</ele>
        <time>2019-11-15T16:52:15Z</time>
      </trkpt>
      <trkpt lat="59.331119" lon="18.076679">
        <ele>4</ele>
        <time>2019-11-15T16:52:31Z</time>
      </trkpt>
      <trkpt lat="59.331156" lon="18.076687">
        <ele>4</ele>
        <time>2019-11-15T16:52:32Z</time>
      </trkpt>
      <trkpt lat="59.331199" lon="18.076687">
        <ele>4</ele>
        <time>2019-11-15T16:52:33Z</time>
      </trkpt>
      <trkpt lat="59.331243" lon="18.076664">
        <ele>4</ele>
        <time>2019-11-15T16:52:34Z</time>
      </trkpt>
      <trkpt lat="59.331282" lon="18.076613">
        <ele>3</ele>
        <time>2019-11-15T16:52:35Z</time>
      </trkpt>
      <trkpt lat="59.331318" lon="18.076549">
        <ele>3</ele>
        <time>2019-11-15T16:52:36Z</time>
      </trkpt>
      <trkpt lat="59.331352" lon="18.07648">
        <ele>3</ele>
        <time>2019-11-15T16:52:37Z</time>
      </trkpt>
      <trkpt lat="59.331386" lon="18.076411">
        <ele>3</ele>
        <time>2019-11-15T16:52:38Z</time>
      </trkpt>
      <trkpt lat="59.331422" lon="18.076346">
        <ele>3</ele>
        <time>2019-11-15T16:52:39Z</time>
      </trkpt>
      <trkpt lat="59.33146" lon="18.076288">
        <ele>3</ele>
        <time>2019-11-15T16:52:40Z</time>
      </trkpt>
      <trkpt lat="59.331501" lon="18.076236">
        <ele>3</ele>
        <time>2019-11-15T16:52:41Z</time>
      </trkpt>
      <trkpt lat="59.331543" lon="18.076193">
        <ele>3</ele>
        <time>2019-11-15T16:52:42Z</time>
      </trkpt>
      <trkpt lat="59.331586" lon="18.076156">
        <ele>3</ele>
        <time>2019-11-15T16:52:43Z</time>
      </trkpt>
      <trkpt lat="59.331632" lon="18.076128">
        <ele>3</ele>
        <time>2019-11-15T16:52:44Z</time>
      </trkpt>
      <trkpt lat="59.331682" lon="18.076111">
        <ele>2</ele>
        <time>2019-11-15T16:52:45Z</time>
      </trkpt>
      <trkpt lat="59.331733" lon="18.076106">
        <ele>2</ele>
        <time>2019-11-15T16:52:46Z</time>
      </trkpt>
      <trkpt lat="59.331785" lon="18.07611">
        <ele>2</ele>
        <time>2019-11-15T16:52:47Z</time>
      </trkpt>
      <trkpt lat="59.331838" lon="18.076122">
        <ele>2</ele>
        <time>2019-11-15T16:52:48Z</time>
      </trkpt>
      <trkpt lat="59.331893" lon="18.076137">
        <ele>2</ele>
        <time>2019-11-15T16:52:49Z</time>
      </trkpt>
      <trkpt lat="59.331947" lon="18.076149">
        <ele>2</ele>
        <time>2019-11-15T16:52:50Z</time>
      </trkpt>
      <trkpt lat="59.332004" lon="18.076172">
        <ele>2</ele>
        <time>2019-11-15T16:52:51Z</time>
      </trkpt>
      <trkpt lat="59.33206" lon="18.076208">
        <ele>2</ele>
        <time>2019-11-15T16:52:52Z</time>
      </trkpt>
      <trkpt lat="59.332116" lon="18.076259">
        <ele>2</ele>
        <time>2019-11-15T16:52:53Z</time>
      </trkpt>
      <trkpt lat="59.332169" lon="18.076326">
        <ele>2</ele>
        <time>2019-11-15T16:52:54Z</time>
      </trkpt>
      <trkpt lat="59.332219" lon="18.076407">
        <ele>2</ele>
        <time>2019-11-15T16:52:55Z</time>
      </trkpt>
      <trkpt lat="59.332267" lon="18.076499">
        <ele>1</ele>
        <time>2019-11-15T16:52:56Z</time>
      </trkpt>
      <trkpt lat="59.332312" lon="18.076599">
        <ele>2</ele>
        <time>2019-11-15T16:52:57Z</time>
      </trkpt>
      <trkpt lat="59.332352" lon="18.076704">
        <ele>2</ele>
        <time>2019-11-15T16:52:58Z</time>
      </trkpt>
      <trkpt lat="59.332389" lon="18.076809">
        <ele>2</ele>
        <time>2019-11-15T16:52:59Z</time>
      </trkpt>
      <trkpt lat="59.332425" lon="18.076914">
        <ele>2</ele>
        <time>2019-11-15T16:53:00Z</time>
      </trkpt>
      <trkpt lat="59.332463" lon="18.077017">
        <ele>1</ele>
        <time>2019-11-15T16:53:01Z</time>
      </trkpt>
      <trkpt lat="59.332507" lon="18.077107">
        <ele>1</ele>
        <time>2019-11-15T16:53:02Z</time>
      </trkpt>
      <trkpt lat="59.332559" lon="18.077177">
        <ele>1</ele>
        <time>2019-11-15T16:53:03Z</time>
      </trkpt>
      <trkpt lat="59.332615" lon="18.077226">
        <ele>1</ele>
        <time>2019-11-15T16:53:04Z</time>
      </trkpt>
      <trkpt lat="59.332673" lon="18.077259">
        <ele>1</ele>
        <time>2019-11-15T16:53:05Z</time>
      </trkpt>
      <trkpt lat="59.332731" lon="18.077287">
        <ele>1</ele>
        <time>2019-11-15T16:53:06Z</time>
      </trkpt>
      <trkpt lat="59.332787" lon="18.077328">
        <ele>1</ele>
        <time>2019-11-15T16:53:07Z</time>
      </trkpt>
      <trkpt lat="59.332839" lon="18.077377">
        <ele>1</ele>
        <time>2019-11-15T16:53:08Z</time>
      </trkpt>
      <trkpt lat="59.332888" lon="18.077422">
        <ele>2</ele>
        <time>2019-11-15T16:53:09Z</time>
      </trkpt>
      <trkpt lat="59.332922" lon="18.077447">
        <ele>2</ele>
        <time>2019-11-15T16:53:10Z</time>
      </trkpt>
      <trkpt lat="59.332943" lon="18.077468">
        <ele>2</ele>
        <time>2019-11-15T16:53:11Z</time>
      </trkpt>
      <trkpt lat="59.332963" lon="18.077488">
        <ele>2</ele>
        <time>2019-11-15T16:53:12Z</time>
      </trkpt>
      <trkpt lat="59.332987" lon="18.077516">
        <ele>3</ele>
        <time>2019-11-15T16:53:13Z</time>
      </trkpt>
      <trkpt lat="59.333013" lon="18.077537">
        <ele>3</ele>
        <time>2019-11-15T16:53:14Z</time>
      </trkpt>
      <trkpt lat="59.333045" lon="18.077547">
        <ele>3</ele>
        <time>2019-11-15T16:53:15Z</time>
      </trkpt>
      <trkpt lat="59.333084" lon="18.077561">
        <ele>3</ele>
        <time>2019-11-15T16:53:16Z</time>
      </trkpt>
      <trkpt lat="59.333127" lon="18.077585">
        <ele>3</ele>
        <time>2019-11-15T16:53:17Z</time>
      </trkpt>
      <trkpt lat="59.333175" lon="18.077615">
        <ele>3</ele>
        <time>2019-11-15T16:53:18Z</time>
      </trkpt>
      <trkpt lat="59.333228" lon="18.077648">
        <ele>3</ele>
        <time>2019-11-15T16:53:19Z</time>
      </trkpt>
      <trkpt lat="59.333282" lon="18.077683">
        <ele>3</ele>
        <time>2019-11-15T16:53:20Z</time>
      </trkpt>
      <trkpt lat="59.333335" lon="18.077715">
        <ele>2</ele>
        <time>2019-11-15T16:53:21Z</time>
      </trkpt>
      <trkpt lat="59.333389" lon="18.077739">
        <ele>2</ele>
        <time>2019-11-15T16:53:22Z</time>
      </trkpt>
      <trkpt lat="59.333438" lon="18.077769">
        <ele>2</ele>
        <time>2019-11-15T16:53:23Z</time>
      </trkpt>
      <trkpt lat="59.333485" lon="18.077806">
        <ele>2</ele>
        <time>2019-11-15T16:53:24Z</time>
      </trkpt>
      <trkpt lat="59.333532" lon="18.077838">
        <ele>2</ele>
        <time>2019-11-15T16:53:25Z</time>
      </trkpt>
      <trkpt lat="59.333578" lon="18.077867">
        <ele>2</ele>
        <time>2019-11-15T16:53:26Z</time>
      </trkpt>
      <trkpt lat="59.333621" lon="18.077897">
        <ele>2</ele>
        <time>2019-11-15T16:53:27Z</time>
      </trkpt>
      <trkpt lat="59.333663" lon="18.077926">
        <ele>1</ele>
        <time>2019-11-15T16:53:28Z</time>
      </trkpt>
      <trkpt lat="59.333703" lon="18.077958">
        <ele>1</ele>
        <time>2019-11-15T16:53:29Z</time>
      </trkpt>
      <trkpt lat="59.333745" lon="18.077986">
        <ele>1</ele>
        <time>2019-11-15T16:53:30Z</time>
      </trkpt>
      <trkpt lat="59.33379" lon="18.078009">
        <ele>1</ele>
        <time>2019-11-15T16:53:31Z</time>
      </trkpt>
      <trkpt lat="59.333831" lon="18.078036">
        <ele>1</ele>
        <time>2019-11-15T16:53:32Z</time>
      </trkpt>
      <trkpt lat="59.33387" lon="18.078066">
        <ele>1</ele>
        <time>2019-11-15T16:53:33Z</time>
      </trkpt>
      <trkpt lat="59.333906" lon="18.07809">
        <ele>1</ele>
        <time>2019-11-15T16:53:34Z</time>
      </trkpt>
      <trkpt lat="59.333943" lon="18.078114">
        <ele>1</ele>
        <time>2019-11-15T16:53:35Z</time>
      </trkpt>
      <trkpt lat="59.333981" lon="18.078135">
        <ele>1</ele>
        <time>2019-11-15T16:53:36Z</time>
      </trkpt>
      <trkpt lat="59.334018" lon="18.078166">
        <ele>1</ele>
        <time>2019-11-15T16:53:37Z</time>
      </trkpt>
      <trkpt lat="59.334057" lon="18.078193">
        <ele>1</ele>
        <time>2019-11-15T16:53:38Z</time>
      </trkpt>
      <trkpt lat="59.334096" lon="18.078219">
        <ele>2</ele>
        <time>2019-11-15T16:53:39Z</time>
      </trkpt>
      <trkpt lat="59.334133" lon="18.078257">
        <ele>2</ele>
        <time>2019-11-15T16:53:40Z</time>
      </trkpt>
      <trkpt lat="59.334169" lon="18.0783">
        <ele>3</ele>
        <time>2019-11-15T16:53:41Z</time>
      </trkpt>
      <trkpt lat="59.334205" lon="18.078337">
        <ele>3</ele>
        <time>2019-11-15T16:53:42Z</time>
      </trkpt>
      <trkpt lat="59.334242" lon="18.078366">
        <ele>3</ele>
        <time>2019-11-15T16:53:43Z</time>
      </trkpt>
      <trkpt lat="59.334279" lon="18.078398">
        <ele>3</ele>
        <time>2019-11-15T16:53:44Z</time>
      </trkpt>
      <trkpt lat="59.334319" lon="18.078433">
        <ele>3</ele>
        <time>2019-11-15T16:53:45Z</time>
      </trkpt>
      <trkpt lat="59.334357" lon="18.078464">
        <ele>3</ele>
        <time>2019-11-15T16:53:46Z</time>
      </trkpt>
      <trkpt lat="59.334397" lon="18.078495">
        <ele>3</ele>
        <time>2019-11-15T16:53:47Z</time>
      </trkpt>
      <trkpt lat="59.334435" lon="18.078527">
        <ele>3</ele>
        <time>2019-11-15T16:53:48Z</time>
      </trkpt>
      <trkpt lat="59.334472" lon="18.078558">
        <ele>3</ele>
        <time>2019-11-15T16:53:49Z</time>
      </trkpt>
      <trkpt lat="59.334509" lon="18.078586">
        <ele>4</ele>
        <time>2019-11-15T16:53:50Z</time>
      </trkpt>
      <trkpt lat="59.334546" lon="18.078614">
        <ele>4</ele>
        <time>2019-11-15T16:53:51Z</time>
      </trkpt>
      <trkpt lat="59.334582" lon="18.078643">
        <ele>4</ele>
        <time>2019-11-15T16:53:52Z</time>
      </trkpt>
      <trkpt lat="59.334618" lon="18.078673">
        <ele>4</ele>
        <time>2019-11-15T16:53:53Z</time>
      </trkpt>
      <trkpt lat="59.334654" lon="18.078703">
        <ele>4</ele>
        <time>2019-11-15T16:53:54Z</time>
      </trkpt>
      <trkpt lat="59.334691" lon="18.078734">
        <ele>5</ele>
        <time>2019-11-15T16:53:55Z</time>
      </trkpt>
      <trkpt lat="59.334727" lon="18.078763">
        <ele>5</ele>
        <time>2019-11-15T16:53:56Z</time>
      </trkpt>
      <trkpt lat="59.334761" lon="18.078796">
        <ele>5</ele>
        <time>2019-11-15T16:53:57Z</time>
      </trkpt>
      <trkpt lat="59.334796" lon="18.078826">
        <ele>5</ele>
        <time>2019-11-15T16:53:58Z</time>
      </trkpt>
      <trkpt lat="59.334831" lon="18.078857">
        <ele>5</ele>
        <time>2019-11-15T16:53:59Z</time>
      </trkpt>
      <trkpt lat="59.334865" lon="18.078889">
        <ele>6</ele>
        <time>2019-11-15T16:54:00Z</time>
      </trkpt>
      <trkpt lat="59.3349" lon="18.078918">
        <ele>6</ele>
        <time>2019-11-15T16:54:01Z</time>
      </trkpt>
      <trkpt lat="59.334934" lon="18.07895">
        <ele>6</ele>
        <time>2019-11-15T16:54:02Z</time>
      </trkpt>
      <trkpt lat="59.334968" lon="18.07898">
        <ele>6</ele>
        <time>2019-11-15T16:54:03Z</time>
      </trkpt>
      <trkpt lat="59.335003" lon="18.079011">
        <ele>6</ele>
        <time>2019-11-15T16:54:04Z</time>
      </trkpt>
      <trkpt lat="59.335036" lon="18.079044">
        <ele>6</ele>
        <time>2019-11-15T16:54:05Z</time>
      </trkpt>
      <trkpt lat="59.335071" lon="18.079076">
        <ele>6</ele>
        <time>2019-11-15T16:54:06Z</time>
      </trkpt>
      <trkpt lat="59.335106" lon="18.079107">
        <ele>7</ele>
        <time>2019-11-15T16:54:07Z</time>
      </trkpt>
      <trkpt lat="59.335141" lon="18.079138">
        <ele>7</ele>
        <time>2019-11-15T16:54:08Z</time>
      </trkpt>
      <trkpt lat="59.335175" lon="18.079167">
        <ele>7</ele>
        <time>2019-11-15T16:54:09Z</time>
      </trkpt>
      <trkpt lat="59.33521" lon="18.079197">
        <ele>7</ele>
        <time>2019-11-15T16:54:10Z</time>
      </trkpt>
      <trkpt lat="59.335244" lon="18.079222">
        <ele>7</ele>
        <time>2019-11-15T16:54:11Z</time>
      </trkpt>
      <trkpt lat="59.335279" lon="18.079236">
        <ele>7</ele>
        <time>2019-11-15T16:54:12Z</time>
      </trkpt>
      <trkpt lat="59.335315" lon="18.079254">
        <ele>7</ele>
        <time>2019-11-15T16:54:13Z</time>
      </trkpt>
      <trkpt lat="59.335347" lon="18.079287">
        <ele>7</ele>
        <time>2019-11-15T16:54:14Z</time>
      </trkpt>
      <trkpt lat="59.335379" lon="18.079319">
        <ele>7</ele>
        <time>2019-11-15T16:54:15Z</time>
      </trkpt>
      <trkpt lat="59.335411" lon="18.07935">
        <ele>7</ele>
        <time>2019-11-15T16:54:16Z</time>
      </trkpt>
      <trkpt lat="59.335444" lon="18.079377">
        <ele>8</ele>
        <time>2019-11-15T16:54:17Z</time>
      </trkpt>
      <trkpt lat="59.33548" lon="18.079407">
        <ele>8</ele>
        <time>2019-11-15T16:54:18Z</time>
      </trkpt>
      <trkpt lat="59.335513" lon="18.079443">
        <ele>8</ele>
        <time>2019-11-15T16:54:19Z</time>
      </trkpt>
      <trkpt lat="59.335544" lon="18.079478">
        <ele>9</ele>
        <time>2019-11-15T16:54:20Z</time>
      </trkpt>
      <trkpt lat="59.335578" lon="18.079507">
        <ele>9</ele>
        <time>2019-11-15T16:54:21Z</time>
      </trkpt>
      <trkpt lat="59.335597" lon="18.079583">
        <ele>10</ele>
        <time>2019-11-15T16:54:22Z</time>
      </trkpt>
      <trkpt lat="59.335626" lon="18.079626">
        <ele>10</ele>
        <time>2019-11-15T16:54:23Z</time>
      </trkpt>
      <trkpt lat="59.335658" lon="18.079657">
        <ele>10</ele>
        <time>2019-11-15T16:54:24Z</time>
      </trkpt>
      <trkpt lat="59.335689" lon="18.079684">
        <ele>11</ele>
        <time>2019-11-15T16:54:25Z</time>
      </trkpt>
      <trkpt lat="59.335719" lon="18.079715">
        <ele>11</ele>
        <time>2019-11-15T16:54:26Z</time>
      </trkpt>
      <trkpt lat="59.335749" lon="18.079743">
        <ele>12</ele>
        <time>2019-11-15T16:54:27Z</time>
      </trkpt>
      <trkpt lat="59.335779" lon="18.079772">
        <ele>12</ele>
        <time>2019-11-15T16:54:28Z</time>
      </trkpt>
      <trkpt lat="59.33581" lon="18.079802">
        <ele>12</ele>
        <time>2019-11-15T16:54:29Z</time>
      </trkpt>
      <trkpt lat="59.335843" lon="18.079832">
        <ele>12</ele>
        <time>2019-11-15T16:54:30Z</time>
      </trkpt>
      <trkpt lat="59.335878" lon="18.079861">
        <ele>13</ele>
        <time>2019-11-15T16:54:31Z</time>
      </trkpt>
      <trkpt lat="59.335915" lon="18.07989">
        <ele>13</ele>
        <time>2019-11-15T16:54:32Z</time>
      </trkpt>
      <trkpt lat="59.335952" lon="18.07992">
        <ele>13</ele>
        <time>2019-11-15T16:54:33Z</time>
      </trkpt>
      <trkpt lat="59.335991" lon="18.079948">
        <ele>13</ele>
        <time>2019-11-15T16:54:34Z</time>
      </trkpt>
      <trkpt lat="59.336033" lon="18.079979">
        <ele>14</ele>
        <time>2019-11-15T16:54:35Z</time>
      </trkpt>
      <trkpt lat="59.336075" lon="18.080007">
        <ele>14</ele>
        <time>2019-11-15T16:54:36Z</time>
      </trkpt>
      <trkpt lat="59.336116" lon="18.080039">
        <ele>15</ele>
        <time>2019-11-15T16:54:37Z</time>
      </trkpt>
      <trkpt lat="59.336157" lon="18.080062">
        <ele>15</ele>
        <time>2019-11-15T16:54:38Z</time>
      </trkpt>
      <trkpt lat="59.33626" lon="18.080078">
        <ele>14</ele>
        <time>2019-11-15T16:54:40Z</time>
      </trkpt>
      <trkpt lat="59.336311" lon="18.080091">
        <ele>14</ele>
        <time>2019-11-15T16:54:41Z</time>
      </trkpt>
      <trkpt lat="59.33636" lon="18.080114">
        <ele>14</ele>
        <time>2019-11-15T16:54:42Z</time>
      </trkpt>
      <trkpt lat="59.336401" lon="18.080137">
        <ele>14</ele>
        <time>2019-11-15T16:54:43Z</time>
      </trkpt>
      <trkpt lat="59.33644" lon="18.080156">
        <ele>14</ele>
        <time>2019-11-15T16:54:44Z</time>
      </trkpt>
      <trkpt lat="59.336482" lon="18.080172">
        <ele>14</ele>
        <time>2019-11-15T16:54:45Z</time>
      </trkpt>
      <trkpt lat="59.336522" lon="18.080194">
        <ele>14</ele>
        <time>2019-11-15T16:54:46Z</time>
      </trkpt>
      <trkpt lat="59.336562" lon="18.080226">
        <ele>14</ele>
        <time>2019-11-15T16:54:47Z</time>
      </trkpt>
      <trkpt lat="59.336604" lon="18.080261">
        <ele>14</ele>
        <time>2019-11-15T16:54:48Z</time>
      </trkpt>
      <trkpt lat="59.336648" lon="18.080296">
        <ele>14</ele>
        <time>2019-11-15T16:54:49Z</time>
      </trkpt>
      <trkpt lat="59.336693" lon="18.080334">
        <ele>14</ele>
        <time>2019-11-15T16:54:50Z</time>
      </trkpt>
      <trkpt lat="59.336738" lon="18.080365">
        <ele>14</ele>
        <time>2019-11-15T16:54:51Z</time>
      </trkpt>
      <trkpt lat="59.336779" lon="18.080394">
        <ele>14</ele>
        <time>2019-11-15T16:54:52Z</time>
      </trkpt>
      <trkpt lat="59.336816" lon="18.080422">
        <ele>14</ele>
        <time>2019-11-15T16:54:53Z</time>
      </trkpt>
      <trkpt lat="59.33685" lon="18.080445">
        <ele>14</ele>
        <time>2019-11-15T16:54:54Z</time>
      </trkpt>
      <trkpt lat="59.33688" lon="18.080462">
        <ele>13</ele>
        <time>2019-11-15T16:54:55Z</time>
      </trkpt>
      <trkpt lat="59.336907" lon="18.080475">
        <ele>13</ele>
        <time>2019-11-15T16:54:56Z</time>
      </trkpt>
      <trkpt lat="59.336932" lon="18.08049">
        <ele>13</ele>
        <time>2019-11-15T16:54:57Z</time>
      </trkpt>
      <trkpt lat="59.336952" lon="18.080498">
        <ele>13</ele>
        <time>2019-11-15T16:54:58Z</time>
      </trkpt>
      <trkpt lat="59.33698" lon="18.080507">
        <ele>12</ele>
        <time>2019-11-15T16:55:00Z</time>
      </trkpt>
      <trkpt lat="59.337001" lon="18.080523">
        <ele>12</ele>
        <time>2019-11-15T16:55:02Z</time>
      </trkpt>
      <trkpt lat="59.337021" lon="18.080521">
        <ele>11</ele>
        <time>2019-11-15T16:55:05Z</time>
      </trkpt>
      <trkpt lat="59.337039" lon="18.080523">
        <ele>11</ele>
        <time>2019-11-15T16:55:09Z</time>
      </trkpt>
      <trkpt lat="59.337043" lon="18.080543">
        <ele>0</ele>
        <time>2019-11-15T16:55:11Z</time>
      </trkpt>
      <trkpt lat="59.337094" lon="18.08064">
        <ele>14</ele>
        <time>2019-11-15T16:55:15Z</time>
      </trkpt>
      <trkpt lat="59.337127" lon="18.080688">
        <ele>15</ele>
        <time>2019-11-15T16:55:16Z</time>
      </trkpt>
      <trkpt lat="59.337169" lon="18.080735">
        <ele>14</ele>
        <time>2019-11-15T16:55:17Z</time>
      </trkpt>
      <trkpt lat="59.337214" lon="18.080778">
        <ele>14</ele>
        <time>2019-11-15T16:55:18Z</time>
      </trkpt>
      <trkpt lat="59.337265" lon="18.080826">
        <ele>14</ele>
        <time>2019-11-15T16:55:19Z</time>
      </trkpt>
      <trkpt lat="59.33732" lon="18.080868">
        <ele>14</ele>
        <time>2019-11-15T16:55:20Z</time>
      </trkpt>
      <trkpt lat="59.337377" lon="18.080907">
        <ele>14</ele>
        <time>2019-11-15T16:55:21Z</time>
      </trkpt>
      <trkpt lat="59.337433" lon="18.080952">
        <ele>14</ele>
        <time>2019-11-15T16:55:22Z</time>
      </trkpt>
      <trkpt lat="59.337492" lon="18.080998">
        <ele>14</ele>
        <time>2019-11-15T16:55:23Z</time>
      </trkpt>
      <trkpt lat="59.33755" lon="18.081033">
        <ele>14</ele>
        <time>2019-11-15T16:55:24Z</time>
      </trkpt>
      <trkpt lat="59.337607" lon="18.081061">
        <ele>14</ele>
        <time>2019-11-15T16:55:25Z</time>
      </trkpt>
      <trkpt lat="59.337663" lon="18.081103">
        <ele>14</ele>
        <time>2019-11-15T16:55:26Z</time>
      </trkpt>
      <trkpt lat="59.33772" lon="18.081147">
        <ele>14</ele>
        <time>2019-11-15T16:55:27Z</time>
      </trkpt>
      <trkpt lat="59.337775" lon="18.081189">
        <ele>14</ele>
        <time>2019-11-15T16:55:28Z</time>
      </trkpt>
      <trkpt lat="59.337831" lon="18.081233">
        <ele>14</ele>
        <time>2019-11-15T16:55:29Z</time>
      </trkpt>
      <trkpt lat="59.337886" lon="18.081281">
        <ele>14</ele>
        <time>2019-11-15T16:55:30Z</time>
      </trkpt>
      <trkpt lat="59.33794" lon="18.08133">
        <ele>14</ele>
        <time>2019-11-15T16:55:31Z</time>
      </trkpt>
      <trkpt lat="59.337996" lon="18.081368">
        <ele>14</ele>
        <time>2019-11-15T16:55:32Z</time>
      </trkpt>
      <trkpt lat="59.33805" lon="18.081399">
        <ele>14</ele>
        <time>2019-11-15T16:55:33Z</time>
      </trkpt>
      <trkpt lat="59.338104" lon="18.081438">
        <ele>14</ele>
        <time>2019-11-15T16:55:34Z</time>
      </trkpt>
      <trkpt lat="59.338161" lon="18.081483">
        <ele>14</ele>
        <time>2019-11-15T16:55:35Z</time>
      </trkpt>
      <trkpt lat="59.338215" lon="18.081552">
        <ele>15</ele>
        <time>2019-11-15T16:55:36Z</time>
      </trkpt>
      <trkpt lat="59.338265" lon="18.081621">
        <ele>15</ele>
        <time>2019-11-15T16:55:37Z</time>
      </trkpt>
      <trkpt lat="59.338313" lon="18.081688">
        <ele>15</ele>
        <time>2019-11-15T16:55:38Z</time>
      </trkpt>
      <trkpt lat="59.338364" lon="18.081734">
        <ele>15</ele>
        <time>2019-11-15T16:55:39Z</time>
      </trkpt>
      <trkpt lat="59.338415" lon="18.081782">
        <ele>15</ele>
        <time>2019-11-15T16:55:40Z</time>
      </trkpt>
      <trkpt lat="59.338467" lon="18.081822">
        <ele>15</ele>
        <time>2019-11-15T16:55:41Z</time>
      </trkpt>
      <trkpt lat="59.338518" lon="18.081864">
        <ele>15</ele>
        <time>2019-11-15T16:55:42Z</time>
      </trkpt>
      <trkpt lat="59.33857" lon="18.081905">
        <ele>15</ele>
        <time>2019-11-15T16:55:43Z</time>
      </trkpt>
      <trkpt lat="59.338621" lon="18.081944">
        <ele>15</ele>
        <time>2019-11-15T16:55:44Z</time>
      </trkpt>
      <trkpt lat="59.33867" lon="18.081985">
        <ele>15</ele>
        <time>2019-11-15T16:55:45Z</time>
      </trkpt>
      <trkpt lat="59.338721" lon="18.082029">
        <ele>14</ele>
        <time>2019-11-15T16:55:46Z</time>
      </trkpt>
      <trkpt lat="59.338774" lon="18.082068">
        <ele>14</ele>
        <time>2019-11-15T16:55:47Z</time>
      </trkpt>
      <trkpt lat="59.338825" lon="18.082103">
        <ele>14</ele>
        <time>2019-11-15T16:55:48Z</time>
      </trkpt>
      <trkpt lat="59.338873" lon="18.082135">
        <ele>13</ele>
        <time>2019-11-15T16:55:49Z</time>
      </trkpt>
      <trkpt lat="59.338918" lon="18.082163">
        <ele>13</ele>
        <time>2019-11-15T16:55:50Z</time>
      </trkpt>
      <trkpt lat="59.338958" lon="18.082182">
        <ele>13</ele>
        <time>2019-11-15T16:55:51Z</time>
      </trkpt>
      <trkpt lat="59.338992" lon="18.082196">
        <ele>13</ele>
        <time>2019-11-15T16:55:52Z</time>
      </trkpt>
      <trkpt lat="59.339021" lon="18.082202">
        <ele>13</ele>
        <time>2019-11-15T16:55:53Z</time>
      </trkpt>
      <trkpt lat="59.339044" lon="18.08221">
        <ele>13</ele>
        <time>2019-11-15T16:55:54Z</time>
      </trkpt>
      <trkpt lat="59.339074" lon="18.082255">
        <ele>14</ele>
        <time>2019-11-15T16:55:56Z</time>
      </trkpt>
      <trkpt lat="59.33909" lon="18.082306">
        <ele>14</ele>
        <time>2019-11-15T16:55:57Z</time>
      </trkpt>
      <trkpt lat="59.33911" lon="18.08237">
        <ele>15</ele>
        <time>2019-11-15T16:55:58Z</time>
      </trkpt>
      <trkpt lat="59.339141" lon="18.082426">
        <ele>15</ele>
        <time>2019-11-15T16:55:59Z</time>
      </trkpt>
      <trkpt lat="59.339179" lon="18.082472">
        <ele>15</ele>
        <time>2019-11-15T16:56:00Z</time>
      </trkpt>
      <trkpt lat="59.339216" lon="18.082513">
        <ele>15</ele>
        <time>2019-11-15T16:56:01Z</time>
      </trkpt>
      <trkpt lat="59.33925" lon="18.082552">
        <ele>16</ele>
        <time>2019-11-15T16:56:02Z</time>
      </trkpt>
      <trkpt lat="59.339282" lon="18.082585">
        <ele>16</ele>
        <time>2019-11-15T16:56:03Z</time>
      </trkpt>
      <trkpt lat="59.339315" lon="18.082611">
        <ele>16</ele>
        <time>2019-11-15T16:56:04Z</time>
      </trkpt>
      <trkpt lat="59.339341" lon="18.082636">
        <ele>16</ele>
        <time>2019-11-15T16:56:05Z</time>
      </trkpt>
      <trkpt lat="59.339358" lon="18.082657">
        <ele>16</ele>
        <time>2019-11-15T16:56:06Z</time>
      </trkpt>
      <trkpt lat="59.339382" lon="18.082692">
        <ele>16</ele>
        <time>2019-11-15T16:56:08Z</time>
      </trkpt>
      <trkpt lat="59.339413" lon="18.082716">
        <ele>16</ele>
        <time>2019-11-15T16:56:10Z</time>
      </trkpt>
      <trkpt lat="59.339433" lon="18.082726">
        <ele>16</ele>
        <time>2019-11-15T16:56:11Z</time>
      </trkpt>
      <trkpt lat="59.339458" lon="18.082739">
        <ele>16</ele>
        <time>2019-11-15T16:56:12Z</time>
      </trkpt>
      <trkpt lat="59.339492" lon="18.082763">
        <ele>16</ele>
        <time>2019-11-15T16:56:13Z</time>
      </trkpt>
      <trkpt lat="59.339532" lon="18.082794">
        <ele>16</ele>
        <time>2019-11-15T16:56:14Z</time>
      </trkpt>
      <trkpt lat="59.339576" lon="18.082828">
        <ele>16</ele>
        <time>2019-11-15T16:56:15Z</time>
      </trkpt>
      <trkpt lat="59.339621" lon="18.082861">
        <ele>16</ele>
        <time>2019-11-15T16:56:16Z</time>
      </trkpt>
      <trkpt lat="59.339667" lon="18.082893">
        <ele>16</ele>
        <time>2019-11-15T16:56:17Z</time>
      </trkpt>
      <trkpt lat="59.339715" lon="18.082927">
        <ele>16</ele>
        <time>2019-11-15T16:56:18Z</time>
      </trkpt>
      <trkpt lat="59.339764" lon="18.082956">
        <ele>16</ele>
        <time>2019-11-15T16:56:19Z</time>
      </trkpt>
      <trkpt lat="59.339811" lon="18.082997">
        <ele>16</ele>
        <time>2019-11-15T16:56:20Z</time>
      </trkpt>
      <trkpt lat="59.339859" lon="18.083034">
        <ele>16</ele>
        <time>2019-11-15T16:56:21Z</time>
      </trkpt>
      <trkpt lat="59.339906" lon="18.083073">
        <ele>16</ele>
        <time>2019-11-15T16:56:22Z</time>
      </trkpt>
      <trkpt lat="59.339953" lon="18.083112">
        <ele>16</ele>
        <time>2019-11-15T16:56:23Z</time>
      </trkpt>
      <trkpt lat="59.339998" lon="18.083153">
        <ele>16</ele>
        <time>2019-11-15T16:56:24Z</time>
      </trkpt>
      <trkpt lat="59.340044" lon="18.08319">
        <ele>16</ele>
        <time>2019-11-15T16:56:25Z</time>
      </trkpt>
      <trkpt lat="59.340091" lon="18.083225">
        <ele>16</ele>
        <time>2019-11-15T16:56:26Z</time>
      </trkpt>
      <trkpt lat="59.34014" lon="18.083257">
        <ele>16</ele>
        <time>2019-11-15T16:56:27Z</time>
      </trkpt>
      <trkpt lat="59.340189" lon="18.083286">
        <ele>16</ele>
        <time>2019-11-15T16:56:28Z</time>
      </trkpt>
      <trkpt lat="59.340238" lon="18.083315">
        <ele>16</ele>
        <time>2019-11-15T16:56:29Z</time>
      </trkpt>
      <trkpt lat="59.340287" lon="18.083345">
        <ele>16</ele>
        <time>2019-11-15T16:56:30Z</time>
      </trkpt>
      <trkpt lat="59.340333" lon="18.083379">
        <ele>16</ele>
        <time>2019-11-15T16:56:31Z</time>
      </trkpt>
      <trkpt lat="59.34038" lon="18.083409">
        <ele>16</ele>
        <time>2019-11-15T16:56:32Z</time>
      </trkpt>
      <trkpt lat="59.340425" lon="18.08344">
        <ele>16</ele>
        <time>2019-11-15T16:56:33Z</time>
      </trkpt>
      <trkpt lat="59.340467" lon="18.083473">
        <ele>16</ele>
        <time>2019-11-15T16:56:34Z</time>
      </trkpt>
      <trkpt lat="59.340507" lon="18.083508">
        <ele>16</ele>
        <time>2019-11-15T16:56:35Z</time>
      </trkpt>
      <trkpt lat="59.340546" lon="18.083543">
        <ele>16</ele>
        <time>2019-11-15T16:56:36Z</time>
      </trkpt>
      <trkpt lat="59.340583" lon="18.083582">
        <ele>16</ele>
        <time>2019-11-15T16:56:37Z</time>
      </trkpt>
      <trkpt lat="59.340611" lon="18.08365">
        <ele>17</ele>
        <time>2019-11-15T16:56:38Z</time>
      </trkpt>
      <trkpt lat="59.340622" lon="18.083742">
        <ele>17</ele>
        <time>2019-11-15T16:56:39Z</time>
      </trkpt>
      <trkpt lat="59.340616" lon="18.083829">
        <ele>18</ele>
        <time>2019-11-15T16:56:40Z</time>
      </trkpt>
      <trkpt lat="59.340603" lon="18.083913">
        <ele>19</ele>
        <time>2019-11-15T16:56:41Z</time>
      </trkpt>
      <trkpt lat="59.340593" lon="18.083998">
        <ele>19</ele>
        <time>2019-11-15T16:56:42Z</time>
      </trkpt>
      <trkpt lat="59.340582" lon="18.084079">
        <ele>19</ele>
        <time>2019-11-15T16:56:43Z</time>
      </trkpt>
      <trkpt lat="59.340569" lon="18.084159">
        <ele>20</ele>
        <time>2019-11-15T16:56:44Z</time>
      </trkpt>
      <trkpt lat="59.340559" lon="18.084243">
        <ele>21</ele>
        <time>2019-11-15T16:56:45Z</time>
      </trkpt>
      <trkpt lat="59.340551" lon="18.084328">
        <ele>21</ele>
        <time>2019-11-15T16:56:46Z</time>
      </trkpt>
      <trkpt lat="59.340541" lon="18.084413">
        <ele>21</ele>
        <time>2019-11-15T16:56:47Z</time>
      </trkpt>
      <trkpt lat="59.340528" lon="18.0845">
        <ele>21</ele>
        <time>2019-11-15T16:56:48Z</time>
      </trkpt>
      <trkpt lat="59.340511" lon="18.084587">
        <ele>22</ele>
        <time>2019-11-15T16:56:49Z</time>
      </trkpt>
      <trkpt lat="59.340497" lon="18.084669">
        <ele>22</ele>
        <time>2019-11-15T16:56:50Z</time>
      </trkpt>
      <trkpt lat="59.340499" lon="18.084751">
        <ele>22</ele>
        <time>2019-11-15T16:56:51Z</time>
      </trkpt>
      <trkpt lat="59.340504" lon="18.084827">
        <ele>22</ele>
        <time>2019-11-15T16:56:52Z</time>
      </trkpt>
      <trkpt lat="59.340505" lon="18.084899">
        <ele>22</ele>
        <time>2019-11-15T16:56:53Z</time>
      </trkpt>
      <trkpt lat="59.3405" lon="18.084958">
        <ele>22</ele>
        <time>2019-11-15T16:56:54Z</time>
      </trkpt>
      <trkpt lat="59.340491" lon="18.085009">
        <ele>23</ele>
        <time>2019-11-15T16:56:55Z</time>
      </trkpt>
      <trkpt lat="59.340483" lon="18.085059">
        <ele>23</ele>
        <time>2019-11-15T16:56:56Z</time>
      </trkpt>
      <trkpt lat="59.340471" lon="18.0851">
        <ele>23</ele>
        <time>2019-11-15T16:56:57Z</time>
      </trkpt>
      <trkpt lat="59.340458" lon="18.085143">
        <ele>0</ele>
        <time>2019-11-15T16:56:59Z</time>
      </trkpt>
    </trkseg>
  </trk>
</gpx>